<?xml version='1.0' encoding='UTF-8'?><gpx version="1.1" creator="JPX - https://github.com/jenetics/jpx" xmlns="http://www.topografix.com/GPX/1/1"><trk><trkseg><trkpt lat="47.2857781069532" lon="-2.468508283639426"><ele>0.0</ele><time>2026-03-22T15:18:18.998Z</time></trkpt><trkpt lat="47.28583839507847" lon="-2.4684496177264297"><ele>0.0</ele><time>2026-03-22T15:18:19.998Z</time></trkpt><trkpt lat="47.28590616849164" lon="-2.4683693850889714"><ele>0.0</ele><time>2026-03-22T15:18:20.998Z</time></trkpt><trkpt lat="47.28597147174484" lon="-2.468280295605615"><ele>0.0</ele><time>2026-03-22T15:18:21.998Z</time></trkpt><trkpt lat="47.28604068159229" lon="-2.4682006905740375"><ele>0.0</ele><time>2026-03-22T15:18:22.998Z</time></trkpt><trkpt lat="47.286196770705935" lon="-2.467963686984841"><ele>0.0</ele><time>2026-03-22T15:18:24.998Z</time></trkpt><trkpt lat="47.286267187302066" lon="-2.467861822726207"><ele>0.0</ele><time>2026-03-22T15:18:25.998Z</time></trkpt><trkpt lat="47.286330363013576" lon="-2.4677776352962684"><ele>0.0</ele><time>2026-03-22T15:18:26.998Z</time></trkpt><trkpt lat="47.28640147122788" lon="-2.46769626244275"><ele>0.0</ele><time>2026-03-22T15:18:27.998Z</time></trkpt><trkpt lat="47.28647156049607" lon="-2.4675954186961437"><ele>0.0</ele><time>2026-03-22T15:18:28.998Z</time></trkpt><trkpt lat="47.286536647931996" lon="-2.4674924121892627"><ele>0.0</ele><time>2026-03-22T15:18:29.998Z</time></trkpt><trkpt lat="47.28660904561549" lon="-2.467408013462601"><ele>0.0</ele><time>2026-03-22T15:18:30.998Z</time></trkpt><trkpt lat="47.28669752248608" lon="-2.467301381146745"><ele>0.0</ele><time>2026-03-22T15:18:31.998Z</time></trkpt><trkpt lat="47.2867845585253" lon="-2.4672124311745405"><ele>0.0</ele><time>2026-03-22T15:18:32.998Z</time></trkpt><trkpt lat="47.28687823922104" lon="-2.4671238450737096"><ele>0.0</ele><time>2026-03-22T15:18:33.998Z</time></trkpt><trkpt lat="47.2869526675678" lon="-2.4670872155801917"><ele>0.0</ele><time>2026-03-22T15:18:34.998Z</time></trkpt><trkpt lat="47.28702937373471" lon="-2.4670734687688887"><ele>0.0</ele><time>2026-03-22T15:18:35.999Z</time></trkpt><trkpt lat="47.28709449774442" lon="-2.467090033863617"><ele>0.0</ele><time>2026-03-22T15:18:36.999Z</time></trkpt><trkpt lat="47.28718241523847" lon="-2.4670417008971754"><ele>0.0</ele><time>2026-03-22T15:18:37.999Z</time></trkpt><trkpt lat="47.28725494352187" lon="-2.4670074514348235"><ele>0.0</ele><time>2026-03-22T15:18:38.999Z</time></trkpt><trkpt lat="47.28732146948621" lon="-2.4670001430955217"><ele>0.0</ele><time>2026-03-22T15:18:39.999Z</time></trkpt><trkpt lat="47.28740367627034" lon="-2.466961249829333"><ele>0.0</ele><time>2026-03-22T15:18:40.999Z</time></trkpt><trkpt lat="47.2874825714123" lon="-2.466907099831567"><ele>0.0</ele><time>2026-03-22T15:18:41.999Z</time></trkpt><trkpt lat="47.28754584722531" lon="-2.4668923669126306"><ele>0.0</ele><time>2026-03-22T15:18:42.999Z</time></trkpt><trkpt lat="47.2876141193893" lon="-2.4668533683218534"><ele>0.0</ele><time>2026-03-22T15:18:43.999Z</time></trkpt><trkpt lat="47.28778994448475" lon="-2.466704936157504"><ele>0.0</ele><time>2026-03-22T15:18:46.999Z</time></trkpt><trkpt lat="47.28784349709672" lon="-2.4666331128327617"><ele>0.0</ele><time>2026-03-22T15:18:47.999Z</time></trkpt><trkpt lat="47.28788701682926" lon="-2.4665533626715"><ele>0.0</ele><time>2026-03-22T15:18:48.999Z</time></trkpt><trkpt lat="47.28792382875066" lon="-2.466456764817562"><ele>0.0</ele><time>2026-03-22T15:18:49.999Z</time></trkpt><trkpt lat="47.28794845756685" lon="-2.4663189008047004"><ele>0.0</ele><time>2026-03-22T15:18:51.999Z</time></trkpt><trkpt lat="47.28797762875132" lon="-2.4662266724377226"><ele>0.0</ele><time>2026-03-22T15:18:52.999Z</time></trkpt><trkpt lat="47.28799807549177" lon="-2.466131627714043"><ele>0.0</ele><time>2026-03-22T15:18:53.999Z</time></trkpt><trkpt lat="47.288040278041535" lon="-2.4660278602796697"><ele>0.0</ele><time>2026-03-22T15:18:54.999Z</time></trkpt><trkpt lat="47.28808667971004" lon="-2.4659535508118733"><ele>0.0</ele><time>2026-03-22T15:18:55.999Z</time></trkpt><trkpt lat="47.288183100827645" lon="-2.4658471680766363"><ele>0.0</ele><time>2026-03-22T15:18:57.999Z</time></trkpt><trkpt lat="47.28823712027157" lon="-2.465787199441028"><ele>0.0</ele><time>2026-03-22T15:18:58.999Z</time></trkpt><trkpt lat="47.288344480731965" lon="-2.4657038023826763"><ele>0.0</ele><time>2026-03-22T15:19:00.999Z</time></trkpt><trkpt lat="47.28841646744546" lon="-2.4656570704171807"><ele>0.0</ele><time>2026-03-22T15:19:01.999Z</time></trkpt><trkpt lat="47.288490817646306" lon="-2.4656083288350716"><ele>0.0</ele><time>2026-03-22T15:19:02.999Z</time></trkpt><trkpt lat="47.288562381754375" lon="-2.465557122119426"><ele>0.0</ele><time>2026-03-22T15:19:03.999Z</time></trkpt><trkpt lat="47.28863177893214" lon="-2.465507697376602"><ele>0.0</ele><time>2026-03-22T15:19:04.999Z</time></trkpt><trkpt lat="47.28876507237342" lon="-2.465401424524855"><ele>0.0</ele><time>2026-03-22T15:19:06.999Z</time></trkpt><trkpt lat="47.28882738665346" lon="-2.465365987671134"><ele>0.0</ele><time>2026-03-22T15:19:07.999Z</time></trkpt><trkpt lat="47.28888637273256" lon="-2.4653317323525026"><ele>0.0</ele><time>2026-03-22T15:19:08.999Z</time></trkpt><trkpt lat="47.28897936626413" lon="-2.4652432046635204"><ele>0.0</ele><time>2026-03-22T15:19:10.999Z</time></trkpt><trkpt lat="47.28905443772055" lon="-2.465177681773809"><ele>0.0</ele><time>2026-03-22T15:19:12.999Z</time></trkpt><trkpt lat="47.28913528282618" lon="-2.4650707563085006"><ele>0.0</ele><time>2026-03-22T15:19:48Z</time></trkpt><trkpt lat="47.2892045723959" lon="-2.4650673597402304"><ele>0.0</ele><time>2026-03-22T15:21:15Z</time></trkpt><trkpt lat="47.28932660861264" lon="-2.465009826774412"><ele>0.0</ele><time>2026-03-22T15:21:17Z</time></trkpt><trkpt lat="47.289410581059805" lon="-2.464942935049201"><ele>0.0</ele><time>2026-03-22T15:21:18Z</time></trkpt><trkpt lat="47.28953504677569" lon="-2.4649058316451593"><ele>0.0</ele><time>2026-03-22T15:21:19Z</time></trkpt><trkpt lat="47.28965485383438" lon="-2.46487220142244"><ele>0.0</ele><time>2026-03-22T15:21:20Z</time></trkpt><trkpt lat="47.28978043768901" lon="-2.4648391066362807"><ele>0.0</ele><time>2026-03-22T15:21:21Z</time></trkpt><trkpt lat="47.289912776279046" lon="-2.464806014933714"><ele>0.0</ele><time>2026-03-22T15:21:22Z</time></trkpt><trkpt lat="47.2900431484034" lon="-2.4647734149228313"><ele>0.0</ele><time>2026-03-22T15:21:23Z</time></trkpt><trkpt lat="47.29017355277075" lon="-2.4647408069043517"><ele>0.0</ele><time>2026-03-22T15:21:24Z</time></trkpt><trkpt lat="47.290305771816264" lon="-2.4647097931885833"><ele>0.0</ele><time>2026-03-22T15:21:25Z</time></trkpt><trkpt lat="47.2904413825687" lon="-2.4647028556848016"><ele>0.0</ele><time>2026-03-22T15:21:26Z</time></trkpt><trkpt lat="47.29058198742039" lon="-2.464666150983926"><ele>0.0</ele><time>2026-03-22T15:21:27Z</time></trkpt><trkpt lat="47.29072525024581" lon="-2.4646080769998187"><ele>0.0</ele><time>2026-03-22T15:21:28Z</time></trkpt><trkpt lat="47.290879191114456" lon="-2.464575943628437"><ele>0.0</ele><time>2026-03-22T15:21:29Z</time></trkpt><trkpt lat="47.29102316720253" lon="-2.464562452933822"><ele>0.0</ele><time>2026-03-22T15:21:30Z</time></trkpt><trkpt lat="47.29116674849017" lon="-2.4645660405865852"><ele>0.0</ele><time>2026-03-22T15:21:31Z</time></trkpt><trkpt lat="47.291316341204805" lon="-2.464592443776301"><ele>0.0</ele><time>2026-03-22T15:21:32Z</time></trkpt><trkpt lat="47.29145694708529" lon="-2.464643064696218"><ele>0.0</ele><time>2026-03-22T15:21:33Z</time></trkpt><trkpt lat="47.29157606098601" lon="-2.4647234364170956"><ele>0.0</ele><time>2026-03-22T15:21:34Z</time></trkpt><trkpt lat="47.29169009163238" lon="-2.464787492427121"><ele>0.0</ele><time>2026-03-22T15:21:35Z</time></trkpt><trkpt lat="47.29180254254158" lon="-2.464868614621975"><ele>0.0</ele><time>2026-03-22T15:21:36Z</time></trkpt><trkpt lat="47.29191661365329" lon="-2.4649692165119257"><ele>0.0</ele><time>2026-03-22T15:21:37Z</time></trkpt><trkpt lat="47.2920315463537" lon="-2.465077238535863"><ele>0.0</ele><time>2026-03-22T15:21:38Z</time></trkpt><trkpt lat="47.29213993589877" lon="-2.465181178818936"><ele>0.0</ele><time>2026-03-22T15:21:39Z</time></trkpt><trkpt lat="47.292242268283594" lon="-2.4652887532229344"><ele>0.0</ele><time>2026-03-22T15:21:40Z</time></trkpt><trkpt lat="47.2923548712088" lon="-2.465395803963881"><ele>0.0</ele><time>2026-03-22T15:21:41Z</time></trkpt><trkpt lat="47.292425265906225" lon="-2.46556788551071"><ele>0.0</ele><time>2026-03-22T15:21:42Z</time></trkpt><trkpt lat="47.292496089948756" lon="-2.465736817505579"><ele>0.0</ele><time>2026-03-22T15:21:43Z</time></trkpt><trkpt lat="47.29250956039963" lon="-2.4659423132125826"><ele>0.0</ele><time>2026-03-22T15:21:44Z</time></trkpt><trkpt lat="47.29254665835423" lon="-2.4661108658328987"><ele>0.0</ele><time>2026-03-22T15:21:45Z</time></trkpt><trkpt lat="47.2925697920301" lon="-2.466265517051157"><ele>0.0</ele><time>2026-03-22T15:21:46Z</time></trkpt><trkpt lat="47.29261034802455" lon="-2.466409360772822"><ele>0.0</ele><time>2026-03-22T15:21:47Z</time></trkpt><trkpt lat="47.29266652065117" lon="-2.466545725623767"><ele>0.0</ele><time>2026-03-22T15:21:48Z</time></trkpt><trkpt lat="47.29274537006057" lon="-2.4666599298917284"><ele>0.0</ele><time>2026-03-22T15:21:49Z</time></trkpt><trkpt lat="47.292848507302715" lon="-2.4667349624104147"><ele>0.0</ele><time>2026-03-22T15:21:50Z</time></trkpt><trkpt lat="47.292974840369105" lon="-2.4668056452580283"><ele>0.0</ele><time>2026-03-22T15:21:51Z</time></trkpt><trkpt lat="47.2931145991619" lon="-2.4668792596763773"><ele>0.0</ele><time>2026-03-22T15:21:52Z</time></trkpt><trkpt lat="47.293256548194705" lon="-2.4669524586912335"><ele>0.0</ele><time>2026-03-22T15:21:53Z</time></trkpt><trkpt lat="47.29339612916746" lon="-2.467024436488962"><ele>0.0</ele><time>2026-03-22T15:21:54Z</time></trkpt><trkpt lat="47.29351915822473" lon="-2.4671058442985774"><ele>0.0</ele><time>2026-03-22T15:21:55Z</time></trkpt><trkpt lat="47.293640833337896" lon="-2.467163342223758"><ele>0.0</ele><time>2026-03-22T15:21:56Z</time></trkpt><trkpt lat="47.293760123287775" lon="-2.4671989869766637"><ele>0.0</ele><time>2026-03-22T15:21:57Z</time></trkpt><trkpt lat="47.293876461742535" lon="-2.4671994955864642"><ele>0.0</ele><time>2026-03-22T15:21:58Z</time></trkpt><trkpt lat="47.29399040337704" lon="-2.467178322351341"><ele>0.0</ele><time>2026-03-22T15:21:59Z</time></trkpt><trkpt lat="47.294092795341356" lon="-2.4671549080645443"><ele>0.0</ele><time>2026-03-22T15:22:00Z</time></trkpt><trkpt lat="47.294195329135384" lon="-2.467150427454183"><ele>0.0</ele><time>2026-03-22T15:22:01Z</time></trkpt><trkpt lat="47.29430541137941" lon="-2.467180210944711"><ele>0.0</ele><time>2026-03-22T15:22:02Z</time></trkpt><trkpt lat="47.29442674992487" lon="-2.467263293998942"><ele>0.0</ele><time>2026-03-22T15:22:03Z</time></trkpt><trkpt lat="47.294541026160495" lon="-2.4673698847782504"><ele>0.0</ele><time>2026-03-22T15:22:04Z</time></trkpt><trkpt lat="47.29465284758034" lon="-2.467436605268078"><ele>0.0</ele><time>2026-03-22T15:22:05Z</time></trkpt><trkpt lat="47.29476707298966" lon="-2.4674745839232077"><ele>0.0</ele><time>2026-03-22T15:22:06Z</time></trkpt><trkpt lat="47.294885855547534" lon="-2.467440380952067"><ele>0.0</ele><time>2026-03-22T15:22:07Z</time></trkpt><trkpt lat="47.29502270541623" lon="-2.4673895619984445"><ele>0.0</ele><time>2026-03-22T15:22:08Z</time></trkpt><trkpt lat="47.295178416235686" lon="-2.4673482109404477"><ele>0.0</ele><time>2026-03-22T15:22:09Z</time></trkpt><trkpt lat="47.29533888655625" lon="-2.4672933075980747"><ele>0.0</ele><time>2026-03-22T15:22:10Z</time></trkpt><trkpt lat="47.29549722686326" lon="-2.467212867215691"><ele>0.0</ele><time>2026-03-22T15:22:11Z</time></trkpt><trkpt lat="47.29565200189601" lon="-2.467164955387218"><ele>0.0</ele><time>2026-03-22T15:22:12Z</time></trkpt><trkpt lat="47.295795712750895" lon="-2.467069179194144"><ele>0.0</ele><time>2026-03-22T15:22:13Z</time></trkpt><trkpt lat="47.29592621094281" lon="-2.466933102377322"><ele>0.0</ele><time>2026-03-22T15:22:14Z</time></trkpt><trkpt lat="47.29605642623467" lon="-2.466814877193794"><ele>0.0</ele><time>2026-03-22T15:22:15Z</time></trkpt><trkpt lat="47.296175819360094" lon="-2.466709146847553"><ele>0.0</ele><time>2026-03-22T15:22:16Z</time></trkpt><trkpt lat="47.29630078125498" lon="-2.46659849681114"><ele>0.0</ele><time>2026-03-22T15:22:17Z</time></trkpt><trkpt lat="47.29643398493758" lon="-2.466480734893287"><ele>0.0</ele><time>2026-03-22T15:22:18Z</time></trkpt><trkpt lat="47.296572422091415" lon="-2.4663583461627914"><ele>0.0</ele><time>2026-03-22T15:22:19Z</time></trkpt><trkpt lat="47.296701742796806" lon="-2.466244017073256"><ele>0.0</ele><time>2026-03-22T15:22:20Z</time></trkpt><trkpt lat="47.29682465155679" lon="-2.4661629072542683"><ele>0.0</ele><time>2026-03-22T15:22:21Z</time></trkpt><trkpt lat="47.29693190974915" lon="-2.4660659636908298"><ele>0.0</ele><time>2026-03-22T15:22:22Z</time></trkpt><trkpt lat="47.29703652326668" lon="-2.4659704854329596"><ele>0.0</ele><time>2026-03-22T15:22:23Z</time></trkpt><trkpt lat="47.297131030904616" lon="-2.465863717510537"><ele>0.0</ele><time>2026-03-22T15:22:24Z</time></trkpt><trkpt lat="47.2972296057742" lon="-2.4657787081106366"><ele>0.0</ele><time>2026-03-22T15:22:25Z</time></trkpt><trkpt lat="47.297338002752966" lon="-2.4657064353308944"><ele>0.0</ele><time>2026-03-22T15:22:26Z</time></trkpt><trkpt lat="47.29745474517552" lon="-2.4656805462954012"><ele>0.0</ele><time>2026-03-22T15:22:27Z</time></trkpt><trkpt lat="47.29758007735742" lon="-2.4657211565908765"><ele>0.0</ele><time>2026-03-22T15:22:28Z</time></trkpt><trkpt lat="47.297697331906285" lon="-2.4658172263860174"><ele>0.0</ele><time>2026-03-22T15:22:29Z</time></trkpt><trkpt lat="47.29780543980519" lon="-2.465917338980585"><ele>0.0</ele><time>2026-03-22T15:22:30Z</time></trkpt><trkpt lat="47.297913163505115" lon="-2.466009716522607"><ele>0.0</ele><time>2026-03-22T15:22:31Z</time></trkpt><trkpt lat="47.29802075975667" lon="-2.4660841872563006"><ele>0.0</ele><time>2026-03-22T15:22:32Z</time></trkpt><trkpt lat="47.29814736580675" lon="-2.466105860799191"><ele>0.0</ele><time>2026-03-22T15:22:33Z</time></trkpt><trkpt lat="47.298275873273006" lon="-2.4660527565578803"><ele>0.0</ele><time>2026-03-22T15:22:34Z</time></trkpt><trkpt lat="47.29841443490731" lon="-2.4660364019849843"><ele>0.0</ele><time>2026-03-22T15:22:35Z</time></trkpt><trkpt lat="47.29855706879049" lon="-2.465983199850517"><ele>0.0</ele><time>2026-03-22T15:22:36Z</time></trkpt><trkpt lat="47.298706347016676" lon="-2.4659333166567"><ele>0.0</ele><time>2026-03-22T15:22:37Z</time></trkpt><trkpt lat="47.29885633585621" lon="-2.465886450523593"><ele>0.0</ele><time>2026-03-22T15:22:38Z</time></trkpt><trkpt lat="47.299005110498264" lon="-2.4658427703626304"><ele>0.0</ele><time>2026-03-22T15:22:39Z</time></trkpt><trkpt lat="47.299144657092356" lon="-2.465797730232164"><ele>0.0</ele><time>2026-03-22T15:22:40Z</time></trkpt><trkpt lat="47.2992721974005" lon="-2.4657516277011062"><ele>0.0</ele><time>2026-03-22T15:22:41Z</time></trkpt><trkpt lat="47.299398782133565" lon="-2.4657066957669773"><ele>0.0</ele><time>2026-03-22T15:22:42Z</time></trkpt><trkpt lat="47.29952066910396" lon="-2.465652142082734"><ele>0.0</ele><time>2026-03-22T15:22:43Z</time></trkpt><trkpt lat="47.29963049594092" lon="-2.4655772016300364"><ele>0.0</ele><time>2026-03-22T15:22:44Z</time></trkpt><trkpt lat="47.29972560864924" lon="-2.465467086195923"><ele>0.0</ele><time>2026-03-22T15:22:45Z</time></trkpt><trkpt lat="47.29979790997529" lon="-2.46534060556581"><ele>0.0</ele><time>2026-03-22T15:22:46Z</time></trkpt><trkpt lat="47.299860212895815" lon="-2.465222526452247"><ele>0.0</ele><time>2026-03-22T15:22:47Z</time></trkpt><trkpt lat="47.299926344777816" lon="-2.4651292085308567"><ele>0.0</ele><time>2026-03-22T15:22:48Z</time></trkpt><trkpt lat="47.29999131179657" lon="-2.465071522430023"><ele>0.0</ele><time>2026-03-22T15:22:49Z</time></trkpt><trkpt lat="47.300072506088995" lon="-2.4650447249554683"><ele>0.0</ele><time>2026-03-22T15:22:50Z</time></trkpt><trkpt lat="47.300167958404664" lon="-2.465063403296666"><ele>0.0</ele><time>2026-03-22T15:22:51Z</time></trkpt><trkpt lat="47.300277464052016" lon="-2.465103292544978"><ele>0.0</ele><time>2026-03-22T15:22:52Z</time></trkpt><trkpt lat="47.300385123121735" lon="-2.465185548776629"><ele>0.0</ele><time>2026-03-22T15:22:53Z</time></trkpt><trkpt lat="47.30049135097559" lon="-2.465266200046786"><ele>0.0</ele><time>2026-03-22T15:22:54Z</time></trkpt><trkpt lat="47.30060174433089" lon="-2.465337022721427"><ele>0.0</ele><time>2026-03-22T15:22:55Z</time></trkpt><trkpt lat="47.300722100359174" lon="-2.4653777714031544"><ele>0.0</ele><time>2026-03-22T15:22:56Z</time></trkpt><trkpt lat="47.30085508602346" lon="-2.4653812549934266"><ele>0.0</ele><time>2026-03-22T15:22:57Z</time></trkpt><trkpt lat="47.300995789568624" lon="-2.4653486544769225"><ele>0.0</ele><time>2026-03-22T15:22:58Z</time></trkpt><trkpt lat="47.30114294331262" lon="-2.4653110128897326"><ele>0.0</ele><time>2026-03-22T15:22:59Z</time></trkpt><trkpt lat="47.301294049539095" lon="-2.46527236257136"><ele>0.0</ele><time>2026-03-22T15:23:00Z</time></trkpt><trkpt lat="47.30144919560789" lon="-2.4652326789203673"><ele>0.0</ele><time>2026-03-22T15:23:01Z</time></trkpt><trkpt lat="47.30160575339762" lon="-2.465192671166713"><ele>0.0</ele><time>2026-03-22T15:23:02Z</time></trkpt><trkpt lat="47.301757941709695" lon="-2.465153977711953"><ele>0.0</ele><time>2026-03-22T15:23:03Z</time></trkpt><trkpt lat="47.30190791009764" lon="-2.4651158486777063"><ele>0.0</ele><time>2026-03-22T15:23:04Z</time></trkpt><trkpt lat="47.302053264308974" lon="-2.465078892766685"><ele>0.0</ele><time>2026-03-22T15:23:05Z</time></trkpt><trkpt lat="47.302199114200235" lon="-2.4650429036167725"><ele>0.0</ele><time>2026-03-22T15:23:06Z</time></trkpt><trkpt lat="47.302349513421184" lon="-2.465006225933814"><ele>0.0</ele><time>2026-03-22T15:23:07Z</time></trkpt><trkpt lat="47.30250340961316" lon="-2.4649679397349344"><ele>0.0</ele><time>2026-03-22T15:23:08Z</time></trkpt><trkpt lat="47.30265089796551" lon="-2.4649295862774623"><ele>0.0</ele><time>2026-03-22T15:23:09Z</time></trkpt><trkpt lat="47.30279460395841" lon="-2.464892216417761"><ele>0.0</ele><time>2026-03-22T15:23:10Z</time></trkpt><trkpt lat="47.30293395075209" lon="-2.464855980107493"><ele>0.0</ele><time>2026-03-22T15:23:11Z</time></trkpt><trkpt lat="47.303073281130125" lon="-2.4648377616390267"><ele>0.0</ele><time>2026-03-22T15:23:12Z</time></trkpt><trkpt lat="47.30320414483643" lon="-2.4647705149336487"><ele>0.0</ele><time>2026-03-22T15:23:13Z</time></trkpt><trkpt lat="47.303326295754886" lon="-2.464686001521201"><ele>0.0</ele><time>2026-03-22T15:23:14Z</time></trkpt><trkpt lat="47.303437596156776" lon="-2.4645743874725348"><ele>0.0</ele><time>2026-03-22T15:23:15Z</time></trkpt><trkpt lat="47.30353288980844" lon="-2.464442261673877"><ele>0.0</ele><time>2026-03-22T15:23:16Z</time></trkpt><trkpt lat="47.303613624884065" lon="-2.464290018441866"><ele>0.0</ele><time>2026-03-22T15:23:17Z</time></trkpt><trkpt lat="47.30368465271288" lon="-2.4641312685736576"><ele>0.0</ele><time>2026-03-22T15:23:18Z</time></trkpt><trkpt lat="47.30375494476627" lon="-2.463963069985977"><ele>0.0</ele><time>2026-03-22T15:23:19Z</time></trkpt><trkpt lat="47.30382728425257" lon="-2.4637898917888137"><ele>0.0</ele><time>2026-03-22T15:23:20Z</time></trkpt><trkpt lat="47.30390496952727" lon="-2.463626249208223"><ele>0.0</ele><time>2026-03-22T15:23:21Z</time></trkpt><trkpt lat="47.30398826638978" lon="-2.4634705251507936"><ele>0.0</ele><time>2026-03-22T15:23:22Z</time></trkpt><trkpt lat="47.30406651143734" lon="-2.4633091800392095"><ele>0.0</ele><time>2026-03-22T15:23:23Z</time></trkpt><trkpt lat="47.3041696444298" lon="-2.463185207109248"><ele>0.0</ele><time>2026-03-22T15:23:24Z</time></trkpt><trkpt lat="47.304277660507175" lon="-2.4630950434116716"><ele>0.0</ele><time>2026-03-22T15:23:25Z</time></trkpt><trkpt lat="47.304374956983686" lon="-2.4630173582391772"><ele>0.0</ele><time>2026-03-22T15:23:26Z</time></trkpt><trkpt lat="47.30446398801192" lon="-2.462941333408382"><ele>0.0</ele><time>2026-03-22T15:23:27Z</time></trkpt><trkpt lat="47.30453955762398" lon="-2.462874227006303"><ele>0.0</ele><time>2026-03-22T15:23:28Z</time></trkpt><trkpt lat="47.30459003440208" lon="-2.4627756366777764"><ele>0.0</ele><time>2026-03-22T15:23:29Z</time></trkpt><trkpt lat="47.30461175788198" lon="-2.4626536730579454"><ele>0.0</ele><time>2026-03-22T15:23:30Z</time></trkpt><trkpt lat="47.304580960346264" lon="-2.4625090945601285"><ele>0.0</ele><time>2026-03-22T15:23:31Z</time></trkpt><trkpt lat="47.30450931293605" lon="-2.4623546842019532"><ele>0.0</ele><time>2026-03-22T15:23:32Z</time></trkpt><trkpt lat="47.30443884398035" lon="-2.462183560229509"><ele>0.0</ele><time>2026-03-22T15:23:33Z</time></trkpt><trkpt lat="47.30439162920796" lon="-2.461999142854317"><ele>0.0</ele><time>2026-03-22T15:23:34Z</time></trkpt><trkpt lat="47.30434646995665" lon="-2.46183233638404"><ele>0.0</ele><time>2026-03-22T15:23:35Z</time></trkpt><trkpt lat="47.30427503180146" lon="-2.461702113218277"><ele>0.0</ele><time>2026-03-22T15:23:36Z</time></trkpt><trkpt lat="47.30420480409717" lon="-2.4615879944015737"><ele>0.0</ele><time>2026-03-22T15:23:37Z</time></trkpt><trkpt lat="47.304147766292346" lon="-2.461468833404616"><ele>0.0</ele><time>2026-03-22T15:23:38Z</time></trkpt><trkpt lat="47.30415066891743" lon="-2.4613130687457336"><ele>0.0</ele><time>2026-03-22T15:23:39Z</time></trkpt><trkpt lat="47.304176165954004" lon="-2.4611824971467366"><ele>0.0</ele><time>2026-03-22T15:23:40Z</time></trkpt><trkpt lat="47.30421539545341" lon="-2.461080024466758"><ele>0.0</ele><time>2026-03-22T15:23:41Z</time></trkpt><trkpt lat="47.304229729377475" lon="-2.460979200535272"><ele>0.0</ele><time>2026-03-22T15:23:42Z</time></trkpt><trkpt lat="47.30424200322356" lon="-2.460880444523005"><ele>0.0</ele><time>2026-03-22T15:23:43Z</time></trkpt><trkpt lat="47.3042259638346" lon="-2.460756221204552"><ele>0.0</ele><time>2026-03-22T15:23:44Z</time></trkpt><trkpt lat="47.304173480505014" lon="-2.4606292243082066"><ele>0.0</ele><time>2026-03-22T15:23:45.001Z</time></trkpt><trkpt lat="47.30408027173002" lon="-2.4605406152860363"><ele>0.0</ele><time>2026-03-22T15:23:46.001Z</time></trkpt><trkpt lat="47.303988314727825" lon="-2.4604218904877735"><ele>0.0</ele><time>2026-03-22T15:23:47.001Z</time></trkpt><trkpt lat="47.30389754994392" lon="-2.460314488802757"><ele>0.0</ele><time>2026-03-22T15:23:48.001Z</time></trkpt><trkpt lat="47.3038269575822" lon="-2.4601813585930734"><ele>0.0</ele><time>2026-03-22T15:23:49.001Z</time></trkpt><trkpt lat="47.3038020658055" lon="-2.4599806771116524"><ele>0.0</ele><time>2026-03-22T15:23:50.001Z</time></trkpt><trkpt lat="47.30378468985323" lon="-2.459789510742208"><ele>0.0</ele><time>2026-03-22T15:23:51.001Z</time></trkpt><trkpt lat="47.30378458801654" lon="-2.459596063577149"><ele>0.0</ele><time>2026-03-22T15:23:52.001Z</time></trkpt><trkpt lat="47.30378094890818" lon="-2.459391108140337"><ele>0.0</ele><time>2026-03-22T15:23:53.001Z</time></trkpt><trkpt lat="47.30377027741314" lon="-2.459196152521908"><ele>0.0</ele><time>2026-03-22T15:23:54.001Z</time></trkpt><trkpt lat="47.30375977071884" lon="-2.4590069293425794"><ele>0.0</ele><time>2026-03-22T15:23:55.001Z</time></trkpt><trkpt lat="47.303744850983776" lon="-2.4588068454169765"><ele>0.0</ele><time>2026-03-22T15:23:56.001Z</time></trkpt><trkpt lat="47.30370878573396" lon="-2.4586019021477035"><ele>0.0</ele><time>2026-03-22T15:23:57.001Z</time></trkpt><trkpt lat="47.30366064216724" lon="-2.45840531592786"><ele>0.0</ele><time>2026-03-22T15:23:58.001Z</time></trkpt><trkpt lat="47.30362086187492" lon="-2.4582117906420584"><ele>0.0</ele><time>2026-03-22T15:23:59.001Z</time></trkpt><trkpt lat="47.303585978921205" lon="-2.4580232586417448"><ele>0.0</ele><time>2026-03-22T15:24:00.001Z</time></trkpt><trkpt lat="47.30361184608483" lon="-2.4578347462617094"><ele>0.0</ele><time>2026-03-22T15:24:01.001Z</time></trkpt><trkpt lat="47.3036504116608" lon="-2.4576588240748456"><ele>0.0</ele><time>2026-03-22T15:24:02.001Z</time></trkpt><trkpt lat="47.30368574819516" lon="-2.4574770664315504"><ele>0.0</ele><time>2026-03-22T15:24:03.001Z</time></trkpt><trkpt lat="47.30365137763797" lon="-2.4573099424533216"><ele>0.0</ele><time>2026-03-22T15:24:04.001Z</time></trkpt><trkpt lat="47.303630483611364" lon="-2.457146553208195"><ele>0.0</ele><time>2026-03-22T15:24:05.001Z</time></trkpt><trkpt lat="47.3036439091345" lon="-2.45699798988204"><ele>0.0</ele><time>2026-03-22T15:24:06.001Z</time></trkpt><trkpt lat="47.303705112966355" lon="-2.456874536233515"><ele>0.0</ele><time>2026-03-22T15:24:07.001Z</time></trkpt><trkpt lat="47.303738520516355" lon="-2.456751171470701"><ele>0.0</ele><time>2026-03-22T15:24:08.001Z</time></trkpt><trkpt lat="47.30378019873504" lon="-2.456646650666756"><ele>0.0</ele><time>2026-03-22T15:24:09.001Z</time></trkpt><trkpt lat="47.303825566136204" lon="-2.4565520513042967"><ele>0.0</ele><time>2026-03-22T15:24:10.001Z</time></trkpt><trkpt lat="47.3038463831499" lon="-2.4564364516622006"><ele>0.0</ele><time>2026-03-22T15:24:11.001Z</time></trkpt><trkpt lat="47.3038561350048" lon="-2.456326245783585"><ele>0.0</ele><time>2026-03-22T15:24:12.001Z</time></trkpt><trkpt lat="47.3038464386551" lon="-2.4562326676725608"><ele>0.0</ele><time>2026-03-22T15:24:13.001Z</time></trkpt><trkpt lat="47.30379259342086" lon="-2.4561251407147884"><ele>0.0</ele><time>2026-03-22T15:24:15.001Z</time></trkpt><trkpt lat="47.303797382416086" lon="-2.456016765637407"><ele>0.0</ele><time>2026-03-22T15:24:38.002Z</time></trkpt><trkpt lat="47.30394056900311" lon="-2.4559207755117844"><ele>0.0</ele><time>2026-03-22T15:24:40.002Z</time></trkpt><trkpt lat="47.30407330543934" lon="-2.4558441814666123"><ele>0.0</ele><time>2026-03-22T15:24:41.002Z</time></trkpt><trkpt lat="47.304223202994564" lon="-2.455741481902589"><ele>0.0</ele><time>2026-03-22T15:24:42.002Z</time></trkpt><trkpt lat="47.30434562595911" lon="-2.455645172486344"><ele>0.0</ele><time>2026-03-22T15:24:43.002Z</time></trkpt><trkpt lat="47.304454951808836" lon="-2.4555596717130164"><ele>0.0</ele><time>2026-03-22T15:24:44.001Z</time></trkpt><trkpt lat="47.304563207009146" lon="-2.4555007002542903"><ele>0.0</ele><time>2026-03-22T15:24:45.001Z</time></trkpt><trkpt lat="47.30465751417714" lon="-2.455453931511809"><ele>0.0</ele><time>2026-03-22T15:24:46.001Z</time></trkpt><trkpt lat="47.30476625149895" lon="-2.455500031299285"><ele>0.0</ele><time>2026-03-22T15:24:47.001Z</time></trkpt><trkpt lat="47.30489614246962" lon="-2.455537411205039"><ele>0.0</ele><time>2026-03-22T15:24:48.001Z</time></trkpt><trkpt lat="47.30504562070372" lon="-2.4556105227287883"><ele>0.0</ele><time>2026-03-22T15:24:49.001Z</time></trkpt><trkpt lat="47.30519866191771" lon="-2.4556958812934635"><ele>0.0</ele><time>2026-03-22T15:24:50.001Z</time></trkpt><trkpt lat="47.30532494664065" lon="-2.4557794640698116"><ele>0.0</ele><time>2026-03-22T15:24:51.001Z</time></trkpt><trkpt lat="47.30544165105596" lon="-2.4558571842328445"><ele>0.0</ele><time>2026-03-22T15:24:52.001Z</time></trkpt><trkpt lat="47.30554742883397" lon="-2.455903786857215"><ele>0.0</ele><time>2026-03-22T15:24:53.001Z</time></trkpt><trkpt lat="47.305648497554095" lon="-2.455910135825801"><ele>0.0</ele><time>2026-03-22T15:24:54.001Z</time></trkpt><trkpt lat="47.30574667170716" lon="-2.4558855623950415"><ele>0.0</ele><time>2026-03-22T15:24:55.001Z</time></trkpt><trkpt lat="47.305824126466824" lon="-2.4558379778663135"><ele>0.0</ele><time>2026-03-22T15:24:56.001Z</time></trkpt><trkpt lat="47.3059754696589" lon="-2.455713011447293"><ele>0.0</ele><time>2026-03-22T15:24:57.001Z</time></trkpt><trkpt lat="47.30608995789343" lon="-2.4556295502540073"><ele>0.0</ele><time>2026-03-22T15:24:58.001Z</time></trkpt><trkpt lat="47.306208199337185" lon="-2.4555998037047364"><ele>0.0</ele><time>2026-03-22T15:24:59.001Z</time></trkpt><trkpt lat="47.3063247129645" lon="-2.4555827081155353"><ele>0.0</ele><time>2026-03-22T15:25:00.001Z</time></trkpt><trkpt lat="47.30644114514844" lon="-2.4555889102689537"><ele>0.0</ele><time>2026-03-22T15:25:01.001Z</time></trkpt><trkpt lat="47.30655917061528" lon="-2.45563078087973"><ele>0.0</ele><time>2026-03-22T15:25:02.001Z</time></trkpt><trkpt lat="47.306688907441256" lon="-2.4557136003584286"><ele>0.0</ele><time>2026-03-22T15:25:03.001Z</time></trkpt><trkpt lat="47.30680231470184" lon="-2.45582316680644"><ele>0.0</ele><time>2026-03-22T15:25:04.001Z</time></trkpt><trkpt lat="47.306916740306924" lon="-2.455918736240152"><ele>0.0</ele><time>2026-03-22T15:25:05.001Z</time></trkpt><trkpt lat="47.30701915155651" lon="-2.456027794545586"><ele>0.0</ele><time>2026-03-22T15:25:06.001Z</time></trkpt><trkpt lat="47.30711759067754" lon="-2.4561308414492933"><ele>0.0</ele><time>2026-03-22T15:25:07.001Z</time></trkpt><trkpt lat="47.30722274305618" lon="-2.456233195768956"><ele>0.0</ele><time>2026-03-22T15:25:08.001Z</time></trkpt><trkpt lat="47.30734831419631" lon="-2.456340409209033"><ele>0.0</ele><time>2026-03-22T15:25:09.001Z</time></trkpt><trkpt lat="47.30748213438404" lon="-2.4564467753981862"><ele>0.0</ele><time>2026-03-22T15:25:10.001Z</time></trkpt><trkpt lat="47.307612217660974" lon="-2.4565323249434106"><ele>0.0</ele><time>2026-03-22T15:25:11.001Z</time></trkpt><trkpt lat="47.30773797265534" lon="-2.456582334964512"><ele>0.0</ele><time>2026-03-22T15:25:12.001Z</time></trkpt><trkpt lat="47.307863337258574" lon="-2.4565746878222763"><ele>0.0</ele><time>2026-03-22T15:25:13.001Z</time></trkpt><trkpt lat="47.30799035622676" lon="-2.456524816990561"><ele>0.0</ele><time>2026-03-22T15:25:14.001Z</time></trkpt><trkpt lat="47.30811839954818" lon="-2.4564452918168707"><ele>0.0</ele><time>2026-03-22T15:25:15.001Z</time></trkpt><trkpt lat="47.3082585111859" lon="-2.4563725468359543"><ele>0.0</ele><time>2026-03-22T15:25:16.001Z</time></trkpt><trkpt lat="47.30840684322797" lon="-2.456259105237112"><ele>0.0</ele><time>2026-03-22T15:25:17.001Z</time></trkpt><trkpt lat="47.308564857455146" lon="-2.456148207705235"><ele>0.0</ele><time>2026-03-22T15:25:18.001Z</time></trkpt><trkpt lat="47.30873323824367" lon="-2.456012179878149"><ele>0.0</ele><time>2026-03-22T15:25:19.001Z</time></trkpt><trkpt lat="47.30893701017789" lon="-2.455889030129625"><ele>0.0</ele><time>2026-03-22T15:25:20.001Z</time></trkpt><trkpt lat="47.30915174454529" lon="-2.4557671020649754"><ele>0.0</ele><time>2026-03-22T15:25:21.001Z</time></trkpt><trkpt lat="47.30933437597615" lon="-2.4556634023316226"><ele>0.0</ele><time>2026-03-22T15:25:22.001Z</time></trkpt><trkpt lat="47.30949859302563" lon="-2.455574455636375"><ele>0.0</ele><time>2026-03-22T15:25:23.001Z</time></trkpt><trkpt lat="47.309679670175434" lon="-2.455600535857123"><ele>0.0</ele><time>2026-03-22T15:25:24.001Z</time></trkpt><trkpt lat="47.30982837896617" lon="-2.455603223053881"><ele>0.0</ele><time>2026-03-22T15:25:25.001Z</time></trkpt><trkpt lat="47.309971648688936" lon="-2.4556315663350987"><ele>0.0</ele><time>2026-03-22T15:25:26.001Z</time></trkpt><trkpt lat="47.31010696478348" lon="-2.455659416128562"><ele>0.0</ele><time>2026-03-22T15:25:27.001Z</time></trkpt><trkpt lat="47.31024741826462" lon="-2.4556556310207527"><ele>0.0</ele><time>2026-03-22T15:25:28.001Z</time></trkpt><trkpt lat="47.310389095854525" lon="-2.4556235432219444"><ele>0.0</ele><time>2026-03-22T15:25:29.001Z</time></trkpt><trkpt lat="47.31052796863151" lon="-2.4555803283220006"><ele>0.0</ele><time>2026-03-22T15:25:30.001Z</time></trkpt><trkpt lat="47.31064528266519" lon="-2.45551210826522"><ele>0.0</ele><time>2026-03-22T15:25:31.001Z</time></trkpt><trkpt lat="47.31074768065613" lon="-2.455432567548024"><ele>0.0</ele><time>2026-03-22T15:25:32.001Z</time></trkpt><trkpt lat="47.31084838896073" lon="-2.4553760853042945"><ele>0.0</ele><time>2026-03-22T15:25:33.001Z</time></trkpt><trkpt lat="47.31095363069551" lon="-2.4553554966275413"><ele>0.0</ele><time>2026-03-22T15:25:34.001Z</time></trkpt><trkpt lat="47.31105503052859" lon="-2.4553345202026877"><ele>0.0</ele><time>2026-03-22T15:25:35.001Z</time></trkpt><trkpt lat="47.31114889323829" lon="-2.4552966107449055"><ele>0.0</ele><time>2026-03-22T15:25:36.001Z</time></trkpt><trkpt lat="47.31124499179701" lon="-2.4552281419059057"><ele>0.0</ele><time>2026-03-22T15:25:37.001Z</time></trkpt><trkpt lat="47.311327750802356" lon="-2.4551605287691"><ele>0.0</ele><time>2026-03-22T15:25:38.001Z</time></trkpt><trkpt lat="47.31140546380201" lon="-2.455103832626476"><ele>0.0</ele><time>2026-03-22T15:25:39.001Z</time></trkpt><trkpt lat="47.31149317280017" lon="-2.4550543287512667"><ele>0.0</ele><time>2026-03-22T15:25:40.001Z</time></trkpt><trkpt lat="47.31158515785512" lon="-2.4550102555237374"><ele>0.0</ele><time>2026-03-22T15:25:41.001Z</time></trkpt><trkpt lat="47.31167410633947" lon="-2.4549482880258533"><ele>0.0</ele><time>2026-03-22T15:25:42.001Z</time></trkpt><trkpt lat="47.31175672726982" lon="-2.4548562317784337"><ele>0.0</ele><time>2026-03-22T15:25:43.001Z</time></trkpt><trkpt lat="47.31182537584745" lon="-2.454740670933647"><ele>0.0</ele><time>2026-03-22T15:25:44.001Z</time></trkpt><trkpt lat="47.31187848958722" lon="-2.45461244557973"><ele>0.0</ele><time>2026-03-22T15:25:45.001Z</time></trkpt><trkpt lat="47.311931809758654" lon="-2.4544883490001648"><ele>0.0</ele><time>2026-03-22T15:25:46.001Z</time></trkpt><trkpt lat="47.31198221039872" lon="-2.4543644929322803"><ele>0.0</ele><time>2026-03-22T15:25:47.001Z</time></trkpt><trkpt lat="47.312032182795015" lon="-2.4542331883264317"><ele>0.0</ele><time>2026-03-22T15:25:48.001Z</time></trkpt><trkpt lat="47.312083146187696" lon="-2.454102225075132"><ele>0.0</ele><time>2026-03-22T15:25:49.001Z</time></trkpt><trkpt lat="47.31212682876107" lon="-2.453962716298697"><ele>0.0</ele><time>2026-03-22T15:25:50.001Z</time></trkpt><trkpt lat="47.31216110197249" lon="-2.4538168434503227"><ele>0.0</ele><time>2026-03-22T15:25:51.001Z</time></trkpt><trkpt lat="47.312197136840545" lon="-2.4536740426084345"><ele>0.0</ele><time>2026-03-22T15:25:52.001Z</time></trkpt><trkpt lat="47.31223561636408" lon="-2.4535405863552167"><ele>0.0</ele><time>2026-03-22T15:25:53.001Z</time></trkpt><trkpt lat="47.3122807950823" lon="-2.453411959920074"><ele>0.0</ele><time>2026-03-22T15:25:54.001Z</time></trkpt><trkpt lat="47.31233487497486" lon="-2.4533002735239116"><ele>0.0</ele><time>2026-03-22T15:25:55.001Z</time></trkpt><trkpt lat="47.31240803263776" lon="-2.4532090324037883"><ele>0.0</ele><time>2026-03-22T15:25:56.001Z</time></trkpt><trkpt lat="47.31249680031785" lon="-2.4531329120479635"><ele>0.0</ele><time>2026-03-22T15:25:57.001Z</time></trkpt><trkpt lat="47.31259064863359" lon="-2.4530711653688284"><ele>0.0</ele><time>2026-03-22T15:25:58.001Z</time></trkpt><trkpt lat="47.312690318005224" lon="-2.4530094134995855"><ele>0.0</ele><time>2026-03-22T15:25:59.001Z</time></trkpt><trkpt lat="47.312791859500074" lon="-2.452941472361756"><ele>0.0</ele><time>2026-03-22T15:26:00.001Z</time></trkpt><trkpt lat="47.31289777854603" lon="-2.4528818864151463"><ele>0.0</ele><time>2026-03-22T15:26:01.001Z</time></trkpt><trkpt lat="47.3130079263396" lon="-2.4528374203395398"><ele>0.0</ele><time>2026-03-22T15:26:02.001Z</time></trkpt><trkpt lat="47.31312263232366" lon="-2.4527971638717694"><ele>0.0</ele><time>2026-03-22T15:26:03.001Z</time></trkpt><trkpt lat="47.31324421089513" lon="-2.4527548671542747"><ele>0.0</ele><time>2026-03-22T15:26:04.001Z</time></trkpt><trkpt lat="47.31336011687425" lon="-2.452726567025185"><ele>0.0</ele><time>2026-03-22T15:26:05.001Z</time></trkpt><trkpt lat="47.313465452746286" lon="-2.452703734308471"><ele>0.0</ele><time>2026-03-22T15:26:06.001Z</time></trkpt><trkpt lat="47.313561644469104" lon="-2.452659113784966"><ele>0.0</ele><time>2026-03-22T15:26:07.001Z</time></trkpt><trkpt lat="47.31365003537089" lon="-2.4526055482103293"><ele>0.0</ele><time>2026-03-22T15:26:08.001Z</time></trkpt><trkpt lat="47.31373094943049" lon="-2.452545741064844"><ele>0.0</ele><time>2026-03-22T15:26:09.001Z</time></trkpt><trkpt lat="47.31391017145936" lon="-2.4526657029362804"><ele>0.0</ele><time>2026-03-22T15:26:10.001Z</time></trkpt><trkpt lat="47.31401600920091" lon="-2.452663067177143"><ele>0.0</ele><time>2026-03-22T15:26:11.001Z</time></trkpt><trkpt lat="47.31411993739841" lon="-2.452654517229155"><ele>0.0</ele><time>2026-03-22T15:26:12.001Z</time></trkpt><trkpt lat="47.31422327102339" lon="-2.4526566918665957"><ele>0.0</ele><time>2026-03-22T15:26:13.001Z</time></trkpt><trkpt lat="47.31432590033528" lon="-2.4526928290857826"><ele>0.0</ele><time>2026-03-22T15:26:14.001Z</time></trkpt><trkpt lat="47.314436160373596" lon="-2.4527196429110485"><ele>0.0</ele><time>2026-03-22T15:26:15.001Z</time></trkpt><trkpt lat="47.31454176642261" lon="-2.452722573237164"><ele>0.0</ele><time>2026-03-22T15:26:16.001Z</time></trkpt><trkpt lat="47.31465446629212" lon="-2.4527217883026826"><ele>0.0</ele><time>2026-03-22T15:26:17.001Z</time></trkpt><trkpt lat="47.31476345801433" lon="-2.4527202308267912"><ele>0.0</ele><time>2026-03-22T15:26:18.001Z</time></trkpt><trkpt lat="47.314867142616926" lon="-2.452715185955532"><ele>0.0</ele><time>2026-03-22T15:26:19.001Z</time></trkpt><trkpt lat="47.31496765762282" lon="-2.452701213203547"><ele>0.0</ele><time>2026-03-22T15:26:20.001Z</time></trkpt><trkpt lat="47.315065937044025" lon="-2.452671826019824"><ele>0.2</ele><time>2026-03-22T15:26:21.001Z</time></trkpt><trkpt lat="47.31516045100748" lon="-2.4526331023211236"><ele>0.4</ele><time>2026-03-22T15:26:22.001Z</time></trkpt><trkpt lat="47.3152623007835" lon="-2.452615452508832"><ele>0.6000000000000001</ele><time>2026-03-22T15:26:23.001Z</time></trkpt><trkpt lat="47.31536492598363" lon="-2.452625036255963"><ele>0.8</ele><time>2026-03-22T15:26:24.001Z</time></trkpt><trkpt lat="47.315469692041205" lon="-2.452678195589128"><ele>1.0</ele><time>2026-03-22T15:26:25.001Z</time></trkpt><trkpt lat="47.31556560294203" lon="-2.4527439967935476"><ele>1.2000000000000002</ele><time>2026-03-22T15:26:26.001Z</time></trkpt><trkpt lat="47.315660268992715" lon="-2.4527985901265543"><ele>1.4000000000000001</ele><time>2026-03-22T15:26:27.001Z</time></trkpt><trkpt lat="47.315752047399386" lon="-2.4528425871683046"><ele>1.6</ele><time>2026-03-22T15:26:28.001Z</time></trkpt><trkpt lat="47.31584597195787" lon="-2.4528832437484462"><ele>1.8</ele><time>2026-03-22T15:26:29.001Z</time></trkpt><trkpt lat="47.31593978139234" lon="-2.4529108362506675"><ele>2.0</ele><time>2026-03-22T15:26:30.001Z</time></trkpt><trkpt lat="47.316039404244506" lon="-2.4529193555724444"><ele>2.0</ele><time>2026-03-22T15:26:31.001Z</time></trkpt><trkpt lat="47.31615090054614" lon="-2.452932500837463"><ele>2.0</ele><time>2026-03-22T15:26:32.001Z</time></trkpt><trkpt lat="47.31627146145629" lon="-2.452934260956148"><ele>2.0</ele><time>2026-03-22T15:26:33.001Z</time></trkpt><trkpt lat="47.31638835128964" lon="-2.4529513981791657"><ele>2.0</ele><time>2026-03-22T15:26:34.001Z</time></trkpt><trkpt lat="47.316500835765936" lon="-2.4529695273816863"><ele>2.2</ele><time>2026-03-22T15:26:35.001Z</time></trkpt><trkpt lat="47.31660777230501" lon="-2.453001613907535"><ele>2.4000000000000004</ele><time>2026-03-22T15:26:36.001Z</time></trkpt><trkpt lat="47.316702993779394" lon="-2.45307185728731"><ele>2.5999999999999996</ele><time>2026-03-22T15:26:37.001Z</time></trkpt><trkpt lat="47.31678524378644" lon="-2.4531769669086794"><ele>2.8</ele><time>2026-03-22T15:26:38.001Z</time></trkpt><trkpt lat="47.316855308610975" lon="-2.4533014864471996"><ele>3.0</ele><time>2026-03-22T15:26:39.001Z</time></trkpt><trkpt lat="47.316929244336414" lon="-2.453414948699458"><ele>3.0</ele><time>2026-03-22T15:26:40.002Z</time></trkpt><trkpt lat="47.31701185206429" lon="-2.4534862024399766"><ele>3.0</ele><time>2026-03-22T15:26:41.002Z</time></trkpt><trkpt lat="47.31710025553963" lon="-2.4535241732869855"><ele>3.0</ele><time>2026-03-22T15:26:42.002Z</time></trkpt><trkpt lat="47.31719733126116" lon="-2.453530281116824"><ele>3.0</ele><time>2026-03-22T15:26:43.002Z</time></trkpt><trkpt lat="47.31729018086067" lon="-2.453481115470798"><ele>3.0</ele><time>2026-03-22T15:26:44.002Z</time></trkpt><trkpt lat="47.31737610366599" lon="-2.4534071969216757"><ele>2.8</ele><time>2026-03-22T15:26:45.002Z</time></trkpt><trkpt lat="47.31747179765033" lon="-2.4533467491746994"><ele>2.5999999999999996</ele><time>2026-03-22T15:26:46.002Z</time></trkpt><trkpt lat="47.3175729961224" lon="-2.453303528732094"><ele>2.4000000000000004</ele><time>2026-03-22T15:26:47.002Z</time></trkpt><trkpt lat="47.31767737985031" lon="-2.453293526568353"><ele>2.2</ele><time>2026-03-22T15:26:48.002Z</time></trkpt><trkpt lat="47.31778596318523" lon="-2.4533316222800825"><ele>2.0</ele><time>2026-03-22T15:26:49.002Z</time></trkpt><trkpt lat="47.317892970188026" lon="-2.4534082303626223"><ele>2.0</ele><time>2026-03-22T15:26:50.002Z</time></trkpt><trkpt lat="47.3179921337127" lon="-2.4534991570026516"><ele>2.0</ele><time>2026-03-22T15:26:51.002Z</time></trkpt><trkpt lat="47.31808130666267" lon="-2.4535950592112616"><ele>2.0</ele><time>2026-03-22T15:26:52.002Z</time></trkpt><trkpt lat="47.318183159367" lon="-2.453727276745083"><ele>2.0</ele><time>2026-03-22T15:26:53.002Z</time></trkpt><trkpt lat="47.31827706679924" lon="-2.453898579387447"><ele>2.0</ele><time>2026-03-22T15:26:54.002Z</time></trkpt><trkpt lat="47.318372908795446" lon="-2.454088109796553"><ele>2.0</ele><time>2026-03-22T15:26:55.002Z</time></trkpt><trkpt lat="47.318500204728835" lon="-2.454294439461112"><ele>2.0</ele><time>2026-03-22T15:26:56.002Z</time></trkpt><trkpt lat="47.318644432201424" lon="-2.4544949650785655"><ele>2.0</ele><time>2026-03-22T15:26:57.002Z</time></trkpt><trkpt lat="47.31879690060752" lon="-2.4546911676498246"><ele>2.0</ele><time>2026-03-22T15:26:58.002Z</time></trkpt><trkpt lat="47.31895359002428" lon="-2.4548998002367397"><ele>2.0</ele><time>2026-03-22T15:26:59.002Z</time></trkpt><trkpt lat="47.31910098444972" lon="-2.455109101899731"><ele>2.0</ele><time>2026-03-22T15:27:00.002Z</time></trkpt><trkpt lat="47.31924396082351" lon="-2.455314566406354"><ele>2.0</ele><time>2026-03-22T15:27:01.002Z</time></trkpt><trkpt lat="47.31936890430454" lon="-2.4555295681430667"><ele>2.0</ele><time>2026-03-22T15:27:02.001Z</time></trkpt><trkpt lat="47.31947111709567" lon="-2.4557443706656623"><ele>1.6666666666666665</ele><time>2026-03-22T15:27:03.001Z</time></trkpt><trkpt lat="47.31954889194428" lon="-2.4559625887745242"><ele>1.3333333333333333</ele><time>2026-03-22T15:27:04.001Z</time></trkpt><trkpt lat="47.31962565800861" lon="-2.4561699646466386"><ele>1.0</ele><time>2026-03-22T15:27:05.001Z</time></trkpt><trkpt lat="47.319721973302705" lon="-2.456367793018891"><ele>1.3333333333333333</ele><time>2026-03-22T15:27:06.001Z</time></trkpt><trkpt lat="47.31983394277183" lon="-2.456550151332455"><ele>1.6666666666666665</ele><time>2026-03-22T15:27:07.001Z</time></trkpt><trkpt lat="47.31995415550431" lon="-2.4567155521771014"><ele>2.0</ele><time>2026-03-22T15:27:08.001Z</time></trkpt><trkpt lat="47.32008356944087" lon="-2.4568626107900364"><ele>2.0</ele><time>2026-03-22T15:27:09.001Z</time></trkpt><trkpt lat="47.32022518866767" lon="-2.456985120133439"><ele>2.0</ele><time>2026-03-22T15:27:10.001Z</time></trkpt><trkpt lat="47.320375983570486" lon="-2.4570843788532946"><ele>2.0</ele><time>2026-03-22T15:27:11.001Z</time></trkpt><trkpt lat="47.3205286441904" lon="-2.4571808341814574"><ele>1.6666666666666665</ele><time>2026-03-22T15:27:12.001Z</time></trkpt><trkpt lat="47.32067613694572" lon="-2.457278380659222"><ele>1.3333333333333333</ele><time>2026-03-22T15:27:13.001Z</time></trkpt><trkpt lat="47.32081703895156" lon="-2.4573654464284047"><ele>1.0</ele><time>2026-03-22T15:27:14.001Z</time></trkpt><trkpt lat="47.320953827788585" lon="-2.457421334631454"><ele>1.0</ele><time>2026-03-22T15:27:15.001Z</time></trkpt><trkpt lat="47.32108572848391" lon="-2.4574603018763"><ele>1.0</ele><time>2026-03-22T15:27:16.001Z</time></trkpt><trkpt lat="47.321210448044475" lon="-2.4575041828869466"><ele>1.0</ele><time>2026-03-22T15:27:17.001Z</time></trkpt><trkpt lat="47.32131848519782" lon="-2.4575844833931955"><ele>1.0</ele><time>2026-03-22T15:27:18.001Z</time></trkpt><trkpt lat="47.321423073686034" lon="-2.45769729506058"><ele>1.25</ele><time>2026-03-22T15:27:19.001Z</time></trkpt><trkpt lat="47.32152186243572" lon="-2.457833230633308"><ele>1.5</ele><time>2026-03-22T15:27:20.001Z</time></trkpt><trkpt lat="47.32160851502997" lon="-2.457992826416045"><ele>1.75</ele><time>2026-03-22T15:27:21.001Z</time></trkpt><trkpt lat="47.321684359314595" lon="-2.4581572706792643"><ele>2.0</ele><time>2026-03-22T15:27:22.001Z</time></trkpt><trkpt lat="47.32176253075652" lon="-2.458310506131831"><ele>2.0</ele><time>2026-03-22T15:27:23.001Z</time></trkpt><trkpt lat="47.321835781823275" lon="-2.458445295490014"><ele>2.0</ele><time>2026-03-22T15:27:24.001Z</time></trkpt><trkpt lat="47.32190468523765" lon="-2.458577660831478"><ele>2.0</ele><time>2026-03-22T15:27:25.001Z</time></trkpt><trkpt lat="47.32197647701197" lon="-2.4587132136305145"><ele>2.0</ele><time>2026-03-22T15:27:26.001Z</time></trkpt><trkpt lat="47.322041544669496" lon="-2.458870727967117"><ele>2.0</ele><time>2026-03-22T15:27:27.001Z</time></trkpt><trkpt lat="47.322093985089055" lon="-2.459044410405746"><ele>2.0</ele><time>2026-03-22T15:27:28.001Z</time></trkpt><trkpt lat="47.322146194804176" lon="-2.4592270216788297"><ele>2.0</ele><time>2026-03-22T15:27:29.001Z</time></trkpt><trkpt lat="47.32220666652506" lon="-2.459375040331202"><ele>2.0</ele><time>2026-03-22T15:27:30.001Z</time></trkpt><trkpt lat="47.32227609645409" lon="-2.4595047751175536"><ele>1.75</ele><time>2026-03-22T15:27:31.001Z</time></trkpt><trkpt lat="47.322364922252746" lon="-2.4596317082199644"><ele>1.5</ele><time>2026-03-22T15:27:32.001Z</time></trkpt><trkpt lat="47.322483181309224" lon="-2.4597611559543298"><ele>1.25</ele><time>2026-03-22T15:27:33.001Z</time></trkpt><trkpt lat="47.322613040744706" lon="-2.4599170034238327"><ele>1.0</ele><time>2026-03-22T15:27:34.001Z</time></trkpt><trkpt lat="47.32272637198736" lon="-2.4601271487572243"><ele>1.0</ele><time>2026-03-22T15:27:35.001Z</time></trkpt><trkpt lat="47.32283626510326" lon="-2.460391037038476"><ele>1.0</ele><time>2026-03-22T15:27:36.001Z</time></trkpt><trkpt lat="47.32296172005996" lon="-2.4606732851840487"><ele>1.0</ele><time>2026-03-22T15:27:37.001Z</time></trkpt><trkpt lat="47.323100470260044" lon="-2.460931748496454"><ele>1.0</ele><time>2026-03-22T15:27:38.001Z</time></trkpt><trkpt lat="47.3232418026198" lon="-2.4611645096881225"><ele>1.0</ele><time>2026-03-22T15:27:39.001Z</time></trkpt><trkpt lat="47.32339039459693" lon="-2.461391143500327"><ele>1.0</ele><time>2026-03-22T15:27:40.001Z</time></trkpt><trkpt lat="47.32353700960014" lon="-2.4616074627681974"><ele>1.0</ele><time>2026-03-22T15:27:41.001Z</time></trkpt><trkpt lat="47.323672790420474" lon="-2.4618086695289354"><ele>1.0</ele><time>2026-03-22T15:27:42.001Z</time></trkpt><trkpt lat="47.32379692179162" lon="-2.4620186480805915"><ele>1.0</ele><time>2026-03-22T15:27:43.001Z</time></trkpt><trkpt lat="47.323923866839586" lon="-2.462259394232562"><ele>0.6666666666666666</ele><time>2026-03-22T15:27:44.001Z</time></trkpt><trkpt lat="47.32405079112631" lon="-2.4625051301528633"><ele>0.3333333333333333</ele><time>2026-03-22T15:27:45.001Z</time></trkpt><trkpt lat="47.32417463658009" lon="-2.4627418762714104"><ele>0.0</ele><time>2026-03-22T15:27:46.001Z</time></trkpt><trkpt lat="47.32428046678769" lon="-2.4629760893829835"><ele>0.6666666666666666</ele><time>2026-03-22T15:27:47.001Z</time></trkpt><trkpt lat="47.324365903838554" lon="-2.463218999862827"><ele>1.3333333333333333</ele><time>2026-03-22T15:27:48.001Z</time></trkpt><trkpt lat="47.32444555162265" lon="-2.463459998557457"><ele>2.0</ele><time>2026-03-22T15:27:49.001Z</time></trkpt><trkpt lat="47.32454038040668" lon="-2.463671772336802"><ele>2.0</ele><time>2026-03-22T15:27:50.001Z</time></trkpt><trkpt lat="47.324653834959534" lon="-2.463864565774664"><ele>2.0</ele><time>2026-03-22T15:27:51.001Z</time></trkpt><trkpt lat="47.324782915686065" lon="-2.4640484224442174"><ele>2.0</ele><time>2026-03-22T15:27:52.001Z</time></trkpt><trkpt lat="47.32491008687043" lon="-2.464218897259742"><ele>2.0</ele><time>2026-03-22T15:27:53.001Z</time></trkpt><trkpt lat="47.325031693465185" lon="-2.4644028202782935"><ele>2.0</ele><time>2026-03-22T15:27:54.001Z</time></trkpt><trkpt lat="47.32513648812864" lon="-2.4645967979596204"><ele>2.0</ele><time>2026-03-22T15:27:55.001Z</time></trkpt><trkpt lat="47.32522351895396" lon="-2.464802346165373"><ele>1.3333333333333333</ele><time>2026-03-22T15:27:56.001Z</time></trkpt><trkpt lat="47.3252942149755" lon="-2.4650172311120118"><ele>0.6666666666666666</ele><time>2026-03-22T15:27:57.001Z</time></trkpt><trkpt lat="47.32537648843664" lon="-2.465210437579493"><ele>0.0</ele><time>2026-03-22T15:27:58.001Z</time></trkpt><trkpt lat="47.325486340927775" lon="-2.4653867672681744"><ele>0.3333333333333333</ele><time>2026-03-22T15:27:59.001Z</time></trkpt><trkpt lat="47.32561412585597" lon="-2.4655497900803147"><ele>0.6666666666666666</ele><time>2026-03-22T15:28:00.001Z</time></trkpt><trkpt lat="47.325751825255914" lon="-2.465714778141739"><ele>1.0</ele><time>2026-03-22T15:28:01.001Z</time></trkpt><trkpt lat="47.32588375457049" lon="-2.465898158296904"><ele>1.0</ele><time>2026-03-22T15:28:02.001Z</time></trkpt><trkpt lat="47.325995868720874" lon="-2.466089355736605"><ele>1.0</ele><time>2026-03-22T15:28:03.001Z</time></trkpt><trkpt lat="47.326101340095924" lon="-2.4662700773978425"><ele>1.0</ele><time>2026-03-22T15:28:04.001Z</time></trkpt><trkpt lat="47.32621304290971" lon="-2.4664313889613494"><ele>1.0</ele><time>2026-03-22T15:28:05.001Z</time></trkpt><trkpt lat="47.32634931938001" lon="-2.466577941005523"><ele>1.0</ele><time>2026-03-22T15:28:06.001Z</time></trkpt><trkpt lat="47.326502647546825" lon="-2.4667129727788204"><ele>1.0</ele><time>2026-03-22T15:28:07.001Z</time></trkpt><trkpt lat="47.326659813287144" lon="-2.4668256505814794"><ele>1.3333333333333333</ele><time>2026-03-22T15:28:08.001Z</time></trkpt><trkpt lat="47.32681498682956" lon="-2.4669316975737257"><ele>1.6666666666666665</ele><time>2026-03-22T15:28:09.001Z</time></trkpt><trkpt lat="47.326953593553014" lon="-2.4670495437511972"><ele>2.0</ele><time>2026-03-22T15:28:10.001Z</time></trkpt><trkpt lat="47.32707541108775" lon="-2.4671716728510313"><ele>1.75</ele><time>2026-03-22T15:28:11.001Z</time></trkpt><trkpt lat="47.32718376645747" lon="-2.467299842573189"><ele>1.5</ele><time>2026-03-22T15:28:12.001Z</time></trkpt><trkpt lat="47.32728412788774" lon="-2.4674378543359956"><ele>1.25</ele><time>2026-03-22T15:28:13.001Z</time></trkpt><trkpt lat="47.32736635305229" lon="-2.46759380313189"><ele>1.0</ele><time>2026-03-22T15:28:14.001Z</time></trkpt><trkpt lat="47.32744081999155" lon="-2.467782659143756"><ele>1.0</ele><time>2026-03-22T15:28:15.001Z</time></trkpt><trkpt lat="47.32752807163074" lon="-2.46796905694711"><ele>1.0</ele><time>2026-03-22T15:28:16.001Z</time></trkpt><trkpt lat="47.32762390358354" lon="-2.4681350084672946"><ele>1.0</ele><time>2026-03-22T15:28:17.001Z</time></trkpt><trkpt lat="47.32770449258999" lon="-2.468303899957294"><ele>1.0</ele><time>2026-03-22T15:28:18.001Z</time></trkpt><trkpt lat="47.327759650820845" lon="-2.4685254805111483"><ele>1.0</ele><time>2026-03-22T15:28:19.001Z</time></trkpt><trkpt lat="47.3277988371736" lon="-2.4687902661096275"><ele>1.0</ele><time>2026-03-22T15:28:20.001Z</time></trkpt><trkpt lat="47.32784118552069" lon="-2.4690277717696065"><ele>1.0</ele><time>2026-03-22T15:28:21.001Z</time></trkpt><trkpt lat="47.32790502433764" lon="-2.46925108910573"><ele>1.0</ele><time>2026-03-22T15:28:22.001Z</time></trkpt><trkpt lat="47.32799162734478" lon="-2.469481548791703"><ele>1.0</ele><time>2026-03-22T15:28:23.001Z</time></trkpt><trkpt lat="47.32809073516702" lon="-2.4697160433198295"><ele>1.0</ele><time>2026-03-22T15:28:24.001Z</time></trkpt><trkpt lat="47.32818677793333" lon="-2.46993708403767"><ele>1.6666666666666665</ele><time>2026-03-22T15:28:25.001Z</time></trkpt><trkpt lat="47.32827534499884" lon="-2.4701507654896573"><ele>2.3333333333333335</ele><time>2026-03-22T15:28:26.001Z</time></trkpt><trkpt lat="47.32835612140592" lon="-2.4703625595808725"><ele>3.0</ele><time>2026-03-22T15:28:27.001Z</time></trkpt><trkpt lat="47.32842467548063" lon="-2.470590099402796"><ele>3.333333333333333</ele><time>2026-03-22T15:28:28.001Z</time></trkpt><trkpt lat="47.328488876689185" lon="-2.470833998211396"><ele>3.6666666666666665</ele><time>2026-03-22T15:28:29.001Z</time></trkpt><trkpt lat="47.328542249749404" lon="-2.4710891976453233"><ele>4.0</ele><time>2026-03-22T15:28:30.001Z</time></trkpt><trkpt lat="47.328585448084866" lon="-2.4713608529070332"><ele>4.0</ele><time>2026-03-22T15:28:31.001Z</time></trkpt><trkpt lat="47.32862270269042" lon="-2.471618003754768"><ele>4.0</ele><time>2026-03-22T15:28:32.001Z</time></trkpt><trkpt lat="47.32865838420778" lon="-2.47185345186518"><ele>4.0</ele><time>2026-03-22T15:28:33.001Z</time></trkpt><trkpt lat="47.32869402752294" lon="-2.472073147558177"><ele>3.8000000000000003</ele><time>2026-03-22T15:28:34.001Z</time></trkpt><trkpt lat="47.32872771080302" lon="-2.472281202793168"><ele>3.6000000000000005</ele><time>2026-03-22T15:28:35.001Z</time></trkpt><trkpt lat="47.32875868765194" lon="-2.472468336931028"><ele>3.4</ele><time>2026-03-22T15:28:36.001Z</time></trkpt><trkpt lat="47.32877817627793" lon="-2.4726001740118693"><ele>3.2</ele><time>2026-03-22T15:28:37.001Z</time></trkpt><trkpt lat="47.32879734622581" lon="-2.4727083466903848"><ele>3.0</ele><time>2026-03-22T15:28:39.001Z</time></trkpt><trkpt lat="47.32881758385545" lon="-2.4728002238798683"><ele>3.0</ele><time>2026-03-22T15:28:48.002Z</time></trkpt><trkpt lat="47.328824199556166" lon="-2.4729838700178024"><ele>3.0</ele><time>2026-03-22T15:28:56.002Z</time></trkpt><trkpt lat="47.328856883170396" lon="-2.4731441764682334"><ele>3.0</ele><time>2026-03-22T15:28:57.002Z</time></trkpt><trkpt lat="47.32889351332934" lon="-2.4733228986589566"><ele>3.0</ele><time>2026-03-22T15:28:58.002Z</time></trkpt><trkpt lat="47.328912143943484" lon="-2.4734798015806714"><ele>3.0</ele><time>2026-03-22T15:28:59.002Z</time></trkpt><trkpt lat="47.3289292145717" lon="-2.4736420381860857"><ele>3.0</ele><time>2026-03-22T15:29:00.002Z</time></trkpt><trkpt lat="47.32895424590695" lon="-2.473810415561973"><ele>3.0</ele><time>2026-03-22T15:29:01.002Z</time></trkpt><trkpt lat="47.32897171769052" lon="-2.473968551126623"><ele>3.0</ele><time>2026-03-22T15:29:02.001Z</time></trkpt><trkpt lat="47.328986315395774" lon="-2.4741360453202748"><ele>3.0</ele><time>2026-03-22T15:29:03.001Z</time></trkpt><trkpt lat="47.329018656728806" lon="-2.4742962934823445"><ele>3.0</ele><time>2026-03-22T15:29:04.001Z</time></trkpt><trkpt lat="47.329067340456696" lon="-2.474463286666287"><ele>3.0</ele><time>2026-03-22T15:29:05.001Z</time></trkpt><trkpt lat="47.32910921425462" lon="-2.474647513587706"><ele>3.0</ele><time>2026-03-22T15:29:06.001Z</time></trkpt><trkpt lat="47.32915191352153" lon="-2.4748264880597106"><ele>3.0</ele><time>2026-03-22T15:29:07.001Z</time></trkpt><trkpt lat="47.3291873915419" lon="-2.4749965019654883"><ele>3.0</ele><time>2026-03-22T15:29:08.001Z</time></trkpt><trkpt lat="47.329215387798904" lon="-2.4751538720729656"><ele>3.0</ele><time>2026-03-22T15:29:09.001Z</time></trkpt><trkpt lat="47.32923010136198" lon="-2.4753167440434907"><ele>3.0</ele><time>2026-03-22T15:29:10.001Z</time></trkpt><trkpt lat="47.32922934492891" lon="-2.4754854095374212"><ele>3.0</ele><time>2026-03-22T15:29:11.001Z</time></trkpt><trkpt lat="47.329202662963105" lon="-2.4756515016066443"><ele>3.0</ele><time>2026-03-22T15:29:12.001Z</time></trkpt><trkpt lat="47.329188066115535" lon="-2.475813569785217"><ele>3.0</ele><time>2026-03-22T15:29:13.001Z</time></trkpt><trkpt lat="47.32920545275645" lon="-2.475971729013735"><ele>3.0</ele><time>2026-03-22T15:29:14.001Z</time></trkpt><trkpt lat="47.32923443454249" lon="-2.4761476089414196"><ele>2.75</ele><time>2026-03-22T15:29:15.001Z</time></trkpt><trkpt lat="47.32927122114289" lon="-2.476330559337626"><ele>2.5</ele><time>2026-03-22T15:29:16.001Z</time></trkpt><trkpt lat="47.329313830894286" lon="-2.476524481360576"><ele>2.25</ele><time>2026-03-22T15:29:17.001Z</time></trkpt><trkpt lat="47.32935509933964" lon="-2.4767221227253975"><ele>2.0</ele><time>2026-03-22T15:29:18.001Z</time></trkpt><trkpt lat="47.329386319296276" lon="-2.4769092172750247"><ele>2.0</ele><time>2026-03-22T15:29:19.001Z</time></trkpt><trkpt lat="47.32941768045564" lon="-2.477072680343231"><ele>2.0</ele><time>2026-03-22T15:29:20.001Z</time></trkpt><trkpt lat="47.32947585421562" lon="-2.4771903352862195"><ele>2.0</ele><time>2026-03-22T15:29:21.001Z</time></trkpt><trkpt lat="47.329566278563895" lon="-2.4773135778893733"><ele>2.0</ele><time>2026-03-22T15:29:22.001Z</time></trkpt><trkpt lat="47.32967668329427" lon="-2.47745051664929"><ele>2.5</ele><time>2026-03-22T15:29:23.001Z</time></trkpt><trkpt lat="47.32978789404289" lon="-2.4775739450177814"><ele>3.0</ele><time>2026-03-22T15:29:24.001Z</time></trkpt><trkpt lat="47.329894157003494" lon="-2.4776726307484886"><ele>3.5</ele><time>2026-03-22T15:29:25.001Z</time></trkpt><trkpt lat="47.33000059177361" lon="-2.4777565432293462"><ele>4.0</ele><time>2026-03-22T15:29:26.001Z</time></trkpt><trkpt lat="47.33011324189075" lon="-2.4778322876638734"><ele>4.0</ele><time>2026-03-22T15:29:27.001Z</time></trkpt><trkpt lat="47.33023453280304" lon="-2.4779005821616713"><ele>4.0</ele><time>2026-03-22T15:29:28.001Z</time></trkpt><trkpt lat="47.33036247976873" lon="-2.477950146682262"><ele>4.0</ele><time>2026-03-22T15:29:29.001Z</time></trkpt><trkpt lat="47.330505954068705" lon="-2.477985300757415"><ele>4.0</ele><time>2026-03-22T15:29:30.001Z</time></trkpt><trkpt lat="47.33064985493563" lon="-2.4780175690696904"><ele>3.5</ele><time>2026-03-22T15:29:31.001Z</time></trkpt><trkpt lat="47.33078736691104" lon="-2.478064107672257"><ele>3.0</ele><time>2026-03-22T15:29:32.001Z</time></trkpt><trkpt lat="47.33091962047408" lon="-2.478130383134222"><ele>2.5</ele><time>2026-03-22T15:29:33.001Z</time></trkpt><trkpt lat="47.33103591473022" lon="-2.4782122401251008"><ele>2.0</ele><time>2026-03-22T15:29:34.001Z</time></trkpt><trkpt lat="47.331144050388126" lon="-2.4783255241561974"><ele>2.0</ele><time>2026-03-22T15:29:35.001Z</time></trkpt><trkpt lat="47.33124872820355" lon="-2.4784818702346842"><ele>2.0</ele><time>2026-03-22T15:29:36.001Z</time></trkpt><trkpt lat="47.33133750372316" lon="-2.478679225457647"><ele>2.0</ele><time>2026-03-22T15:29:37.001Z</time></trkpt><trkpt lat="47.33140279268218" lon="-2.478893858846219"><ele>2.0</ele><time>2026-03-22T15:29:38.001Z</time></trkpt><trkpt lat="47.3314542955285" lon="-2.4790921454735333"><ele>2.0</ele><time>2026-03-22T15:29:39.001Z</time></trkpt><trkpt lat="47.331495238054416" lon="-2.479290190419322"><ele>2.0</ele><time>2026-03-22T15:29:40.001Z</time></trkpt><trkpt lat="47.33151249411567" lon="-2.479513830957492"><ele>2.0</ele><time>2026-03-22T15:29:41.001Z</time></trkpt><trkpt lat="47.33150008251389" lon="-2.4797779372416513"><ele>2.0</ele><time>2026-03-22T15:29:42.001Z</time></trkpt><trkpt lat="47.33147897867199" lon="-2.4800795234906485"><ele>2.0</ele><time>2026-03-22T15:29:43.001Z</time></trkpt><trkpt lat="47.33146882729098" lon="-2.480389048490738"><ele>2.0</ele><time>2026-03-22T15:29:44.001Z</time></trkpt><trkpt lat="47.331459122404475" lon="-2.4806723151169647"><ele>2.0</ele><time>2026-03-22T15:29:45.001Z</time></trkpt><trkpt lat="47.33144648596056" lon="-2.4809312887654222"><ele>2.0</ele><time>2026-03-22T15:29:46.001Z</time></trkpt><trkpt lat="47.33143627211191" lon="-2.4811734694673637"><ele>2.0</ele><time>2026-03-22T15:29:47.001Z</time></trkpt><trkpt lat="47.3314336747378" lon="-2.4814029182601813"><ele>2.25</ele><time>2026-03-22T15:29:48.001Z</time></trkpt><trkpt lat="47.33143162382966" lon="-2.48161368994065"><ele>2.5</ele><time>2026-03-22T15:29:49.001Z</time></trkpt><trkpt lat="47.33142516963366" lon="-2.4818034119570203"><ele>2.75</ele><time>2026-03-22T15:29:50.001Z</time></trkpt><trkpt lat="47.33141882066476" lon="-2.4819865484358052"><ele>3.0</ele><time>2026-03-22T15:29:51.001Z</time></trkpt><trkpt lat="47.331419381843354" lon="-2.482160018841113"><ele>3.25</ele><time>2026-03-22T15:29:52.001Z</time></trkpt><trkpt lat="47.33142947264346" lon="-2.4823248796927255"><ele>3.5</ele><time>2026-03-22T15:29:53.001Z</time></trkpt><trkpt lat="47.33143692691052" lon="-2.482491732342882"><ele>3.75</ele><time>2026-03-22T15:29:54.001Z</time></trkpt><trkpt lat="47.331446229351904" lon="-2.4826592364467586"><ele>4.0</ele><time>2026-03-22T15:29:55.001Z</time></trkpt><trkpt lat="47.33145581399845" lon="-2.4828247919652076"><ele>4.0</ele><time>2026-03-22T15:29:56.001Z</time></trkpt><trkpt lat="47.33145914419655" lon="-2.4829885934422045"><ele>4.0</ele><time>2026-03-22T15:29:57.001Z</time></trkpt><trkpt lat="47.331459899696895" lon="-2.483143365040399"><ele>4.0</ele><time>2026-03-22T15:29:58.001Z</time></trkpt><trkpt lat="47.3314652031914" lon="-2.483285804770434"><ele>4.0</ele><time>2026-03-22T15:29:59Z</time></trkpt><trkpt lat="47.33148430111849" lon="-2.4834237580282523"><ele>4.0</ele><time>2026-03-22T15:30:00Z</time></trkpt><trkpt lat="47.331515316290684" lon="-2.483535345584201"><ele>3.9999999999999996</ele><time>2026-03-22T15:30:01Z</time></trkpt><trkpt lat="47.33155090179712" lon="-2.4836150503457333"><ele>4.0</ele><time>2026-03-22T15:30:02Z</time></trkpt><trkpt lat="47.331614499518444" lon="-2.483704809346812"><ele>4.0</ele><time>2026-03-22T15:30:04Z</time></trkpt><trkpt lat="47.33152282285238" lon="-2.4836380378446856"><ele>4.0</ele><time>2026-03-22T15:30:15Z</time></trkpt><trkpt lat="47.331436512057564" lon="-2.4836335084606396"><ele>3.9999999999999996</ele><time>2026-03-22T15:30:17Z</time></trkpt><trkpt lat="47.331397217291745" lon="-2.483721939608723"><ele>4.0</ele><time>2026-03-22T15:30:18Z</time></trkpt><trkpt lat="47.33136267081471" lon="-2.4838190374211293"><ele>4.0</ele><time>2026-03-22T15:30:19Z</time></trkpt><trkpt lat="47.33129518548204" lon="-2.4839264413601065"><ele>4.0</ele><time>2026-03-22T15:30:20Z</time></trkpt><trkpt lat="47.331213338533885" lon="-2.4840241668717655"><ele>4.0</ele><time>2026-03-22T15:30:21Z</time></trkpt><trkpt lat="47.33111057004166" lon="-2.484117608939157"><ele>4.0</ele><time>2026-03-22T15:30:22Z</time></trkpt><trkpt lat="47.33096794986236" lon="-2.484215105901971"><ele>4.0</ele><time>2026-03-22T15:30:23Z</time></trkpt><trkpt lat="47.33079404256906" lon="-2.484324553482066"><ele>4.0</ele><time>2026-03-22T15:30:24Z</time></trkpt><trkpt lat="47.33059028801623" lon="-2.4844572907515023"><ele>4.0</ele><time>2026-03-22T15:30:25Z</time></trkpt><trkpt lat="47.330396234213076" lon="-2.4845849902542403"><ele>3.6666666666666665</ele><time>2026-03-22T15:30:26Z</time></trkpt><trkpt lat="47.330228062605784" lon="-2.484688509294046"><ele>3.333333333333333</ele><time>2026-03-22T15:30:27Z</time></trkpt><trkpt lat="47.33008171765251" lon="-2.4847864997768405"><ele>3.0</ele><time>2026-03-22T15:30:28Z</time></trkpt><trkpt lat="47.32994284206138" lon="-2.484875348084788"><ele>3.0</ele><time>2026-03-22T15:30:29Z</time></trkpt><trkpt lat="47.32980576909273" lon="-2.4849589919687936"><ele>3.0</ele><time>2026-03-22T15:30:30Z</time></trkpt><trkpt lat="47.32967170752102" lon="-2.485064178085361"><ele>3.0</ele><time>2026-03-22T15:30:31Z</time></trkpt><trkpt lat="47.32953310363048" lon="-2.485197957120429"><ele>3.0</ele><time>2026-03-22T15:30:32Z</time></trkpt><trkpt lat="47.32939044771284" lon="-2.485345315679736"><ele>3.0</ele><time>2026-03-22T15:30:33Z</time></trkpt><trkpt lat="47.329266006654315" lon="-2.4854978672404777"><ele>3.0</ele><time>2026-03-22T15:30:34Z</time></trkpt><trkpt lat="47.32916267269995" lon="-2.485646191008495"><ele>3.0</ele><time>2026-03-22T15:30:35Z</time></trkpt><trkpt lat="47.32906409958053" lon="-2.485773421528154"><ele>3.0</ele><time>2026-03-22T15:30:36Z</time></trkpt><trkpt lat="47.32896605686324" lon="-2.485867244933999"><ele>3.0</ele><time>2026-03-22T15:30:37Z</time></trkpt><trkpt lat="47.3288504280083" lon="-2.485926810197725"><ele>3.0</ele><time>2026-03-22T15:30:38Z</time></trkpt><trkpt lat="47.328703469900134" lon="-2.4859456269237765"><ele>2.6666666666666665</ele><time>2026-03-22T15:30:39Z</time></trkpt><trkpt lat="47.32854044789584" lon="-2.4859510284131945"><ele>2.333333333333333</ele><time>2026-03-22T15:30:40Z</time></trkpt><trkpt lat="47.328382450408164" lon="-2.485940554507805"><ele>2.0</ele><time>2026-03-22T15:30:41Z</time></trkpt><trkpt lat="47.32823289625977" lon="-2.4859319156165496"><ele>2.0</ele><time>2026-03-22T15:30:42Z</time></trkpt><trkpt lat="47.328067375462396" lon="-2.485923913386969"><ele>2.0</ele><time>2026-03-22T15:30:43Z</time></trkpt><trkpt lat="47.32789968457859" lon="-2.4859282073214937"><ele>2.0</ele><time>2026-03-22T15:30:44Z</time></trkpt><trkpt lat="47.32773332782019" lon="-2.485952126987557"><ele>2.0</ele><time>2026-03-22T15:30:45Z</time></trkpt><trkpt lat="47.32756163579673" lon="-2.485999921102215"><ele>2.0</ele><time>2026-03-22T15:30:46Z</time></trkpt><trkpt lat="47.3273735005393" lon="-2.4860997215423333"><ele>2.0</ele><time>2026-03-22T15:30:47Z</time></trkpt><trkpt lat="47.327164141147875" lon="-2.4862379551944978"><ele>2.0</ele><time>2026-03-22T15:30:48Z</time></trkpt><trkpt lat="47.326946582297964" lon="-2.4863692391622165"><ele>2.0</ele><time>2026-03-22T15:30:49Z</time></trkpt><trkpt lat="47.32675387606764" lon="-2.4864664370427567"><ele>2.0</ele><time>2026-03-22T15:30:50Z</time></trkpt><trkpt lat="47.32657773858794" lon="-2.486556226465984"><ele>2.0</ele><time>2026-03-22T15:30:51Z</time></trkpt><trkpt lat="47.32641022829795" lon="-2.4866320740548202"><ele>2.0</ele><time>2026-03-22T15:30:52.001Z</time></trkpt><trkpt lat="47.32624988076792" lon="-2.486694877442119"><ele>2.0</ele><time>2026-03-22T15:30:53.001Z</time></trkpt><trkpt lat="47.326098726293594" lon="-2.4867514415324585"><ele>2.0</ele><time>2026-03-22T15:30:54.001Z</time></trkpt><trkpt lat="47.325954902207954" lon="-2.486782128325127"><ele>2.0</ele><time>2026-03-22T15:30:55.001Z</time></trkpt><trkpt lat="47.32581427741531" lon="-2.486784054712865"><ele>2.0</ele><time>2026-03-22T15:30:56.001Z</time></trkpt><trkpt lat="47.32567619887567" lon="-2.486749434400848"><ele>2.0</ele><time>2026-03-22T15:30:57.001Z</time></trkpt><trkpt lat="47.32554324028865" lon="-2.4866925641691524"><ele>1.6666666666666665</ele><time>2026-03-22T15:30:58.001Z</time></trkpt><trkpt lat="47.32541167018595" lon="-2.4865898320428803"><ele>1.3333333333333333</ele><time>2026-03-22T15:30:59.001Z</time></trkpt><trkpt lat="47.3252769993449" lon="-2.486453794413393"><ele>1.0</ele><time>2026-03-22T15:31:00.001Z</time></trkpt><trkpt lat="47.325133478301225" lon="-2.4863065170673635"><ele>1.0</ele><time>2026-03-22T15:31:01.001Z</time></trkpt><trkpt lat="47.32500428381261" lon="-2.4861747413130635"><ele>1.0</ele><time>2026-03-22T15:31:02.001Z</time></trkpt><trkpt lat="47.32488579888782" lon="-2.4860527937671977"><ele>1.0</ele><time>2026-03-22T15:31:03.001Z</time></trkpt><trkpt lat="47.32476368505455" lon="-2.4859368727221933"><ele>1.0</ele><time>2026-03-22T15:31:04.001Z</time></trkpt><trkpt lat="47.3246285314267" lon="-2.485843957053835"><ele>1.0</ele><time>2026-03-22T15:31:05.001Z</time></trkpt><trkpt lat="47.32448123732499" lon="-2.4857799375571665"><ele>1.0</ele><time>2026-03-22T15:31:06.001Z</time></trkpt><trkpt lat="47.324322814286596" lon="-2.4857408520193234"><ele>1.0</ele><time>2026-03-22T15:31:07.001Z</time></trkpt><trkpt lat="47.32416296818876" lon="-2.4857059153848344"><ele>1.0</ele><time>2026-03-22T15:31:08.001Z</time></trkpt><trkpt lat="47.323999673227036" lon="-2.485676081464603"><ele>1.0</ele><time>2026-03-22T15:31:09.001Z</time></trkpt><trkpt lat="47.323840371897106" lon="-2.4857062742504907"><ele>1.0</ele><time>2026-03-22T15:31:10.001Z</time></trkpt><trkpt lat="47.32367970405647" lon="-2.485789358604917"><ele>1.0</ele><time>2026-03-22T15:31:11.001Z</time></trkpt><trkpt lat="47.32352720792838" lon="-2.485896813274976"><ele>1.0</ele><time>2026-03-22T15:31:12.001Z</time></trkpt><trkpt lat="47.32336384601826" lon="-2.486020179121832"><ele>1.0</ele><time>2026-03-22T15:31:13.001Z</time></trkpt><trkpt lat="47.32319548814661" lon="-2.486139103607356"><ele>1.0</ele><time>2026-03-22T15:31:14.001Z</time></trkpt><trkpt lat="47.32303791697844" lon="-2.4862551755070617"><ele>1.0</ele><time>2026-03-22T15:31:15.001Z</time></trkpt><trkpt lat="47.32289499506438" lon="-2.4863689024900117"><ele>1.0</ele><time>2026-03-22T15:31:16.001Z</time></trkpt><trkpt lat="47.32276235218431" lon="-2.486466859696816"><ele>1.0</ele><time>2026-03-22T15:31:17.001Z</time></trkpt><trkpt lat="47.322645717335845" lon="-2.4865558689960836"><ele>1.0</ele><time>2026-03-22T15:31:18.001Z</time></trkpt><trkpt lat="47.32254902736034" lon="-2.486663090314385"><ele>1.0</ele><time>2026-03-22T15:31:19.001Z</time></trkpt><trkpt lat="47.32246998809627" lon="-2.486791841535565"><ele>1.0</ele><time>2026-03-22T15:31:20.001Z</time></trkpt><trkpt lat="47.32240610678716" lon="-2.486950327931419"><ele>1.0</ele><time>2026-03-22T15:31:21.001Z</time></trkpt><trkpt lat="47.32236009550306" lon="-2.487137071567219"><ele>1.0</ele><time>2026-03-22T15:31:22.001Z</time></trkpt><trkpt lat="47.32232678403088" lon="-2.4873337904219928"><ele>1.0</ele><time>2026-03-22T15:31:23.001Z</time></trkpt><trkpt lat="47.32228889309341" lon="-2.487523355428815"><ele>1.0</ele><time>2026-03-22T15:31:24.001Z</time></trkpt><trkpt lat="47.322224521865294" lon="-2.4876871738483914"><ele>1.0</ele><time>2026-03-22T15:31:25.001Z</time></trkpt><trkpt lat="47.32215918608963" lon="-2.4878187340584152"><ele>1.0</ele><time>2026-03-22T15:31:26Z</time></trkpt><trkpt lat="47.32210450245174" lon="-2.4879245045172134"><ele>1.0</ele><time>2026-03-22T15:31:27Z</time></trkpt><trkpt lat="47.322051482964156" lon="-2.4880249192718678"><ele>1.0</ele><time>2026-03-22T15:31:28Z</time></trkpt><trkpt lat="47.32199701983785" lon="-2.488121056163795"><ele>1.0</ele><time>2026-03-22T15:31:29Z</time></trkpt><trkpt lat="47.32193588892904" lon="-2.4882164552169597"><ele>0.8</ele><time>2026-03-22T15:31:30Z</time></trkpt><trkpt lat="47.321859636513075" lon="-2.488328652554205"><ele>0.6000000000000001</ele><time>2026-03-22T15:31:31Z</time></trkpt><trkpt lat="47.32178515850434" lon="-2.4884495876970036"><ele>0.4</ele><time>2026-03-22T15:31:32Z</time></trkpt><trkpt lat="47.32171596972279" lon="-2.4885732406994734"><ele>0.2</ele><time>2026-03-22T15:31:33Z</time></trkpt><trkpt lat="47.32165082047406" lon="-2.488697364087364"><ele>0.0</ele><time>2026-03-22T15:31:34Z</time></trkpt><trkpt lat="47.3215863907313" lon="-2.4888339185519257"><ele>0.0</ele><time>2026-03-22T15:31:35Z</time></trkpt><trkpt lat="47.32151917165015" lon="-2.4889768712872447"><ele>0.0</ele><time>2026-03-22T15:31:36Z</time></trkpt><trkpt lat="47.321457298916165" lon="-2.4891169375787916"><ele>0.0</ele><time>2026-03-22T15:31:37Z</time></trkpt><trkpt lat="47.32140196376286" lon="-2.4892461500609935"><ele>0.0</ele><time>2026-03-22T15:31:38Z</time></trkpt><trkpt lat="47.32136390048963" lon="-2.489386382398901"><ele>0.0</ele><time>2026-03-22T15:31:39Z</time></trkpt><trkpt lat="47.321352096450894" lon="-2.489539845904234"><ele>0.0</ele><time>2026-03-22T15:31:40Z</time></trkpt><trkpt lat="47.32135756467841" lon="-2.48968616188575"><ele>0.0</ele><time>2026-03-22T15:31:41Z</time></trkpt><trkpt lat="47.3213694172824" lon="-2.489829543118227"><ele>0.0</ele><time>2026-03-22T15:31:42Z</time></trkpt><trkpt lat="47.321379376935184" lon="-2.4899585837861724"><ele>0.0</ele><time>2026-03-22T15:31:43Z</time></trkpt><trkpt lat="47.321387765370176" lon="-2.490077514301705"><ele>0.0</ele><time>2026-03-22T15:31:44Z</time></trkpt><trkpt lat="47.321387656796055" lon="-2.490196126410734"><ele>0.0</ele><time>2026-03-22T15:31:45Z</time></trkpt><trkpt lat="47.32137896002567" lon="-2.4903166316268948"><ele>0.3333333333333333</ele><time>2026-03-22T15:31:46Z</time></trkpt><trkpt lat="47.32136348479967" lon="-2.4904372351635047"><ele>0.6666666666666666</ele><time>2026-03-22T15:31:47Z</time></trkpt><trkpt lat="47.32134213702632" lon="-2.4905471285934926"><ele>1.0</ele><time>2026-03-22T15:31:48Z</time></trkpt><trkpt lat="47.321314653925846" lon="-2.4906566255325773"><ele>1.3333333333333333</ele><time>2026-03-22T15:31:49Z</time></trkpt><trkpt lat="47.321275833613846" lon="-2.4907695655877395"><ele>1.6666666666666665</ele><time>2026-03-22T15:31:50Z</time></trkpt><trkpt lat="47.32122722045083" lon="-2.4908764179993974"><ele>2.0</ele><time>2026-03-22T15:31:51Z</time></trkpt><trkpt lat="47.321176394852735" lon="-2.4909769867502525"><ele>1.9999999999999998</ele><time>2026-03-22T15:31:52Z</time></trkpt><trkpt lat="47.32112891882583" lon="-2.491059905485953"><ele>2.0</ele><time>2026-03-22T15:31:53Z</time></trkpt><trkpt lat="47.321080911770935" lon="-2.4911265322129386"><ele>2.0</ele><time>2026-03-22T15:31:54Z</time></trkpt><trkpt lat="47.32101452981163" lon="-2.4912428778473092"><ele>2.0</ele><time>2026-03-22T15:31:56Z</time></trkpt><trkpt lat="47.32097423836317" lon="-2.491336228531064"><ele>1.9999999999999998</ele><time>2026-03-22T15:31:58Z</time></trkpt><trkpt lat="47.32090953033051" lon="-2.4913783515949084"><ele>2.0</ele><time>2026-03-22T15:31:59Z</time></trkpt><trkpt lat="47.32080669666382" lon="-2.4914458512328186"><ele>2.333333333333333</ele><time>2026-03-22T15:32:00Z</time></trkpt><trkpt lat="47.320704786022205" lon="-2.491580068797921"><ele>2.6666666666666665</ele><time>2026-03-22T15:32:01Z</time></trkpt><trkpt lat="47.320593077508654" lon="-2.4917470091226246"><ele>3.0</ele><time>2026-03-22T15:32:02Z</time></trkpt><trkpt lat="47.32047051072293" lon="-2.4919320631954616"><ele>3.666666666666667</ele><time>2026-03-22T15:32:03Z</time></trkpt><trkpt lat="47.320359860367994" lon="-2.492116658042963"><ele>4.333333333333334</ele><time>2026-03-22T15:32:04Z</time></trkpt><trkpt lat="47.32023904989324" lon="-2.492317743781826"><ele>5.0</ele><time>2026-03-22T15:32:05Z</time></trkpt><trkpt lat="47.32011495592496" lon="-2.4925203428639144"><ele>5.0</ele><time>2026-03-22T15:32:06Z</time></trkpt><trkpt lat="47.319995651841296" lon="-2.492715934644016"><ele>5.0</ele><time>2026-03-22T15:32:07Z</time></trkpt><trkpt lat="47.31988497439526" lon="-2.4928986208280604"><ele>5.0</ele><time>2026-03-22T15:32:08Z</time></trkpt><trkpt lat="47.31977932427298" lon="-2.4930675628148156"><ele>6.333333333333334</ele><time>2026-03-22T15:32:09Z</time></trkpt><trkpt lat="47.31966532953465" lon="-2.493228169680671"><ele>7.666666666666667</ele><time>2026-03-22T15:32:10Z</time></trkpt><trkpt lat="47.31952977617398" lon="-2.493376429708489"><ele>9.0</ele><time>2026-03-22T15:32:11Z</time></trkpt><trkpt lat="47.31938867045383" lon="-2.49351719991353"><ele>9.0</ele><time>2026-03-22T15:32:12Z</time></trkpt><trkpt lat="47.31924565660409" lon="-2.4936623187014946"><ele>9.0</ele><time>2026-03-22T15:32:13Z</time></trkpt><trkpt lat="47.31911646810104" lon="-2.4938385098153235"><ele>9.0</ele><time>2026-03-22T15:32:14Z</time></trkpt><trkpt lat="47.31908050360895" lon="-2.494098799577303"><ele>9.333333333333334</ele><time>2026-03-22T15:32:15Z</time></trkpt><trkpt lat="47.3189790945194" lon="-2.49428527223939"><ele>9.666666666666668</ele><time>2026-03-22T15:32:16Z</time></trkpt><trkpt lat="47.31887065790367" lon="-2.494469920173206"><ele>10.0</ele><time>2026-03-22T15:32:17Z</time></trkpt><trkpt lat="47.318754031791364" lon="-2.494649251414677"><ele>10.0</ele><time>2026-03-22T15:32:18Z</time></trkpt><trkpt lat="47.31863138086027" lon="-2.494822840076678"><ele>10.0</ele><time>2026-03-22T15:32:19Z</time></trkpt><trkpt lat="47.318509128766166" lon="-2.494999966202068"><ele>10.0</ele><time>2026-03-22T15:32:20Z</time></trkpt><trkpt lat="47.318393723523975" lon="-2.495189866786928"><ele>10.0</ele><time>2026-03-22T15:32:21Z</time></trkpt><trkpt lat="47.31827390772811" lon="-2.4953742921409585"><ele>10.0</ele><time>2026-03-22T15:32:22Z</time></trkpt><trkpt lat="47.31815240181739" lon="-2.4955599547797354"><ele>10.0</ele><time>2026-03-22T15:32:23Z</time></trkpt><trkpt lat="47.318027212676945" lon="-2.4957456191995075"><ele>10.666666666666668</ele><time>2026-03-22T15:32:24Z</time></trkpt><trkpt lat="47.317904993450476" lon="-2.4959314163504343"><ele>11.333333333333334</ele><time>2026-03-22T15:32:25Z</time></trkpt><trkpt lat="47.31778504631989" lon="-2.496118871741819"><ele>12.0</ele><time>2026-03-22T15:32:26Z</time></trkpt><trkpt lat="47.31766539461328" lon="-2.4963079731820823"><ele>12.0</ele><time>2026-03-22T15:32:27Z</time></trkpt><trkpt lat="47.31753102992615" lon="-2.49650280849829"><ele>12.0</ele><time>2026-03-22T15:32:28Z</time></trkpt><trkpt lat="47.31740680792589" lon="-2.4967051268979925"><ele>12.0</ele><time>2026-03-22T15:32:29Z</time></trkpt><trkpt lat="47.31727744717143" lon="-2.4969074150543884"><ele>12.0</ele><time>2026-03-22T15:32:30Z</time></trkpt><trkpt lat="47.31714076466143" lon="-2.497101989239166"><ele>12.0</ele><time>2026-03-22T15:32:31Z</time></trkpt><trkpt lat="47.317005562767875" lon="-2.4973074704401768"><ele>12.0</ele><time>2026-03-22T15:32:32Z</time></trkpt><trkpt lat="47.316873042677834" lon="-2.497521849916707"><ele>12.0</ele><time>2026-03-22T15:32:33Z</time></trkpt><trkpt lat="47.316733322159145" lon="-2.497730432370386"><ele>12.0</ele><time>2026-03-22T15:32:34Z</time></trkpt><trkpt lat="47.316594132103816" lon="-2.497931648268466"><ele>12.0</ele><time>2026-03-22T15:32:35Z</time></trkpt><trkpt lat="47.31646590373672" lon="-2.498148386658445"><ele>11.333333333333334</ele><time>2026-03-22T15:32:36Z</time></trkpt><trkpt lat="47.31633582342731" lon="-2.4983595068974305"><ele>10.666666666666668</ele><time>2026-03-22T15:32:37Z</time></trkpt><trkpt lat="47.31619946296523" lon="-2.4985657746679912"><ele>10.0</ele><time>2026-03-22T15:32:38Z</time></trkpt><trkpt lat="47.3160638330089" lon="-2.498773336151318"><ele>9.666666666666668</ele><time>2026-03-22T15:32:39Z</time></trkpt><trkpt lat="47.31592919207324" lon="-2.4989758946859926"><ele>9.333333333333334</ele><time>2026-03-22T15:32:40Z</time></trkpt><trkpt lat="47.31579728681583" lon="-2.4991731784962217"><ele>9.0</ele><time>2026-03-22T15:32:41Z</time></trkpt><trkpt lat="47.315665932674946" lon="-2.499372068004953"><ele>9.0</ele><time>2026-03-22T15:32:42Z</time></trkpt><trkpt lat="47.31553916783534" lon="-2.49956771431313"><ele>9.0</ele><time>2026-03-22T15:32:43Z</time></trkpt><trkpt lat="47.31541858731143" lon="-2.49975237992631"><ele>9.0</ele><time>2026-03-22T15:32:44Z</time></trkpt><trkpt lat="47.315299752001636" lon="-2.4999355162732178"><ele>9.0</ele><time>2026-03-22T15:32:45Z</time></trkpt><trkpt lat="47.315183204712696" lon="-2.5001057731476255"><ele>9.0</ele><time>2026-03-22T15:32:46Z</time></trkpt><trkpt lat="47.31507623884242" lon="-2.5002698935393832"><ele>9.0</ele><time>2026-03-22T15:32:47Z</time></trkpt><trkpt lat="47.314970679603924" lon="-2.500434582951823"><ele>9.0</ele><time>2026-03-22T15:32:48Z</time></trkpt><trkpt lat="47.31485762571267" lon="-2.500614261835433"><ele>9.0</ele><time>2026-03-22T15:32:49Z</time></trkpt><trkpt lat="47.31474653575958" lon="-2.5007905540281308"><ele>9.0</ele><time>2026-03-22T15:32:50Z</time></trkpt><trkpt lat="47.314627063120795" lon="-2.50095395407178"><ele>7.666666666666667</ele><time>2026-03-22T15:32:51Z</time></trkpt><trkpt lat="47.31451502195961" lon="-2.501116651199785"><ele>6.333333333333334</ele><time>2026-03-22T15:32:52Z</time></trkpt><trkpt lat="47.314408562343004" lon="-2.5012808338823507"><ele>5.0</ele><time>2026-03-22T15:32:53Z</time></trkpt><trkpt lat="47.314302950640936" lon="-2.501432458377078"><ele>5.0</ele><time>2026-03-22T15:32:54Z</time></trkpt><trkpt lat="47.31420570397419" lon="-2.501577157825903"><ele>5.0</ele><time>2026-03-22T15:32:55Z</time></trkpt><trkpt lat="47.31411205415693" lon="-2.501715689523444"><ele>5.0</ele><time>2026-03-22T15:32:56Z</time></trkpt><trkpt lat="47.31402244473794" lon="-2.5018467857436626"><ele>5.0</ele><time>2026-03-22T15:32:57Z</time></trkpt><trkpt lat="47.3139408562727" lon="-2.5019680955025794"><ele>4.25</ele><time>2026-03-22T15:32:58.001Z</time></trkpt><trkpt lat="47.31385798915445" lon="-2.5020797945516233"><ele>3.5</ele><time>2026-03-22T15:32:59.001Z</time></trkpt><trkpt lat="47.313778000582936" lon="-2.5021904457176363"><ele>2.75</ele><time>2026-03-22T15:33:00.001Z</time></trkpt><trkpt lat="47.31370256892247" lon="-2.5023079383743156"><ele>2.0</ele><time>2026-03-22T15:33:01.001Z</time></trkpt><trkpt lat="47.31360950915164" lon="-2.5024554941393733"><ele>2.0</ele><time>2026-03-22T15:33:02.001Z</time></trkpt><trkpt lat="47.31351647034028" lon="-2.5026019867095743"><ele>2.0</ele><time>2026-03-22T15:33:03.001Z</time></trkpt><trkpt lat="47.31342494454715" lon="-2.5027438985884456"><ele>2.0</ele><time>2026-03-22T15:33:04.001Z</time></trkpt><trkpt lat="47.313323182747986" lon="-2.5028930794780373"><ele>2.0</ele><time>2026-03-22T15:33:05.001Z</time></trkpt><trkpt lat="47.31322705636169" lon="-2.5030346138703186"><ele>2.25</ele><time>2026-03-22T15:33:06.001Z</time></trkpt><trkpt lat="47.313139458244464" lon="-2.5031735749086947"><ele>2.5</ele><time>2026-03-22T15:33:07.001Z</time></trkpt><trkpt lat="47.3130602312597" lon="-2.5033001398187245"><ele>2.75</ele><time>2026-03-22T15:33:08.001Z</time></trkpt><trkpt lat="47.312979649989714" lon="-2.5034076787490744"><ele>3.0</ele><time>2026-03-22T15:33:09.001Z</time></trkpt><trkpt lat="47.312903318316444" lon="-2.5035076843668267"><ele>3.0</ele><time>2026-03-22T15:33:10.001Z</time></trkpt><trkpt lat="47.312830187829064" lon="-2.5036066305556295"><ele>3.0</ele><time>2026-03-22T15:33:11.001Z</time></trkpt><trkpt lat="47.31275886180378" lon="-2.5037066299909285"><ele>3.0</ele><time>2026-03-22T15:33:12.001Z</time></trkpt><trkpt lat="47.31268975629648" lon="-2.503791864047095"><ele>3.0</ele><time>2026-03-22T15:33:13.001Z</time></trkpt><trkpt lat="47.31262415474255" lon="-2.503873734275619"><ele>3.0</ele><time>2026-03-22T15:33:14.001Z</time></trkpt><trkpt lat="47.31256384804343" lon="-2.5039577010100538"><ele>3.3333333333333335</ele><time>2026-03-22T15:33:15.001Z</time></trkpt><trkpt lat="47.31250236259325" lon="-2.504037276321131"><ele>3.666666666666667</ele><time>2026-03-22T15:33:16Z</time></trkpt><trkpt lat="47.31244009065349" lon="-2.504111497599027"><ele>4.0</ele><time>2026-03-22T15:33:17Z</time></trkpt><trkpt lat="47.312376722389814" lon="-2.5041883164439196"><ele>4.333333333333334</ele><time>2026-03-22T15:33:18Z</time></trkpt><trkpt lat="47.31231464758564" lon="-2.5042671295847305"><ele>4.666666666666667</ele><time>2026-03-22T15:33:19Z</time></trkpt><trkpt lat="47.31225183396077" lon="-2.504345201178387"><ele>5.0</ele><time>2026-03-22T15:33:20Z</time></trkpt><trkpt lat="47.312186144727825" lon="-2.5044283758838852"><ele>5.0</ele><time>2026-03-22T15:33:21Z</time></trkpt><trkpt lat="47.31212824664924" lon="-2.5045063093213176"><ele>5.0</ele><time>2026-03-22T15:33:22Z</time></trkpt><trkpt lat="47.312072324408334" lon="-2.5045791732138207"><ele>5.0</ele><time>2026-03-22T15:33:23Z</time></trkpt><trkpt lat="47.312016858199456" lon="-2.504647269802185"><ele>5.0</ele><time>2026-03-22T15:33:24Z</time></trkpt><trkpt lat="47.311958020040436" lon="-2.504717594669758"><ele>5.0</ele><time>2026-03-22T15:33:25Z</time></trkpt><trkpt lat="47.311901428226896" lon="-2.504788351393148"><ele>5.0</ele><time>2026-03-22T15:33:26Z</time></trkpt><trkpt lat="47.3118442329268" lon="-2.5048569429683325"><ele>5.0</ele><time>2026-03-22T15:33:27Z</time></trkpt><trkpt lat="47.31178563869065" lon="-2.5049335791019365"><ele>5.0</ele><time>2026-03-22T15:33:28Z</time></trkpt><trkpt lat="47.31171636836084" lon="-2.5050130240940525"><ele>5.0</ele><time>2026-03-22T15:33:29Z</time></trkpt><trkpt lat="47.31164268597505" lon="-2.50509832809161"><ele>5.0</ele><time>2026-03-22T15:33:30Z</time></trkpt><trkpt lat="47.311564624240866" lon="-2.5051890848660068"><ele>5.0</ele><time>2026-03-22T15:33:31Z</time></trkpt><trkpt lat="47.311477112033934" lon="-2.5052792593977413"><ele>5.0</ele><time>2026-03-22T15:33:32Z</time></trkpt><trkpt lat="47.31137746299989" lon="-2.5053644214889483"><ele>5.25</ele><time>2026-03-22T15:33:33Z</time></trkpt><trkpt lat="47.311275207678634" lon="-2.505449101017041"><ele>5.5</ele><time>2026-03-22T15:33:34Z</time></trkpt><trkpt lat="47.31116572023294" lon="-2.5055313741741094"><ele>5.75</ele><time>2026-03-22T15:33:35Z</time></trkpt><trkpt lat="47.31105116701886" lon="-2.5056183884633136"><ele>6.0</ele><time>2026-03-22T15:33:36Z</time></trkpt><trkpt lat="47.310936981980426" lon="-2.5057139626372615"><ele>6.0</ele><time>2026-03-22T15:33:37Z</time></trkpt><trkpt lat="47.31082496007995" lon="-2.505806473023931"><ele>6.0</ele><time>2026-03-22T15:33:38Z</time></trkpt><trkpt lat="47.31071417888257" lon="-2.5058955088294836"><ele>6.0</ele><time>2026-03-22T15:33:39Z</time></trkpt><trkpt lat="47.3106045147828" lon="-2.505978424410584"><ele>6.0</ele><time>2026-03-22T15:33:40Z</time></trkpt><trkpt lat="47.310499389471275" lon="-2.506058807349343"><ele>5.8</ele><time>2026-03-22T15:33:41Z</time></trkpt><trkpt lat="47.31040066755065" lon="-2.5061398951330145"><ele>5.6</ele><time>2026-03-22T15:33:42Z</time></trkpt><trkpt lat="47.31030969882027" lon="-2.506210799797634"><ele>5.4</ele><time>2026-03-22T15:33:43Z</time></trkpt><trkpt lat="47.31022054448089" lon="-2.506282220202947"><ele>5.2</ele><time>2026-03-22T15:33:44Z</time></trkpt><trkpt lat="47.31013200640777" lon="-2.5063493842675078"><ele>5.0</ele><time>2026-03-22T15:33:45Z</time></trkpt><trkpt lat="47.310044727001284" lon="-2.5064171322693025"><ele>5.0</ele><time>2026-03-22T15:33:46Z</time></trkpt><trkpt lat="47.30995460912964" lon="-2.5064894820280843"><ele>5.0</ele><time>2026-03-22T15:33:47Z</time></trkpt><trkpt lat="47.309859464128664" lon="-2.5065599265071916"><ele>5.0</ele><time>2026-03-22T15:33:48Z</time></trkpt><trkpt lat="47.30975981591876" lon="-2.506633754103944"><ele>5.0</ele><time>2026-03-22T15:33:49Z</time></trkpt><trkpt lat="47.30965542447265" lon="-2.506715046151433"><ele>5.0</ele><time>2026-03-22T15:33:50Z</time></trkpt><trkpt lat="47.30954514157677" lon="-2.5067990130326003"><ele>4.5</ele><time>2026-03-22T15:33:51Z</time></trkpt><trkpt lat="47.30943251482834" lon="-2.5068837732267553"><ele>4.0</ele><time>2026-03-22T15:33:52Z</time></trkpt><trkpt lat="47.309319298334934" lon="-2.50697606674815"><ele>3.5</ele><time>2026-03-22T15:33:53Z</time></trkpt><trkpt lat="47.309204389307325" lon="-2.507065709632112"><ele>3.0</ele><time>2026-03-22T15:33:54Z</time></trkpt><trkpt lat="47.309084893872964" lon="-2.5071497527309705"><ele>3.0</ele><time>2026-03-22T15:33:55Z</time></trkpt><trkpt lat="47.30896581364416" lon="-2.507238827494566"><ele>3.0</ele><time>2026-03-22T15:33:56Z</time></trkpt><trkpt lat="47.30884967455143" lon="-2.507330750982361"><ele>3.0</ele><time>2026-03-22T15:33:57Z</time></trkpt><trkpt lat="47.3087368706231" lon="-2.5074137079282313"><ele>3.0</ele><time>2026-03-22T15:33:58Z</time></trkpt><trkpt lat="47.30862750902669" lon="-2.507503591743942"><ele>3.25</ele><time>2026-03-22T15:33:59Z</time></trkpt><trkpt lat="47.3085216953073" lon="-2.507599092311504"><ele>3.5</ele><time>2026-03-22T15:34:00Z</time></trkpt><trkpt lat="47.30841501779871" lon="-2.507688774859244"><ele>3.75</ele><time>2026-03-22T15:34:01Z</time></trkpt><trkpt lat="47.30830549931412" lon="-2.5077720336086964"><ele>4.0</ele><time>2026-03-22T15:34:02Z</time></trkpt><trkpt lat="47.30819669118165" lon="-2.507853271514867"><ele>4.25</ele><time>2026-03-22T15:34:03Z</time></trkpt><trkpt lat="47.30808957311894" lon="-2.507936328224989"><ele>4.5</ele><time>2026-03-22T15:34:04Z</time></trkpt><trkpt lat="47.30798208941198" lon="-2.508015639008625"><ele>4.75</ele><time>2026-03-22T15:34:05Z</time></trkpt><trkpt lat="47.30787751304068" lon="-2.5080894526104625"><ele>5.0</ele><time>2026-03-22T15:34:06Z</time></trkpt><trkpt lat="47.30778017732796" lon="-2.508160871694438"><ele>5.0</ele><time>2026-03-22T15:34:07Z</time></trkpt><trkpt lat="47.3076885542366" lon="-2.5082295197056856"><ele>5.0</ele><time>2026-03-22T15:34:08Z</time></trkpt><trkpt lat="47.307602070203615" lon="-2.508291817792378"><ele>5.0</ele><time>2026-03-22T15:34:09Z</time></trkpt><trkpt lat="47.30752183767312" lon="-2.508346769814225"><ele>5.0</ele><time>2026-03-22T15:34:10Z</time></trkpt><trkpt lat="47.30744672455684" lon="-2.508398774156007"><ele>5.0</ele><time>2026-03-22T15:34:11Z</time></trkpt><trkpt lat="47.30737779180959" lon="-2.5084499051752576"><ele>5.0</ele><time>2026-03-22T15:34:12Z</time></trkpt><trkpt lat="47.307315524114976" lon="-2.5084975706996526"><ele>5.0</ele><time>2026-03-22T15:34:13Z</time></trkpt><trkpt lat="47.307223600964406" lon="-2.5085789424801774"><ele>5.0</ele><time>2026-03-22T15:34:15Z</time></trkpt><trkpt lat="47.30716911356857" lon="-2.5086336486298473"><ele>5.0</ele><time>2026-03-22T15:34:18Z</time></trkpt><trkpt lat="47.30716658505199" lon="-2.508531155029598"><ele>5.0</ele><time>2026-03-22T15:34:24Z</time></trkpt><trkpt lat="47.30723961155506" lon="-2.508518120295786"><ele>5.0</ele><time>2026-03-22T15:34:28Z</time></trkpt><trkpt lat="47.30731490465219" lon="-2.50848224975661"><ele>5.0</ele><time>2026-03-22T15:34:31Z</time></trkpt><trkpt lat="47.30737821205896" lon="-2.5084326107652326"><ele>5.0</ele><time>2026-03-22T15:34:32.999Z</time></trkpt><trkpt lat="47.30743527920053" lon="-2.5083869122247453"><ele>5.0</ele><time>2026-03-22T15:34:34.999Z</time></trkpt><trkpt lat="47.30750718909205" lon="-2.508331897982872"><ele>5.0</ele><time>2026-03-22T15:34:38.999Z</time></trkpt><trkpt lat="47.30759165796826" lon="-2.508278671550875"><ele>5.0</ele><time>2026-03-22T15:34:41.999Z</time></trkpt><trkpt lat="47.30766328515291" lon="-2.50822950398234"><ele>5.0</ele><time>2026-03-22T15:34:43.999Z</time></trkpt><trkpt lat="47.30777311576257" lon="-2.508144775839171"><ele>5.0</ele><time>2026-03-22T15:34:45.999Z</time></trkpt><trkpt lat="47.30784268469812" lon="-2.5080960447874756"><ele>5.0</ele><time>2026-03-22T15:34:46.999Z</time></trkpt><trkpt lat="47.30791940315352" lon="-2.5080431517358295"><ele>5.0</ele><time>2026-03-22T15:34:47.999Z</time></trkpt><trkpt lat="47.307999496215835" lon="-2.5079849892474035"><ele>5.0</ele><time>2026-03-22T15:34:48.999Z</time></trkpt><trkpt lat="47.30807723012846" lon="-2.5079248594430834"><ele>5.0</ele><time>2026-03-22T15:34:49.999Z</time></trkpt><trkpt lat="47.30822719309399" lon="-2.507807798500436"><ele>5.0</ele><time>2026-03-22T15:34:50.999Z</time></trkpt><trkpt lat="47.308331587757394" lon="-2.507733717651795"><ele>4.8</ele><time>2026-03-22T15:34:51.999Z</time></trkpt><trkpt lat="47.308420832945984" lon="-2.507663209105785"><ele>4.6</ele><time>2026-03-22T15:34:52.999Z</time></trkpt><trkpt lat="47.30851234166179" lon="-2.507597649742871"><ele>4.4</ele><time>2026-03-22T15:34:53.999Z</time></trkpt><trkpt lat="47.30859829616906" lon="-2.5075350653903556"><ele>4.2</ele><time>2026-03-22T15:34:54.999Z</time></trkpt><trkpt lat="47.30868594841306" lon="-2.5074654335203865"><ele>4.0</ele><time>2026-03-22T15:34:55.999Z</time></trkpt><trkpt lat="47.30877917252912" lon="-2.5073915456429683"><ele>4.0</ele><time>2026-03-22T15:34:56.999Z</time></trkpt><trkpt lat="47.30887568213317" lon="-2.5073197359810315"><ele>4.0</ele><time>2026-03-22T15:34:57.999Z</time></trkpt><trkpt lat="47.308971809414274" lon="-2.507247781605348"><ele>4.0</ele><time>2026-03-22T15:34:58.999Z</time></trkpt><trkpt lat="47.30907521090883" lon="-2.5071724662398918"><ele>4.0</ele><time>2026-03-22T15:34:59.999Z</time></trkpt><trkpt lat="47.309184605682226" lon="-2.5070930088709344"><ele>3.25</ele><time>2026-03-22T15:35:00.999Z</time></trkpt><trkpt lat="47.309297262652244" lon="-2.5070086559291713"><ele>2.5</ele><time>2026-03-22T15:35:01.999Z</time></trkpt><trkpt lat="47.309409829244665" lon="-2.506928501267055"><ele>1.75</ele><time>2026-03-22T15:35:02.999Z</time></trkpt><trkpt lat="47.30954408841204" lon="-2.506825320118133"><ele>1.0</ele><time>2026-03-22T15:35:04.001Z</time></trkpt><trkpt lat="47.30969484907024" lon="-2.506710859050637"><ele>2.0</ele><time>2026-03-22T15:35:05.001Z</time></trkpt><trkpt lat="47.309826056369644" lon="-2.5066079786536455"><ele>3.0</ele><time>2026-03-22T15:35:06.001Z</time></trkpt><trkpt lat="47.30994199452347" lon="-2.5064932122373755"><ele>4.0</ele><time>2026-03-22T15:35:07.001Z</time></trkpt><trkpt lat="47.310046783399294" lon="-2.5063909846265435"><ele>5.0</ele><time>2026-03-22T15:35:08.001Z</time></trkpt><trkpt lat="47.31014941414655" lon="-2.5063076630001944"><ele>4.75</ele><time>2026-03-22T15:35:09.001Z</time></trkpt><trkpt lat="47.31025364836066" lon="-2.506228736722687"><ele>4.5</ele><time>2026-03-22T15:35:10.001Z</time></trkpt><trkpt lat="47.31036111814411" lon="-2.5061454010651096"><ele>4.25</ele><time>2026-03-22T15:35:11.001Z</time></trkpt><trkpt lat="47.31046944919548" lon="-2.5060614814172273"><ele>4.0</ele><time>2026-03-22T15:35:12Z</time></trkpt><trkpt lat="47.31057444941303" lon="-2.505974632730128"><ele>4.5</ele><time>2026-03-22T15:35:13Z</time></trkpt><trkpt lat="47.31068144489702" lon="-2.505893077746128"><ele>5.0</ele><time>2026-03-22T15:35:14Z</time></trkpt><trkpt lat="47.3107879298694" lon="-2.505811100555635"><ele>5.5</ele><time>2026-03-22T15:35:15Z</time></trkpt><trkpt lat="47.31089155582669" lon="-2.5057287120853236"><ele>6.0</ele><time>2026-03-22T15:35:16Z</time></trkpt><trkpt lat="47.31099075057905" lon="-2.505653078517823"><ele>6.0</ele><time>2026-03-22T15:35:17Z</time></trkpt><trkpt lat="47.31108704941546" lon="-2.505579128120623"><ele>6.0</ele><time>2026-03-22T15:35:18Z</time></trkpt><trkpt lat="47.31118165617666" lon="-2.5055058694655425"><ele>6.0</ele><time>2026-03-22T15:35:19Z</time></trkpt><trkpt lat="47.31127290713732" lon="-2.5054386276818663"><ele>6.0</ele><time>2026-03-22T15:35:20Z</time></trkpt><trkpt lat="47.311358330327714" lon="-2.5053666703390727"><ele>6.0</ele><time>2026-03-22T15:35:21Z</time></trkpt><trkpt lat="47.31143959629258" lon="-2.505293706316833"><ele>5.833333333333333</ele><time>2026-03-22T15:35:22Z</time></trkpt><trkpt lat="47.311517435809606" lon="-2.5052244645835677"><ele>5.666666666666667</ele><time>2026-03-22T15:35:23Z</time></trkpt><trkpt lat="47.311589989794854" lon="-2.5051481896482355"><ele>5.5</ele><time>2026-03-22T15:35:24Z</time></trkpt><trkpt lat="47.31165805243669" lon="-2.505067788382446"><ele>5.333333333333334</ele><time>2026-03-22T15:35:25Z</time></trkpt><trkpt lat="47.31172217411554" lon="-2.504995720237238"><ele>5.166666666666667</ele><time>2026-03-22T15:35:26Z</time></trkpt><trkpt lat="47.31177395938454" lon="-2.5049338351428454"><ele>5.0</ele><time>2026-03-22T15:35:27Z</time></trkpt><trkpt lat="47.31186216761979" lon="-2.5048285436468496"><ele>5.0</ele><time>2026-03-22T15:35:29Z</time></trkpt><trkpt lat="47.31195079223765" lon="-2.5047309811708556"><ele>5.0</ele><time>2026-03-22T15:35:31Z</time></trkpt><trkpt lat="47.31204171744518" lon="-2.504618536604254"><ele>5.0</ele><time>2026-03-22T15:35:33Z</time></trkpt><trkpt lat="47.31208727455257" lon="-2.504550775215869"><ele>5.0</ele><time>2026-03-22T15:35:34Z</time></trkpt><trkpt lat="47.3121351977571" lon="-2.5044865674404164"><ele>5.0</ele><time>2026-03-22T15:35:35Z</time></trkpt><trkpt lat="47.31218380788235" lon="-2.5044261818245697"><ele>5.0</ele><time>2026-03-22T15:35:36Z</time></trkpt><trkpt lat="47.31223755123275" lon="-2.504358905936969"><ele>5.0</ele><time>2026-03-22T15:35:37Z</time></trkpt><trkpt lat="47.312292596078265" lon="-2.504284091973508"><ele>5.0</ele><time>2026-03-22T15:35:38Z</time></trkpt><trkpt lat="47.312346212931644" lon="-2.504214561287151"><ele>5.0</ele><time>2026-03-22T15:35:39Z</time></trkpt><trkpt lat="47.31239850624507" lon="-2.5041492248730424"><ele>5.0</ele><time>2026-03-22T15:35:40Z</time></trkpt><trkpt lat="47.31244703096961" lon="-2.504090056403694"><ele>5.0</ele><time>2026-03-22T15:35:41Z</time></trkpt><trkpt lat="47.312540266654075" lon="-2.5039699829720194"><ele>5.0</ele><time>2026-03-22T15:35:43Z</time></trkpt><trkpt lat="47.31258851945732" lon="-2.5039075380521645"><ele>5.0</ele><time>2026-03-22T15:35:44Z</time></trkpt><trkpt lat="47.312637218307145" lon="-2.50384439428062"><ele>5.0</ele><time>2026-03-22T15:35:45Z</time></trkpt><trkpt lat="47.312686293542086" lon="-2.5037789368137977"><ele>5.0</ele><time>2026-03-22T15:35:46Z</time></trkpt><trkpt lat="47.312733481115565" lon="-2.5037154425895536"><ele>5.0</ele><time>2026-03-22T15:35:47Z</time></trkpt><trkpt lat="47.31278825221131" lon="-2.503643955814288"><ele>5.0</ele><time>2026-03-22T15:35:48Z</time></trkpt><trkpt lat="47.31285658550241" lon="-2.503553641062662"><ele>5.0</ele><time>2026-03-22T15:35:49Z</time></trkpt><trkpt lat="47.31293275711523" lon="-2.503443783771736"><ele>5.0</ele><time>2026-03-22T15:35:50Z</time></trkpt><trkpt lat="47.31300943609447" lon="-2.503333185737927"><ele>5.0</ele><time>2026-03-22T15:35:51Z</time></trkpt><trkpt lat="47.31308501813192" lon="-2.503224395934624"><ele>5.0</ele><time>2026-03-22T15:35:52Z</time></trkpt><trkpt lat="47.31315872429062" lon="-2.50312029060142"><ele>5.0</ele><time>2026-03-22T15:35:53Z</time></trkpt><trkpt lat="47.31322997089581" lon="-2.503020288663377"><ele>5.0</ele><time>2026-03-22T15:35:54Z</time></trkpt><trkpt lat="47.3132991160832" lon="-2.502921896628452"><ele>4.5</ele><time>2026-03-22T15:35:55Z</time></trkpt><trkpt lat="47.3133608800967" lon="-2.502830943827803"><ele>4.0</ele><time>2026-03-22T15:35:56Z</time></trkpt><trkpt lat="47.31341394734233" lon="-2.5027485353765093"><ele>3.5</ele><time>2026-03-22T15:35:57Z</time></trkpt><trkpt lat="47.313466047841125" lon="-2.5026696741438337"><ele>3.0</ele><time>2026-03-22T15:35:58Z</time></trkpt><trkpt lat="47.31351854325153" lon="-2.502580011360784"><ele>2.5</ele><time>2026-03-22T15:35:59Z</time></trkpt><trkpt lat="47.31357297255976" lon="-2.5024948175404518"><ele>2.0</ele><time>2026-03-22T15:36:00Z</time></trkpt><trkpt lat="47.31362448575409" lon="-2.5024190095618937"><ele>2.0</ele><time>2026-03-22T15:36:01Z</time></trkpt><trkpt lat="47.31367709909777" lon="-2.5023478441388596"><ele>2.0</ele><time>2026-03-22T15:36:03Z</time></trkpt><trkpt lat="47.31377031534481" lon="-2.502228686295833"><ele>2.0</ele><time>2026-03-22T15:36:06Z</time></trkpt><trkpt lat="47.31384476111659" lon="-2.502131217737482"><ele>2.0</ele><time>2026-03-22T15:36:07Z</time></trkpt><trkpt lat="47.3139349585273" lon="-2.5019962483064133"><ele>2.0</ele><time>2026-03-22T15:36:08Z</time></trkpt><trkpt lat="47.31403977424338" lon="-2.5018050732045913"><ele>2.75</ele><time>2026-03-22T15:36:09Z</time></trkpt><trkpt lat="47.31413318981683" lon="-2.501647600202476"><ele>3.5</ele><time>2026-03-22T15:36:10Z</time></trkpt><trkpt lat="47.314219156867956" lon="-2.5015104154310888"><ele>4.25</ele><time>2026-03-22T15:36:11Z</time></trkpt><trkpt lat="47.31430176495516" lon="-2.501384623902855"><ele>5.0</ele><time>2026-03-22T15:36:12Z</time></trkpt><trkpt lat="47.31438967803531" lon="-2.501261854605912"><ele>5.0</ele><time>2026-03-22T15:36:13Z</time></trkpt><trkpt lat="47.31449510237813" lon="-2.5011419288056116"><ele>5.0</ele><time>2026-03-22T15:36:14Z</time></trkpt><trkpt lat="47.314589326759325" lon="-2.5010190332289968"><ele>5.0</ele><time>2026-03-22T15:36:15Z</time></trkpt><trkpt lat="47.31467428299015" lon="-2.5008942383934136"><ele>5.0</ele><time>2026-03-22T15:36:15.999Z</time></trkpt><trkpt lat="47.314777552919125" lon="-2.5007642790090925"><ele>6.333333333333334</ele><time>2026-03-22T15:36:16.999Z</time></trkpt><trkpt lat="47.314912605916234" lon="-2.500610535780287"><ele>7.666666666666667</ele><time>2026-03-22T15:36:17.999Z</time></trkpt><trkpt lat="47.315058098395454" lon="-2.500418407308311"><ele>9.0</ele><time>2026-03-22T15:36:18.999Z</time></trkpt><trkpt lat="47.31518594249013" lon="-2.500192419142457"><ele>9.0</ele><time>2026-03-22T15:36:19.999Z</time></trkpt><trkpt lat="47.31530274332123" lon="-2.4999868374481764"><ele>9.0</ele><time>2026-03-22T15:36:20.999Z</time></trkpt><trkpt lat="47.31539809359325" lon="-2.4997994110465274"><ele>9.0</ele><time>2026-03-22T15:36:21.999Z</time></trkpt><trkpt lat="47.315500902830394" lon="-2.499630221696989"><ele>9.0</ele><time>2026-03-22T15:36:22.999Z</time></trkpt><trkpt lat="47.31559138058902" lon="-2.4994660560083575"><ele>9.0</ele><time>2026-03-22T15:36:23.999Z</time></trkpt><trkpt lat="47.315683740322896" lon="-2.4993048776771025"><ele>9.0</ele><time>2026-03-22T15:36:24.999Z</time></trkpt><trkpt lat="47.315778694197434" lon="-2.4991433742466027"><ele>9.0</ele><time>2026-03-22T15:36:25.999Z</time></trkpt><trkpt lat="47.315883517949864" lon="-2.498995549793917"><ele>9.0</ele><time>2026-03-22T15:36:26.999Z</time></trkpt><trkpt lat="47.31598029055381" lon="-2.498837035661788"><ele>9.0</ele><time>2026-03-22T15:36:27.999Z</time></trkpt><trkpt lat="47.316085691473745" lon="-2.498683079953918"><ele>9.0</ele><time>2026-03-22T15:36:28.999Z</time></trkpt><trkpt lat="47.31619065768536" lon="-2.4985227282693394"><ele>9.0</ele><time>2026-03-22T15:36:29.999Z</time></trkpt><trkpt lat="47.316303178258295" lon="-2.498372066641191"><ele>10.0</ele><time>2026-03-22T15:36:30.999Z</time></trkpt><trkpt lat="47.31641569793934" lon="-2.498216795017612"><ele>11.0</ele><time>2026-03-22T15:36:31.999Z</time></trkpt><trkpt lat="47.316524157487294" lon="-2.4980542734442737"><ele>12.0</ele><time>2026-03-22T15:36:32.999Z</time></trkpt><trkpt lat="47.316632987478144" lon="-2.49788881105471"><ele>12.0</ele><time>2026-03-22T15:36:33.999Z</time></trkpt><trkpt lat="47.316746658537895" lon="-2.4977242197921683"><ele>12.0</ele><time>2026-03-22T15:36:34.999Z</time></trkpt><trkpt lat="47.31686011227082" lon="-2.497558174772595"><ele>12.0</ele><time>2026-03-22T15:36:35.999Z</time></trkpt><trkpt lat="47.316975381736064" lon="-2.4973845288417915"><ele>12.0</ele><time>2026-03-22T15:36:36.999Z</time></trkpt><trkpt lat="47.317081157442445" lon="-2.497196010444819"><ele>12.0</ele><time>2026-03-22T15:36:37.999Z</time></trkpt><trkpt lat="47.31718611452584" lon="-2.4969775520651853"><ele>12.0</ele><time>2026-03-22T15:36:38.999Z</time></trkpt><trkpt lat="47.31727530491202" lon="-2.4967403216774935"><ele>12.0</ele><time>2026-03-22T15:36:39.999Z</time></trkpt><trkpt lat="47.3173644582223" lon="-2.4964941680845922"><ele>12.0</ele><time>2026-03-22T15:36:40.999Z</time></trkpt><trkpt lat="47.317465797290296" lon="-2.496247134810845"><ele>12.0</ele><time>2026-03-22T15:36:41.999Z</time></trkpt><trkpt lat="47.317566733093834" lon="-2.495963500049554"><ele>12.333333333333332</ele><time>2026-03-22T15:36:42.999Z</time></trkpt><trkpt lat="47.31764343530892" lon="-2.495652959691945"><ele>12.666666666666666</ele><time>2026-03-22T15:36:43.999Z</time></trkpt><trkpt lat="47.31771702573129" lon="-2.495342353573638"><ele>13.0</ele><time>2026-03-22T15:36:44.999Z</time></trkpt><trkpt lat="47.31776186067988" lon="-2.4950133694559593"><ele>12.0</ele><time>2026-03-22T15:36:45.999Z</time></trkpt><trkpt lat="47.31808696406009" lon="-2.495707618947502"><ele>12.0</ele><time>2026-03-22T15:36:46.999Z</time></trkpt><trkpt lat="47.318196847623476" lon="-2.495551462639866"><ele>12.0</ele><time>2026-03-22T15:36:47.999Z</time></trkpt><trkpt lat="47.31830439115777" lon="-2.495392382659529"><ele>12.0</ele><time>2026-03-22T15:36:48.999Z</time></trkpt><trkpt lat="47.31840855075377" lon="-2.495231905559725"><ele>11.5</ele><time>2026-03-22T15:36:49.999Z</time></trkpt><trkpt lat="47.318513912648875" lon="-2.495075364690242"><ele>11.0</ele><time>2026-03-22T15:36:50.999Z</time></trkpt><trkpt lat="47.31861912861673" lon="-2.494920660703194"><ele>10.5</ele><time>2026-03-22T15:36:51.999Z</time></trkpt><trkpt lat="47.318720462099215" lon="-2.4947606691140267"><ele>10.0</ele><time>2026-03-22T15:36:52.999Z</time></trkpt><trkpt lat="47.3188185598004" lon="-2.494609282244135"><ele>10.0</ele><time>2026-03-22T15:36:53.999Z</time></trkpt><trkpt lat="47.31891796063794" lon="-2.4944629410461423"><ele>10.0</ele><time>2026-03-22T15:36:54.999Z</time></trkpt><trkpt lat="47.31901845647073" lon="-2.49430807006426"><ele>10.0</ele><time>2026-03-22T15:36:55.999Z</time></trkpt><trkpt lat="47.3191177357538" lon="-2.4941354938536366"><ele>10.0</ele><time>2026-03-22T15:36:56.999Z</time></trkpt><trkpt lat="47.319227832949274" lon="-2.4939594639515734"><ele>10.0</ele><time>2026-03-22T15:36:57.999Z</time></trkpt><trkpt lat="47.319335016875" lon="-2.493787369022294"><ele>10.0</ele><time>2026-03-22T15:36:58.999Z</time></trkpt><trkpt lat="47.319443804724166" lon="-2.4936104286437475"><ele>10.0</ele><time>2026-03-22T15:36:59.999Z</time></trkpt><trkpt lat="47.319550922651274" lon="-2.4934364547237213"><ele>9.666666666666668</ele><time>2026-03-22T15:37:00.999Z</time></trkpt><trkpt lat="47.31964965798348" lon="-2.4932704593796293"><ele>9.333333333333334</ele><time>2026-03-22T15:37:01.999Z</time></trkpt><trkpt lat="47.319752034806775" lon="-2.493091869828472"><ele>9.0</ele><time>2026-03-22T15:37:02.999Z</time></trkpt><trkpt lat="47.3198539881415" lon="-2.492927899840981"><ele>8.0</ele><time>2026-03-22T15:37:03.999Z</time></trkpt><trkpt lat="47.31995908322641" lon="-2.49278085746429"><ele>7.0</ele><time>2026-03-22T15:37:04.999Z</time></trkpt><trkpt lat="47.32005096544499" lon="-2.492637826024304"><ele>6.0</ele><time>2026-03-22T15:37:05.999Z</time></trkpt><trkpt lat="47.32013936870944" lon="-2.4924925965955342"><ele>5.0</ele><time>2026-03-22T15:37:06.999Z</time></trkpt><trkpt lat="47.32022220858342" lon="-2.4923613532319004"><ele>5.0</ele><time>2026-03-22T15:37:07.999Z</time></trkpt><trkpt lat="47.32029928312475" lon="-2.4922044986836895"><ele>5.0</ele><time>2026-03-22T15:37:08.999Z</time></trkpt><trkpt lat="47.32038589439775" lon="-2.492054733882266"><ele>5.0</ele><time>2026-03-22T15:37:10Z</time></trkpt><trkpt lat="47.32049222140857" lon="-2.491911703175497"><ele>5.0</ele><time>2026-03-22T15:37:11Z</time></trkpt><trkpt lat="47.32058748827794" lon="-2.4917650406211362"><ele>4.6</ele><time>2026-03-22T15:37:12Z</time></trkpt><trkpt lat="47.32067766967313" lon="-2.4916339519516213"><ele>4.2</ele><time>2026-03-22T15:37:13Z</time></trkpt><trkpt lat="47.320766680845296" lon="-2.4915289906647184"><ele>3.8</ele><time>2026-03-22T15:37:14Z</time></trkpt><trkpt lat="47.320829757619144" lon="-2.4914279701797746"><ele>3.4</ele><time>2026-03-22T15:37:15Z</time></trkpt><trkpt lat="47.320892125439435" lon="-2.4913426200172393"><ele>3.0</ele><time>2026-03-22T15:37:17Z</time></trkpt><trkpt lat="47.320983777294686" lon="-2.491292299656125"><ele>3.0</ele><time>2026-03-22T15:37:19Z</time></trkpt><trkpt lat="47.32110996072771" lon="-2.4913849021927765"><ele>3.0</ele><time>2026-03-22T15:37:21Z</time></trkpt><trkpt lat="47.32122413005633" lon="-2.4914016082696016"><ele>3.0</ele><time>2026-03-22T15:37:22Z</time></trkpt><trkpt lat="47.32137082468534" lon="-2.491414811327995"><ele>3.0</ele><time>2026-03-22T15:37:23Z</time></trkpt><trkpt lat="47.32151156439419" lon="-2.4914498271334393"><ele>3.2</ele><time>2026-03-22T15:37:24Z</time></trkpt><trkpt lat="47.321587008782" lon="-2.4914604203349335"><ele>3.4</ele><time>2026-03-22T15:37:25Z</time></trkpt><trkpt lat="47.321670352298696" lon="-2.491488072125867"><ele>3.6000000000000005</ele><time>2026-03-22T15:37:26Z</time></trkpt><trkpt lat="47.32179716039657" lon="-2.4915170215672737"><ele>3.8000000000000003</ele><time>2026-03-22T15:37:27Z</time></trkpt><trkpt lat="47.32194822168838" lon="-2.4915615973638423"><ele>4.0</ele><time>2026-03-22T15:37:28Z</time></trkpt><trkpt lat="47.322101126282995" lon="-2.4916072577193655"><ele>4.333333333333333</ele><time>2026-03-22T15:37:29Z</time></trkpt><trkpt lat="47.322277339162724" lon="-2.49165472915702"><ele>4.666666666666667</ele><time>2026-03-22T15:37:30Z</time></trkpt><trkpt lat="47.32245610043136" lon="-2.491717386053176"><ele>5.0</ele><time>2026-03-22T15:37:31Z</time></trkpt><trkpt lat="47.32264674529146" lon="-2.491787509927062"><ele>5.0</ele><time>2026-03-22T15:37:32Z</time></trkpt><trkpt lat="47.32283099547428" lon="-2.4918576499622915"><ele>5.0</ele><time>2026-03-22T15:37:33Z</time></trkpt><trkpt lat="47.323007101161885" lon="-2.4919339531205997"><ele>5.0</ele><time>2026-03-22T15:37:34Z</time></trkpt><trkpt lat="47.32319095593747" lon="-2.4920155613422317"><ele>5.666666666666667</ele><time>2026-03-22T15:37:35Z</time></trkpt><trkpt lat="47.323374131262526" lon="-2.492097326920179"><ele>6.333333333333334</ele><time>2026-03-22T15:37:36Z</time></trkpt><trkpt lat="47.32355447672075" lon="-2.4921885201296092"><ele>7.0</ele><time>2026-03-22T15:37:37Z</time></trkpt><trkpt lat="47.323728153329434" lon="-2.4922831600343445"><ele>7.0</ele><time>2026-03-22T15:37:38Z</time></trkpt><trkpt lat="47.3238935452855" lon="-2.492376875316161"><ele>7.0</ele><time>2026-03-22T15:37:39Z</time></trkpt><trkpt lat="47.32405466958358" lon="-2.4924667219578587"><ele>7.0</ele><time>2026-03-22T15:37:40Z</time></trkpt><trkpt lat="47.32420700293239" lon="-2.492557204386034"><ele>6.0</ele><time>2026-03-22T15:37:41Z</time></trkpt><trkpt lat="47.32435770711448" lon="-2.4926469030322935"><ele>5.0</ele><time>2026-03-22T15:37:42Z</time></trkpt><trkpt lat="47.32450376856848" lon="-2.4927303074596385"><ele>4.0</ele><time>2026-03-22T15:37:43Z</time></trkpt><trkpt lat="47.32464027899968" lon="-2.4928079324159618"><ele>4.0</ele><time>2026-03-22T15:37:44Z</time></trkpt><trkpt lat="47.32477317622842" lon="-2.4928918676838743"><ele>4.0</ele><time>2026-03-22T15:37:45Z</time></trkpt><trkpt lat="47.324903123956695" lon="-2.49297459609005"><ele>4.0</ele><time>2026-03-22T15:37:46Z</time></trkpt><trkpt lat="47.32503526299333" lon="-2.4930596929373183"><ele>4.0</ele><time>2026-03-22T15:37:47Z</time></trkpt><trkpt lat="47.325168756704215" lon="-2.4931538002750075"><ele>4.666666666666666</ele><time>2026-03-22T15:37:48Z</time></trkpt><trkpt lat="47.32530416222943" lon="-2.493260299902748"><ele>5.333333333333333</ele><time>2026-03-22T15:37:49Z</time></trkpt><trkpt lat="47.325440873877035" lon="-2.4933831300783336"><ele>6.0</ele><time>2026-03-22T15:37:50Z</time></trkpt><trkpt lat="47.32558017334362" lon="-2.493515055228349"><ele>6.0</ele><time>2026-03-22T15:37:51Z</time></trkpt><trkpt lat="47.3257026603127" lon="-2.4936394939253383"><ele>6.0</ele><time>2026-03-22T15:37:52Z</time></trkpt><trkpt lat="47.32581646985083" lon="-2.4937522094622326"><ele>6.0</ele><time>2026-03-22T15:37:53Z</time></trkpt><trkpt lat="47.32593727635529" lon="-2.493873538191744"><ele>6.0</ele><time>2026-03-22T15:37:54Z</time></trkpt><trkpt lat="47.326060349090184" lon="-2.4940020573521093"><ele>6.0</ele><time>2026-03-22T15:37:55Z</time></trkpt><trkpt lat="47.32619006632697" lon="-2.49414025817765"><ele>6.0</ele><time>2026-03-22T15:37:56Z</time></trkpt><trkpt lat="47.32632335125736" lon="-2.494267034620962"><ele>6.0</ele><time>2026-03-22T15:37:57Z</time></trkpt><trkpt lat="47.32645320324542" lon="-2.4944023659368963"><ele>6.0</ele><time>2026-03-22T15:37:58Z</time></trkpt><trkpt lat="47.326586838756974" lon="-2.4945332085077125"><ele>6.0</ele><time>2026-03-22T15:37:59Z</time></trkpt><trkpt lat="47.326717207782934" lon="-2.4946728546156622"><ele>6.0</ele><time>2026-03-22T15:38:00Z</time></trkpt><trkpt lat="47.326843941907605" lon="-2.4948063116304264"><ele>6.0</ele><time>2026-03-22T15:38:01Z</time></trkpt><trkpt lat="47.32697874563502" lon="-2.494939020908349"><ele>6.0</ele><time>2026-03-22T15:38:02Z</time></trkpt><trkpt lat="47.32711457896013" lon="-2.4950779246450514"><ele>6.0</ele><time>2026-03-22T15:38:03Z</time></trkpt><trkpt lat="47.32724953257143" lon="-2.495210262691554"><ele>6.0</ele><time>2026-03-22T15:38:04Z</time></trkpt><trkpt lat="47.32738407048454" lon="-2.4953505112089545"><ele>6.0</ele><time>2026-03-22T15:38:05Z</time></trkpt><trkpt lat="47.327522930186106" lon="-2.4954883384036024"><ele>6.0</ele><time>2026-03-22T15:38:06Z</time></trkpt><trkpt lat="47.32765448031378" lon="-2.49562601192612"><ele>6.666666666666666</ele><time>2026-03-22T15:38:07Z</time></trkpt><trkpt lat="47.327788110738624" lon="-2.4957589919764693"><ele>7.333333333333333</ele><time>2026-03-22T15:38:08Z</time></trkpt><trkpt lat="47.32791507849028" lon="-2.4958968486292985"><ele>8.0</ele><time>2026-03-22T15:38:08.999Z</time></trkpt><trkpt lat="47.3280415119437" lon="-2.4960281513619926"><ele>7.333333333333333</ele><time>2026-03-22T15:38:09.999Z</time></trkpt><trkpt lat="47.32818390241018" lon="-2.496155522020436"><ele>6.666666666666666</ele><time>2026-03-22T15:38:10.999Z</time></trkpt><trkpt lat="47.32832028396028" lon="-2.496261492445934"><ele>6.0</ele><time>2026-03-22T15:38:11.999Z</time></trkpt><trkpt lat="47.32845483337128" lon="-2.4963837965983298"><ele>6.0</ele><time>2026-03-22T15:38:12.999Z</time></trkpt><trkpt lat="47.3285614496047" lon="-2.496538795769431"><ele>6.0</ele><time>2026-03-22T15:38:13.999Z</time></trkpt><trkpt lat="47.328680446096854" lon="-2.496666759193098"><ele>6.0</ele><time>2026-03-22T15:38:14.999Z</time></trkpt><trkpt lat="47.32880307083033" lon="-2.4967849053049274"><ele>6.0</ele><time>2026-03-22T15:38:15.999Z</time></trkpt><trkpt lat="47.328922732503486" lon="-2.4969020338061214"><ele>6.0</ele><time>2026-03-22T15:38:16.999Z</time></trkpt><trkpt lat="47.32903295615093" lon="-2.4970161792929964"><ele>6.0</ele><time>2026-03-22T15:38:17.999Z</time></trkpt><trkpt lat="47.32913710837046" lon="-2.4971136170915176"><ele>6.0</ele><time>2026-03-22T15:38:18.999Z</time></trkpt><trkpt lat="47.329237394255244" lon="-2.4972084079101675"><ele>6.0</ele><time>2026-03-22T15:38:19.999Z</time></trkpt><trkpt lat="47.32932280646709" lon="-2.4973097167264497"><ele>6.25</ele><time>2026-03-22T15:38:20.999Z</time></trkpt><trkpt lat="47.32942173511264" lon="-2.497410334199274"><ele>6.5</ele><time>2026-03-22T15:38:21.999Z</time></trkpt><trkpt lat="47.32951976868781" lon="-2.4975146643714647"><ele>6.75</ele><time>2026-03-22T15:38:22.999Z</time></trkpt><trkpt lat="47.329620628446705" lon="-2.4976184416205203"><ele>7.0</ele><time>2026-03-22T15:38:23.999Z</time></trkpt><trkpt lat="47.329721059458436" lon="-2.497724254242882"><ele>6.25</ele><time>2026-03-22T15:38:24.999Z</time></trkpt><trkpt lat="47.329823885965546" lon="-2.497828826829158"><ele>5.5</ele><time>2026-03-22T15:38:25.999Z</time></trkpt><trkpt lat="47.329931543154125" lon="-2.497929466329263"><ele>4.75</ele><time>2026-03-22T15:38:26.999Z</time></trkpt><trkpt lat="47.33003160266222" lon="-2.498031924353471"><ele>4.0</ele><time>2026-03-22T15:38:27.999Z</time></trkpt><trkpt lat="47.33012505107782" lon="-2.4981305673944063"><ele>4.0</ele><time>2026-03-22T15:38:28.999Z</time></trkpt><trkpt lat="47.33021235867238" lon="-2.498225164381541"><ele>4.0</ele><time>2026-03-22T15:38:29.999Z</time></trkpt><trkpt lat="47.33029990357478" lon="-2.498313458978149"><ele>4.0</ele><time>2026-03-22T15:38:30.999Z</time></trkpt><trkpt lat="47.330392489235734" lon="-2.4984014717521"><ele>4.0</ele><time>2026-03-22T15:38:31.999Z</time></trkpt><trkpt lat="47.33048718102379" lon="-2.4984886537566697"><ele>4.0</ele><time>2026-03-22T15:38:32.999Z</time></trkpt><trkpt lat="47.33058178944458" lon="-2.4985782679191906"><ele>4.0</ele><time>2026-03-22T15:38:33.999Z</time></trkpt><trkpt lat="47.33067764230544" lon="-2.498672720811554"><ele>4.0</ele><time>2026-03-22T15:38:34.999Z</time></trkpt><trkpt lat="47.33077422516415" lon="-2.498765583206375"><ele>4.0</ele><time>2026-03-22T15:38:35.999Z</time></trkpt><trkpt lat="47.33087006201576" lon="-2.4988561412650183"><ele>4.0</ele><time>2026-03-22T15:38:36.999Z</time></trkpt><trkpt lat="47.33095913835743" lon="-2.498949640348126"><ele>4.0</ele><time>2026-03-22T15:38:37.999Z</time></trkpt><trkpt lat="47.33104393085927" lon="-2.4990354036402125"><ele>4.0</ele><time>2026-03-22T15:38:38.999Z</time></trkpt><trkpt lat="47.33113354542218" lon="-2.4991240530420415"><ele>4.0</ele><time>2026-03-22T15:38:39.999Z</time></trkpt><trkpt lat="47.33122180014827" lon="-2.499214852804807"><ele>4.0</ele><time>2026-03-22T15:38:40.999Z</time></trkpt><trkpt lat="47.33131137097744" lon="-2.4993072239409444"><ele>4.0</ele><time>2026-03-22T15:38:41.999Z</time></trkpt><trkpt lat="47.33139930392208" lon="-2.4993976576593355"><ele>4.0</ele><time>2026-03-22T15:38:42.999Z</time></trkpt><trkpt lat="47.33149066976574" lon="-2.499486234681996"><ele>4.0</ele><time>2026-03-22T15:38:43.999Z</time></trkpt><trkpt lat="47.33159010464033" lon="-2.4995809678757652"><ele>4.0</ele><time>2026-03-22T15:38:44.999Z</time></trkpt><trkpt lat="47.33169333608201" lon="-2.4996784414891153"><ele>4.0</ele><time>2026-03-22T15:38:45.999Z</time></trkpt><trkpt lat="47.331791720245924" lon="-2.4997826177741835"><ele>4.25</ele><time>2026-03-22T15:38:46.999Z</time></trkpt><trkpt lat="47.3318881337854" lon="-2.499880444016409"><ele>4.5</ele><time>2026-03-22T15:38:47.999Z</time></trkpt><trkpt lat="47.33198287289516" lon="-2.4999722593483598"><ele>4.75</ele><time>2026-03-22T15:38:48.999Z</time></trkpt><trkpt lat="47.33207626357387" lon="-2.500069431434697"><ele>5.0</ele><time>2026-03-22T15:38:49.999Z</time></trkpt><trkpt lat="47.332168536082" lon="-2.500160747211789"><ele>4.8</ele><time>2026-03-22T15:38:50.999Z</time></trkpt><trkpt lat="47.33226013812221" lon="-2.500245785229576"><ele>4.6</ele><time>2026-03-22T15:38:51.999Z</time></trkpt><trkpt lat="47.332349183924464" lon="-2.500333226049143"><ele>4.4</ele><time>2026-03-22T15:38:52.999Z</time></trkpt><trkpt lat="47.332439597081915" lon="-2.5004285664516273"><ele>4.2</ele><time>2026-03-22T15:38:53.999Z</time></trkpt><trkpt lat="47.332529367317846" lon="-2.500515657134597"><ele>4.0</ele><time>2026-03-22T15:38:54.999Z</time></trkpt><trkpt lat="47.332618787463" lon="-2.500607574574151"><ele>4.0</ele><time>2026-03-22T15:38:55.999Z</time></trkpt><trkpt lat="47.33271215756221" lon="-2.500698510190199"><ele>4.0</ele><time>2026-03-22T15:38:56.999Z</time></trkpt><trkpt lat="47.332807959530044" lon="-2.5007895947089933"><ele>4.0</ele><time>2026-03-22T15:38:57.999Z</time></trkpt><trkpt lat="47.332907132145756" lon="-2.5008881560717877"><ele>4.0</ele><time>2026-03-22T15:38:58.999Z</time></trkpt><trkpt lat="47.33301630710196" lon="-2.50099997391208"><ele>3.6</ele><time>2026-03-22T15:38:59.999Z</time></trkpt><trkpt lat="47.33312428670151" lon="-2.501105938626183"><ele>3.2</ele><time>2026-03-22T15:39:00.999Z</time></trkpt><trkpt lat="47.333220819340134" lon="-2.5012000102013485"><ele>2.8000000000000003</ele><time>2026-03-22T15:39:01.999Z</time></trkpt><trkpt lat="47.33330572928286" lon="-2.5012845625784217"><ele>2.4000000000000004</ele><time>2026-03-22T15:39:02.999Z</time></trkpt><trkpt lat="47.33338795694763" lon="-2.5013603710952292"><ele>2.0</ele><time>2026-03-22T15:39:03.999Z</time></trkpt><trkpt lat="47.333469250611515" lon="-2.50142377638702"><ele>2.0</ele><time>2026-03-22T15:39:04.999Z</time></trkpt><trkpt lat="47.33354867597795" lon="-2.501483345991527"><ele>2.0</ele><time>2026-03-22T15:39:05.999Z</time></trkpt><trkpt lat="47.333628806957854" lon="-2.501535559290601"><ele>2.0</ele><time>2026-03-22T15:39:06.999Z</time></trkpt><trkpt lat="47.333715960706115" lon="-2.501593135152863"><ele>2.0</ele><time>2026-03-22T15:39:07.999Z</time></trkpt><trkpt lat="47.33380955447401" lon="-2.50164988839566"><ele>2.0</ele><time>2026-03-22T15:39:08.999Z</time></trkpt><trkpt lat="47.33390754834576" lon="-2.501701381124848"><ele>2.2</ele><time>2026-03-22T15:39:09.999Z</time></trkpt><trkpt lat="47.33400933013748" lon="-2.5017517027762035"><ele>2.4000000000000004</ele><time>2026-03-22T15:39:10.999Z</time></trkpt><trkpt lat="47.33411067821594" lon="-2.5018025175584424"><ele>2.5999999999999996</ele><time>2026-03-22T15:39:11.999Z</time></trkpt><trkpt lat="47.33421179563103" lon="-2.5018441204061017"><ele>2.8</ele><time>2026-03-22T15:39:12.999Z</time></trkpt><trkpt lat="47.334311430432194" lon="-2.501880805005217"><ele>3.0</ele><time>2026-03-22T15:39:13.999Z</time></trkpt><trkpt lat="47.334412093811274" lon="-2.5019145037090813"><ele>3.0</ele><time>2026-03-22T15:39:14.999Z</time></trkpt><trkpt lat="47.33451336004855" lon="-2.501944778694029"><ele>3.0</ele><time>2026-03-22T15:39:16Z</time></trkpt><trkpt lat="47.33460745572791" lon="-2.5019669029545653"><ele>3.0</ele><time>2026-03-22T15:39:17Z</time></trkpt><trkpt lat="47.334699608711574" lon="-2.5019885916155165"><ele>3.0</ele><time>2026-03-22T15:39:18Z</time></trkpt><trkpt lat="47.334782139728524" lon="-2.502004969480707"><ele>3.0</ele><time>2026-03-22T15:39:19Z</time></trkpt><trkpt lat="47.33487186736163" lon="-2.502030223893431"><ele>3.0</ele><time>2026-03-22T15:39:20Z</time></trkpt><trkpt lat="47.33497918949975" lon="-2.5020605422692355"><ele>3.0</ele><time>2026-03-22T15:39:21Z</time></trkpt><trkpt lat="47.335076351698795" lon="-2.502085509366505"><ele>3.0</ele><time>2026-03-22T15:39:22Z</time></trkpt><trkpt lat="47.33516233379094" lon="-2.502099081403942"><ele>3.0</ele><time>2026-03-22T15:39:23Z</time></trkpt><trkpt lat="47.33524914394148" lon="-2.502113820402641"><ele>3.0</ele><time>2026-03-22T15:39:24Z</time></trkpt><trkpt lat="47.33533428049084" lon="-2.5021339428567133"><ele>3.0</ele><time>2026-03-22T15:39:25Z</time></trkpt><trkpt lat="47.335430774888835" lon="-2.502150559229194"><ele>3.0</ele><time>2026-03-22T15:39:26Z</time></trkpt><trkpt lat="47.335531639172835" lon="-2.5021569018393772"><ele>3.0</ele><time>2026-03-22T15:39:27Z</time></trkpt><trkpt lat="47.33564253766791" lon="-2.5021589868648024"><ele>3.0</ele><time>2026-03-22T15:39:28Z</time></trkpt><trkpt lat="47.335756761931094" lon="-2.50215399826164"><ele>3.0</ele><time>2026-03-22T15:39:29Z</time></trkpt><trkpt lat="47.33586464983403" lon="-2.5021307557191266"><ele>3.0</ele><time>2026-03-22T15:39:30Z</time></trkpt><trkpt lat="47.33596765135277" lon="-2.5021031732004735"><ele>3.0</ele><time>2026-03-22T15:39:31Z</time></trkpt><trkpt lat="47.33606217714521" lon="-2.5020778709604747"><ele>3.0</ele><time>2026-03-22T15:39:32Z</time></trkpt><trkpt lat="47.33615259218127" lon="-2.502052961581619"><ele>3.0</ele><time>2026-03-22T15:39:33Z</time></trkpt><trkpt lat="47.33623498680346" lon="-2.502024639684659"><ele>3.0</ele><time>2026-03-22T15:39:34Z</time></trkpt><trkpt lat="47.33630903736489" lon="-2.50200209347891"><ele>2.8333333333333335</ele><time>2026-03-22T15:39:35Z</time></trkpt><trkpt lat="47.336409937186914" lon="-2.501974583927029"><ele>2.6666666666666665</ele><time>2026-03-22T15:39:37Z</time></trkpt><trkpt lat="47.3364841833985" lon="-2.501954775021362"><ele>2.5</ele><time>2026-03-22T15:39:39Z</time></trkpt><trkpt lat="47.33654874946078" lon="-2.501937317127821"><ele>2.333333333333333</ele><time>2026-03-22T15:39:41Z</time></trkpt><trkpt lat="47.33662489021889" lon="-2.5019103614359386"><ele>2.1666666666666665</ele><time>2026-03-22T15:39:43Z</time></trkpt><trkpt lat="47.3366743518808" lon="-2.501831790498588"><ele>2.0</ele><time>2026-03-22T15:39:46Z</time></trkpt><trkpt lat="47.336733129189554" lon="-2.5017976245172555"><ele>2.0</ele><time>2026-03-22T15:39:49Z</time></trkpt><trkpt lat="47.33680089670795" lon="-2.5018594946272"><ele>2.0</ele><time>2026-03-22T15:39:50Z</time></trkpt><trkpt lat="47.33683992345823" lon="-2.5019647803289096"><ele>2.0</ele><time>2026-03-22T15:39:51Z</time></trkpt><trkpt lat="47.3369381095745" lon="-2.5020994825994745"><ele>2.0</ele><time>2026-03-22T15:39:53Z</time></trkpt><trkpt lat="47.33699586407071" lon="-2.5021729182128176"><ele>2.0</ele><time>2026-03-22T15:39:54Z</time></trkpt><trkpt lat="47.33705583398116" lon="-2.502250713956502"><ele>1.9999999999999998</ele><time>2026-03-22T15:39:55Z</time></trkpt><trkpt lat="47.33712286617759" lon="-2.5023307548128555"><ele>2.0</ele><time>2026-03-22T15:39:56Z</time></trkpt><trkpt lat="47.337194190277856" lon="-2.5024054310578494"><ele>2.0</ele><time>2026-03-22T15:39:57Z</time></trkpt><trkpt lat="47.3372628096044" lon="-2.5024788375892264"><ele>2.0</ele><time>2026-03-22T15:39:58Z</time></trkpt><trkpt lat="47.33733855453311" lon="-2.502562156963039"><ele>1.9999999999999998</ele><time>2026-03-22T15:39:59Z</time></trkpt><trkpt lat="47.33741506944511" lon="-2.502643524417932"><ele>2.0</ele><time>2026-03-22T15:40:00Z</time></trkpt><trkpt lat="47.337493032991176" lon="-2.502716782142453"><ele>2.333333333333333</ele><time>2026-03-22T15:40:01Z</time></trkpt><trkpt lat="47.33756462279579" lon="-2.5027867154197208"><ele>2.6666666666666665</ele><time>2026-03-22T15:40:02Z</time></trkpt><trkpt lat="47.337634509746486" lon="-2.502850861626719"><ele>3.0</ele><time>2026-03-22T15:40:03Z</time></trkpt><trkpt lat="47.33769252873309" lon="-2.5028985624447135"><ele>3.333333333333333</ele><time>2026-03-22T15:40:04Z</time></trkpt><trkpt lat="47.337772138462846" lon="-2.502969106748219"><ele>3.6666666666666665</ele><time>2026-03-22T15:40:06Z</time></trkpt><trkpt lat="47.33783180394135" lon="-2.5030258802057475"><ele>4.0</ele><time>2026-03-22T15:40:08Z</time></trkpt><trkpt lat="47.337953920619086" lon="-2.5031147656364965"><ele>3.9999999999999996</ele><time>2026-03-22T15:40:10Z</time></trkpt><trkpt lat="47.33802407883208" lon="-2.503156333261586"><ele>4.0</ele><time>2026-03-22T15:40:11Z</time></trkpt><trkpt lat="47.33809304877626" lon="-2.5031947948226656"><ele>4.0</ele><time>2026-03-22T15:40:12Z</time></trkpt><trkpt lat="47.33816760339485" lon="-2.5032409235549644"><ele>4.0</ele><time>2026-03-22T15:40:12.999Z</time></trkpt><trkpt lat="47.33824646323933" lon="-2.503295647650684"><ele>3.9999999999999996</ele><time>2026-03-22T15:40:13.999Z</time></trkpt><trkpt lat="47.33832645391125" lon="-2.5033459209875075"><ele>4.0</ele><time>2026-03-22T15:40:14.999Z</time></trkpt><trkpt lat="47.33839821712737" lon="-2.503391776150881"><ele>4.166666666666666</ele><time>2026-03-22T15:40:15.999Z</time></trkpt><trkpt lat="47.33846238555642" lon="-2.503436812126727"><ele>4.333333333333333</ele><time>2026-03-22T15:40:16.999Z</time></trkpt><trkpt lat="47.33852479245701" lon="-2.50348334844205"><ele>4.5</ele><time>2026-03-22T15:40:17.999Z</time></trkpt><trkpt lat="47.33859130304453" lon="-2.503531689280285"><ele>4.666666666666667</ele><time>2026-03-22T15:40:18.999Z</time></trkpt><trkpt lat="47.33867437519766" lon="-2.503596909715077"><ele>4.833333333333334</ele><time>2026-03-22T15:40:19.999Z</time></trkpt><trkpt lat="47.33877143738104" lon="-2.503671186468566"><ele>5.0</ele><time>2026-03-22T15:40:20.999Z</time></trkpt><trkpt lat="47.33889116798202" lon="-2.5037438268871393"><ele>5.0</ele><time>2026-03-22T15:40:21.999Z</time></trkpt><trkpt lat="47.3390396643931" lon="-2.503822533305118"><ele>5.0</ele><time>2026-03-22T15:40:22.999Z</time></trkpt><trkpt lat="47.339174409132866" lon="-2.503894043398806"><ele>5.0</ele><time>2026-03-22T15:40:23.999Z</time></trkpt><trkpt lat="47.339286067167876" lon="-2.5039633044706284"><ele>5.0</ele><time>2026-03-22T15:40:24.999Z</time></trkpt><trkpt lat="47.33939026645178" lon="-2.5040391912062856"><ele>5.0</ele><time>2026-03-22T15:40:25.999Z</time></trkpt><trkpt lat="47.339496167030724" lon="-2.504107038657932"><ele>5.0</ele><time>2026-03-22T15:40:26.999Z</time></trkpt><trkpt lat="47.3395978908614" lon="-2.504170316406176"><ele>5.0</ele><time>2026-03-22T15:40:27.999Z</time></trkpt><trkpt lat="47.339693472895135" lon="-2.504236965528884"><ele>5.0</ele><time>2026-03-22T15:40:28.999Z</time></trkpt><trkpt lat="47.3397847817969" lon="-2.5042983075052914"><ele>5.0</ele><time>2026-03-22T15:40:29.999Z</time></trkpt><trkpt lat="47.33988114951807" lon="-2.504365044509406"><ele>5.0</ele><time>2026-03-22T15:40:30.999Z</time></trkpt><trkpt lat="47.33997847246341" lon="-2.50442775023654"><ele>5.0</ele><time>2026-03-22T15:40:31.999Z</time></trkpt><trkpt lat="47.34007363984463" lon="-2.504494026956872"><ele>5.0</ele><time>2026-03-22T15:40:32.999Z</time></trkpt><trkpt lat="47.34016812278699" lon="-2.504562093463744"><ele>5.0</ele><time>2026-03-22T15:40:33.999Z</time></trkpt><trkpt lat="47.34025554338579" lon="-2.504620209422374"><ele>5.0</ele><time>2026-03-22T15:40:34.999Z</time></trkpt><trkpt lat="47.340339885825884" lon="-2.504671968449819"><ele>5.0</ele><time>2026-03-22T15:40:35.999Z</time></trkpt><trkpt lat="47.34041416701616" lon="-2.504720501882356"><ele>5.0</ele><time>2026-03-22T15:40:36.999Z</time></trkpt><trkpt lat="47.340480703513975" lon="-2.504766956258412"><ele>5.0</ele><time>2026-03-22T15:40:37.999Z</time></trkpt><trkpt lat="47.34054644804714" lon="-2.5048157133445454"><ele>5.0</ele><time>2026-03-22T15:40:38.999Z</time></trkpt><trkpt lat="47.340618496361216" lon="-2.50486368338005"><ele>5.0</ele><time>2026-03-22T15:40:39.999Z</time></trkpt><trkpt lat="47.340690638519206" lon="-2.504913085171175"><ele>5.0</ele><time>2026-03-22T15:40:40.999Z</time></trkpt><trkpt lat="47.34076855170461" lon="-2.504972031322602"><ele>5.0</ele><time>2026-03-22T15:40:41.999Z</time></trkpt><trkpt lat="47.34086699414196" lon="-2.5050494153657716"><ele>5.0</ele><time>2026-03-22T15:40:42.999Z</time></trkpt><trkpt lat="47.3410040696497" lon="-2.505138475335713"><ele>5.0</ele><time>2026-03-22T15:40:43.999Z</time></trkpt><trkpt lat="47.34115377095051" lon="-2.505222844005036"><ele>5.0</ele><time>2026-03-22T15:40:44.999Z</time></trkpt><trkpt lat="47.34129795295566" lon="-2.505307611269004"><ele>5.25</ele><time>2026-03-22T15:40:45.999Z</time></trkpt><trkpt lat="47.34143016021529" lon="-2.5053868100601324"><ele>5.5</ele><time>2026-03-22T15:40:46.999Z</time></trkpt><trkpt lat="47.34156212755873" lon="-2.5054732426828963"><ele>5.75</ele><time>2026-03-22T15:40:47.999Z</time></trkpt><trkpt lat="47.3416908533289" lon="-2.5055574755450984"><ele>6.0</ele><time>2026-03-22T15:40:48.999Z</time></trkpt><trkpt lat="47.341814783472294" lon="-2.5056342288736904"><ele>6.0</ele><time>2026-03-22T15:40:49.999Z</time></trkpt><trkpt lat="47.34193295362171" lon="-2.5057097983260013"><ele>6.0</ele><time>2026-03-22T15:40:50.999Z</time></trkpt><trkpt lat="47.342047448430996" lon="-2.5057887040484865"><ele>6.0</ele><time>2026-03-22T15:40:51.999Z</time></trkpt><trkpt lat="47.3421667500077" lon="-2.5058635946571473"><ele>6.0</ele><time>2026-03-22T15:40:52.999Z</time></trkpt><trkpt lat="47.342290692633455" lon="-2.505944686351153"><ele>6.0</ele><time>2026-03-22T15:40:53.999Z</time></trkpt><trkpt lat="47.34241692852609" lon="-2.5060292147285623"><ele>6.0</ele><time>2026-03-22T15:40:54.999Z</time></trkpt><trkpt lat="47.34254547918453" lon="-2.50611199834391"><ele>6.0</ele><time>2026-03-22T15:40:55.999Z</time></trkpt><trkpt lat="47.342676155078784" lon="-2.506202988979515"><ele>6.0</ele><time>2026-03-22T15:40:56.999Z</time></trkpt><trkpt lat="47.34280800387755" lon="-2.5062890470650823"><ele>6.0</ele><time>2026-03-22T15:40:57.999Z</time></trkpt><trkpt lat="47.34293478393764" lon="-2.5063711011068706"><ele>6.0</ele><time>2026-03-22T15:40:58.999Z</time></trkpt><trkpt lat="47.34305012990586" lon="-2.506452127097979"><ele>6.0</ele><time>2026-03-22T15:40:59.999Z</time></trkpt><trkpt lat="47.34316338968626" lon="-2.506527199963435"><ele>6.0</ele><time>2026-03-22T15:41:00.999Z</time></trkpt><trkpt lat="47.34327626769178" lon="-2.506596364248663"><ele>6.333333333333333</ele><time>2026-03-22T15:41:01.999Z</time></trkpt><trkpt lat="47.34337708499618" lon="-2.506663180973702"><ele>6.666666666666666</ele><time>2026-03-22T15:41:02.999Z</time></trkpt><trkpt lat="47.343464747850994" lon="-2.506728400427334"><ele>7.0</ele><time>2026-03-22T15:41:03.999Z</time></trkpt><trkpt lat="47.34353279373869" lon="-2.506773511178002"><ele>7.333333333333333</ele><time>2026-03-22T15:41:04.999Z</time></trkpt><trkpt lat="47.343594332841484" lon="-2.5067952623192182"><ele>7.666666666666666</ele><time>2026-03-22T15:41:05.999Z</time></trkpt><trkpt lat="47.34369241959814" lon="-2.506794083226646"><ele>8.0</ele><time>2026-03-22T15:41:07.999Z</time></trkpt><trkpt lat="47.34375770297571" lon="-2.5068913626107667"><ele>8.0</ele><time>2026-03-22T15:41:09.999Z</time></trkpt><trkpt lat="47.34380576392826" lon="-2.5069962849841474"><ele>8.0</ele><time>2026-03-22T15:41:10.999Z</time></trkpt><trkpt lat="47.34387993924362" lon="-2.507092792949881"><ele>8.0</ele><time>2026-03-22T15:41:11.999Z</time></trkpt><trkpt lat="47.34397518106773" lon="-2.5071769273068005"><ele>8.0</ele><time>2026-03-22T15:41:12.999Z</time></trkpt><trkpt lat="47.34404849165893" lon="-2.5072475571354755"><ele>8.0</ele><time>2026-03-22T15:41:13.999Z</time></trkpt><trkpt lat="47.34410297947613" lon="-2.507312926517411"><ele>7.800000000000001</ele><time>2026-03-22T15:41:14.999Z</time></trkpt><trkpt lat="47.344195246168276" lon="-2.507405424823927"><ele>7.6000000000000005</ele><time>2026-03-22T15:41:16.999Z</time></trkpt><trkpt lat="47.3442964063134" lon="-2.5075046460631167"><ele>7.3999999999999995</ele><time>2026-03-22T15:41:18.999Z</time></trkpt><trkpt lat="47.344381236562405" lon="-2.507616840679336"><ele>7.199999999999999</ele><time>2026-03-22T15:41:20.999Z</time></trkpt><trkpt lat="47.344441275005224" lon="-2.507724412217842"><ele>7.0</ele><time>2026-03-22T15:41:23Z</time></trkpt><trkpt lat="47.3445113542835" lon="-2.507838685135576"><ele>6.5</ele><time>2026-03-22T15:41:25Z</time></trkpt><trkpt lat="47.34458371159122" lon="-2.507972426532387"><ele>6.0</ele><time>2026-03-22T15:41:27Z</time></trkpt><trkpt lat="47.344666963703055" lon="-2.5081104906543312"><ele>5.5</ele><time>2026-03-22T15:41:29Z</time></trkpt><trkpt lat="47.34475066669415" lon="-2.5082470208439513"><ele>5.0</ele><time>2026-03-22T15:41:31Z</time></trkpt><trkpt lat="47.344831284034996" lon="-2.5083557366366667"><ele>5.0</ele><time>2026-03-22T15:41:33Z</time></trkpt><trkpt lat="47.3449136578948" lon="-2.5084294342936295"><ele>5.0</ele><time>2026-03-22T15:41:35Z</time></trkpt><trkpt lat="47.34497613714951" lon="-2.5084830219509198"><ele>5.0</ele><time>2026-03-22T15:41:37Z</time></trkpt><trkpt lat="47.34502673987909" lon="-2.5085635324448927"><ele>5.0</ele><time>2026-03-22T15:41:39Z</time></trkpt><trkpt lat="47.34505072274057" lon="-2.508705016766743"><ele>5.0</ele><time>2026-03-22T15:41:41Z</time></trkpt><trkpt lat="47.34512427260922" lon="-2.5088463333077717"><ele>4.8</ele><time>2026-03-22T15:41:43Z</time></trkpt><trkpt lat="47.345187185065186" lon="-2.5089398523197812"><ele>4.6</ele><time>2026-03-22T15:41:44Z</time></trkpt><trkpt lat="47.345259793211966" lon="-2.5090574769832688"><ele>4.4</ele><time>2026-03-22T15:41:45Z</time></trkpt><trkpt lat="47.34533013459418" lon="-2.5091791971124935"><ele>4.2</ele><time>2026-03-22T15:41:46Z</time></trkpt><trkpt lat="47.34540614074693" lon="-2.5093038324672774"><ele>4.0</ele><time>2026-03-22T15:41:47Z</time></trkpt><trkpt lat="47.34548703562627" lon="-2.5094190795885"><ele>4.4</ele><time>2026-03-22T15:41:48Z</time></trkpt><trkpt lat="47.34557758062044" lon="-2.509523845981033"><ele>4.800000000000001</ele><time>2026-03-22T15:41:49Z</time></trkpt><trkpt lat="47.34567186977705" lon="-2.5096265739392263"><ele>5.199999999999999</ele><time>2026-03-22T15:41:50Z</time></trkpt><trkpt lat="47.345759747187195" lon="-2.509724141986488"><ele>5.6</ele><time>2026-03-22T15:41:51Z</time></trkpt><trkpt lat="47.34583385940281" lon="-2.5098075001594253"><ele>6.0</ele><time>2026-03-22T15:41:52Z</time></trkpt><trkpt lat="47.345896343010814" lon="-2.5098875672844545"><ele>6.0</ele><time>2026-03-22T15:41:53Z</time></trkpt><trkpt lat="47.34595841186405" lon="-2.5099670753114984"><ele>6.0</ele><time>2026-03-22T15:41:54Z</time></trkpt><trkpt lat="47.34602705387932" lon="-2.5100425955751624"><ele>6.0</ele><time>2026-03-22T15:41:55Z</time></trkpt><trkpt lat="47.34609983873414" lon="-2.51012180460176"><ele>6.0</ele><time>2026-03-22T15:41:56Z</time></trkpt><trkpt lat="47.346176075768156" lon="-2.5102007169840954"><ele>6.0</ele><time>2026-03-22T15:41:57Z</time></trkpt><trkpt lat="47.346247461779264" lon="-2.5102900212449386"><ele>6.0</ele><time>2026-03-22T15:41:58Z</time></trkpt><trkpt lat="47.346325444718545" lon="-2.510363961735426"><ele>5.666666666666667</ele><time>2026-03-22T15:41:59Z</time></trkpt><trkpt lat="47.3463993645366" lon="-2.510427939522171"><ele>5.333333333333333</ele><time>2026-03-22T15:42:00Z</time></trkpt><trkpt lat="47.346473921156274" lon="-2.5104923641899015"><ele>5.0</ele><time>2026-03-22T15:42:01Z</time></trkpt><trkpt lat="47.34655003751836" lon="-2.510556000981859"><ele>4.666666666666666</ele><time>2026-03-22T15:42:02Z</time></trkpt><trkpt lat="47.34662260453412" lon="-2.5106138980443524"><ele>4.333333333333333</ele><time>2026-03-22T15:42:03Z</time></trkpt><trkpt lat="47.34668787279998" lon="-2.5106639833839894"><ele>4.0</ele><time>2026-03-22T15:42:04Z</time></trkpt><trkpt lat="47.34674179748246" lon="-2.510712876457113"><ele>4.0</ele><time>2026-03-22T15:42:05Z</time></trkpt><trkpt lat="47.34683720680121" lon="-2.510799934993946"><ele>4.0</ele><time>2026-03-22T15:42:07Z</time></trkpt><trkpt lat="47.3469345868257" lon="-2.510874626710428"><ele>4.0</ele><time>2026-03-22T15:42:09Z</time></trkpt><trkpt lat="47.34703718103612" lon="-2.5109831179416555"><ele>4.0</ele><time>2026-03-22T15:42:11Z</time></trkpt><trkpt lat="47.34709694456794" lon="-2.511064394326271"><ele>4.0</ele><time>2026-03-22T15:42:12Z</time></trkpt><trkpt lat="47.34715917338756" lon="-2.5111435302128076"><ele>3.9999999999999996</ele><time>2026-03-22T15:42:12.999Z</time></trkpt><trkpt lat="47.3472094113375" lon="-2.5112211153457586"><ele>4.0</ele><time>2026-03-22T15:42:13.999Z</time></trkpt><trkpt lat="47.347263753260755" lon="-2.511315732536838"><ele>4.0</ele><time>2026-03-22T15:42:14.999Z</time></trkpt><trkpt lat="47.34731474459425" lon="-2.5114073019334926"><ele>4.0</ele><time>2026-03-22T15:42:15.999Z</time></trkpt><trkpt lat="47.34735924879766" lon="-2.5114944426932175"><ele>3.9999999999999996</ele><time>2026-03-22T15:42:16.999Z</time></trkpt><trkpt lat="47.34743922013494" lon="-2.511636180111588"><ele>4.0</ele><time>2026-03-22T15:42:18.999Z</time></trkpt><trkpt lat="47.34749110415906" lon="-2.5117196735329044"><ele>3.9999999999999996</ele><time>2026-03-22T15:42:19.999Z</time></trkpt><trkpt lat="47.34754564394661" lon="-2.5118120788687968"><ele>4.0</ele><time>2026-03-22T15:42:20.999Z</time></trkpt><trkpt lat="47.34759410556728" lon="-2.511897342499034"><ele>4.0</ele><time>2026-03-22T15:42:21.999Z</time></trkpt><trkpt lat="47.34763873661138" lon="-2.5119668655167926"><ele>4.0</ele><time>2026-03-22T15:42:22.999Z</time></trkpt><trkpt lat="47.347733915385" lon="-2.5120573604369656"><ele>3.9999999999999996</ele><time>2026-03-22T15:42:24.999Z</time></trkpt><trkpt lat="47.34781243892956" lon="-2.5121218430601924"><ele>4.0</ele><time>2026-03-22T15:42:26.999Z</time></trkpt><trkpt lat="47.34788300547656" lon="-2.512152739950025"><ele>3.9999999999999996</ele><time>2026-03-22T15:42:29.999Z</time></trkpt><trkpt lat="47.34797561315877" lon="-2.5121227752187703"><ele>4.0</ele><time>2026-03-22T15:42:32.999Z</time></trkpt><trkpt lat="47.348041571093795" lon="-2.512012551389023"><ele>4.0</ele><time>2026-03-22T15:42:34.999Z</time></trkpt><trkpt lat="47.34811010846066" lon="-2.511944318075279"><ele>4.0</ele><time>2026-03-22T15:42:36.999Z</time></trkpt><trkpt lat="47.3481884999797" lon="-2.51189030497345"><ele>3.9999999999999996</ele><time>2026-03-22T15:42:38.999Z</time></trkpt><trkpt lat="47.34827230207026" lon="-2.5119126547712334"><ele>4.0</ele><time>2026-03-22T15:42:40.999Z</time></trkpt><trkpt lat="47.34833392966833" lon="-2.512023584839235"><ele>4.2</ele><time>2026-03-22T15:42:42.999Z</time></trkpt><trkpt lat="47.34840687009598" lon="-2.512139077817945"><ele>4.4</ele><time>2026-03-22T15:42:44.999Z</time></trkpt><trkpt lat="47.34847879989598" lon="-2.512257382781528"><ele>4.6</ele><time>2026-03-22T15:42:46.999Z</time></trkpt><trkpt lat="47.34856446552884" lon="-2.51237763205654"><ele>4.8</ele><time>2026-03-22T15:42:48.999Z</time></trkpt><trkpt lat="47.348609970822665" lon="-2.5124498880748862"><ele>5.0</ele><time>2026-03-22T15:42:49.999Z</time></trkpt><trkpt lat="47.348659198025615" lon="-2.5125463117978413"><ele>5.0</ele><time>2026-03-22T15:42:50.999Z</time></trkpt><trkpt lat="47.348763297933075" lon="-2.5126720697103018"><ele>5.0</ele><time>2026-03-22T15:42:52.999Z</time></trkpt><trkpt lat="47.34881934408486" lon="-2.512740700167903"><ele>5.0</ele><time>2026-03-22T15:42:53.999Z</time></trkpt><trkpt lat="47.348869949332936" lon="-2.5128148031782462"><ele>5.0</ele><time>2026-03-22T15:42:54.999Z</time></trkpt><trkpt lat="47.348917404190125" lon="-2.512876484928918"><ele>5.0</ele><time>2026-03-22T15:42:55.999Z</time></trkpt><trkpt lat="47.34897630430851" lon="-2.5129761800405666"><ele>5.0</ele><time>2026-03-22T15:42:57.999Z</time></trkpt><trkpt lat="47.34914857925198" lon="-2.5131773388251624"><ele>5.333333333333334</ele><time>2026-03-22T15:44:49.999Z</time></trkpt><trkpt lat="47.34920110459347" lon="-2.513236799815409"><ele>5.666666666666667</ele><time>2026-03-22T15:44:50.999Z</time></trkpt><trkpt lat="47.34926698222315" lon="-2.5133004703473087"><ele>6.0</ele><time>2026-03-22T15:44:53.999Z</time></trkpt><trkpt lat="47.349340977711485" lon="-2.5134280809809324"><ele>6.333333333333334</ele><time>2026-03-22T15:44:55.999Z</time></trkpt><trkpt lat="47.34939802627522" lon="-2.5134995682243932"><ele>6.666666666666667</ele><time>2026-03-22T15:44:56.999Z</time></trkpt><trkpt lat="47.34944652263767" lon="-2.5135705127148382"><ele>7.0</ele><time>2026-03-22T15:44:57.999Z</time></trkpt><trkpt lat="47.34951042949441" lon="-2.5136555802111604"><ele>7.199999999999999</ele><time>2026-03-22T15:44:58.999Z</time></trkpt><trkpt lat="47.34959466628578" lon="-2.5137565459217246"><ele>7.3999999999999995</ele><time>2026-03-22T15:44:59.999Z</time></trkpt><trkpt lat="47.34965762642132" lon="-2.5138628782343737"><ele>7.6000000000000005</ele><time>2026-03-22T15:45:00.999Z</time></trkpt><trkpt lat="47.349741922980655" lon="-2.5139870834390523"><ele>7.800000000000001</ele><time>2026-03-22T15:45:01.999Z</time></trkpt><trkpt lat="47.34981622083522" lon="-2.5140800090037345"><ele>8.0</ele><time>2026-03-22T15:45:02.999Z</time></trkpt><trkpt lat="47.34987780996371" lon="-2.514177735513338"><ele>7.4</ele><time>2026-03-22T15:45:03.999Z</time></trkpt><trkpt lat="47.3499644231392" lon="-2.514293110561067"><ele>6.800000000000001</ele><time>2026-03-22T15:45:04.999Z</time></trkpt><trkpt lat="47.350040616381364" lon="-2.5144059648008352"><ele>6.2</ele><time>2026-03-22T15:45:05.999Z</time></trkpt><trkpt lat="47.35009767023653" lon="-2.514494807821062"><ele>5.6</ele><time>2026-03-22T15:45:06.999Z</time></trkpt><trkpt lat="47.35016528875327" lon="-2.5145857356736423"><ele>5.0</ele><time>2026-03-22T15:45:07.999Z</time></trkpt><trkpt lat="47.35021286062881" lon="-2.5146613647623237"><ele>5.0</ele><time>2026-03-22T15:45:08.999Z</time></trkpt><trkpt lat="47.350257558808586" lon="-2.514731639130051"><ele>5.0</ele><time>2026-03-22T15:45:09.999Z</time></trkpt><trkpt lat="47.35032241925868" lon="-2.514825121869884"><ele>5.0</ele><time>2026-03-22T15:45:11.999Z</time></trkpt><trkpt lat="47.35038043644439" lon="-2.51486286741702"><ele>5.0</ele><time>2026-03-22T15:45:14.999Z</time></trkpt><trkpt lat="47.3504446989425" lon="-2.5149276360891686"><ele>5.0</ele><time>2026-03-22T15:45:16.999Z</time></trkpt><trkpt lat="47.350528160906684" lon="-2.515077889004277"><ele>5.0</ele><time>2026-03-22T15:45:18.999Z</time></trkpt><trkpt lat="47.35062111038138" lon="-2.5151502175621236"><ele>5.0</ele><time>2026-03-22T15:45:19.999Z</time></trkpt><trkpt lat="47.35068241282082" lon="-2.5152346822484923"><ele>5.0</ele><time>2026-03-22T15:45:20.999Z</time></trkpt><trkpt lat="47.35077397480779" lon="-2.5153129665590774"><ele>5.0</ele><time>2026-03-22T15:45:21.999Z</time></trkpt><trkpt lat="47.350864383733764" lon="-2.515392726283839"><ele>5.0</ele><time>2026-03-22T15:45:22.999Z</time></trkpt><trkpt lat="47.3509608100515" lon="-2.515466812891747"><ele>5.0</ele><time>2026-03-22T15:45:23.999Z</time></trkpt><trkpt lat="47.351070506824115" lon="-2.5155290739770644"><ele>5.0</ele><time>2026-03-22T15:45:24.999Z</time></trkpt><trkpt lat="47.351169147742674" lon="-2.515599882924517"><ele>5.0</ele><time>2026-03-22T15:45:25.999Z</time></trkpt><trkpt lat="47.35127207526058" lon="-2.5156704448789653"><ele>5.0</ele><time>2026-03-22T15:45:26.999Z</time></trkpt><trkpt lat="47.35138097703052" lon="-2.515741338511257"><ele>5.0</ele><time>2026-03-22T15:45:27.999Z</time></trkpt><trkpt lat="47.35149788614675" lon="-2.5158150163125224"><ele>5.0</ele><time>2026-03-22T15:45:28.999Z</time></trkpt><trkpt lat="47.35161815706378" lon="-2.5158882522096904"><ele>5.0</ele><time>2026-03-22T15:45:29.999Z</time></trkpt><trkpt lat="47.351788876024315" lon="-2.515956779037309"><ele>5.0</ele><time>2026-03-22T15:45:30.999Z</time></trkpt><trkpt lat="47.35192515066212" lon="-2.516027225455979"><ele>5.0</ele><time>2026-03-22T15:45:31.999Z</time></trkpt><trkpt lat="47.352063423670444" lon="-2.516103304872061"><ele>5.0</ele><time>2026-03-22T15:45:32.998Z</time></trkpt><trkpt lat="47.35220368870854" lon="-2.516194249348375"><ele>5.0</ele><time>2026-03-22T15:45:33.999Z</time></trkpt><trkpt lat="47.352337110812385" lon="-2.516280593391878"><ele>5.0</ele><time>2026-03-22T15:45:34.999Z</time></trkpt><trkpt lat="47.352468438681285" lon="-2.5163681924154537"><ele>5.5</ele><time>2026-03-22T15:45:35.999Z</time></trkpt><trkpt lat="47.35260017539437" lon="-2.5164597875835293"><ele>6.0</ele><time>2026-03-22T15:45:36.999Z</time></trkpt><trkpt lat="47.35272066951239" lon="-2.516541272214656"><ele>6.5</ele><time>2026-03-22T15:45:37.999Z</time></trkpt><trkpt lat="47.35284109315078" lon="-2.5166104069370667"><ele>7.0</ele><time>2026-03-22T15:45:38.999Z</time></trkpt><trkpt lat="47.35295319882164" lon="-2.516680307278409"><ele>7.0</ele><time>2026-03-22T15:45:39.999Z</time></trkpt><trkpt lat="47.35302823920925" lon="-2.516755524453008"><ele>6.999999999999999</ele><time>2026-03-22T15:45:40.999Z</time></trkpt><trkpt lat="47.35311306049016" lon="-2.5168214803230975"><ele>6.999999999999999</ele><time>2026-03-22T15:45:41.999Z</time></trkpt><trkpt lat="47.35319851696743" lon="-2.51687692591067"><ele>7.0</ele><time>2026-03-22T15:45:43Z</time></trkpt><trkpt lat="47.353291111183175" lon="-2.5169254209663072"><ele>7.0</ele><time>2026-03-22T15:45:44Z</time></trkpt><trkpt lat="47.353374526131084" lon="-2.516980036646942"><ele>7.0</ele><time>2026-03-22T15:45:45Z</time></trkpt><trkpt lat="47.35344428269046" lon="-2.5170226946317324"><ele>6.999999999999999</ele><time>2026-03-22T15:45:46Z</time></trkpt><trkpt lat="47.353506700280185" lon="-2.5170643867390026"><ele>6.999999999999999</ele><time>2026-03-22T15:45:47Z</time></trkpt><trkpt lat="47.353578401269125" lon="-2.5171043589582798"><ele>7.0</ele><time>2026-03-22T15:45:48Z</time></trkpt><trkpt lat="47.353710236625645" lon="-2.517158926055278"><ele>7.0</ele><time>2026-03-22T15:45:50Z</time></trkpt><trkpt lat="47.353808233661006" lon="-2.5171129129261955"><ele>7.333333333333334</ele><time>2026-03-22T15:45:52Z</time></trkpt><trkpt lat="47.3540143839891" lon="-2.517137712195661"><ele>7.666666666666666</ele><time>2026-03-22T15:46:00Z</time></trkpt><trkpt lat="47.35411134714103" lon="-2.5172594000281645"><ele>8.0</ele><time>2026-03-22T15:46:01Z</time></trkpt><trkpt lat="47.35423101305364" lon="-2.5173909483442607"><ele>8.0</ele><time>2026-03-22T15:46:02Z</time></trkpt><trkpt lat="47.35434669770252" lon="-2.5175227315400197"><ele>8.0</ele><time>2026-03-22T15:46:03Z</time></trkpt><trkpt lat="47.354483388405434" lon="-2.5176311661497444"><ele>8.0</ele><time>2026-03-22T15:46:04Z</time></trkpt><trkpt lat="47.35460456644492" lon="-2.517718366832478"><ele>8.0</ele><time>2026-03-22T15:46:05Z</time></trkpt><trkpt lat="47.354711728648645" lon="-2.5178009331596027"><ele>8.0</ele><time>2026-03-22T15:46:05.999Z</time></trkpt><trkpt lat="47.354811054900104" lon="-2.5178702512610363"><ele>8.0</ele><time>2026-03-22T15:46:06.999Z</time></trkpt><trkpt lat="47.35491945105823" lon="-2.517942471970888"><ele>8.0</ele><time>2026-03-22T15:46:07.999Z</time></trkpt><trkpt lat="47.35502586064924" lon="-2.518017874319774"><ele>8.0</ele><time>2026-03-22T15:46:08.999Z</time></trkpt><trkpt lat="47.35513388219869" lon="-2.5180720027716896"><ele>7.833333333333333</ele><time>2026-03-22T15:46:09.999Z</time></trkpt><trkpt lat="47.35522765309069" lon="-2.5181263456791423"><ele>7.666666666666666</ele><time>2026-03-22T15:46:10.999Z</time></trkpt><trkpt lat="47.35531038815883" lon="-2.518187842046152"><ele>7.5</ele><time>2026-03-22T15:46:11.999Z</time></trkpt><trkpt lat="47.35538786276107" lon="-2.518230298020215"><ele>7.333333333333334</ele><time>2026-03-22T15:46:12.999Z</time></trkpt><trkpt lat="47.35545619524427" lon="-2.518274138362592"><ele>7.166666666666667</ele><time>2026-03-22T15:46:13.999Z</time></trkpt><trkpt lat="47.35554686644603" lon="-2.5183285490575837"><ele>7.0</ele><time>2026-03-22T15:46:14.999Z</time></trkpt><trkpt lat="47.355636911954356" lon="-2.518384193965303"><ele>7.0</ele><time>2026-03-22T15:46:15.999Z</time></trkpt><trkpt lat="47.35573875278" lon="-2.5184572813921995"><ele>7.0</ele><time>2026-03-22T15:46:16.999Z</time></trkpt><trkpt lat="47.35584886911667" lon="-2.5185338933841166"><ele>7.0</ele><time>2026-03-22T15:46:17.999Z</time></trkpt><trkpt lat="47.35597991181915" lon="-2.5186140983438947"><ele>7.0</ele><time>2026-03-22T15:46:18.999Z</time></trkpt><trkpt lat="47.35611136253968" lon="-2.518699379621487"><ele>7.333333333333334</ele><time>2026-03-22T15:46:19.999Z</time></trkpt><trkpt lat="47.356233485013256" lon="-2.5187811293555096"><ele>7.666666666666666</ele><time>2026-03-22T15:46:20.999Z</time></trkpt><trkpt lat="47.356381467902644" lon="-2.5188777678605714"><ele>8.0</ele><time>2026-03-22T15:46:21.999Z</time></trkpt><trkpt lat="47.35652139130787" lon="-2.518976466827899"><ele>8.0</ele><time>2026-03-22T15:46:22.999Z</time></trkpt><trkpt lat="47.3566543382618" lon="-2.519068258284132"><ele>8.0</ele><time>2026-03-22T15:46:23.999Z</time></trkpt><trkpt lat="47.35677886313849" lon="-2.51914650873728"><ele>8.0</ele><time>2026-03-22T15:46:24.999Z</time></trkpt><trkpt lat="47.356909516761085" lon="-2.5192365812803845"><ele>8.0</ele><time>2026-03-22T15:46:25.999Z</time></trkpt><trkpt lat="47.35704780796914" lon="-2.519326033639063"><ele>8.0</ele><time>2026-03-22T15:46:26.999Z</time></trkpt><trkpt lat="47.357180593083214" lon="-2.5194050671759967"><ele>8.0</ele><time>2026-03-22T15:46:27.999Z</time></trkpt><trkpt lat="47.35731250776814" lon="-2.519488275321887"><ele>8.0</ele><time>2026-03-22T15:46:28.999Z</time></trkpt><trkpt lat="47.35742912124537" lon="-2.5195743448590733"><ele>8.0</ele><time>2026-03-22T15:46:29.999Z</time></trkpt><trkpt lat="47.357562539126555" lon="-2.51966145654917"><ele>8.0</ele><time>2026-03-22T15:46:30.999Z</time></trkpt><trkpt lat="47.357686991853654" lon="-2.5197390625916123"><ele>8.0</ele><time>2026-03-22T15:46:31.999Z</time></trkpt><trkpt lat="47.357814209877425" lon="-2.5198252054988246"><ele>8.0</ele><time>2026-03-22T15:46:32.999Z</time></trkpt><trkpt lat="47.35794546014081" lon="-2.519911467832415"><ele>8.0</ele><time>2026-03-22T15:46:33.999Z</time></trkpt><trkpt lat="47.358085901554894" lon="-2.5200005327666664"><ele>8.0</ele><time>2026-03-22T15:46:34.999Z</time></trkpt><trkpt lat="47.35821916436485" lon="-2.520094396735324"><ele>8.0</ele><time>2026-03-22T15:46:35.999Z</time></trkpt><trkpt lat="47.35835575936543" lon="-2.5201875467138235"><ele>8.0</ele><time>2026-03-22T15:46:36.999Z</time></trkpt><trkpt lat="47.35849451623475" lon="-2.520282263792197"><ele>8.0</ele><time>2026-03-22T15:46:37.999Z</time></trkpt><trkpt lat="47.358637384644304" lon="-2.520367710445065"><ele>8.0</ele><time>2026-03-22T15:46:38.999Z</time></trkpt><trkpt lat="47.358775699136366" lon="-2.520453077690028"><ele>8.0</ele><time>2026-03-22T15:46:39.999Z</time></trkpt><trkpt lat="47.35891256031403" lon="-2.5205399194951936"><ele>8.25</ele><time>2026-03-22T15:46:40.999Z</time></trkpt><trkpt lat="47.35904165959499" lon="-2.5206254184429073"><ele>8.5</ele><time>2026-03-22T15:46:41.999Z</time></trkpt><trkpt lat="47.359165222884535" lon="-2.520705952195715"><ele>8.75</ele><time>2026-03-22T15:46:42.999Z</time></trkpt><trkpt lat="47.359283494249155" lon="-2.5207862856088306"><ele>9.0</ele><time>2026-03-22T15:46:43.999Z</time></trkpt><trkpt lat="47.35941236638873" lon="-2.5208622113586445"><ele>9.0</ele><time>2026-03-22T15:46:44.999Z</time></trkpt><trkpt lat="47.35954049232574" lon="-2.5209352760612544"><ele>9.0</ele><time>2026-03-22T15:46:45.999Z</time></trkpt><trkpt lat="47.359672684449464" lon="-2.521016619039628"><ele>9.0</ele><time>2026-03-22T15:46:46.999Z</time></trkpt><trkpt lat="47.359823750778894" lon="-2.5211090326452155"><ele>9.0</ele><time>2026-03-22T15:46:47.999Z</time></trkpt><trkpt lat="47.35995667021042" lon="-2.521199334370791"><ele>8.75</ele><time>2026-03-22T15:46:48.999Z</time></trkpt><trkpt lat="47.36008696960355" lon="-2.5212805471772266"><ele>8.5</ele><time>2026-03-22T15:46:49.999Z</time></trkpt><trkpt lat="47.360216001398655" lon="-2.52136802173756"><ele>8.25</ele><time>2026-03-22T15:46:50.999Z</time></trkpt><trkpt lat="47.360343517228515" lon="-2.521441274091752"><ele>8.0</ele><time>2026-03-22T15:46:51.999Z</time></trkpt><trkpt lat="47.360467675278414" lon="-2.5215185013738624"><ele>8.75</ele><time>2026-03-22T15:46:52.999Z</time></trkpt><trkpt lat="47.36059156610581" lon="-2.5216030488808623"><ele>9.5</ele><time>2026-03-22T15:46:53.999Z</time></trkpt><trkpt lat="47.360715372818554" lon="-2.5216855204527393"><ele>10.25</ele><time>2026-03-22T15:46:54.999Z</time></trkpt><trkpt lat="47.3608294411396" lon="-2.521766045590205"><ele>11.0</ele><time>2026-03-22T15:46:55.999Z</time></trkpt><trkpt lat="47.36094951314071" lon="-2.521864996262787"><ele>11.0</ele><time>2026-03-22T15:46:56.999Z</time></trkpt><trkpt lat="47.36107430657113" lon="-2.521975272708395"><ele>11.0</ele><time>2026-03-22T15:46:57.999Z</time></trkpt><trkpt lat="47.36119504572005" lon="-2.5220978086635135"><ele>11.0</ele><time>2026-03-22T15:46:58.999Z</time></trkpt><trkpt lat="47.36131889473818" lon="-2.522235117149935"><ele>11.0</ele><time>2026-03-22T15:46:59.999Z</time></trkpt><trkpt lat="47.36142861343043" lon="-2.522381241837332"><ele>11.25</ele><time>2026-03-22T15:47:00.999Z</time></trkpt><trkpt lat="47.36152671577393" lon="-2.5225225476081627"><ele>11.5</ele><time>2026-03-22T15:47:01.999Z</time></trkpt><trkpt lat="47.361626566801185" lon="-2.522657599066807"><ele>11.75</ele><time>2026-03-22T15:47:02.999Z</time></trkpt><trkpt lat="47.36173757088047" lon="-2.5228051305987615"><ele>12.0</ele><time>2026-03-22T15:47:03.999Z</time></trkpt><trkpt lat="47.36184325419332" lon="-2.5229621879556703"><ele>11.75</ele><time>2026-03-22T15:47:04.999Z</time></trkpt><trkpt lat="47.36194268299375" lon="-2.523128681666013"><ele>11.5</ele><time>2026-03-22T15:47:05.999Z</time></trkpt><trkpt lat="47.36203609458419" lon="-2.5232892374625635"><ele>11.25</ele><time>2026-03-22T15:47:06.999Z</time></trkpt><trkpt lat="47.36213011525" lon="-2.523467204841935"><ele>11.0</ele><time>2026-03-22T15:47:07.999Z</time></trkpt><trkpt lat="47.36222898588349" lon="-2.52365082911129"><ele>11.0</ele><time>2026-03-22T15:47:08.999Z</time></trkpt><trkpt lat="47.362322487981835" lon="-2.5238241835541886"><ele>11.0</ele><time>2026-03-22T15:47:09.999Z</time></trkpt><trkpt lat="47.36240476876995" lon="-2.523992227703676"><ele>11.0</ele><time>2026-03-22T15:47:10.999Z</time></trkpt><trkpt lat="47.36249094729209" lon="-2.524157813186307"><ele>11.0</ele><time>2026-03-22T15:47:11.999Z</time></trkpt><trkpt lat="47.36257843001842" lon="-2.524322760354994"><ele>11.0</ele><time>2026-03-22T15:47:12.999Z</time></trkpt><trkpt lat="47.36264692103178" lon="-2.5244696784332286"><ele>11.0</ele><time>2026-03-22T15:47:13.999Z</time></trkpt><trkpt lat="47.36270316865659" lon="-2.524592525011487"><ele>11.0</ele><time>2026-03-22T15:47:14.999Z</time></trkpt><trkpt lat="47.36275705686747" lon="-2.5246948522135555"><ele>11.0</ele><time>2026-03-22T15:47:15.999Z</time></trkpt><trkpt lat="47.36280009408195" lon="-2.52477059760927"><ele>11.0</ele><time>2026-03-22T15:47:16.999Z</time></trkpt><trkpt lat="47.36284212016749" lon="-2.5248435790591293"><ele>11.0</ele><time>2026-03-22T15:47:17.999Z</time></trkpt><trkpt lat="47.36289013816212" lon="-2.524908510440857"><ele>10.8</ele><time>2026-03-22T15:47:18.999Z</time></trkpt><trkpt lat="47.362949639721" lon="-2.525025147316964"><ele>10.600000000000001</ele><time>2026-03-22T15:47:20.999Z</time></trkpt><trkpt lat="47.36300592915399" lon="-2.525147790887293"><ele>10.4</ele><time>2026-03-22T15:47:22.999Z</time></trkpt><trkpt lat="47.36306759887217" lon="-2.5253182930562197"><ele>10.2</ele><time>2026-03-22T15:47:24.999Z</time></trkpt><trkpt lat="47.36313466206751" lon="-2.52543175602948"><ele>10.0</ele><time>2026-03-22T15:47:25.999Z</time></trkpt><trkpt lat="47.36320837801851" lon="-2.525563898518788"><ele>8.75</ele><time>2026-03-22T15:47:26.999Z</time></trkpt><trkpt lat="47.36327915041795" lon="-2.5257055161712354"><ele>7.5</ele><time>2026-03-22T15:47:27.999Z</time></trkpt><trkpt lat="47.363356727882696" lon="-2.5258477544523052"><ele>6.25</ele><time>2026-03-22T15:47:28.999Z</time></trkpt><trkpt lat="47.36343602760361" lon="-2.5259811989609093"><ele>5.0</ele><time>2026-03-22T15:47:29.999Z</time></trkpt><trkpt lat="47.36352047112253" lon="-2.52612766682536"><ele>4.75</ele><time>2026-03-22T15:47:30.999Z</time></trkpt><trkpt lat="47.36360150984115" lon="-2.526279409044377"><ele>4.5</ele><time>2026-03-22T15:47:31.999Z</time></trkpt><trkpt lat="47.36367853995466" lon="-2.526438873525342"><ele>4.25</ele><time>2026-03-22T15:47:32.999Z</time></trkpt><trkpt lat="47.36373887728671" lon="-2.5266176944768035"><ele>4.0</ele><time>2026-03-22T15:47:33.999Z</time></trkpt><trkpt lat="47.36378058634664" lon="-2.526810165450966"><ele>4.0</ele><time>2026-03-22T15:47:34.999Z</time></trkpt><trkpt lat="47.36380488560993" lon="-2.5270214345901088"><ele>4.0</ele><time>2026-03-22T15:47:35.999Z</time></trkpt><trkpt lat="47.36381371649208" lon="-2.5272386357499097"><ele>4.0</ele><time>2026-03-22T15:47:36.999Z</time></trkpt><trkpt lat="47.36382494035072" lon="-2.5274719567345567"><ele>4.0</ele><time>2026-03-22T15:47:37.999Z</time></trkpt><trkpt lat="47.363841757404714" lon="-2.527692118199849"><ele>4.0</ele><time>2026-03-22T15:47:38.999Z</time></trkpt><trkpt lat="47.36387113396771" lon="-2.527905696471192"><ele>4.0</ele><time>2026-03-22T15:47:39.999Z</time></trkpt><trkpt lat="47.36391791439835" lon="-2.5281145294659835"><ele>4.0</ele><time>2026-03-22T15:47:40.999Z</time></trkpt><trkpt lat="47.36398933368454" lon="-2.5283302922733024"><ele>5.333333333333333</ele><time>2026-03-22T15:47:41.999Z</time></trkpt><trkpt lat="47.36406329203426" lon="-2.5285410383254057"><ele>6.666666666666666</ele><time>2026-03-22T15:47:42.999Z</time></trkpt><trkpt lat="47.36413331164217" lon="-2.5287534746524645"><ele>8.0</ele><time>2026-03-22T15:47:43.999Z</time></trkpt><trkpt lat="47.36421621256314" lon="-2.528957294930538"><ele>8.0</ele><time>2026-03-22T15:47:44.999Z</time></trkpt><trkpt lat="47.36429858770193" lon="-2.5291608978400073"><ele>8.0</ele><time>2026-03-22T15:47:45.999Z</time></trkpt><trkpt lat="47.364373445661364" lon="-2.5293721610203432"><ele>8.0</ele><time>2026-03-22T15:47:46.999Z</time></trkpt><trkpt lat="47.3644534021738" lon="-2.5295651262083725"><ele>8.0</ele><time>2026-03-22T15:47:47.999Z</time></trkpt><trkpt lat="47.36454470095799" lon="-2.529773465802775"><ele>8.0</ele><time>2026-03-22T15:47:48.999Z</time></trkpt><trkpt lat="47.36463451696886" lon="-2.529946185496419"><ele>8.0</ele><time>2026-03-22T15:47:49.999Z</time></trkpt><trkpt lat="47.36473430944918" lon="-2.5301065158718488"><ele>8.0</ele><time>2026-03-22T15:47:50.999Z</time></trkpt><trkpt lat="47.36483985102213" lon="-2.5302541503895086"><ele>8.0</ele><time>2026-03-22T15:47:51.999Z</time></trkpt><trkpt lat="47.364935539078715" lon="-2.5303938073675614"><ele>8.0</ele><time>2026-03-22T15:47:52.999Z</time></trkpt><trkpt lat="47.36502044991335" lon="-2.5305244192996326"><ele>8.0</ele><time>2026-03-22T15:47:53.999Z</time></trkpt><trkpt lat="47.3651009014952" lon="-2.5306427941378375"><ele>7.5</ele><time>2026-03-22T15:47:54.999Z</time></trkpt><trkpt lat="47.365184239920936" lon="-2.530764361787711"><ele>7.0</ele><time>2026-03-22T15:47:55.999Z</time></trkpt><trkpt lat="47.36526958219881" lon="-2.530884941871902"><ele>6.5</ele><time>2026-03-22T15:47:56.999Z</time></trkpt><trkpt lat="47.36536475818607" lon="-2.530992075593362"><ele>6.0</ele><time>2026-03-22T15:47:57.999Z</time></trkpt><trkpt lat="47.36545379236994" lon="-2.531101731916235"><ele>6.199999999999999</ele><time>2026-03-22T15:47:58.999Z</time></trkpt><trkpt lat="47.36554136666084" lon="-2.531204613113089"><ele>6.3999999999999995</ele><time>2026-03-22T15:47:59.999Z</time></trkpt><trkpt lat="47.36562817711147" lon="-2.5313004424217143"><ele>6.6</ele><time>2026-03-22T15:48:00.999Z</time></trkpt><trkpt lat="47.36572064956795" lon="-2.531393122164269"><ele>6.8</ele><time>2026-03-22T15:48:01.999Z</time></trkpt><trkpt lat="47.365819079536266" lon="-2.5314873404973914"><ele>7.0</ele><time>2026-03-22T15:48:02.999Z</time></trkpt><trkpt lat="47.36592644412561" lon="-2.5315874024990763"><ele>7.25</ele><time>2026-03-22T15:48:03.999Z</time></trkpt><trkpt lat="47.36602382840453" lon="-2.5316710818305537"><ele>7.5</ele><time>2026-03-22T15:48:04.999Z</time></trkpt><trkpt lat="47.36612208494825" lon="-2.5317599831151427"><ele>7.75</ele><time>2026-03-22T15:48:05.999Z</time></trkpt><trkpt lat="47.36623292536005" lon="-2.531850965909928"><ele>8.0</ele><time>2026-03-22T15:48:06.999Z</time></trkpt><trkpt lat="47.36633010051314" lon="-2.5319485325886952"><ele>7.4</ele><time>2026-03-22T15:48:07.999Z</time></trkpt><trkpt lat="47.3664229931509" lon="-2.532038186900432"><ele>6.800000000000001</ele><time>2026-03-22T15:48:08.999Z</time></trkpt><trkpt lat="47.36652458214449" lon="-2.532122224953098"><ele>6.2</ele><time>2026-03-22T15:48:09.999Z</time></trkpt><trkpt lat="47.36660945705369" lon="-2.5322078542282367"><ele>5.6</ele><time>2026-03-22T15:48:10.999Z</time></trkpt><trkpt lat="47.366684597417965" lon="-2.5322988424588244"><ele>5.0</ele><time>2026-03-22T15:48:11.999Z</time></trkpt><trkpt lat="47.366731942149066" lon="-2.5324239923187624"><ele>5.0</ele><time>2026-03-22T15:48:12.999Z</time></trkpt><trkpt lat="47.36676163608569" lon="-2.532576213582836"><ele>5.0</ele><time>2026-03-22T15:48:13.999Z</time></trkpt><trkpt lat="47.366774048004146" lon="-2.5327665957726504"><ele>5.0</ele><time>2026-03-22T15:48:14.999Z</time></trkpt><trkpt lat="47.36676901947582" lon="-2.532974540227622"><ele>5.0</ele><time>2026-03-22T15:48:15.999Z</time></trkpt><trkpt lat="47.366784396678" lon="-2.5331899069120896"><ele>5.0</ele><time>2026-03-22T15:48:16.999Z</time></trkpt><trkpt lat="47.36679113940025" lon="-2.5333864909250057"><ele>5.0</ele><time>2026-03-22T15:48:17.999Z</time></trkpt><trkpt lat="47.36679532622454" lon="-2.533576487131105"><ele>5.0</ele><time>2026-03-22T15:48:18.999Z</time></trkpt><trkpt lat="47.36680576670044" lon="-2.5337496961576584"><ele>5.0</ele><time>2026-03-22T15:48:19.999Z</time></trkpt><trkpt lat="47.366822838206815" lon="-2.5339186795363813"><ele>4.5</ele><time>2026-03-22T15:48:20.999Z</time></trkpt><trkpt lat="47.36683047499876" lon="-2.534115492150956"><ele>4.0</ele><time>2026-03-22T15:48:21.999Z</time></trkpt><trkpt lat="47.36685181569754" lon="-2.5343039732767263"><ele>3.5</ele><time>2026-03-22T15:48:22.999Z</time></trkpt><trkpt lat="47.366883578279825" lon="-2.5345011885622304"><ele>3.0</ele><time>2026-03-22T15:48:23.999Z</time></trkpt><trkpt lat="47.36692697735364" lon="-2.5347097812889823"><ele>3.0</ele><time>2026-03-22T15:48:24.999Z</time></trkpt><trkpt lat="47.36696913615269" lon="-2.5349396748149897"><ele>3.0</ele><time>2026-03-22T15:48:25.999Z</time></trkpt><trkpt lat="47.3670129897128" lon="-2.535169387802738"><ele>3.0</ele><time>2026-03-22T15:48:26.999Z</time></trkpt><trkpt lat="47.36706276078604" lon="-2.535405584833822"><ele>3.0</ele><time>2026-03-22T15:48:27.999Z</time></trkpt><trkpt lat="47.367118816378" lon="-2.535657964024132"><ele>3.0</ele><time>2026-03-22T15:48:28.999Z</time></trkpt><trkpt lat="47.36717584714285" lon="-2.535903598777362"><ele>3.0</ele><time>2026-03-22T15:48:29.999Z</time></trkpt><trkpt lat="47.36724755876802" lon="-2.536138849618478"><ele>4.333333333333334</ele><time>2026-03-22T15:48:30.999Z</time></trkpt><trkpt lat="47.36731548217178" lon="-2.536373790985731"><ele>5.666666666666667</ele><time>2026-03-22T15:48:31.999Z</time></trkpt><trkpt lat="47.3673794022614" lon="-2.536596322335949"><ele>7.0</ele><time>2026-03-22T15:48:32.999Z</time></trkpt><trkpt lat="47.367435403594044" lon="-2.536824037026531"><ele>8.0</ele><time>2026-03-22T15:48:33.999Z</time></trkpt><trkpt lat="47.36750053901727" lon="-2.537055649150568"><ele>9.0</ele><time>2026-03-22T15:48:34.999Z</time></trkpt><trkpt lat="47.3675548035219" lon="-2.537263331121342"><ele>10.0</ele><time>2026-03-22T15:48:35.999Z</time></trkpt><trkpt lat="47.36760179724711" lon="-2.5374543089385395"><ele>10.0</ele><time>2026-03-22T15:48:36.999Z</time></trkpt><trkpt lat="47.36764603608004" lon="-2.5376217990674386"><ele>10.0</ele><time>2026-03-22T15:48:37.999Z</time></trkpt><trkpt lat="47.367671252062145" lon="-2.537774569742336"><ele>10.0</ele><time>2026-03-22T15:48:38.999Z</time></trkpt><trkpt lat="47.36767117783267" lon="-2.537929120590538"><ele>10.0</ele><time>2026-03-22T15:48:39.999Z</time></trkpt><trkpt lat="47.367640332984514" lon="-2.5380797456332203"><ele>10.0</ele><time>2026-03-22T15:48:40.999Z</time></trkpt><trkpt lat="47.36758370389404" lon="-2.5382207248448796"><ele>10.666666666666668</ele><time>2026-03-22T15:48:41.999Z</time></trkpt><trkpt lat="47.36749100300194" lon="-2.5383613732209374"><ele>11.333333333333334</ele><time>2026-03-22T15:48:42.999Z</time></trkpt><trkpt lat="47.367365395033005" lon="-2.538488023974013"><ele>12.0</ele><time>2026-03-22T15:48:43.999Z</time></trkpt><trkpt lat="47.367205644874915" lon="-2.5386020622869263"><ele>11.333333333333334</ele><time>2026-03-22T15:48:44.999Z</time></trkpt><trkpt lat="47.36702481223487" lon="-2.538734416839747"><ele>10.666666666666668</ele><time>2026-03-22T15:48:45.999Z</time></trkpt><trkpt lat="47.366869481549244" lon="-2.5388706668070946"><ele>10.0</ele><time>2026-03-22T15:48:46.999Z</time></trkpt><trkpt lat="47.366767901759545" lon="-2.538931115733972"><ele>10.0</ele><time>2026-03-22T15:48:47.999Z</time></trkpt><trkpt lat="47.36661068782244" lon="-2.5390324354255447"><ele>10.0</ele><time>2026-03-22T15:48:48.999Z</time></trkpt><trkpt lat="47.366477780004324" lon="-2.539126885317083"><ele>10.0</ele><time>2026-03-22T15:48:49.999Z</time></trkpt><trkpt lat="47.36635716888752" lon="-2.5392269992529135"><ele>8.75</ele><time>2026-03-22T15:48:50.999Z</time></trkpt><trkpt lat="47.36626115203717" lon="-2.5393489602434984"><ele>7.5</ele><time>2026-03-22T15:48:51.999Z</time></trkpt><trkpt lat="47.36618981717095" lon="-2.5394801173578747"><ele>6.25</ele><time>2026-03-22T15:48:52.999Z</time></trkpt><trkpt lat="47.36613842674091" lon="-2.539626813710682"><ele>5.0</ele><time>2026-03-22T15:48:53.999Z</time></trkpt><trkpt lat="47.36610641890912" lon="-2.539774556207339"><ele>5.0</ele><time>2026-03-22T15:48:54.999Z</time></trkpt><trkpt lat="47.36609799871923" lon="-2.5399705012141576"><ele>5.0</ele><time>2026-03-22T15:48:55.999Z</time></trkpt><trkpt lat="47.36612773762966" lon="-2.540168118916573"><ele>5.0</ele><time>2026-03-22T15:48:56.999Z</time></trkpt><trkpt lat="47.36617413758548" lon="-2.540384712040581"><ele>5.0</ele><time>2026-03-22T15:48:57.999Z</time></trkpt><trkpt lat="47.36622244026276" lon="-2.540618448568455"><ele>4.333333333333334</ele><time>2026-03-22T15:48:58.999Z</time></trkpt><trkpt lat="47.36627685493317" lon="-2.540881744397547"><ele>3.666666666666667</ele><time>2026-03-22T15:48:59.999Z</time></trkpt><trkpt lat="47.366329572351326" lon="-2.5411245039833577"><ele>3.0</ele><time>2026-03-22T15:49:00.999Z</time></trkpt><trkpt lat="47.366373610769884" lon="-2.5413567654244504"><ele>3.666666666666667</ele><time>2026-03-22T15:49:01.999Z</time></trkpt><trkpt lat="47.36641222036223" lon="-2.5416000075464606"><ele>4.333333333333334</ele><time>2026-03-22T15:49:02.999Z</time></trkpt><trkpt lat="47.366461145237544" lon="-2.54183730361505"><ele>5.0</ele><time>2026-03-22T15:49:03.999Z</time></trkpt><trkpt lat="47.366511473999594" lon="-2.542056686136238"><ele>5.0</ele><time>2026-03-22T15:49:04.999Z</time></trkpt><trkpt lat="47.36655933989319" lon="-2.542271710243953"><ele>5.0</ele><time>2026-03-22T15:49:05.999Z</time></trkpt><trkpt lat="47.36661866409789" lon="-2.542498189865692"><ele>5.0</ele><time>2026-03-22T15:49:06.999Z</time></trkpt><trkpt lat="47.366702552340904" lon="-2.5427277248301072"><ele>4.333333333333334</ele><time>2026-03-22T15:49:07.999Z</time></trkpt><trkpt lat="47.36679247549503" lon="-2.542954983331066"><ele>3.666666666666667</ele><time>2026-03-22T15:49:08.999Z</time></trkpt><trkpt lat="47.366885503219876" lon="-2.5431699704894473"><ele>3.0</ele><time>2026-03-22T15:49:09.999Z</time></trkpt><trkpt lat="47.366984947318564" lon="-2.543374220476375"><ele>3.0</ele><time>2026-03-22T15:49:10.999Z</time></trkpt><trkpt lat="47.36708620640485" lon="-2.5435812010623238"><ele>3.0</ele><time>2026-03-22T15:49:11.999Z</time></trkpt><trkpt lat="47.36718635502304" lon="-2.5437790877391557"><ele>3.0</ele><time>2026-03-22T15:49:12.999Z</time></trkpt><trkpt lat="47.36728613618695" lon="-2.543955484006451"><ele>3.333333333333333</ele><time>2026-03-22T15:49:13.999Z</time></trkpt><trkpt lat="47.367397257724534" lon="-2.5441103923753365"><ele>3.6666666666666665</ele><time>2026-03-22T15:49:14.999Z</time></trkpt><trkpt lat="47.36752036627876" lon="-2.5442446529037994"><ele>4.0</ele><time>2026-03-22T15:49:15.999Z</time></trkpt><trkpt lat="47.36764162427324" lon="-2.5443631557944375"><ele>4.0</ele><time>2026-03-22T15:49:16.999Z</time></trkpt><trkpt lat="47.367755936021155" lon="-2.5444691755858844"><ele>4.0</ele><time>2026-03-22T15:49:17.999Z</time></trkpt><trkpt lat="47.367866575893494" lon="-2.544575393461892"><ele>4.0</ele><time>2026-03-22T15:49:18.999Z</time></trkpt><trkpt lat="47.36797329275338" lon="-2.544710241629958"><ele>4.0</ele><time>2026-03-22T15:49:19.999Z</time></trkpt><trkpt lat="47.36807826028331" lon="-2.544881317429307"><ele>4.0</ele><time>2026-03-22T15:49:20.999Z</time></trkpt><trkpt lat="47.36816062586158" lon="-2.545083143019919"><ele>4.0</ele><time>2026-03-22T15:49:21.999Z</time></trkpt><trkpt lat="47.36821428125838" lon="-2.545301743066759"><ele>4.0</ele><time>2026-03-22T15:49:22.999Z</time></trkpt><trkpt lat="47.36825708283725" lon="-2.5455327953346885"><ele>4.0</ele><time>2026-03-22T15:49:23.999Z</time></trkpt><trkpt lat="47.36830330966138" lon="-2.5457532747515548"><ele>4.0</ele><time>2026-03-22T15:49:24.999Z</time></trkpt><trkpt lat="47.36836278745063" lon="-2.545967511443816"><ele>4.0</ele><time>2026-03-22T15:49:25.999Z</time></trkpt><trkpt lat="47.36844445722992" lon="-2.5461631355089396"><ele>3.0</ele><time>2026-03-22T15:49:26.999Z</time></trkpt><trkpt lat="47.36854806125709" lon="-2.5463462916499764"><ele>2.0</ele><time>2026-03-22T15:49:27.999Z</time></trkpt><trkpt lat="47.36865120362156" lon="-2.5465098599929963"><ele>1.0</ele><time>2026-03-22T15:49:28.999Z</time></trkpt><trkpt lat="47.3687458516778" lon="-2.5466697328954906"><ele>1.0</ele><time>2026-03-22T15:49:29.999Z</time></trkpt><trkpt lat="47.3688167829554" lon="-2.5468158076261913"><ele>1.0</ele><time>2026-03-22T15:49:30.999Z</time></trkpt><trkpt lat="47.36889591538103" lon="-2.5469591384284427"><ele>1.0</ele><time>2026-03-22T15:49:31.999Z</time></trkpt><trkpt lat="47.368960751609805" lon="-2.547117467482659"><ele>1.0</ele><time>2026-03-22T15:49:32.999Z</time></trkpt><trkpt lat="47.36900501203226" lon="-2.5473069667140282"><ele>1.6666666666666665</ele><time>2026-03-22T15:49:33.999Z</time></trkpt><trkpt lat="47.36903046971551" lon="-2.5475175360148214"><ele>2.3333333333333335</ele><time>2026-03-22T15:49:34.999Z</time></trkpt><trkpt lat="47.36904503077808" lon="-2.5477338863285874"><ele>3.0</ele><time>2026-03-22T15:49:35.999Z</time></trkpt><trkpt lat="47.36903369343208" lon="-2.547966121489405"><ele>3.25</ele><time>2026-03-22T15:49:36.999Z</time></trkpt><trkpt lat="47.36900450074612" lon="-2.5481889313116017"><ele>3.5</ele><time>2026-03-22T15:49:37.999Z</time></trkpt><trkpt lat="47.36898317971275" lon="-2.5483963279638844"><ele>3.75</ele><time>2026-03-22T15:49:38.999Z</time></trkpt><trkpt lat="47.36897020968765" lon="-2.5485869523413247"><ele>4.0</ele><time>2026-03-22T15:49:39.999Z</time></trkpt><trkpt lat="47.36895372044643" lon="-2.5487624168854004"><ele>4.25</ele><time>2026-03-22T15:49:40.999Z</time></trkpt><trkpt lat="47.36894805323342" lon="-2.5489318859537655"><ele>4.5</ele><time>2026-03-22T15:49:41.999Z</time></trkpt><trkpt lat="47.36896571959001" lon="-2.5491026741023055"><ele>4.75</ele><time>2026-03-22T15:49:42.999Z</time></trkpt><trkpt lat="47.36900014340707" lon="-2.5492612841496434"><ele>5.0</ele><time>2026-03-22T15:49:43.999Z</time></trkpt><trkpt lat="47.36904404140648" lon="-2.5494557808838905"><ele>4.666666666666667</ele><time>2026-03-22T15:49:44.999Z</time></trkpt><trkpt lat="47.36911099352054" lon="-2.5496732347908404"><ele>4.333333333333333</ele><time>2026-03-22T15:49:45.999Z</time></trkpt><trkpt lat="47.36918824412273" lon="-2.549903677513539"><ele>4.0</ele><time>2026-03-22T15:49:46.999Z</time></trkpt><trkpt lat="47.369254130610884" lon="-2.550143739975682"><ele>4.333333333333333</ele><time>2026-03-22T15:49:47.999Z</time></trkpt><trkpt lat="47.369325059397134" lon="-2.5503895894385353"><ele>4.666666666666667</ele><time>2026-03-22T15:49:48.999Z</time></trkpt><trkpt lat="47.36939675949722" lon="-2.5505929469393886"><ele>5.0</ele><time>2026-03-22T15:49:49.999Z</time></trkpt><trkpt lat="47.369456283434374" lon="-2.550782923745568"><ele>5.0</ele><time>2026-03-22T15:49:50.999Z</time></trkpt><trkpt lat="47.369514517797406" lon="-2.550961842643766"><ele>5.0</ele><time>2026-03-22T15:49:51.999Z</time></trkpt><trkpt lat="47.36957280701701" lon="-2.5511047365357467"><ele>5.0</ele><time>2026-03-22T15:49:52.999Z</time></trkpt><trkpt lat="47.36963743326042" lon="-2.551251952898166"><ele>5.0</ele><time>2026-03-22T15:49:53.999Z</time></trkpt><trkpt lat="47.36970783553718" lon="-2.5513742136376854"><ele>5.4</ele><time>2026-03-22T15:49:54.999Z</time></trkpt><trkpt lat="47.36978779828884" lon="-2.5514698945069925"><ele>5.8</ele><time>2026-03-22T15:49:55.999Z</time></trkpt><trkpt lat="47.369889138781" lon="-2.5515152077834165"><ele>6.199999999999999</ele><time>2026-03-22T15:49:56.999Z</time></trkpt><trkpt lat="47.3700027614069" lon="-2.5515387402204226"><ele>6.6</ele><time>2026-03-22T15:49:57.999Z</time></trkpt><trkpt lat="47.37012511750979" lon="-2.551529354950071"><ele>7.0</ele><time>2026-03-22T15:49:58.999Z</time></trkpt><trkpt lat="47.3702463683612" lon="-2.5514677207060315"><ele>7.0</ele><time>2026-03-22T15:49:59.999Z</time></trkpt><trkpt lat="47.37036258166635" lon="-2.5513692418840774"><ele>7.0</ele><time>2026-03-22T15:50:00.999Z</time></trkpt><trkpt lat="47.370495089923615" lon="-2.5512647762764797"><ele>7.0</ele><time>2026-03-22T15:50:01.999Z</time></trkpt><trkpt lat="47.3706278740398" lon="-2.5511524015237854"><ele>7.0</ele><time>2026-03-22T15:50:02.999Z</time></trkpt><trkpt lat="47.37074724407789" lon="-2.55107543783866"><ele>7.25</ele><time>2026-03-22T15:50:03.999Z</time></trkpt><trkpt lat="47.37087731550293" lon="-2.5510142380566863"><ele>7.5</ele><time>2026-03-22T15:50:04.999Z</time></trkpt><trkpt lat="47.371013407475395" lon="-2.55096646809878"><ele>7.75</ele><time>2026-03-22T15:50:05.999Z</time></trkpt><trkpt lat="47.37114659058497" lon="-2.5509578752507247"><ele>8.0</ele><time>2026-03-22T15:50:06.999Z</time></trkpt><trkpt lat="47.37128634557466" lon="-2.5509803427923043"><ele>8.600000000000001</ele><time>2026-03-22T15:50:07.999Z</time></trkpt><trkpt lat="47.371417955521906" lon="-2.55103280264992"><ele>9.200000000000001</ele><time>2026-03-22T15:50:08.999Z</time></trkpt><trkpt lat="47.371533332999256" lon="-2.5510572116420005"><ele>9.8</ele><time>2026-03-22T15:50:09.999Z</time></trkpt><trkpt lat="47.37160134019848" lon="-2.5510689454406883"><ele>10.4</ele><time>2026-03-22T15:50:10.999Z</time></trkpt><trkpt lat="47.371700033826734" lon="-2.551093097436923"><ele>11.0</ele><time>2026-03-22T15:50:12.999Z</time></trkpt><trkpt lat="47.37176579848658" lon="-2.551105389703117"><ele>11.0</ele><time>2026-03-22T15:50:13.999Z</time></trkpt><trkpt lat="47.37185195155355" lon="-2.5511116683944355"><ele>11.0</ele><time>2026-03-22T15:50:14.999Z</time></trkpt><trkpt lat="47.37194191901573" lon="-2.551108154811595"><ele>11.0</ele><time>2026-03-22T15:50:15.999Z</time></trkpt><trkpt lat="47.3720482987478" lon="-2.551087446644445"><ele>11.0</ele><time>2026-03-22T15:50:16.999Z</time></trkpt><trkpt lat="47.37218887379745" lon="-2.5510420456918985"><ele>11.0</ele><time>2026-03-22T15:50:17.999Z</time></trkpt><trkpt lat="47.37231836095738" lon="-2.5509834998010747"><ele>11.600000000000001</ele><time>2026-03-22T15:50:18.999Z</time></trkpt><trkpt lat="47.372425919128275" lon="-2.5509291518888237"><ele>12.2</ele><time>2026-03-22T15:50:19.999Z</time></trkpt><trkpt lat="47.37252527542262" lon="-2.5508884705319312"><ele>12.799999999999999</ele><time>2026-03-22T15:50:20.999Z</time></trkpt><trkpt lat="47.372598723051944" lon="-2.5508470218433112"><ele>13.399999999999999</ele><time>2026-03-22T15:50:21.999Z</time></trkpt><trkpt lat="47.37267375409772" lon="-2.550809573883943"><ele>14.0</ele><time>2026-03-22T15:50:22.999Z</time></trkpt><trkpt lat="47.37277064420077" lon="-2.55075617677317"><ele>14.0</ele><time>2026-03-22T15:50:23.999Z</time></trkpt><trkpt lat="47.372843047642256" lon="-2.550717853444092"><ele>13.999999999999998</ele><time>2026-03-22T15:50:24.999Z</time></trkpt><trkpt lat="47.37292169459746" lon="-2.550671762080211"><ele>13.999999999999998</ele><time>2026-03-22T15:50:25.999Z</time></trkpt><trkpt lat="47.37302635471639" lon="-2.5506044530660734"><ele>14.0</ele><time>2026-03-22T15:50:26.999Z</time></trkpt><trkpt lat="47.373149056265255" lon="-2.5505109926519465"><ele>14.0</ele><time>2026-03-22T15:50:27.999Z</time></trkpt><trkpt lat="47.373272179952984" lon="-2.550414796184066"><ele>13.6</ele><time>2026-03-22T15:50:28.999Z</time></trkpt><trkpt lat="47.37338945019118" lon="-2.5503262558827386"><ele>13.2</ele><time>2026-03-22T15:50:29.999Z</time></trkpt><trkpt lat="47.373489941628904" lon="-2.550244201892545"><ele>12.799999999999999</ele><time>2026-03-22T15:50:30.999Z</time></trkpt><trkpt lat="47.37358691390212" lon="-2.5501831409557205"><ele>12.399999999999999</ele><time>2026-03-22T15:50:31.999Z</time></trkpt><trkpt lat="47.37367948972634" lon="-2.5501435187196093"><ele>12.0</ele><time>2026-03-22T15:50:32.999Z</time></trkpt><trkpt lat="47.37377226549853" lon="-2.5501081421887464"><ele>11.999999999999998</ele><time>2026-03-22T15:50:33.999Z</time></trkpt><trkpt lat="47.373850493187106" lon="-2.550094132229289"><ele>12.0</ele><time>2026-03-22T15:50:34.999Z</time></trkpt><trkpt lat="47.37391695458437" lon="-2.5500836003748644"><ele>12.0</ele><time>2026-03-22T15:50:35.999Z</time></trkpt><trkpt lat="47.37398027055952" lon="-2.550096228254561"><ele>12.0</ele><time>2026-03-22T15:50:36.999Z</time></trkpt><trkpt lat="47.37404623639852" lon="-2.5501065306143165"><ele>12.0</ele><time>2026-03-22T15:50:37.999Z</time></trkpt><trkpt lat="47.37410769566257" lon="-2.550134251174303"><ele>11.999999999999998</ele><time>2026-03-22T15:50:38.999Z</time></trkpt><trkpt lat="47.37417698602894" lon="-2.550156779467111"><ele>12.0</ele><time>2026-03-22T15:50:39.999Z</time></trkpt><trkpt lat="47.37426571249039" lon="-2.550155499808605"><ele>12.2</ele><time>2026-03-22T15:50:40.999Z</time></trkpt><trkpt lat="47.374359159209554" lon="-2.5501455693815243"><ele>12.399999999999999</ele><time>2026-03-22T15:50:41.999Z</time></trkpt><trkpt lat="47.374458676958255" lon="-2.550109663558029"><ele>12.600000000000001</ele><time>2026-03-22T15:50:42.999Z</time></trkpt><trkpt lat="47.37455665584703" lon="-2.5500550854426076"><ele>12.8</ele><time>2026-03-22T15:50:43.999Z</time></trkpt><trkpt lat="47.374670743968665" lon="-2.5499672752751428"><ele>13.0</ele><time>2026-03-22T15:50:44.999Z</time></trkpt><trkpt lat="47.374800006811085" lon="-2.5498604824663733"><ele>12.333333333333332</ele><time>2026-03-22T15:50:45.999Z</time></trkpt><trkpt lat="47.37493093801905" lon="-2.5497421849774864"><ele>11.666666666666666</ele><time>2026-03-22T15:50:46.999Z</time></trkpt><trkpt lat="47.375072492485934" lon="-2.5496448748996325"><ele>11.0</ele><time>2026-03-22T15:50:47.999Z</time></trkpt><trkpt lat="47.375210186552685" lon="-2.5495420831966684"><ele>11.0</ele><time>2026-03-22T15:50:48.999Z</time></trkpt><trkpt lat="47.37534664173395" lon="-2.5494367078995634"><ele>11.0</ele><time>2026-03-22T15:50:49.999Z</time></trkpt><trkpt lat="47.375480751202176" lon="-2.5493339020673402"><ele>11.0</ele><time>2026-03-22T15:50:50.999Z</time></trkpt><trkpt lat="47.3756283435861" lon="-2.5492252287165433"><ele>10.666666666666666</ele><time>2026-03-22T15:50:51.999Z</time></trkpt><trkpt lat="47.375775837892036" lon="-2.54911226793204"><ele>10.333333333333334</ele><time>2026-03-22T15:50:52.999Z</time></trkpt><trkpt lat="47.3759307040753" lon="-2.549034200853848"><ele>10.0</ele><time>2026-03-22T15:50:53.999Z</time></trkpt><trkpt lat="47.37608290405922" lon="-2.548968739749734"><ele>10.0</ele><time>2026-03-22T15:50:54.999Z</time></trkpt><trkpt lat="47.376227046718355" lon="-2.5488880046584055"><ele>10.0</ele><time>2026-03-22T15:50:55.999Z</time></trkpt><trkpt lat="47.37636502397917" lon="-2.5488234156276763"><ele>10.0</ele><time>2026-03-22T15:50:56.999Z</time></trkpt><trkpt lat="47.37649872062854" lon="-2.5487633691653686"><ele>10.0</ele><time>2026-03-22T15:50:57.999Z</time></trkpt><trkpt lat="47.37661484300628" lon="-2.5487059523959488"><ele>9.8</ele><time>2026-03-22T15:50:58.999Z</time></trkpt><trkpt lat="47.37672180470349" lon="-2.548651926499013"><ele>9.6</ele><time>2026-03-22T15:50:59.999Z</time></trkpt><trkpt lat="47.376827866036" lon="-2.5485966706047565"><ele>9.4</ele><time>2026-03-22T15:51:00.999Z</time></trkpt><trkpt lat="47.3769352521737" lon="-2.548541158894243"><ele>9.2</ele><time>2026-03-22T15:51:01.999Z</time></trkpt><trkpt lat="47.377028505863" lon="-2.548488182077175"><ele>9.0</ele><time>2026-03-22T15:51:02.999Z</time></trkpt><trkpt lat="47.377142791150106" lon="-2.548438172498935"><ele>8.5</ele><time>2026-03-22T15:51:03.999Z</time></trkpt><trkpt lat="47.37726502316943" lon="-2.548386559353449"><ele>8.0</ele><time>2026-03-22T15:51:04.999Z</time></trkpt><trkpt lat="47.377385008885426" lon="-2.5483259304193058"><ele>7.5</ele><time>2026-03-22T15:51:05.999Z</time></trkpt><trkpt lat="47.37751795064298" lon="-2.548281568251917"><ele>7.0</ele><time>2026-03-22T15:51:06.999Z</time></trkpt><trkpt lat="47.37765414338635" lon="-2.5482275217896335"><ele>7.0</ele><time>2026-03-22T15:51:07.999Z</time></trkpt><trkpt lat="47.37778375674031" lon="-2.54815909748478"><ele>7.0</ele><time>2026-03-22T15:51:08.999Z</time></trkpt><trkpt lat="47.377923923681344" lon="-2.548062961533917"><ele>7.0</ele><time>2026-03-22T15:51:09.999Z</time></trkpt><trkpt lat="47.37801834843348" lon="-2.5479550590589253"><ele>7.0</ele><time>2026-03-22T15:51:10.999Z</time></trkpt><trkpt lat="47.378113548107635" lon="-2.54785883947142"><ele>6.666666666666667</ele><time>2026-03-22T15:51:11.999Z</time></trkpt><trkpt lat="47.378203473853496" lon="-2.547757435209916"><ele>6.333333333333334</ele><time>2026-03-22T15:51:12.999Z</time></trkpt><trkpt lat="47.37827688473993" lon="-2.5476595731689797"><ele>6.0</ele><time>2026-03-22T15:51:13.999Z</time></trkpt><trkpt lat="47.37832917612598" lon="-2.5475787652017536"><ele>5.666666666666667</ele><time>2026-03-22T15:51:14.999Z</time></trkpt><trkpt lat="47.37837927327782" lon="-2.547495973876726"><ele>5.333333333333334</ele><time>2026-03-22T15:51:15.999Z</time></trkpt><trkpt lat="47.37842163219533" lon="-2.547414705111662"><ele>5.0</ele><time>2026-03-22T15:51:16.999Z</time></trkpt><trkpt lat="47.37846307660162" lon="-2.5473338099938823"><ele>5.0</ele><time>2026-03-22T15:51:17.999Z</time></trkpt><trkpt lat="47.37856121464629" lon="-2.5472265548180903"><ele>5.0</ele><time>2026-03-22T15:51:19.999Z</time></trkpt><trkpt lat="47.37866903961106" lon="-2.5471445055599595"><ele>5.0</ele><time>2026-03-22T15:51:21.999Z</time></trkpt><trkpt lat="47.378762943950385" lon="-2.5470657197429"><ele>5.0</ele><time>2026-03-22T15:51:23.999Z</time></trkpt><trkpt lat="47.37885602019406" lon="-2.546977226876346"><ele>5.166666666666667</ele><time>2026-03-22T15:51:25.999Z</time></trkpt><trkpt lat="47.37894492171076" lon="-2.546896232217736"><ele>5.333333333333334</ele><time>2026-03-22T15:51:27.999Z</time></trkpt><trkpt lat="47.3790220256865" lon="-2.5468262425524206"><ele>5.5</ele><time>2026-03-22T15:51:29.999Z</time></trkpt><trkpt lat="47.379079822419435" lon="-2.546769871242068"><ele>5.666666666666667</ele><time>2026-03-22T15:51:31.999Z</time></trkpt><trkpt lat="47.37914327048477" lon="-2.5467162600714066"><ele>5.833333333333333</ele><time>2026-03-22T15:51:33.999Z</time></trkpt><trkpt lat="47.379202651886516" lon="-2.5466661610394286"><ele>6.0</ele><time>2026-03-22T15:51:35.999Z</time></trkpt><trkpt lat="47.37925968770434" lon="-2.5466175132375035"><ele>6.0</ele><time>2026-03-22T15:51:37.999Z</time></trkpt><trkpt lat="47.3793292996526" lon="-2.546543297276206"><ele>6.0</ele><time>2026-03-22T15:51:40.999Z</time></trkpt><trkpt lat="47.379385221998085" lon="-2.5464808203867064"><ele>6.0</ele><time>2026-03-22T15:51:43.999Z</time></trkpt><trkpt lat="47.37944612947124" lon="-2.5464326701662356"><ele>6.0</ele><time>2026-03-22T15:51:45.999Z</time></trkpt><trkpt lat="47.379521378884434" lon="-2.5464012968730936"><ele>6.0</ele><time>2026-03-22T15:51:47.999Z</time></trkpt><trkpt lat="47.379594956874506" lon="-2.5463786373983677"><ele>6.0</ele><time>2026-03-22T15:51:49.999Z</time></trkpt><trkpt lat="47.37966735717527" lon="-2.5463759376310344"><ele>6.0</ele><time>2026-03-22T15:51:51.998Z</time></trkpt><trkpt lat="47.37974210133321" lon="-2.5464081978466835"><ele>6.0</ele><time>2026-03-22T15:51:53.998Z</time></trkpt><trkpt lat="47.37981926326147" lon="-2.5464352473928127"><ele>6.0</ele><time>2026-03-22T15:51:55.998Z</time></trkpt><trkpt lat="47.379905692771" lon="-2.5464486485912916"><ele>6.0</ele><time>2026-03-22T15:51:57.998Z</time></trkpt><trkpt lat="47.37997887916952" lon="-2.546440001603416"><ele>6.0</ele><time>2026-03-22T15:51:59.998Z</time></trkpt><trkpt lat="47.38006379947023" lon="-2.546454245065813"><ele>6.0</ele><time>2026-03-22T15:52:01.998Z</time></trkpt><trkpt lat="47.380134772480645" lon="-2.5464472729138943"><ele>6.0</ele><time>2026-03-22T15:52:03.998Z</time></trkpt><trkpt lat="47.38020994828623" lon="-2.546422816194966"><ele>6.0</ele><time>2026-03-22T15:52:05.998Z</time></trkpt><trkpt lat="47.380271258017444" lon="-2.5463735862459305"><ele>6.0</ele><time>2026-03-22T15:52:07.998Z</time></trkpt><trkpt lat="47.38031478869799" lon="-2.546296442457543"><ele>6.0</ele><time>2026-03-22T15:52:09.999Z</time></trkpt><trkpt lat="47.380383090279054" lon="-2.546236772442521"><ele>6.0</ele><time>2026-03-22T15:52:11.999Z</time></trkpt><trkpt lat="47.38045213984246" lon="-2.546163397347452"><ele>6.0</ele><time>2026-03-22T15:52:13.999Z</time></trkpt><trkpt lat="47.38052416593936" lon="-2.5460917244088135"><ele>6.0</ele><time>2026-03-22T15:52:16.999Z</time></trkpt><trkpt lat="47.380594451097636" lon="-2.5460630674604827"><ele>6.0</ele><time>2026-03-22T15:52:19.999Z</time></trkpt><trkpt lat="47.38064865425153" lon="-2.5459753800291827"><ele>6.0</ele><time>2026-03-22T15:52:22.999Z</time></trkpt><trkpt lat="47.38070599699127" lon="-2.545926176758006"><ele>6.0</ele><time>2026-03-22T15:52:25.999Z</time></trkpt><trkpt lat="47.38077136759885" lon="-2.5458385909327634"><ele>6.0</ele><time>2026-03-22T15:52:28.999Z</time></trkpt><trkpt lat="47.3808326324298" lon="-2.5457810927814015"><ele>6.0</ele><time>2026-03-22T15:52:30.999Z</time></trkpt><trkpt lat="47.380903331604124" lon="-2.545736005928304"><ele>6.0</ele><time>2026-03-22T15:52:32.999Z</time></trkpt><trkpt lat="47.38097483313309" lon="-2.5456819523614365"><ele>6.0</ele><time>2026-03-22T15:52:34.999Z</time></trkpt><trkpt lat="47.38103132385061" lon="-2.545571717793242"><ele>6.0</ele><time>2026-03-22T15:52:37.999Z</time></trkpt><trkpt lat="47.381032551483344" lon="-2.5454030302604833"><ele>6.0</ele><time>2026-03-22T15:52:39.999Z</time></trkpt><trkpt lat="47.38101246523774" lon="-2.545249558592302"><ele>6.0</ele><time>2026-03-22T15:52:41.999Z</time></trkpt><trkpt lat="47.38100739991613" lon="-2.545120767226395"><ele>5.666666666666667</ele><time>2026-03-22T15:52:43.999Z</time></trkpt><trkpt lat="47.380986290372896" lon="-2.544991638601438"><ele>5.333333333333333</ele><time>2026-03-22T15:52:45.999Z</time></trkpt><trkpt lat="47.38096943495161" lon="-2.544866737985699"><ele>5.0</ele><time>2026-03-22T15:52:47.999Z</time></trkpt><trkpt lat="47.380943182608036" lon="-2.5447392981814323"><ele>4.666666666666666</ele><time>2026-03-22T15:52:49.999Z</time></trkpt><trkpt lat="47.380922231447286" lon="-2.544620482108465"><ele>4.333333333333333</ele><time>2026-03-22T15:52:51.999Z</time></trkpt><trkpt lat="47.38090232016043" lon="-2.544498761412209"><ele>4.0</ele><time>2026-03-22T15:52:53.999Z</time></trkpt><trkpt lat="47.38088088719077" lon="-2.5443749333572763"><ele>4.0</ele><time>2026-03-22T15:52:55.999Z</time></trkpt><trkpt lat="47.38084178182971" lon="-2.544289618201246"><ele>4.0</ele><time>2026-03-22T15:52:56.999Z</time></trkpt><trkpt lat="47.38079741634636" lon="-2.544157945913876"><ele>4.0</ele><time>2026-03-22T15:52:57.999Z</time></trkpt><trkpt lat="47.38073640383228" lon="-2.5439809468599894"><ele>4.0</ele><time>2026-03-22T15:52:58.999Z</time></trkpt><trkpt lat="47.38066772197641" lon="-2.5437967641018453"><ele>4.0</ele><time>2026-03-22T15:52:59.999Z</time></trkpt><trkpt lat="47.38062397656782" lon="-2.5436090866694934"><ele>4.2</ele><time>2026-03-22T15:53:00.999Z</time></trkpt><trkpt lat="47.380596438706455" lon="-2.543435898991089"><ele>4.4</ele><time>2026-03-22T15:53:01.999Z</time></trkpt><trkpt lat="47.38057182747395" lon="-2.5432985504363437"><ele>4.6</ele><time>2026-03-22T15:53:02.999Z</time></trkpt><trkpt lat="47.38054887626441" lon="-2.5431459771615317"><ele>4.8</ele><time>2026-03-22T15:53:03.999Z</time></trkpt><trkpt lat="47.38052374140415" lon="-2.543007181123973"><ele>5.0</ele><time>2026-03-22T15:53:04.999Z</time></trkpt><trkpt lat="47.38047533954909" lon="-2.5428535646874755"><ele>6.0</ele><time>2026-03-22T15:53:05.999Z</time></trkpt><trkpt lat="47.380405549105106" lon="-2.542663985290945"><ele>7.0</ele><time>2026-03-22T15:53:06.999Z</time></trkpt><trkpt lat="47.38036329295495" lon="-2.542491504128341"><ele>8.0</ele><time>2026-03-22T15:53:07.999Z</time></trkpt><trkpt lat="47.38030979757981" lon="-2.542318650422048"><ele>9.0</ele><time>2026-03-22T15:53:08.999Z</time></trkpt><trkpt lat="47.380247044729614" lon="-2.5421408119277644"><ele>9.0</ele><time>2026-03-22T15:53:09.999Z</time></trkpt><trkpt lat="47.380189327876785" lon="-2.5419611211952424"><ele>9.0</ele><time>2026-03-22T15:53:10.999Z</time></trkpt><trkpt lat="47.3801270554306" lon="-2.541826645078753"><ele>9.0</ele><time>2026-03-22T15:53:11.999Z</time></trkpt><trkpt lat="47.38005053962883" lon="-2.541671783728965"><ele>9.0</ele><time>2026-03-22T15:53:12.999Z</time></trkpt><trkpt lat="47.37996305449902" lon="-2.541564299321215"><ele>9.0</ele><time>2026-03-22T15:53:13.999Z</time></trkpt><trkpt lat="47.37989582603566" lon="-2.5415100029952646"><ele>9.0</ele><time>2026-03-22T15:53:14.999Z</time></trkpt><trkpt lat="47.37983409698015" lon="-2.541471980708271"><ele>9.0</ele><time>2026-03-22T15:53:15.999Z</time></trkpt><trkpt lat="47.37977542080971" lon="-2.5414316658497467"><ele>9.0</ele><time>2026-03-22T15:53:16.999Z</time></trkpt><trkpt lat="47.37971068899691" lon="-2.541348894738653"><ele>9.0</ele><time>2026-03-22T15:53:17.999Z</time></trkpt><trkpt lat="47.37960602300984" lon="-2.5412662726896533"><ele>9.0</ele><time>2026-03-22T15:53:18.999Z</time></trkpt><trkpt lat="47.379485342523736" lon="-2.5411936752925577"><ele>10.5</ele><time>2026-03-22T15:53:19.999Z</time></trkpt><trkpt lat="47.37935984158587" lon="-2.5411006300094785"><ele>12.0</ele><time>2026-03-22T15:53:20.999Z</time></trkpt><trkpt lat="47.379271945745266" lon="-2.541007216892695"><ele>13.5</ele><time>2026-03-22T15:53:21.999Z</time></trkpt><trkpt lat="47.37919706163544" lon="-2.540860510106197"><ele>15.0</ele><time>2026-03-22T15:53:22.999Z</time></trkpt><trkpt lat="47.37913627045083" lon="-2.5406732027457926"><ele>15.0</ele><time>2026-03-22T15:53:23.999Z</time></trkpt><trkpt lat="47.379099032931194" lon="-2.5404622794670026"><ele>15.0</ele><time>2026-03-22T15:53:24.999Z</time></trkpt><trkpt lat="47.379056496517" lon="-2.540257712932962"><ele>15.0</ele><time>2026-03-22T15:53:25.999Z</time></trkpt><trkpt lat="47.379018007267675" lon="-2.5400753851901166"><ele>15.0</ele><time>2026-03-22T15:53:26.999Z</time></trkpt><trkpt lat="47.37897607216697" lon="-2.5399014745558124"><ele>15.0</ele><time>2026-03-22T15:53:27.999Z</time></trkpt><trkpt lat="47.37894412032905" lon="-2.539753886547442"><ele>15.0</ele><time>2026-03-22T15:53:28.999Z</time></trkpt><trkpt lat="47.378908615198064" lon="-2.5396308839187913"><ele>15.0</ele><time>2026-03-22T15:53:29.999Z</time></trkpt><trkpt lat="47.37887132961224" lon="-2.5395405495424317"><ele>15.0</ele><time>2026-03-22T15:53:30.999Z</time></trkpt><trkpt lat="47.3788241553098" lon="-2.539461614143553"><ele>15.0</ele><time>2026-03-22T15:53:31.999Z</time></trkpt><trkpt lat="47.37872431691881" lon="-2.5393131729030927"><ele>15.166666666666666</ele><time>2026-03-22T15:53:33.999Z</time></trkpt><trkpt lat="47.37871455773709" lon="-2.5392071833140437"><ele>15.333333333333332</ele><time>2026-03-22T15:53:35.999Z</time></trkpt><trkpt lat="47.37880190825077" lon="-2.539167240533996"><ele>15.5</ele><time>2026-03-22T15:53:37.999Z</time></trkpt><trkpt lat="47.378889049907045" lon="-2.5391506216894677"><ele>15.666666666666666</ele><time>2026-03-22T15:53:39.999Z</time></trkpt><trkpt lat="47.3789650879941" lon="-2.539087825880176"><ele>15.833333333333332</ele><time>2026-03-22T15:53:42.999Z</time></trkpt><trkpt lat="47.379075030879676" lon="-2.5390928883290367"><ele>16.0</ele><time>2026-03-22T15:55:09Z</time></trkpt><trkpt lat="47.3792213573308" lon="-2.5390494533021046"><ele>16.0</ele><time>2026-03-22T15:55:11Z</time></trkpt><trkpt lat="47.37930530869488" lon="-2.538992336331864"><ele>16.0</ele><time>2026-03-22T15:55:12Z</time></trkpt><trkpt lat="47.379419777888685" lon="-2.5389415680776066"><ele>16.0</ele><time>2026-03-22T15:55:13Z</time></trkpt><trkpt lat="47.37953169267552" lon="-2.538886263673924"><ele>16.0</ele><time>2026-03-22T15:55:14Z</time></trkpt><trkpt lat="47.37964657828055" lon="-2.538807950068409"><ele>15.5</ele><time>2026-03-22T15:55:15Z</time></trkpt><trkpt lat="47.379769867713385" lon="-2.5387494877934222"><ele>15.0</ele><time>2026-03-22T15:55:16Z</time></trkpt><trkpt lat="47.37987784602229" lon="-2.5386488750519307"><ele>14.5</ele><time>2026-03-22T15:55:17Z</time></trkpt><trkpt lat="47.37997217199209" lon="-2.5385188854841565"><ele>14.0</ele><time>2026-03-22T15:55:18Z</time></trkpt><trkpt lat="47.38005593822175" lon="-2.538384601718466"><ele>14.0</ele><time>2026-03-22T15:55:19Z</time></trkpt><trkpt lat="47.380133116303185" lon="-2.5382255650112833"><ele>14.0</ele><time>2026-03-22T15:55:20Z</time></trkpt><trkpt lat="47.38021413459886" lon="-2.5380936917174677"><ele>14.0</ele><time>2026-03-22T15:55:21Z</time></trkpt><trkpt lat="47.38029662056413" lon="-2.5379586302379877"><ele>14.0</ele><time>2026-03-22T15:55:22Z</time></trkpt><trkpt lat="47.380378444580195" lon="-2.537817352373293"><ele>13.75</ele><time>2026-03-22T15:55:23Z</time></trkpt><trkpt lat="47.380453778392976" lon="-2.5376818431994264"><ele>13.5</ele><time>2026-03-22T15:55:24Z</time></trkpt><trkpt lat="47.38053738305259" lon="-2.5375421934310167"><ele>13.25</ele><time>2026-03-22T15:55:25Z</time></trkpt><trkpt lat="47.38062254233238" lon="-2.537401799844355"><ele>13.0</ele><time>2026-03-22T15:55:26Z</time></trkpt><trkpt lat="47.380708820088365" lon="-2.5372708524581573"><ele>12.5</ele><time>2026-03-22T15:55:27Z</time></trkpt><trkpt lat="47.38079564015636" lon="-2.5371191483898037"><ele>12.0</ele><time>2026-03-22T15:55:28Z</time></trkpt><trkpt lat="47.38088666705845" lon="-2.536977386037963"><ele>11.5</ele><time>2026-03-22T15:55:29Z</time></trkpt><trkpt lat="47.3809707993326" lon="-2.5368285729121043"><ele>11.0</ele><time>2026-03-22T15:55:30Z</time></trkpt><trkpt lat="47.38106350369549" lon="-2.5366803243264875"><ele>10.666666666666666</ele><time>2026-03-22T15:55:31Z</time></trkpt><trkpt lat="47.38115694037101" lon="-2.5365019147442522"><ele>10.333333333333334</ele><time>2026-03-22T15:55:32Z</time></trkpt><trkpt lat="47.38124893111226" lon="-2.5363325150517615"><ele>10.0</ele><time>2026-03-22T15:55:33Z</time></trkpt><trkpt lat="47.38135687186481" lon="-2.53614964041719"><ele>10.666666666666668</ele><time>2026-03-22T15:55:34Z</time></trkpt><trkpt lat="47.38146780761517" lon="-2.535971893469836"><ele>11.333333333333334</ele><time>2026-03-22T15:55:35Z</time></trkpt><trkpt lat="47.3815688303802" lon="-2.535806357266648"><ele>12.0</ele><time>2026-03-22T15:55:36Z</time></trkpt><trkpt lat="47.3816697624406" lon="-2.5356340093774867"><ele>12.0</ele><time>2026-03-22T15:55:37Z</time></trkpt><trkpt lat="47.3817761216336" lon="-2.5354639859281236"><ele>12.0</ele><time>2026-03-22T15:55:38Z</time></trkpt><trkpt lat="47.38187967352519" lon="-2.535279352277878"><ele>12.0</ele><time>2026-03-22T15:55:39Z</time></trkpt><trkpt lat="47.38197738592709" lon="-2.5351329495450856"><ele>11.666666666666666</ele><time>2026-03-22T15:55:40Z</time></trkpt><trkpt lat="47.382079622784964" lon="-2.5349652571201386"><ele>11.333333333333332</ele><time>2026-03-22T15:55:41Z</time></trkpt><trkpt lat="47.3821824733917" lon="-2.534789068348242"><ele>11.0</ele><time>2026-03-22T15:55:42Z</time></trkpt><trkpt lat="47.38226801554978" lon="-2.534609970451113"><ele>11.5</ele><time>2026-03-22T15:55:43Z</time></trkpt><trkpt lat="47.38236399410244" lon="-2.534447451224967"><ele>12.0</ele><time>2026-03-22T15:55:44Z</time></trkpt><trkpt lat="47.38246072313325" lon="-2.53428366123333"><ele>12.5</ele><time>2026-03-22T15:55:45Z</time></trkpt><trkpt lat="47.38255447541363" lon="-2.5341249117135725"><ele>13.0</ele><time>2026-03-22T15:55:46Z</time></trkpt><trkpt lat="47.38264248762065" lon="-2.5339758818123057"><ele>13.0</ele><time>2026-03-22T15:55:47Z</time></trkpt><trkpt lat="47.382730549190256" lon="-2.5338267683225593"><ele>13.0</ele><time>2026-03-22T15:55:48Z</time></trkpt><trkpt lat="47.38282000516738" lon="-2.533675293688822"><ele>13.0</ele><time>2026-03-22T15:55:49Z</time></trkpt><trkpt lat="47.382899769264014" lon="-2.5335402301892187"><ele>13.0</ele><time>2026-03-22T15:55:50Z</time></trkpt><trkpt lat="47.38298235007586" lon="-2.5334003972378234"><ele>12.5</ele><time>2026-03-22T15:55:51Z</time></trkpt><trkpt lat="47.383083733135564" lon="-2.533264496502342"><ele>12.0</ele><time>2026-03-22T15:55:52Z</time></trkpt><trkpt lat="47.383177058951986" lon="-2.5330946936118903"><ele>11.5</ele><time>2026-03-22T15:55:53Z</time></trkpt><trkpt lat="47.383278815482996" lon="-2.5329225134140785"><ele>11.0</ele><time>2026-03-22T15:55:54Z</time></trkpt><trkpt lat="47.38338612847132" lon="-2.5327396767029944"><ele>11.0</ele><time>2026-03-22T15:55:55Z</time></trkpt><trkpt lat="47.38349940493326" lon="-2.532556234476722"><ele>11.0</ele><time>2026-03-22T15:55:56Z</time></trkpt><trkpt lat="47.383601627548394" lon="-2.5323473995900017"><ele>11.0</ele><time>2026-03-22T15:55:57Z</time></trkpt><trkpt lat="47.38371255445703" lon="-2.5321591991994485"><ele>11.0</ele><time>2026-03-22T15:55:58Z</time></trkpt><trkpt lat="47.3838252896538" lon="-2.5319703059999106"><ele>11.0</ele><time>2026-03-22T15:55:59Z</time></trkpt><trkpt lat="47.38394510899704" lon="-2.5317727621197688"><ele>11.0</ele><time>2026-03-22T15:56:00Z</time></trkpt><trkpt lat="47.38406262401327" lon="-2.531581900235069"><ele>11.0</ele><time>2026-03-22T15:56:01Z</time></trkpt><trkpt lat="47.38417748701256" lon="-2.531406073409886"><ele>11.0</ele><time>2026-03-22T15:56:02Z</time></trkpt><trkpt lat="47.384294504612114" lon="-2.5312357416030333"><ele>11.0</ele><time>2026-03-22T15:56:03Z</time></trkpt><trkpt lat="47.38441357323564" lon="-2.531068001029236"><ele>11.0</ele><time>2026-03-22T15:56:03.999Z</time></trkpt><trkpt lat="47.384533428894905" lon="-2.5309073665877393"><ele>11.0</ele><time>2026-03-22T15:56:04.999Z</time></trkpt><trkpt lat="47.38466202107261" lon="-2.5307402175732743"><ele>11.0</ele><time>2026-03-22T15:56:05.999Z</time></trkpt><trkpt lat="47.38479625785743" lon="-2.530571766178439"><ele>11.333333333333332</ele><time>2026-03-22T15:56:06.999Z</time></trkpt><trkpt lat="47.38492681889863" lon="-2.5304116618540755"><ele>11.666666666666666</ele><time>2026-03-22T15:56:07.999Z</time></trkpt><trkpt lat="47.385045284489514" lon="-2.5302678645296175"><ele>12.0</ele><time>2026-03-22T15:56:08.999Z</time></trkpt><trkpt lat="47.385157485262035" lon="-2.5301319858159395"><ele>12.0</ele><time>2026-03-22T15:56:09.999Z</time></trkpt><trkpt lat="47.38527493047443" lon="-2.529989738349448"><ele>12.0</ele><time>2026-03-22T15:56:10.999Z</time></trkpt><trkpt lat="47.385396766735674" lon="-2.5298631765191075"><ele>12.0</ele><time>2026-03-22T15:56:11.999Z</time></trkpt><trkpt lat="47.38550495381668" lon="-2.5297255291800576"><ele>12.0</ele><time>2026-03-22T15:56:12.999Z</time></trkpt><trkpt lat="47.38560840196912" lon="-2.5295899567498203"><ele>11.0</ele><time>2026-03-22T15:56:13.999Z</time></trkpt><trkpt lat="47.385714928576505" lon="-2.5294668290431646"><ele>10.0</ele><time>2026-03-22T15:56:14.999Z</time></trkpt><trkpt lat="47.38581387584175" lon="-2.5293406638532576"><ele>9.0</ele><time>2026-03-22T15:56:15.999Z</time></trkpt><trkpt lat="47.385903904797594" lon="-2.5292257553985293"><ele>8.0</ele><time>2026-03-22T15:56:16.999Z</time></trkpt><trkpt lat="47.385992428595785" lon="-2.529113912047929"><ele>8.0</ele><time>2026-03-22T15:56:17.999Z</time></trkpt><trkpt lat="47.38607677783408" lon="-2.528993301483896"><ele>8.0</ele><time>2026-03-22T15:56:18.999Z</time></trkpt><trkpt lat="47.38616980979416" lon="-2.5288873312535345"><ele>8.0</ele><time>2026-03-22T15:56:19.999Z</time></trkpt><trkpt lat="47.38626643256846" lon="-2.528774383080318"><ele>8.0</ele><time>2026-03-22T15:56:20.999Z</time></trkpt><trkpt lat="47.386352361251234" lon="-2.5286667076361495"><ele>7.6000000000000005</ele><time>2026-03-22T15:56:21.999Z</time></trkpt><trkpt lat="47.38643514705638" lon="-2.5285694554162794"><ele>7.200000000000001</ele><time>2026-03-22T15:56:22.999Z</time></trkpt><trkpt lat="47.38651342282924" lon="-2.528470390807766"><ele>6.8</ele><time>2026-03-22T15:56:23.999Z</time></trkpt><trkpt lat="47.38658757970996" lon="-2.5283828443671323"><ele>6.4</ele><time>2026-03-22T15:56:24.999Z</time></trkpt><trkpt lat="47.38666223715369" lon="-2.5282784549842656"><ele>6.0</ele><time>2026-03-22T15:56:25.999Z</time></trkpt><trkpt lat="47.38672945343822" lon="-2.5282011311806807"><ele>5.999999999999999</ele><time>2026-03-22T15:56:26.999Z</time></trkpt><trkpt lat="47.38679465946048" lon="-2.5281366760527573"><ele>6.0</ele><time>2026-03-22T15:56:27.999Z</time></trkpt><trkpt lat="47.38685987940465" lon="-2.528079805165945"><ele>6.0</ele><time>2026-03-22T15:56:28.999Z</time></trkpt><trkpt lat="47.386922228865174" lon="-2.528021570898214"><ele>6.0</ele><time>2026-03-22T15:56:29.999Z</time></trkpt><trkpt lat="47.38697781821733" lon="-2.5279619973938727"><ele>6.0</ele><time>2026-03-22T15:56:31Z</time></trkpt><trkpt lat="47.38703261513462" lon="-2.5279040183612205"><ele>5.999999999999999</ele><time>2026-03-22T15:56:32Z</time></trkpt><trkpt lat="47.38708747365366" lon="-2.5278418566029717"><ele>6.0</ele><time>2026-03-22T15:56:33Z</time></trkpt><trkpt lat="47.387138790429304" lon="-2.5277613172041016"><ele>6.166666666666667</ele><time>2026-03-22T15:56:34Z</time></trkpt><trkpt lat="47.387177206334876" lon="-2.527659611295503"><ele>6.333333333333334</ele><time>2026-03-22T15:56:35Z</time></trkpt><trkpt lat="47.387204763741956" lon="-2.5275449563876546"><ele>6.5</ele><time>2026-03-22T15:56:36Z</time></trkpt><trkpt lat="47.38722152501017" lon="-2.527454458738158"><ele>6.666666666666667</ele><time>2026-03-22T15:56:37Z</time></trkpt><trkpt lat="47.38717197666573" lon="-2.5273675496185626"><ele>6.833333333333334</ele><time>2026-03-22T15:56:38Z</time></trkpt><trkpt lat="47.38714519361077" lon="-2.5272676896155515"><ele>7.0</ele><time>2026-03-22T15:56:39Z</time></trkpt><trkpt lat="47.3871249258267" lon="-2.5271237149938304"><ele>8.2</ele><time>2026-03-22T15:56:40Z</time></trkpt><trkpt lat="47.38707558113726" lon="-2.5269850763633874"><ele>9.399999999999999</ele><time>2026-03-22T15:56:41Z</time></trkpt><trkpt lat="47.3870691914537" lon="-2.5268581745072596"><ele>10.600000000000001</ele><time>2026-03-22T15:56:42Z</time></trkpt><trkpt lat="47.38706069241024" lon="-2.526737856897111"><ele>11.8</ele><time>2026-03-22T15:56:43Z</time></trkpt><trkpt lat="47.387084668754454" lon="-2.5266237950965342"><ele>13.0</ele><time>2026-03-22T15:56:44Z</time></trkpt><trkpt lat="47.38715209057313" lon="-2.526507746629996"><ele>13.25</ele><time>2026-03-22T15:56:45Z</time></trkpt><trkpt lat="47.38723701541834" lon="-2.526380916658435"><ele>13.5</ele><time>2026-03-22T15:56:46Z</time></trkpt><trkpt lat="47.387321209203066" lon="-2.5262454633972404"><ele>13.75</ele><time>2026-03-22T15:56:47Z</time></trkpt><trkpt lat="47.38740919829114" lon="-2.5261095323068696"><ele>14.0</ele><time>2026-03-22T15:56:48Z</time></trkpt><trkpt lat="47.38750492129831" lon="-2.52598326504077"><ele>14.0</ele><time>2026-03-22T15:56:49Z</time></trkpt><trkpt lat="47.387613101774775" lon="-2.5258499013939204"><ele>14.0</ele><time>2026-03-22T15:56:50Z</time></trkpt><trkpt lat="47.3877306144123" lon="-2.525696362684513"><ele>14.0</ele><time>2026-03-22T15:56:51Z</time></trkpt><trkpt lat="47.38784697530379" lon="-2.525543931835196"><ele>14.333333333333334</ele><time>2026-03-22T15:56:52Z</time></trkpt><trkpt lat="47.38797508401241" lon="-2.5253928787035775"><ele>14.666666666666668</ele><time>2026-03-22T15:56:53Z</time></trkpt><trkpt lat="47.38812271702196" lon="-2.5252640823858874"><ele>15.0</ele><time>2026-03-22T15:56:54Z</time></trkpt><trkpt lat="47.38824842870833" lon="-2.525106744640355"><ele>14.333333333333332</ele><time>2026-03-22T15:56:55Z</time></trkpt><trkpt lat="47.38838585259356" lon="-2.5249785660695014"><ele>13.666666666666666</ele><time>2026-03-22T15:56:56Z</time></trkpt><trkpt lat="47.3885205157291" lon="-2.524841558056529"><ele>13.0</ele><time>2026-03-22T15:56:57Z</time></trkpt><trkpt lat="47.38865813060868" lon="-2.5247277887286828"><ele>13.0</ele><time>2026-03-22T15:56:58Z</time></trkpt><trkpt lat="47.38879839770263" lon="-2.524611380216736"><ele>13.0</ele><time>2026-03-22T15:56:59Z</time></trkpt><trkpt lat="47.388943096358766" lon="-2.5244932439073993"><ele>13.0</ele><time>2026-03-22T15:57:00Z</time></trkpt><trkpt lat="47.3890905897438" lon="-2.5243756871323373"><ele>11.666666666666666</ele><time>2026-03-22T15:57:01Z</time></trkpt><trkpt lat="47.389240299365774" lon="-2.5242517026327986"><ele>10.333333333333332</ele><time>2026-03-22T15:57:02Z</time></trkpt><trkpt lat="47.38938601631033" lon="-2.5241474928869736"><ele>9.0</ele><time>2026-03-22T15:57:03Z</time></trkpt><trkpt lat="47.38952890101885" lon="-2.5240408295304957"><ele>8.666666666666666</ele><time>2026-03-22T15:57:04Z</time></trkpt><trkpt lat="47.389676417765415" lon="-2.5239277392110337"><ele>8.333333333333332</ele><time>2026-03-22T15:57:05Z</time></trkpt><trkpt lat="47.389823626590164" lon="-2.523803600082167"><ele>8.0</ele><time>2026-03-22T15:57:06Z</time></trkpt><trkpt lat="47.389974160914" lon="-2.5236873035250826"><ele>9.333333333333332</ele><time>2026-03-22T15:57:07Z</time></trkpt><trkpt lat="47.390126743368036" lon="-2.523564750087992"><ele>10.666666666666666</ele><time>2026-03-22T15:57:08Z</time></trkpt><trkpt lat="47.39027657937458" lon="-2.5234476131168746"><ele>12.0</ele><time>2026-03-22T15:57:09Z</time></trkpt><trkpt lat="47.39042346124351" lon="-2.5233424829709845"><ele>12.0</ele><time>2026-03-22T15:57:10Z</time></trkpt><trkpt lat="47.39057172760382" lon="-2.5232310702463545"><ele>12.0</ele><time>2026-03-22T15:57:11Z</time></trkpt><trkpt lat="47.390713649441615" lon="-2.5231138082892635"><ele>12.0</ele><time>2026-03-22T15:57:12Z</time></trkpt><trkpt lat="47.390848548027236" lon="-2.5229832378841395"><ele>13.0</ele><time>2026-03-22T15:57:13Z</time></trkpt><trkpt lat="47.390986231528174" lon="-2.522853144112366"><ele>14.0</ele><time>2026-03-22T15:57:14Z</time></trkpt><trkpt lat="47.39112076140627" lon="-2.5227136040140277"><ele>15.0</ele><time>2026-03-22T15:57:15Z</time></trkpt><trkpt lat="47.391248700384374" lon="-2.522562428193168"><ele>14.333333333333332</ele><time>2026-03-22T15:57:16Z</time></trkpt><trkpt lat="47.39137382117372" lon="-2.52241117509536"><ele>13.666666666666666</ele><time>2026-03-22T15:57:17Z</time></trkpt><trkpt lat="47.391492142830074" lon="-2.5222552741667448"><ele>13.0</ele><time>2026-03-22T15:57:18Z</time></trkpt><trkpt lat="47.391599440659824" lon="-2.5220908988783104"><ele>14.333333333333332</ele><time>2026-03-22T15:57:19Z</time></trkpt><trkpt lat="47.391697063368895" lon="-2.521921874678655"><ele>15.666666666666668</ele><time>2026-03-22T15:57:20Z</time></trkpt><trkpt lat="47.39179454251219" lon="-2.5217428013217873"><ele>17.0</ele><time>2026-03-22T15:57:21Z</time></trkpt><trkpt lat="47.39189169622165" lon="-2.5215630843099524"><ele>17.0</ele><time>2026-03-22T15:57:22Z</time></trkpt><trkpt lat="47.39198693638952" lon="-2.5213664559270366"><ele>17.0</ele><time>2026-03-22T15:57:23Z</time></trkpt><trkpt lat="47.39207890860452" lon="-2.521167950700057"><ele>17.0</ele><time>2026-03-22T15:57:24Z</time></trkpt><trkpt lat="47.39215579255822" lon="-2.5209328908587287"><ele>16.333333333333336</ele><time>2026-03-22T15:57:25Z</time></trkpt><trkpt lat="47.3922342809262" lon="-2.520718574262182"><ele>15.666666666666668</ele><time>2026-03-22T15:57:26Z</time></trkpt><trkpt lat="47.39230022621729" lon="-2.5205089599075925"><ele>15.0</ele><time>2026-03-22T15:57:27Z</time></trkpt><trkpt lat="47.39235512170346" lon="-2.5202995991200265"><ele>16.333333333333332</ele><time>2026-03-22T15:57:28Z</time></trkpt><trkpt lat="47.39240869636974" lon="-2.5200905882639355"><ele>17.666666666666664</ele><time>2026-03-22T15:57:29Z</time></trkpt><trkpt lat="47.392458059216764" lon="-2.5198673288252422"><ele>19.0</ele><time>2026-03-22T15:57:30Z</time></trkpt><trkpt lat="47.392496618773066" lon="-2.519631618932981"><ele>18.666666666666664</ele><time>2026-03-22T15:57:31Z</time></trkpt><trkpt lat="47.39252914878863" lon="-2.5193877066145425"><ele>18.333333333333332</ele><time>2026-03-22T15:57:32Z</time></trkpt><trkpt lat="47.392557390189424" lon="-2.5191394912383975"><ele>18.0</ele><time>2026-03-22T15:57:33Z</time></trkpt><trkpt lat="47.3925638653661" lon="-2.518884398204593"><ele>18.333333333333332</ele><time>2026-03-22T15:57:34Z</time></trkpt><trkpt lat="47.39257389109447" lon="-2.518625040264722"><ele>18.666666666666664</ele><time>2026-03-22T15:57:35Z</time></trkpt><trkpt lat="47.39257925449248" lon="-2.5183713566664845"><ele>19.0</ele><time>2026-03-22T15:57:36Z</time></trkpt><trkpt lat="47.39258101494979" lon="-2.518117720881293"><ele>19.333333333333332</ele><time>2026-03-22T15:57:37Z</time></trkpt><trkpt lat="47.39258253275473" lon="-2.517889500460003"><ele>19.666666666666668</ele><time>2026-03-22T15:57:38Z</time></trkpt><trkpt lat="47.39257682738421" lon="-2.517640071908667"><ele>20.0</ele><time>2026-03-22T15:57:39Z</time></trkpt><trkpt lat="47.39257240507444" lon="-2.517418701056502"><ele>20.0</ele><time>2026-03-22T15:57:40Z</time></trkpt><trkpt lat="47.39255306287345" lon="-2.51721535648999"><ele>20.0</ele><time>2026-03-22T15:57:41Z</time></trkpt><trkpt lat="47.39252886022307" lon="-2.517018776700787"><ele>20.0</ele><time>2026-03-22T15:57:42Z</time></trkpt><trkpt lat="47.39248672801399" lon="-2.5168421643511345"><ele>20.0</ele><time>2026-03-22T15:57:43Z</time></trkpt><trkpt lat="47.392455040046364" lon="-2.5166672120308444"><ele>20.166666666666668</ele><time>2026-03-22T15:57:44Z</time></trkpt><trkpt lat="47.39243292233234" lon="-2.516527909405145"><ele>20.333333333333336</ele><time>2026-03-22T15:57:45Z</time></trkpt><trkpt lat="47.392400247554185" lon="-2.516402829211548"><ele>20.5</ele><time>2026-03-22T15:57:46Z</time></trkpt><trkpt lat="47.39236525569377" lon="-2.5162820157022967"><ele>20.666666666666668</ele><time>2026-03-22T15:57:47Z</time></trkpt><trkpt lat="47.392341576032976" lon="-2.5161682208408775"><ele>20.833333333333332</ele><time>2026-03-22T15:57:48Z</time></trkpt><trkpt lat="47.39235281474008" lon="-2.516039949484056"><ele>21.0</ele><time>2026-03-22T15:57:49.001Z</time></trkpt><trkpt lat="47.392406775746934" lon="-2.5159238868174882"><ele>21.0</ele><time>2026-03-22T15:57:50.001Z</time></trkpt><trkpt lat="47.392490402067175" lon="-2.5158401052078943"><ele>21.0</ele><time>2026-03-22T15:57:51.001Z</time></trkpt><trkpt lat="47.392600560069205" lon="-2.515754472719612"><ele>21.0</ele><time>2026-03-22T15:57:52.001Z</time></trkpt><trkpt lat="47.39271891529304" lon="-2.5156751015862153"><ele>21.0</ele><time>2026-03-22T15:57:53.001Z</time></trkpt><trkpt lat="47.3928449925509" lon="-2.5155914820422653"><ele>21.0</ele><time>2026-03-22T15:57:54.001Z</time></trkpt><trkpt lat="47.39296936554445" lon="-2.515509996898855"><ele>21.0</ele><time>2026-03-22T15:57:55.001Z</time></trkpt><trkpt lat="47.393095413052414" lon="-2.5154239798015237"><ele>21.0</ele><time>2026-03-22T15:57:56.001Z</time></trkpt><trkpt lat="47.3932267174501" lon="-2.5153431485115045"><ele>21.0</ele><time>2026-03-22T15:57:57.001Z</time></trkpt><trkpt lat="47.39335139975313" lon="-2.515258227112462"><ele>20.25</ele><time>2026-03-22T15:57:58.001Z</time></trkpt><trkpt lat="47.39347186421189" lon="-2.515173067101106"><ele>19.5</ele><time>2026-03-22T15:57:59.001Z</time></trkpt><trkpt lat="47.393596518659194" lon="-2.515092658005562"><ele>18.75</ele><time>2026-03-22T15:58:00.001Z</time></trkpt><trkpt lat="47.393726552049266" lon="-2.515002613856955"><ele>18.0</ele><time>2026-03-22T15:58:01.001Z</time></trkpt><trkpt lat="47.39385625429248" lon="-2.5149070144233288"><ele>16.666666666666668</ele><time>2026-03-22T15:58:02.001Z</time></trkpt><trkpt lat="47.393984782864436" lon="-2.514814332729366"><ele>15.333333333333334</ele><time>2026-03-22T15:58:03.001Z</time></trkpt><trkpt lat="47.39413636650856" lon="-2.514705338367448"><ele>14.0</ele><time>2026-03-22T15:58:04.001Z</time></trkpt><trkpt lat="47.39426780911131" lon="-2.5146201985015337"><ele>13.5</ele><time>2026-03-22T15:58:05.001Z</time></trkpt><trkpt lat="47.39440005614192" lon="-2.51454410747308"><ele>13.0</ele><time>2026-03-22T15:58:06.001Z</time></trkpt><trkpt lat="47.39453867842283" lon="-2.5144505107946578"><ele>12.5</ele><time>2026-03-22T15:58:07.001Z</time></trkpt><trkpt lat="47.394676608769984" lon="-2.5143861453430496"><ele>12.0</ele><time>2026-03-22T15:58:08.001Z</time></trkpt><trkpt lat="47.39481493859776" lon="-2.5142985105417384"><ele>11.25</ele><time>2026-03-22T15:58:09.001Z</time></trkpt><trkpt lat="47.394940566056256" lon="-2.5142102270835944"><ele>10.5</ele><time>2026-03-22T15:58:10Z</time></trkpt><trkpt lat="47.39506024504992" lon="-2.5141355915406365"><ele>9.75</ele><time>2026-03-22T15:58:11Z</time></trkpt><trkpt lat="47.395175037238296" lon="-2.514068885924987"><ele>9.0</ele><time>2026-03-22T15:58:12Z</time></trkpt><trkpt lat="47.39527770753402" lon="-2.513988651556497"><ele>9.0</ele><time>2026-03-22T15:58:13Z</time></trkpt><trkpt lat="47.39537808651085" lon="-2.51391783754178"><ele>9.0</ele><time>2026-03-22T15:58:14Z</time></trkpt><trkpt lat="47.395483605208" lon="-2.5138519669199684"><ele>9.0</ele><time>2026-03-22T15:58:15Z</time></trkpt><trkpt lat="47.39558782748896" lon="-2.5137866461715106"><ele>9.0</ele><time>2026-03-22T15:58:16Z</time></trkpt><trkpt lat="47.395693666701604" lon="-2.5137256672392136"><ele>9.0</ele><time>2026-03-22T15:58:17Z</time></trkpt><trkpt lat="47.39580555352169" lon="-2.5136689519925084"><ele>9.0</ele><time>2026-03-22T15:58:18Z</time></trkpt><trkpt lat="47.39592025181696" lon="-2.513594535891892"><ele>9.0</ele><time>2026-03-22T15:58:19Z</time></trkpt><trkpt lat="47.39603706176037" lon="-2.5135189727163962"><ele>9.0</ele><time>2026-03-22T15:58:20Z</time></trkpt><trkpt lat="47.39615013541704" lon="-2.513432459218868"><ele>9.0</ele><time>2026-03-22T15:58:21Z</time></trkpt><trkpt lat="47.39626792841712" lon="-2.513344157055369"><ele>9.0</ele><time>2026-03-22T15:58:22Z</time></trkpt><trkpt lat="47.396394411599125" lon="-2.5132581886316054"><ele>9.0</ele><time>2026-03-22T15:58:23Z</time></trkpt><trkpt lat="47.39652295950252" lon="-2.5131655892945752"><ele>9.0</ele><time>2026-03-22T15:58:24Z</time></trkpt><trkpt lat="47.396648120684866" lon="-2.513081873746077"><ele>9.25</ele><time>2026-03-22T15:58:25Z</time></trkpt><trkpt lat="47.396773194251715" lon="-2.5129940252476928"><ele>9.5</ele><time>2026-03-22T15:58:26Z</time></trkpt><trkpt lat="47.396903884224635" lon="-2.512890794686332"><ele>9.75</ele><time>2026-03-22T15:58:27Z</time></trkpt><trkpt lat="47.39703288009305" lon="-2.512772630911071"><ele>10.0</ele><time>2026-03-22T15:58:28Z</time></trkpt><trkpt lat="47.397155131190836" lon="-2.512641539681742"><ele>9.0</ele><time>2026-03-22T15:58:29Z</time></trkpt><trkpt lat="47.39727591201936" lon="-2.5125118882711255"><ele>8.0</ele><time>2026-03-22T15:58:30Z</time></trkpt><trkpt lat="47.39739842821252" lon="-2.5123805087026647"><ele>7.0</ele><time>2026-03-22T15:58:31Z</time></trkpt><trkpt lat="47.39751932337125" lon="-2.5122395032563962"><ele>7.0</ele><time>2026-03-22T15:58:32Z</time></trkpt><trkpt lat="47.39763735983214" lon="-2.512088350422852"><ele>7.0</ele><time>2026-03-22T15:58:33Z</time></trkpt><trkpt lat="47.39775828744108" lon="-2.5119356344730597"><ele>7.0</ele><time>2026-03-22T15:58:34Z</time></trkpt><trkpt lat="47.39788338174783" lon="-2.5117858854825754"><ele>6.666666666666667</ele><time>2026-03-22T15:58:35Z</time></trkpt><trkpt lat="47.39799858180991" lon="-2.5116314465791696"><ele>6.333333333333334</ele><time>2026-03-22T15:58:36Z</time></trkpt><trkpt lat="47.39811488703465" lon="-2.511461831754594"><ele>6.0</ele><time>2026-03-22T15:58:37Z</time></trkpt><trkpt lat="47.39823565162386" lon="-2.511289565871793"><ele>7.666666666666666</ele><time>2026-03-22T15:58:38Z</time></trkpt><trkpt lat="47.398346022907795" lon="-2.511120025612303"><ele>9.333333333333332</ele><time>2026-03-22T15:58:39Z</time></trkpt><trkpt lat="47.39845657984744" lon="-2.5109339140756504"><ele>11.0</ele><time>2026-03-22T15:58:40Z</time></trkpt><trkpt lat="47.398569331333746" lon="-2.5107484422404416"><ele>11.0</ele><time>2026-03-22T15:58:41Z</time></trkpt><trkpt lat="47.398681479562576" lon="-2.5105412986655384"><ele>11.0</ele><time>2026-03-22T15:58:42Z</time></trkpt><trkpt lat="47.39879154861423" lon="-2.5103288085652067"><ele>11.0</ele><time>2026-03-22T15:58:43Z</time></trkpt><trkpt lat="47.398894565701035" lon="-2.5101191378462455"><ele>11.333333333333332</ele><time>2026-03-22T15:58:44Z</time></trkpt><trkpt lat="47.39899511119658" lon="-2.509901018993203"><ele>11.666666666666666</ele><time>2026-03-22T15:58:45Z</time></trkpt><trkpt lat="47.39909304905303" lon="-2.5096757951664173"><ele>12.0</ele><time>2026-03-22T15:58:46Z</time></trkpt><trkpt lat="47.3991828451723" lon="-2.509440144692918"><ele>12.0</ele><time>2026-03-22T15:58:47Z</time></trkpt><trkpt lat="47.39927125284333" lon="-2.509212840615821"><ele>12.0</ele><time>2026-03-22T15:58:48Z</time></trkpt><trkpt lat="47.399358391003545" lon="-2.5089784323208804"><ele>12.0</ele><time>2026-03-22T15:58:49Z</time></trkpt><trkpt lat="47.39944673131292" lon="-2.5087360462296733"><ele>13.333333333333332</ele><time>2026-03-22T15:58:50Z</time></trkpt><trkpt lat="47.39953803741706" lon="-2.508498423006871"><ele>14.666666666666666</ele><time>2026-03-22T15:58:51Z</time></trkpt><trkpt lat="47.399627271521126" lon="-2.50826151669817"><ele>16.0</ele><time>2026-03-22T15:58:52Z</time></trkpt><trkpt lat="47.39971417243769" lon="-2.508026771724397"><ele>13.666666666666666</ele><time>2026-03-22T15:58:53Z</time></trkpt><trkpt lat="47.399803613843275" lon="-2.507797011441698"><ele>11.333333333333332</ele><time>2026-03-22T15:58:54Z</time></trkpt><trkpt lat="47.3998789484422" lon="-2.507546813010944"><ele>9.0</ele><time>2026-03-22T15:58:55Z</time></trkpt><trkpt lat="47.39996990675189" lon="-2.5073006816406798"><ele>9.0</ele><time>2026-03-22T15:58:56Z</time></trkpt><trkpt lat="47.400059236031865" lon="-2.5070616922068356"><ele>9.0</ele><time>2026-03-22T15:58:57Z</time></trkpt><trkpt lat="47.40014949788592" lon="-2.5068205850177456"><ele>9.0</ele><time>2026-03-22T15:58:58Z</time></trkpt><trkpt lat="47.400240998972386" lon="-2.5065764484921274"><ele>9.0</ele><time>2026-03-22T15:58:59Z</time></trkpt><trkpt lat="47.40032834537798" lon="-2.5063524992223556"><ele>9.0</ele><time>2026-03-22T15:59:00Z</time></trkpt><trkpt lat="47.400414965674464" lon="-2.5061451066648672"><ele>9.0</ele><time>2026-03-22T15:59:01Z</time></trkpt><trkpt lat="47.400500025420186" lon="-2.5059417667734456"><ele>8.666666666666666</ele><time>2026-03-22T15:59:02Z</time></trkpt><trkpt lat="47.4005937749077" lon="-2.5057382161963564"><ele>8.333333333333332</ele><time>2026-03-22T15:59:03Z</time></trkpt><trkpt lat="47.400692097768626" lon="-2.5055368143415833"><ele>8.0</ele><time>2026-03-22T15:59:04Z</time></trkpt><trkpt lat="47.40079198165804" lon="-2.5053425711521418"><ele>8.666666666666666</ele><time>2026-03-22T15:59:05Z</time></trkpt><trkpt lat="47.40089478713714" lon="-2.5051484837101183"><ele>9.333333333333334</ele><time>2026-03-22T15:59:06Z</time></trkpt><trkpt lat="47.40100256853469" lon="-2.504955305887764"><ele>10.0</ele><time>2026-03-22T15:59:07Z</time></trkpt><trkpt lat="47.40112435253004" lon="-2.5047800832757123"><ele>10.0</ele><time>2026-03-22T15:59:08Z</time></trkpt><trkpt lat="47.40123471193417" lon="-2.5045939798727583"><ele>10.0</ele><time>2026-03-22T15:59:09Z</time></trkpt><trkpt lat="47.40134515326996" lon="-2.504409438512484"><ele>10.0</ele><time>2026-03-22T15:59:10Z</time></trkpt><trkpt lat="47.40145346561394" lon="-2.5042202112574135"><ele>10.0</ele><time>2026-03-22T15:59:11Z</time></trkpt><trkpt lat="47.40156323580007" lon="-2.5040343622570975"><ele>10.0</ele><time>2026-03-22T15:59:12Z</time></trkpt><trkpt lat="47.40166062952637" lon="-2.503833819051102"><ele>10.0</ele><time>2026-03-22T15:59:13Z</time></trkpt><trkpt lat="47.40177948499183" lon="-2.503656920370778"><ele>10.0</ele><time>2026-03-22T15:59:14Z</time></trkpt><trkpt lat="47.401887073841394" lon="-2.5034628616104766"><ele>10.0</ele><time>2026-03-22T15:59:15Z</time></trkpt><trkpt lat="47.40199616623277" lon="-2.5032736648141953"><ele>10.0</ele><time>2026-03-22T15:59:16Z</time></trkpt><trkpt lat="47.40210680123834" lon="-2.5030818812380593"><ele>8.333333333333334</ele><time>2026-03-22T15:59:17Z</time></trkpt><trkpt lat="47.40221700699286" lon="-2.5028939350374904"><ele>6.666666666666667</ele><time>2026-03-22T15:59:18.001Z</time></trkpt><trkpt lat="47.40232324896111" lon="-2.502710380800074"><ele>5.0</ele><time>2026-03-22T15:59:19.001Z</time></trkpt><trkpt lat="47.402425492650394" lon="-2.5025222161397953"><ele>5.0</ele><time>2026-03-22T15:59:20.001Z</time></trkpt><trkpt lat="47.4025248163441" lon="-2.502329748041659"><ele>5.0</ele><time>2026-03-22T15:59:21.001Z</time></trkpt><trkpt lat="47.4026226402111" lon="-2.5021328408877026"><ele>5.0</ele><time>2026-03-22T15:59:22.001Z</time></trkpt><trkpt lat="47.402716970249" lon="-2.501933479924467"><ele>6.0</ele><time>2026-03-22T15:59:23.001Z</time></trkpt><trkpt lat="47.402808052012304" lon="-2.501730579657634"><ele>7.0</ele><time>2026-03-22T15:59:24.001Z</time></trkpt><trkpt lat="47.402890094502744" lon="-2.501518409243757"><ele>8.0</ele><time>2026-03-22T15:59:25.001Z</time></trkpt><trkpt lat="47.40296344067855" lon="-2.5013065441206868"><ele>7.0</ele><time>2026-03-22T15:59:26.001Z</time></trkpt><trkpt lat="47.40302473075809" lon="-2.5010891021056234"><ele>6.0</ele><time>2026-03-22T15:59:27.001Z</time></trkpt><trkpt lat="47.403080472244966" lon="-2.5008738908781227"><ele>5.0</ele><time>2026-03-22T15:59:28.001Z</time></trkpt><trkpt lat="47.40312440796652" lon="-2.500654424075083"><ele>5.0</ele><time>2026-03-22T15:59:29.001Z</time></trkpt><trkpt lat="47.40315701111097" lon="-2.500423807067407"><ele>5.0</ele><time>2026-03-22T15:59:30.001Z</time></trkpt><trkpt lat="47.40315226215081" lon="-2.5001884274399617"><ele>5.0</ele><time>2026-03-22T15:59:31.001Z</time></trkpt><trkpt lat="47.40315296298289" lon="-2.499957659216597"><ele>5.666666666666667</ele><time>2026-03-22T15:59:32.001Z</time></trkpt><trkpt lat="47.403143077498285" lon="-2.499733118393852"><ele>6.333333333333334</ele><time>2026-03-22T15:59:33.001Z</time></trkpt><trkpt lat="47.40311703509082" lon="-2.4995026089605874"><ele>7.0</ele><time>2026-03-22T15:59:34.001Z</time></trkpt><trkpt lat="47.403081101702014" lon="-2.4992593160667607"><ele>7.0</ele><time>2026-03-22T15:59:35.001Z</time></trkpt><trkpt lat="47.40303792325286" lon="-2.499012986195877"><ele>7.0</ele><time>2026-03-22T15:59:36.001Z</time></trkpt><trkpt lat="47.40298798045798" lon="-2.498758322237729"><ele>7.0</ele><time>2026-03-22T15:59:37.001Z</time></trkpt><trkpt lat="47.4029353328222" lon="-2.4984923787528315"><ele>8.0</ele><time>2026-03-22T15:59:38.001Z</time></trkpt><trkpt lat="47.402883483174286" lon="-2.498230466351164"><ele>9.0</ele><time>2026-03-22T15:59:39.001Z</time></trkpt><trkpt lat="47.40283124022197" lon="-2.4979665671532407"><ele>10.0</ele><time>2026-03-22T15:59:40.001Z</time></trkpt><trkpt lat="47.402780185524236" lon="-2.497712414038913"><ele>10.333333333333334</ele><time>2026-03-22T15:59:41.001Z</time></trkpt><trkpt lat="47.40272827803688" lon="-2.497455223984104"><ele>10.666666666666666</ele><time>2026-03-22T15:59:42.001Z</time></trkpt><trkpt lat="47.40267514235293" lon="-2.4971919484925844"><ele>11.0</ele><time>2026-03-22T15:59:43.001Z</time></trkpt><trkpt lat="47.402624554078905" lon="-2.496944107300198"><ele>11.0</ele><time>2026-03-22T15:59:44.001Z</time></trkpt><trkpt lat="47.4025882501764" lon="-2.4966879752286415"><ele>11.0</ele><time>2026-03-22T15:59:45.001Z</time></trkpt><trkpt lat="47.40252538759973" lon="-2.4964571533223907"><ele>11.0</ele><time>2026-03-22T15:59:46.001Z</time></trkpt><trkpt lat="47.40248067194568" lon="-2.4962319235690624"><ele>9.666666666666666</ele><time>2026-03-22T15:59:47.001Z</time></trkpt><trkpt lat="47.40243784070992" lon="-2.4960161853110154"><ele>8.333333333333334</ele><time>2026-03-22T15:59:48.001Z</time></trkpt><trkpt lat="47.402394621169506" lon="-2.495799101184532"><ele>7.0</ele><time>2026-03-22T15:59:49.001Z</time></trkpt><trkpt lat="47.402351661991965" lon="-2.495589385041847"><ele>7.25</ele><time>2026-03-22T15:59:50.001Z</time></trkpt><trkpt lat="47.40230935437778" lon="-2.495405098594881"><ele>7.5</ele><time>2026-03-22T15:59:51.001Z</time></trkpt><trkpt lat="47.40227226898846" lon="-2.4952336529353283"><ele>7.75</ele><time>2026-03-22T15:59:52.001Z</time></trkpt><trkpt lat="47.402244734414474" lon="-2.4950648716358637"><ele>8.0</ele><time>2026-03-22T15:59:53.001Z</time></trkpt><trkpt lat="47.4022204907425" lon="-2.494903812640557"><ele>8.0</ele><time>2026-03-22T15:59:54.001Z</time></trkpt><trkpt lat="47.4021920616372" lon="-2.4947579949871654"><ele>8.0</ele><time>2026-03-22T15:59:55.001Z</time></trkpt><trkpt lat="47.40216481157358" lon="-2.49462076455488"><ele>8.0</ele><time>2026-03-22T15:59:56.001Z</time></trkpt><trkpt lat="47.402134061562336" lon="-2.494484795372385"><ele>8.0</ele><time>2026-03-22T15:59:57.001Z</time></trkpt><trkpt lat="47.40211067003503" lon="-2.494369175603215"><ele>8.0</ele><time>2026-03-22T15:59:58.001Z</time></trkpt><trkpt lat="47.40208920570314" lon="-2.4942614606113644"><ele>8.4</ele><time>2026-03-22T15:59:59.001Z</time></trkpt><trkpt lat="47.40205960507862" lon="-2.4941232087145537"><ele>8.8</ele><time>2026-03-22T16:00:00.001Z</time></trkpt><trkpt lat="47.40203708555352" lon="-2.4939727333860513"><ele>9.2</ele><time>2026-03-22T16:00:01.001Z</time></trkpt><trkpt lat="47.40200379197257" lon="-2.4938450264892746"><ele>9.6</ele><time>2026-03-22T16:00:02.001Z</time></trkpt><trkpt lat="47.401992066680336" lon="-2.493709460392377"><ele>10.0</ele><time>2026-03-22T16:00:03.001Z</time></trkpt><trkpt lat="47.40196863624289" lon="-2.493593731701911"><ele>10.4</ele><time>2026-03-22T16:00:04.001Z</time></trkpt><trkpt lat="47.40194340356559" lon="-2.4934586253655056"><ele>10.8</ele><time>2026-03-22T16:00:05.001Z</time></trkpt><trkpt lat="47.401906347443195" lon="-2.4933064826376095"><ele>11.2</ele><time>2026-03-22T16:00:06.001Z</time></trkpt><trkpt lat="47.401870166147035" lon="-2.4931446992278254"><ele>11.6</ele><time>2026-03-22T16:00:07.001Z</time></trkpt><trkpt lat="47.401847651348554" lon="-2.492980954940279"><ele>12.0</ele><time>2026-03-22T16:00:08.001Z</time></trkpt><trkpt lat="47.401798341580566" lon="-2.4928214369791792"><ele>12.5</ele><time>2026-03-22T16:00:09.001Z</time></trkpt><trkpt lat="47.401767525530445" lon="-2.4926552920211025"><ele>13.0</ele><time>2026-03-22T16:00:10.001Z</time></trkpt><trkpt lat="47.40173600498971" lon="-2.4924777936315796"><ele>13.5</ele><time>2026-03-22T16:00:11.001Z</time></trkpt><trkpt lat="47.40169700913158" lon="-2.49230266142434"><ele>14.0</ele><time>2026-03-22T16:00:12.001Z</time></trkpt><trkpt lat="47.401653393241574" lon="-2.4921360666620043"><ele>13.799999999999999</ele><time>2026-03-22T16:00:13.001Z</time></trkpt><trkpt lat="47.40160768448093" lon="-2.4919744315557075"><ele>13.599999999999998</ele><time>2026-03-22T16:00:14.001Z</time></trkpt><trkpt lat="47.40156694440598" lon="-2.4918182047446615"><ele>13.4</ele><time>2026-03-22T16:00:15.001Z</time></trkpt><trkpt lat="47.40152019096591" lon="-2.4916641603858607"><ele>13.2</ele><time>2026-03-22T16:00:16Z</time></trkpt><trkpt lat="47.40147413726761" lon="-2.4915277600844"><ele>13.0</ele><time>2026-03-22T16:00:17Z</time></trkpt><trkpt lat="47.40143584197346" lon="-2.491405641905494"><ele>12.999999999999998</ele><time>2026-03-22T16:00:18Z</time></trkpt><trkpt lat="47.401405462995" lon="-2.4912934371620907"><ele>13.0</ele><time>2026-03-22T16:00:19Z</time></trkpt><trkpt lat="47.40137169647745" lon="-2.4911953966633846"><ele>13.0</ele><time>2026-03-22T16:00:20Z</time></trkpt><trkpt lat="47.40133875770778" lon="-2.4911048722240543"><ele>13.0</ele><time>2026-03-22T16:00:21Z</time></trkpt><trkpt lat="47.40130707709502" lon="-2.4910113917237924"><ele>12.999999999999998</ele><time>2026-03-22T16:00:22Z</time></trkpt><trkpt lat="47.40126088634722" lon="-2.490919133689772"><ele>13.0</ele><time>2026-03-22T16:00:23Z</time></trkpt><trkpt lat="47.4012059203712" lon="-2.4908056794149087"><ele>13.0</ele><time>2026-03-22T16:00:24Z</time></trkpt><trkpt lat="47.40115188043063" lon="-2.49067304212268"><ele>13.0</ele><time>2026-03-22T16:00:25Z</time></trkpt><trkpt lat="47.40108505411796" lon="-2.490526688030735"><ele>13.0</ele><time>2026-03-22T16:00:26Z</time></trkpt><trkpt lat="47.40100222266834" lon="-2.4903722070526606"><ele>13.0</ele><time>2026-03-22T16:00:27Z</time></trkpt><trkpt lat="47.40093336121467" lon="-2.4901739924699045"><ele>13.0</ele><time>2026-03-22T16:00:28Z</time></trkpt><trkpt lat="47.400864225986076" lon="-2.4899672733556963"><ele>13.0</ele><time>2026-03-22T16:00:29Z</time></trkpt><trkpt lat="47.400793610028146" lon="-2.489769691519883"><ele>13.0</ele><time>2026-03-22T16:00:30Z</time></trkpt><trkpt lat="47.400715104065874" lon="-2.4895608880487834"><ele>13.333333333333332</ele><time>2026-03-22T16:00:31Z</time></trkpt><trkpt lat="47.400635703324774" lon="-2.489349704895422"><ele>13.666666666666668</ele><time>2026-03-22T16:00:32Z</time></trkpt><trkpt lat="47.400555361542686" lon="-2.4891360189285074"><ele>14.0</ele><time>2026-03-22T16:00:33Z</time></trkpt><trkpt lat="47.40048769115315" lon="-2.488956035088462"><ele>14.0</ele><time>2026-03-22T16:00:34Z</time></trkpt><trkpt lat="47.40042412996843" lon="-2.4887383411523762"><ele>14.0</ele><time>2026-03-22T16:00:35Z</time></trkpt><trkpt lat="47.40033376501365" lon="-2.4885222605700674"><ele>14.0</ele><time>2026-03-22T16:00:36Z</time></trkpt><trkpt lat="47.400252635767714" lon="-2.488299418962927"><ele>14.0</ele><time>2026-03-22T16:00:37Z</time></trkpt><trkpt lat="47.40016286560026" lon="-2.488060073945039"><ele>14.0</ele><time>2026-03-22T16:00:38Z</time></trkpt><trkpt lat="47.400072732017705" lon="-2.487824903866306"><ele>14.0</ele><time>2026-03-22T16:00:39Z</time></trkpt><trkpt lat="47.3999748024747" lon="-2.487583724093165"><ele>14.0</ele><time>2026-03-22T16:00:40Z</time></trkpt><trkpt lat="47.39989146997108" lon="-2.487361111480146"><ele>14.0</ele><time>2026-03-22T16:00:41Z</time></trkpt><trkpt lat="47.39980336709715" lon="-2.4871329783490013"><ele>14.0</ele><time>2026-03-22T16:00:42Z</time></trkpt><trkpt lat="47.3997173680669" lon="-2.486908233379131"><ele>14.666666666666668</ele><time>2026-03-22T16:00:43Z</time></trkpt><trkpt lat="47.399629128673425" lon="-2.486684499706505"><ele>15.333333333333332</ele><time>2026-03-22T16:00:44Z</time></trkpt><trkpt lat="47.399543218286205" lon="-2.4864691456891834"><ele>16.0</ele><time>2026-03-22T16:00:45Z</time></trkpt><trkpt lat="47.399462683789764" lon="-2.486263603491849"><ele>16.25</ele><time>2026-03-22T16:00:46Z</time></trkpt><trkpt lat="47.39939274773588" lon="-2.4860694828990377"><ele>16.5</ele><time>2026-03-22T16:00:47Z</time></trkpt><trkpt lat="47.39932755344744" lon="-2.4858899542265798"><ele>16.75</ele><time>2026-03-22T16:00:48Z</time></trkpt><trkpt lat="47.39926449723604" lon="-2.485718064308398"><ele>17.0</ele><time>2026-03-22T16:00:49Z</time></trkpt><trkpt lat="47.399201721268916" lon="-2.485548822658011"><ele>17.25</ele><time>2026-03-22T16:00:50Z</time></trkpt><trkpt lat="47.399146123932375" lon="-2.4853851379381533"><ele>17.5</ele><time>2026-03-22T16:00:51Z</time></trkpt><trkpt lat="47.399115661411955" lon="-2.4851995031803633"><ele>17.75</ele><time>2026-03-22T16:00:52Z</time></trkpt><trkpt lat="47.39907037569238" lon="-2.48502826193501"><ele>18.0</ele><time>2026-03-22T16:00:53Z</time></trkpt><trkpt lat="47.39903055578679" lon="-2.48486527031404"><ele>18.0</ele><time>2026-03-22T16:00:54Z</time></trkpt><trkpt lat="47.398998494759354" lon="-2.4847301496323335"><ele>18.0</ele><time>2026-03-22T16:00:55Z</time></trkpt><trkpt lat="47.39897176018111" lon="-2.4846199175439163"><ele>18.0</ele><time>2026-03-22T16:00:56Z</time></trkpt><trkpt lat="47.39894294639591" lon="-2.4845258894297872"><ele>18.0</ele><time>2026-03-22T16:00:57Z</time></trkpt><trkpt lat="47.3988925786843" lon="-2.4843850214137095"><ele>18.0</ele><time>2026-03-22T16:00:59Z</time></trkpt><trkpt lat="47.398843840583346" lon="-2.4843248898934682"><ele>18.0</ele><time>2026-03-22T16:01:00Z</time></trkpt><trkpt lat="47.39879632167087" lon="-2.4842635320513575"><ele>18.166666666666668</ele><time>2026-03-22T16:01:01Z</time></trkpt><trkpt lat="47.398742447897554" lon="-2.4842043605637008"><ele>18.333333333333332</ele><time>2026-03-22T16:01:02Z</time></trkpt><trkpt lat="47.39869332963818" lon="-2.4840457617373417"><ele>18.5</ele><time>2026-03-22T16:01:04Z</time></trkpt><trkpt lat="47.398747222643934" lon="-2.483982678405753"><ele>18.666666666666664</ele><time>2026-03-22T16:01:05Z</time></trkpt><trkpt lat="47.398777956617195" lon="-2.4838907915486144"><ele>18.833333333333332</ele><time>2026-03-22T16:01:06Z</time></trkpt><trkpt lat="47.39879486718584" lon="-2.483773691894672"><ele>19.0</ele><time>2026-03-22T16:01:07Z</time></trkpt><trkpt lat="47.3987854170972" lon="-2.483637674614523"><ele>18.599999999999998</ele><time>2026-03-22T16:01:08Z</time></trkpt><trkpt lat="47.39876344344268" lon="-2.483494751501005"><ele>18.2</ele><time>2026-03-22T16:01:09Z</time></trkpt><trkpt lat="47.39873857243722" lon="-2.48334033726091"><ele>17.799999999999997</ele><time>2026-03-22T16:01:10Z</time></trkpt><trkpt lat="47.39871156374733" lon="-2.4831881644980576"><ele>17.4</ele><time>2026-03-22T16:01:11Z</time></trkpt><trkpt lat="47.398680348924245" lon="-2.4830296465855217"><ele>17.0</ele><time>2026-03-22T16:01:12Z</time></trkpt><trkpt lat="47.39864452346266" lon="-2.4828222629629"><ele>16.333333333333336</ele><time>2026-03-22T16:01:13Z</time></trkpt><trkpt lat="47.398588299748326" lon="-2.4825895963900426"><ele>15.666666666666668</ele><time>2026-03-22T16:01:14Z</time></trkpt><trkpt lat="47.39853589187812" lon="-2.4823545403987257"><ele>15.0</ele><time>2026-03-22T16:01:15Z</time></trkpt><trkpt lat="47.39847799281101" lon="-2.482103478087195"><ele>15.0</ele><time>2026-03-22T16:01:16Z</time></trkpt><trkpt lat="47.398401698698265" lon="-2.481846615430284"><ele>15.0</ele><time>2026-03-22T16:01:17Z</time></trkpt><trkpt lat="47.39833187303126" lon="-2.4815890177890303"><ele>15.0</ele><time>2026-03-22T16:01:18Z</time></trkpt><trkpt lat="47.398280347891905" lon="-2.4813372218895346"><ele>14.333333333333332</ele><time>2026-03-22T16:01:19.001Z</time></trkpt><trkpt lat="47.398221741818354" lon="-2.4810818599815505"><ele>13.666666666666666</ele><time>2026-03-22T16:01:20.001Z</time></trkpt><trkpt lat="47.398167157168224" lon="-2.480828178656654"><ele>13.0</ele><time>2026-03-22T16:01:21.001Z</time></trkpt><trkpt lat="47.39811692805628" lon="-2.480563993038848"><ele>11.0</ele><time>2026-03-22T16:01:22.001Z</time></trkpt><trkpt lat="47.39808209230457" lon="-2.480294337061395"><ele>9.0</ele><time>2026-03-22T16:01:23.001Z</time></trkpt><trkpt lat="47.39805910400952" lon="-2.480022385997188"><ele>7.0</ele><time>2026-03-22T16:01:24.001Z</time></trkpt><trkpt lat="47.39804540363287" lon="-2.4797611706468126"><ele>5.333333333333334</ele><time>2026-03-22T16:01:25.001Z</time></trkpt><trkpt lat="47.39803612809915" lon="-2.479504896096014"><ele>3.666666666666667</ele><time>2026-03-22T16:01:26.001Z</time></trkpt><trkpt lat="47.39802560079425" lon="-2.479254987593751"><ele>2.0</ele><time>2026-03-22T16:01:27.001Z</time></trkpt><trkpt lat="47.398008660666434" lon="-2.479005852147714"><ele>1.6666666666666665</ele><time>2026-03-22T16:01:28.001Z</time></trkpt><trkpt lat="47.397977595048815" lon="-2.4787583605221557"><ele>1.3333333333333333</ele><time>2026-03-22T16:01:29.001Z</time></trkpt><trkpt lat="47.39792612978751" lon="-2.4785192533064846"><ele>1.0</ele><time>2026-03-22T16:01:30.001Z</time></trkpt><trkpt lat="47.39786608828173" lon="-2.4782998576902466"><ele>1.0</ele><time>2026-03-22T16:01:31.001Z</time></trkpt><trkpt lat="47.39779735915795" lon="-2.478081886656395"><ele>1.0</ele><time>2026-03-22T16:01:32.001Z</time></trkpt><trkpt lat="47.397721504595694" lon="-2.477871054793256"><ele>1.0</ele><time>2026-03-22T16:01:33.001Z</time></trkpt><trkpt lat="47.397641613373935" lon="-2.4776594041629925"><ele>1.3333333333333333</ele><time>2026-03-22T16:01:34.001Z</time></trkpt><trkpt lat="47.39757700737319" lon="-2.477445519170335"><ele>1.6666666666666665</ele><time>2026-03-22T16:01:35.001Z</time></trkpt><trkpt lat="47.39752475312094" lon="-2.4772294310235594"><ele>2.0</ele><time>2026-03-22T16:01:36.001Z</time></trkpt><trkpt lat="47.397491768001025" lon="-2.4770164578376357"><ele>3.0</ele><time>2026-03-22T16:01:37.001Z</time></trkpt><trkpt lat="47.39746671843206" lon="-2.4767940007841016"><ele>4.0</ele><time>2026-03-22T16:01:38.001Z</time></trkpt><trkpt lat="47.39744941509275" lon="-2.4765658436943405"><ele>5.0</ele><time>2026-03-22T16:01:39.001Z</time></trkpt><trkpt lat="47.397453205381005" lon="-2.476342242160898"><ele>5.666666666666667</ele><time>2026-03-22T16:01:40.001Z</time></trkpt><trkpt lat="47.397463061636245" lon="-2.4761160769887747"><ele>6.333333333333334</ele><time>2026-03-22T16:01:41.001Z</time></trkpt><trkpt lat="47.39747341313604" lon="-2.475885350159717"><ele>7.0</ele><time>2026-03-22T16:01:42.001Z</time></trkpt><trkpt lat="47.3974782966431" lon="-2.4756468381111105"><ele>7.0</ele><time>2026-03-22T16:01:43.001Z</time></trkpt><trkpt lat="47.39748272126683" lon="-2.475409174084251"><ele>7.0</ele><time>2026-03-22T16:01:44.001Z</time></trkpt><trkpt lat="47.39748962175406" lon="-2.4751738601463473"><ele>7.0</ele><time>2026-03-22T16:01:45.001Z</time></trkpt><trkpt lat="47.39749724200686" lon="-2.4749217412175026"><ele>7.0</ele><time>2026-03-22T16:01:46.001Z</time></trkpt><trkpt lat="47.3974999962467" lon="-2.474679063036595"><ele>7.0</ele><time>2026-03-22T16:01:47.001Z</time></trkpt><trkpt lat="47.39748598674814" lon="-2.474432487254184"><ele>7.0</ele><time>2026-03-22T16:01:48.001Z</time></trkpt><trkpt lat="47.397466555184224" lon="-2.4741885175292015"><ele>7.666666666666667</ele><time>2026-03-22T16:01:49.001Z</time></trkpt><trkpt lat="47.397436280239376" lon="-2.473932462998919"><ele>8.333333333333334</ele><time>2026-03-22T16:01:50.001Z</time></trkpt><trkpt lat="47.39741062419982" lon="-2.473686117511719"><ele>9.0</ele><time>2026-03-22T16:01:51.001Z</time></trkpt><trkpt lat="47.3973665463769" lon="-2.473447298828355"><ele>10.333333333333332</ele><time>2026-03-22T16:01:52.001Z</time></trkpt><trkpt lat="47.39730959349295" lon="-2.4731969366697717"><ele>11.666666666666666</ele><time>2026-03-22T16:01:53.001Z</time></trkpt><trkpt lat="47.397243256559534" lon="-2.472942622653978"><ele>13.0</ele><time>2026-03-22T16:01:54.001Z</time></trkpt><trkpt lat="47.397172252849025" lon="-2.472678957048841"><ele>13.333333333333332</ele><time>2026-03-22T16:01:55.001Z</time></trkpt><trkpt lat="47.39710146021327" lon="-2.472406630646744"><ele>13.666666666666668</ele><time>2026-03-22T16:01:56.001Z</time></trkpt><trkpt lat="47.39703426193948" lon="-2.472155675232504"><ele>14.0</ele><time>2026-03-22T16:01:57.001Z</time></trkpt><trkpt lat="47.39697394640916" lon="-2.471924659083105"><ele>14.666666666666668</ele><time>2026-03-22T16:01:58.001Z</time></trkpt><trkpt lat="47.39690921334388" lon="-2.471674712662704"><ele>15.333333333333332</ele><time>2026-03-22T16:01:59.001Z</time></trkpt><trkpt lat="47.396841587411174" lon="-2.4714144862870273"><ele>16.0</ele><time>2026-03-22T16:02:00.001Z</time></trkpt><trkpt lat="47.39676804818232" lon="-2.47114975432136"><ele>17.333333333333332</ele><time>2026-03-22T16:02:01.001Z</time></trkpt><trkpt lat="47.396703316045084" lon="-2.470895804204989"><ele>18.666666666666668</ele><time>2026-03-22T16:02:02.001Z</time></trkpt><trkpt lat="47.39664480959023" lon="-2.470652717645826"><ele>20.0</ele><time>2026-03-22T16:02:03.001Z</time></trkpt><trkpt lat="47.396581607903435" lon="-2.4704159061859965"><ele>20.666666666666668</ele><time>2026-03-22T16:02:04.001Z</time></trkpt><trkpt lat="47.39651781732944" lon="-2.4701857827459675"><ele>21.333333333333332</ele><time>2026-03-22T16:02:05.001Z</time></trkpt><trkpt lat="47.396455278415225" lon="-2.469947050575046"><ele>22.0</ele><time>2026-03-22T16:02:06.001Z</time></trkpt><trkpt lat="47.396371263718784" lon="-2.4697045677967924"><ele>21.0</ele><time>2026-03-22T16:02:07.001Z</time></trkpt><trkpt lat="47.396317547167826" lon="-2.469460957042692"><ele>20.0</ele><time>2026-03-22T16:02:08.001Z</time></trkpt><trkpt lat="47.39625101237196" lon="-2.469210723860148"><ele>19.0</ele><time>2026-03-22T16:02:09.001Z</time></trkpt><trkpt lat="47.39618162013503" lon="-2.4689729227339803"><ele>19.0</ele><time>2026-03-22T16:02:10.001Z</time></trkpt><trkpt lat="47.396132572180676" lon="-2.468744268869124"><ele>19.0</ele><time>2026-03-22T16:02:11.001Z</time></trkpt><trkpt lat="47.396060832961886" lon="-2.4685190985215257"><ele>19.0</ele><time>2026-03-22T16:02:12.001Z</time></trkpt><trkpt lat="47.3959797756977" lon="-2.4682959576158394"><ele>19.0</ele><time>2026-03-22T16:02:13.001Z</time></trkpt><trkpt lat="47.39590376541123" lon="-2.4680683056942887"><ele>19.0</ele><time>2026-03-22T16:02:14.001Z</time></trkpt><trkpt lat="47.39580859067464" lon="-2.4678460111775387"><ele>19.0</ele><time>2026-03-22T16:02:15.001Z</time></trkpt><trkpt lat="47.39570810157146" lon="-2.467633066753763"><ele>19.0</ele><time>2026-03-22T16:02:16.001Z</time></trkpt><trkpt lat="47.39561265816461" lon="-2.4674306615586272"><ele>19.0</ele><time>2026-03-22T16:02:17.001Z</time></trkpt><trkpt lat="47.395516139081856" lon="-2.4672309397880055"><ele>19.0</ele><time>2026-03-22T16:02:18.001Z</time></trkpt><trkpt lat="47.39541202199064" lon="-2.4670441473203684"><ele>19.0</ele><time>2026-03-22T16:02:19.001Z</time></trkpt><trkpt lat="47.39531289996072" lon="-2.4668857882268918"><ele>19.0</ele><time>2026-03-22T16:02:20.001Z</time></trkpt><trkpt lat="47.39521292885067" lon="-2.466731545718017"><ele>19.0</ele><time>2026-03-22T16:02:21.001Z</time></trkpt><trkpt lat="47.39511651223629" lon="-2.4665831826099893"><ele>19.0</ele><time>2026-03-22T16:02:22Z</time></trkpt><trkpt lat="47.39502402475144" lon="-2.4664487066565295"><ele>19.0</ele><time>2026-03-22T16:02:23Z</time></trkpt><trkpt lat="47.3949348071868" lon="-2.4663205893884426"><ele>19.0</ele><time>2026-03-22T16:02:24Z</time></trkpt><trkpt lat="47.39484912753148" lon="-2.4661984619138226"><ele>19.0</ele><time>2026-03-22T16:02:25Z</time></trkpt><trkpt lat="47.394776466355694" lon="-2.4660846637629814"><ele>19.0</ele><time>2026-03-22T16:02:26Z</time></trkpt><trkpt lat="47.39470120402115" lon="-2.465978209106318"><ele>18.25</ele><time>2026-03-22T16:02:27Z</time></trkpt><trkpt lat="47.39462150066445" lon="-2.465875132043193"><ele>17.5</ele><time>2026-03-22T16:02:28Z</time></trkpt><trkpt lat="47.39454177642375" lon="-2.46576360991343"><ele>16.75</ele><time>2026-03-22T16:02:29Z</time></trkpt><trkpt lat="47.39444716984996" lon="-2.465632186000995"><ele>16.0</ele><time>2026-03-22T16:02:30Z</time></trkpt><trkpt lat="47.39434243508407" lon="-2.4654825033747456"><ele>16.25</ele><time>2026-03-22T16:02:31Z</time></trkpt><trkpt lat="47.39423988618175" lon="-2.465341689200778"><ele>16.5</ele><time>2026-03-22T16:02:32Z</time></trkpt><trkpt lat="47.39412859231725" lon="-2.465198933930953"><ele>16.75</ele><time>2026-03-22T16:02:33Z</time></trkpt><trkpt lat="47.39400854618049" lon="-2.465041793726524"><ele>17.0</ele><time>2026-03-22T16:02:34Z</time></trkpt><trkpt lat="47.39388482773265" lon="-2.4648681367152747"><ele>18.0</ele><time>2026-03-22T16:02:35Z</time></trkpt><trkpt lat="47.39376424963845" lon="-2.4646829049192625"><ele>19.0</ele><time>2026-03-22T16:02:36Z</time></trkpt><trkpt lat="47.393636541248455" lon="-2.4644939543684243"><ele>20.0</ele><time>2026-03-22T16:02:37Z</time></trkpt><trkpt lat="47.39351382740091" lon="-2.464298928734481"><ele>20.0</ele><time>2026-03-22T16:02:38Z</time></trkpt><trkpt lat="47.393399270994955" lon="-2.4640827641839627"><ele>20.0</ele><time>2026-03-22T16:02:39Z</time></trkpt><trkpt lat="47.393296015562484" lon="-2.463846961559232"><ele>20.0</ele><time>2026-03-22T16:02:40Z</time></trkpt><trkpt lat="47.393192886307105" lon="-2.463615214723997"><ele>19.666666666666668</ele><time>2026-03-22T16:02:41Z</time></trkpt><trkpt lat="47.39311788233919" lon="-2.4633632459745085"><ele>19.333333333333332</ele><time>2026-03-22T16:02:42Z</time></trkpt><trkpt lat="47.39304702350358" lon="-2.463098133555994"><ele>19.0</ele><time>2026-03-22T16:02:43Z</time></trkpt><trkpt lat="47.392989926424775" lon="-2.4628401827209974"><ele>19.0</ele><time>2026-03-22T16:02:44Z</time></trkpt><trkpt lat="47.39293492661051" lon="-2.462585269695566"><ele>19.0</ele><time>2026-03-22T16:02:45Z</time></trkpt><trkpt lat="47.39287522293511" lon="-2.462337839624781"><ele>19.0</ele><time>2026-03-22T16:02:46Z</time></trkpt><trkpt lat="47.39282322531134" lon="-2.4621044822946567"><ele>19.0</ele><time>2026-03-22T16:02:47Z</time></trkpt><trkpt lat="47.392776801762324" lon="-2.4618681107715137"><ele>19.0</ele><time>2026-03-22T16:02:48Z</time></trkpt><trkpt lat="47.39271902835331" lon="-2.46163598189323"><ele>19.0</ele><time>2026-03-22T16:02:49Z</time></trkpt><trkpt lat="47.3926761856565" lon="-2.4614289549259905"><ele>18.75</ele><time>2026-03-22T16:02:50Z</time></trkpt><trkpt lat="47.392606588544346" lon="-2.461215558498248"><ele>18.5</ele><time>2026-03-22T16:02:51Z</time></trkpt><trkpt lat="47.392532503223606" lon="-2.4610220763440105"><ele>18.25</ele><time>2026-03-22T16:02:52Z</time></trkpt><trkpt lat="47.39247259618447" lon="-2.460863738646754"><ele>18.0</ele><time>2026-03-22T16:02:53Z</time></trkpt><trkpt lat="47.39241459790568" lon="-2.460739516080143"><ele>18.0</ele><time>2026-03-22T16:02:54Z</time></trkpt><trkpt lat="47.39236768802075" lon="-2.4606564859745528"><ele>18.0</ele><time>2026-03-22T16:02:55Z</time></trkpt><trkpt lat="47.39230600468983" lon="-2.46056927497846"><ele>18.0</ele><time>2026-03-22T16:02:57Z</time></trkpt><trkpt lat="47.392233826859844" lon="-2.460471944937119"><ele>18.0</ele><time>2026-03-22T16:03:04Z</time></trkpt><trkpt lat="47.392175951302384" lon="-2.4603977703209705"><ele>18.0</ele><time>2026-03-22T16:03:05Z</time></trkpt><trkpt lat="47.39211305921342" lon="-2.4602583635045963"><ele>18.0</ele><time>2026-03-22T16:03:07Z</time></trkpt><trkpt lat="47.39215992521705" lon="-2.460139317889345"><ele>17.833333333333332</ele><time>2026-03-22T16:03:08Z</time></trkpt><trkpt lat="47.39221018235758" lon="-2.4600719936674533"><ele>17.666666666666668</ele><time>2026-03-22T16:03:09Z</time></trkpt><trkpt lat="47.39234533603498" lon="-2.4600817385902767"><ele>17.5</ele><time>2026-03-22T16:03:11Z</time></trkpt><trkpt lat="47.392410718606904" lon="-2.4601268588817664"><ele>17.333333333333336</ele><time>2026-03-22T16:03:12Z</time></trkpt><trkpt lat="47.39248308021863" lon="-2.4601623748121284"><ele>17.166666666666668</ele><time>2026-03-22T16:03:13.001Z</time></trkpt><trkpt lat="47.3925597682535" lon="-2.460172514317948"><ele>17.0</ele><time>2026-03-22T16:03:14.001Z</time></trkpt><trkpt lat="47.39262522224809" lon="-2.4601696214748054"><ele>17.0</ele><time>2026-03-22T16:03:15.001Z</time></trkpt><trkpt lat="47.3927075472225" lon="-2.4601586778936864"><ele>17.0</ele><time>2026-03-22T16:03:16.001Z</time></trkpt><trkpt lat="47.39277771799403" lon="-2.4601509481631725"><ele>17.0</ele><time>2026-03-22T16:03:17.001Z</time></trkpt><trkpt lat="47.392844959444176" lon="-2.460141809133495"><ele>17.0</ele><time>2026-03-22T16:03:18.001Z</time></trkpt><trkpt lat="47.39295299873718" lon="-2.460159492036165"><ele>17.0</ele><time>2026-03-22T16:03:20.001Z</time></trkpt><trkpt lat="47.392992308443276" lon="-2.4599406370580144"><ele>17.0</ele><time>2026-03-22T16:03:23.001Z</time></trkpt><trkpt lat="47.3929512390334" lon="-2.459834593701536"><ele>17.0</ele><time>2026-03-22T16:03:24.001Z</time></trkpt><trkpt lat="47.392896935029675" lon="-2.459716541857467"><ele>17.0</ele><time>2026-03-22T16:03:25.001Z</time></trkpt><trkpt lat="47.39285147458956" lon="-2.4595785141387525"><ele>17.0</ele><time>2026-03-22T16:03:26.001Z</time></trkpt><trkpt lat="47.392800566531605" lon="-2.459452395702416"><ele>17.0</ele><time>2026-03-22T16:03:27.001Z</time></trkpt><trkpt lat="47.3927523623515" lon="-2.459346268087453"><ele>16.8</ele><time>2026-03-22T16:03:28.001Z</time></trkpt><trkpt lat="47.39271147249647" lon="-2.459246150856359"><ele>16.6</ele><time>2026-03-22T16:03:29.001Z</time></trkpt><trkpt lat="47.39267075164037" lon="-2.4591396055854995"><ele>16.400000000000002</ele><time>2026-03-22T16:03:30.001Z</time></trkpt><trkpt lat="47.39262539441954" lon="-2.4590345568346694"><ele>16.2</ele><time>2026-03-22T16:03:31.001Z</time></trkpt><trkpt lat="47.39260455002772" lon="-2.458931851582673"><ele>16.0</ele><time>2026-03-22T16:03:32.001Z</time></trkpt><trkpt lat="47.392455406753385" lon="-2.4588772286519496"><ele>15.999999999999998</ele><time>2026-03-22T16:03:34.001Z</time></trkpt><trkpt lat="47.392355953095944" lon="-2.4588614276000795"><ele>16.0</ele><time>2026-03-22T16:03:36.001Z</time></trkpt><trkpt lat="47.392270898487915" lon="-2.4588479142509554"><ele>16.0</ele><time>2026-03-22T16:03:38.001Z</time></trkpt><trkpt lat="47.39220061238732" lon="-2.458943463902434"><ele>16.0</ele><time>2026-03-22T16:11:06.003Z</time></trkpt><trkpt lat="47.39218630192551" lon="-2.4588293790786397"><ele>15.999999999999998</ele><time>2026-03-22T16:11:09.002Z</time></trkpt><trkpt lat="47.39227472918607" lon="-2.458840706696397"><ele>16.0</ele><time>2026-03-22T16:11:12.002Z</time></trkpt><trkpt lat="47.39236575373463" lon="-2.4588485917448386"><ele>15.999999999999998</ele><time>2026-03-22T16:11:14.002Z</time></trkpt><trkpt lat="47.39245817495463" lon="-2.4588367668551254"><ele>16.0</ele><time>2026-03-22T16:11:16.002Z</time></trkpt><trkpt lat="47.392549439151445" lon="-2.4588735097304038"><ele>16.0</ele><time>2026-03-22T16:11:18.001Z</time></trkpt><trkpt lat="47.39263565772463" lon="-2.4589708511320083"><ele>16.0</ele><time>2026-03-22T16:11:20.001Z</time></trkpt><trkpt lat="47.392683531092146" lon="-2.4590474025948916"><ele>15.999999999999998</ele><time>2026-03-22T16:11:21.001Z</time></trkpt><trkpt lat="47.39272545026052" lon="-2.4591274283574496"><ele>16.0</ele><time>2026-03-22T16:11:22.001Z</time></trkpt><trkpt lat="47.3927619760544" lon="-2.4592125922711077"><ele>16.0</ele><time>2026-03-22T16:11:23.001Z</time></trkpt><trkpt lat="47.39280676285711" lon="-2.4594099626596764"><ele>16.0</ele><time>2026-03-22T16:11:25.001Z</time></trkpt><trkpt lat="47.39284771524558" lon="-2.4595561104223185"><ele>16.0</ele><time>2026-03-22T16:11:26.001Z</time></trkpt><trkpt lat="47.39290339764142" lon="-2.459706489852048"><ele>16.0</ele><time>2026-03-22T16:11:27.001Z</time></trkpt><trkpt lat="47.392951275381016" lon="-2.459842473690903"><ele>16.2</ele><time>2026-03-22T16:11:28.001Z</time></trkpt><trkpt lat="47.392993279536334" lon="-2.4599584435415722"><ele>16.400000000000002</ele><time>2026-03-22T16:11:29.001Z</time></trkpt><trkpt lat="47.39303276900114" lon="-2.460056854910526"><ele>16.6</ele><time>2026-03-22T16:11:30.001Z</time></trkpt><trkpt lat="47.39306995701798" lon="-2.4601481213511835"><ele>16.8</ele><time>2026-03-22T16:11:31.001Z</time></trkpt><trkpt lat="47.39305215789626" lon="-2.460288479781276"><ele>17.0</ele><time>2026-03-22T16:11:33.001Z</time></trkpt><trkpt lat="47.39291730041701" lon="-2.4603033896289457"><ele>17.0</ele><time>2026-03-22T16:11:35.001Z</time></trkpt><trkpt lat="47.392823789984746" lon="-2.4602598181135487"><ele>17.0</ele><time>2026-03-22T16:11:36.001Z</time></trkpt><trkpt lat="47.392723027532114" lon="-2.4602297869867464"><ele>17.0</ele><time>2026-03-22T16:11:37.001Z</time></trkpt><trkpt lat="47.39262496812299" lon="-2.4602228454310273"><ele>17.0</ele><time>2026-03-22T16:11:38.001Z</time></trkpt><trkpt lat="47.39254113970255" lon="-2.4602382568214587"><ele>17.0</ele><time>2026-03-22T16:11:39.001Z</time></trkpt><trkpt lat="47.39246550873505" lon="-2.4602346383576377"><ele>17.0</ele><time>2026-03-22T16:11:40.001Z</time></trkpt><trkpt lat="47.39240912901723" lon="-2.460294458259075"><ele>17.0</ele><time>2026-03-22T16:11:41.001Z</time></trkpt><trkpt lat="47.39237311991247" lon="-2.4603984758084447"><ele>17.0</ele><time>2026-03-22T16:11:42.001Z</time></trkpt><trkpt lat="47.39237080790211" lon="-2.460548946147796"><ele>17.0</ele><time>2026-03-22T16:11:43.001Z</time></trkpt><trkpt lat="47.39241614447099" lon="-2.4607244325513986"><ele>17.0</ele><time>2026-03-22T16:11:44.001Z</time></trkpt><trkpt lat="47.39249731575267" lon="-2.4609000376654695"><ele>17.333333333333336</ele><time>2026-03-22T16:11:45.001Z</time></trkpt><trkpt lat="47.39258677155566" lon="-2.4610898863483452"><ele>17.666666666666668</ele><time>2026-03-22T16:11:46.001Z</time></trkpt><trkpt lat="47.3926577638914" lon="-2.46132098537087"><ele>18.0</ele><time>2026-03-22T16:11:47.001Z</time></trkpt><trkpt lat="47.392718546096795" lon="-2.461540503377444"><ele>18.333333333333332</ele><time>2026-03-22T16:11:48.001Z</time></trkpt><trkpt lat="47.39277934971725" lon="-2.461761630597577"><ele>18.666666666666664</ele><time>2026-03-22T16:11:49.001Z</time></trkpt><trkpt lat="47.392834167885084" lon="-2.461978526338743"><ele>19.0</ele><time>2026-03-22T16:11:50.001Z</time></trkpt><trkpt lat="47.392874101681095" lon="-2.462211828626445"><ele>19.0</ele><time>2026-03-22T16:11:51.001Z</time></trkpt><trkpt lat="47.39292114713667" lon="-2.4624366922384837"><ele>19.0</ele><time>2026-03-22T16:11:52.001Z</time></trkpt><trkpt lat="47.39296785266173" lon="-2.462650659698902"><ele>19.0</ele><time>2026-03-22T16:11:53.001Z</time></trkpt><trkpt lat="47.393011713641364" lon="-2.462857337094015"><ele>18.75</ele><time>2026-03-22T16:11:54.001Z</time></trkpt><trkpt lat="47.39305806177986" lon="-2.4630490062242316"><ele>18.5</ele><time>2026-03-22T16:11:55.001Z</time></trkpt><trkpt lat="47.39310974487959" lon="-2.463203780992156"><ele>18.25</ele><time>2026-03-22T16:11:56.001Z</time></trkpt><trkpt lat="47.39315461161449" lon="-2.4633611901751014"><ele>18.0</ele><time>2026-03-22T16:11:57Z</time></trkpt><trkpt lat="47.393201523367416" lon="-2.4635119070064886"><ele>18.0</ele><time>2026-03-22T16:11:58Z</time></trkpt><trkpt lat="47.39324357998991" lon="-2.463649413413802"><ele>18.0</ele><time>2026-03-22T16:11:59Z</time></trkpt><trkpt lat="47.39329795563576" lon="-2.4637744563210924"><ele>18.0</ele><time>2026-03-22T16:12:00Z</time></trkpt><trkpt lat="47.39334369511767" lon="-2.463900422946003"><ele>18.0</ele><time>2026-03-22T16:12:01Z</time></trkpt><trkpt lat="47.393392528245734" lon="-2.4640216881946078"><ele>18.0</ele><time>2026-03-22T16:12:02Z</time></trkpt><trkpt lat="47.39346135762986" lon="-2.4641572907946174"><ele>17.75</ele><time>2026-03-22T16:12:03Z</time></trkpt><trkpt lat="47.39354509836671" lon="-2.4643085537255778"><ele>17.5</ele><time>2026-03-22T16:12:04Z</time></trkpt><trkpt lat="47.3936389128203" lon="-2.4644601731866738"><ele>17.25</ele><time>2026-03-22T16:12:05Z</time></trkpt><trkpt lat="47.39376026246454" lon="-2.464647928674339"><ele>17.0</ele><time>2026-03-22T16:12:06Z</time></trkpt><trkpt lat="47.39391001018831" lon="-2.4648563227480906"><ele>17.0</ele><time>2026-03-22T16:12:07Z</time></trkpt><trkpt lat="47.3940635220697" lon="-2.465061336583605"><ele>17.0</ele><time>2026-03-22T16:12:08Z</time></trkpt><trkpt lat="47.394217040620354" lon="-2.4652785491977705"><ele>17.0</ele><time>2026-03-22T16:12:09Z</time></trkpt><trkpt lat="47.39436478270517" lon="-2.4654837130675076"><ele>16.666666666666668</ele><time>2026-03-22T16:12:10Z</time></trkpt><trkpt lat="47.394508089921025" lon="-2.4656768117960364"><ele>16.333333333333332</ele><time>2026-03-22T16:12:11Z</time></trkpt><trkpt lat="47.39464950171162" lon="-2.4658701427104943"><ele>16.0</ele><time>2026-03-22T16:12:12Z</time></trkpt><trkpt lat="47.39479041906548" lon="-2.466064492987183"><ele>15.666666666666666</ele><time>2026-03-22T16:12:13Z</time></trkpt><trkpt lat="47.39492550453888" lon="-2.4662528817242606"><ele>15.333333333333332</ele><time>2026-03-22T16:12:14Z</time></trkpt><trkpt lat="47.39505126576682" lon="-2.4664300804924775"><ele>15.0</ele><time>2026-03-22T16:12:15Z</time></trkpt><trkpt lat="47.39516646083263" lon="-2.466592725507646"><ele>15.5</ele><time>2026-03-22T16:12:16Z</time></trkpt><trkpt lat="47.39527129866847" lon="-2.466746444813083"><ele>16.0</ele><time>2026-03-22T16:12:17Z</time></trkpt><trkpt lat="47.39536147848224" lon="-2.466894591868703"><ele>16.5</ele><time>2026-03-22T16:12:18Z</time></trkpt><trkpt lat="47.395449561388105" lon="-2.467042244220645"><ele>17.0</ele><time>2026-03-22T16:12:19Z</time></trkpt><trkpt lat="47.39554393039195" lon="-2.467203828930065"><ele>17.0</ele><time>2026-03-22T16:12:20Z</time></trkpt><trkpt lat="47.395633128899185" lon="-2.467375959311906"><ele>17.0</ele><time>2026-03-22T16:12:21Z</time></trkpt><trkpt lat="47.39570960796989" lon="-2.4675613412854522"><ele>17.0</ele><time>2026-03-22T16:12:22Z</time></trkpt><trkpt lat="47.39578828095855" lon="-2.467747680305983"><ele>17.0</ele><time>2026-03-22T16:12:23Z</time></trkpt><trkpt lat="47.39586689897546" lon="-2.4679332527552567"><ele>17.666666666666668</ele><time>2026-03-22T16:12:24Z</time></trkpt><trkpt lat="47.39594316333735" lon="-2.4681234013126647"><ele>18.333333333333332</ele><time>2026-03-22T16:12:25Z</time></trkpt><trkpt lat="47.396018256661044" lon="-2.468312730550148"><ele>19.0</ele><time>2026-03-22T16:12:26Z</time></trkpt><trkpt lat="47.396088458737196" lon="-2.468516666034962"><ele>19.0</ele><time>2026-03-22T16:12:27Z</time></trkpt><trkpt lat="47.396152536298764" lon="-2.4687276822758775"><ele>19.0</ele><time>2026-03-22T16:12:28Z</time></trkpt><trkpt lat="47.39621492323066" lon="-2.4689548692516805"><ele>19.0</ele><time>2026-03-22T16:12:29Z</time></trkpt><trkpt lat="47.3962715736389" lon="-2.469215640817851"><ele>19.666666666666664</ele><time>2026-03-22T16:12:30Z</time></trkpt><trkpt lat="47.39634582668976" lon="-2.469475810019018"><ele>20.333333333333332</ele><time>2026-03-22T16:12:31Z</time></trkpt><trkpt lat="47.396414720310624" lon="-2.469733242716659"><ele>21.0</ele><time>2026-03-22T16:12:32Z</time></trkpt><trkpt lat="47.39648655161799" lon="-2.469994388907515"><ele>21.333333333333332</ele><time>2026-03-22T16:12:33Z</time></trkpt><trkpt lat="47.39655467087978" lon="-2.4702723039445598"><ele>21.666666666666664</ele><time>2026-03-22T16:12:34Z</time></trkpt><trkpt lat="47.39663428387071" lon="-2.4705514931479633"><ele>22.0</ele><time>2026-03-22T16:12:35Z</time></trkpt><trkpt lat="47.39670203292408" lon="-2.470824682043366"><ele>21.333333333333332</ele><time>2026-03-22T16:12:36Z</time></trkpt><trkpt lat="47.39676988766106" lon="-2.4710939005642216"><ele>20.666666666666668</ele><time>2026-03-22T16:12:37Z</time></trkpt><trkpt lat="47.39684886626877" lon="-2.4713278194968016"><ele>20.0</ele><time>2026-03-22T16:12:38Z</time></trkpt><trkpt lat="47.39693161494457" lon="-2.4715854071692633"><ele>18.666666666666668</ele><time>2026-03-22T16:12:39Z</time></trkpt><trkpt lat="47.39699325668721" lon="-2.4718640095645323"><ele>17.333333333333332</ele><time>2026-03-22T16:12:40Z</time></trkpt><trkpt lat="47.39706034850606" lon="-2.472117804909452"><ele>16.0</ele><time>2026-03-22T16:12:41Z</time></trkpt><trkpt lat="47.397126979975496" lon="-2.472384232555606"><ele>17.0</ele><time>2026-03-22T16:12:42Z</time></trkpt><trkpt lat="47.397195262602544" lon="-2.4726442976764775"><ele>18.0</ele><time>2026-03-22T16:12:43Z</time></trkpt><trkpt lat="47.397261575810205" lon="-2.47289269469739"><ele>19.0</ele><time>2026-03-22T16:12:44Z</time></trkpt><trkpt lat="47.39732854220865" lon="-2.473122448539211"><ele>17.0</ele><time>2026-03-22T16:12:45Z</time></trkpt><trkpt lat="47.39738082866338" lon="-2.4733506714779936"><ele>15.0</ele><time>2026-03-22T16:12:46Z</time></trkpt><trkpt lat="47.39744805580804" lon="-2.473635218211257"><ele>13.0</ele><time>2026-03-22T16:12:47Z</time></trkpt><trkpt lat="47.39747269028447" lon="-2.473868404942305"><ele>11.666666666666666</ele><time>2026-03-22T16:12:48Z</time></trkpt><trkpt lat="47.39748807452699" lon="-2.4741225662804474"><ele>10.333333333333332</ele><time>2026-03-22T16:12:49Z</time></trkpt><trkpt lat="47.39751125122137" lon="-2.474381012859714"><ele>9.0</ele><time>2026-03-22T16:12:50Z</time></trkpt><trkpt lat="47.397508618553296" lon="-2.474643955040257"><ele>8.333333333333334</ele><time>2026-03-22T16:12:51Z</time></trkpt><trkpt lat="47.39752819752655" lon="-2.4749378373048656"><ele>7.666666666666667</ele><time>2026-03-22T16:12:52Z</time></trkpt><trkpt lat="47.397522833334705" lon="-2.475226128239818"><ele>7.0</ele><time>2026-03-22T16:12:53Z</time></trkpt><trkpt lat="47.39751605383983" lon="-2.4755151923588135"><ele>7.0</ele><time>2026-03-22T16:12:54Z</time></trkpt><trkpt lat="47.39749422149497" lon="-2.4757885215479476"><ele>7.0</ele><time>2026-03-22T16:12:55Z</time></trkpt><trkpt lat="47.397487592481944" lon="-2.476060239201023"><ele>7.0</ele><time>2026-03-22T16:12:56Z</time></trkpt><trkpt lat="47.39748252112374" lon="-2.476319580815438"><ele>6.333333333333334</ele><time>2026-03-22T16:12:57Z</time></trkpt><trkpt lat="47.397482023301876" lon="-2.4765590622985285"><ele>5.666666666666667</ele><time>2026-03-22T16:12:58.001Z</time></trkpt><trkpt lat="47.39748167745714" lon="-2.4767929136893443"><ele>5.0</ele><time>2026-03-22T16:12:59.001Z</time></trkpt><trkpt lat="47.39749943160685" lon="-2.4770063340211266"><ele>4.0</ele><time>2026-03-22T16:13:00.001Z</time></trkpt><trkpt lat="47.39753782867583" lon="-2.477226406883247"><ele>3.0</ele><time>2026-03-22T16:13:01.001Z</time></trkpt><trkpt lat="47.397594510751" lon="-2.4774686378274624"><ele>2.0</ele><time>2026-03-22T16:13:02.001Z</time></trkpt><trkpt lat="47.397680283125446" lon="-2.477705667089971"><ele>1.6666666666666665</ele><time>2026-03-22T16:13:03.001Z</time></trkpt><trkpt lat="47.39776965711852" lon="-2.4779459000434905"><ele>1.3333333333333333</ele><time>2026-03-22T16:13:04.001Z</time></trkpt><trkpt lat="47.39785125105181" lon="-2.478188515311413"><ele>1.0</ele><time>2026-03-22T16:13:05.001Z</time></trkpt><trkpt lat="47.397925478981854" lon="-2.478430270952891"><ele>1.0</ele><time>2026-03-22T16:13:06.001Z</time></trkpt><trkpt lat="47.39798749111365" lon="-2.478683288776492"><ele>1.0</ele><time>2026-03-22T16:13:07.001Z</time></trkpt><trkpt lat="47.398029928067814" lon="-2.478938278690428"><ele>1.0</ele><time>2026-03-22T16:13:08.001Z</time></trkpt><trkpt lat="47.3980489697785" lon="-2.479206217466358"><ele>1.3333333333333333</ele><time>2026-03-22T16:13:09.001Z</time></trkpt><trkpt lat="47.39805803477105" lon="-2.4795024311212885"><ele>1.6666666666666665</ele><time>2026-03-22T16:13:10.001Z</time></trkpt><trkpt lat="47.39806255722657" lon="-2.479805913359609"><ele>2.0</ele><time>2026-03-22T16:13:11.001Z</time></trkpt><trkpt lat="47.39807780248463" lon="-2.4800927780666564"><ele>3.666666666666667</ele><time>2026-03-22T16:13:12.001Z</time></trkpt><trkpt lat="47.39810604915555" lon="-2.4803498354772864"><ele>5.333333333333334</ele><time>2026-03-22T16:13:13Z</time></trkpt><trkpt lat="47.39815083409808" lon="-2.4805886216335904"><ele>7.0</ele><time>2026-03-22T16:13:14Z</time></trkpt><trkpt lat="47.398200159934575" lon="-2.4808413938749987"><ele>9.0</ele><time>2026-03-22T16:13:15Z</time></trkpt><trkpt lat="47.398272286571036" lon="-2.4811101068443953"><ele>11.0</ele><time>2026-03-22T16:13:16Z</time></trkpt><trkpt lat="47.39834798886505" lon="-2.481424790147447"><ele>13.0</ele><time>2026-03-22T16:13:17Z</time></trkpt><trkpt lat="47.39842415279173" lon="-2.4817669378042266"><ele>13.666666666666666</ele><time>2026-03-22T16:13:18Z</time></trkpt><trkpt lat="47.39849602097384" lon="-2.482073145675601"><ele>14.333333333333332</ele><time>2026-03-22T16:13:19Z</time></trkpt><trkpt lat="47.39856080892116" lon="-2.4823354255005268"><ele>15.0</ele><time>2026-03-22T16:13:20Z</time></trkpt><trkpt lat="47.39861135313842" lon="-2.482570929948376"><ele>15.0</ele><time>2026-03-22T16:13:21Z</time></trkpt><trkpt lat="47.39866485938425" lon="-2.4827910854515567"><ele>15.0</ele><time>2026-03-22T16:13:22Z</time></trkpt><trkpt lat="47.39871045143806" lon="-2.4829961368974716"><ele>15.0</ele><time>2026-03-22T16:13:23Z</time></trkpt><trkpt lat="47.39875645558909" lon="-2.4831789803320254"><ele>15.0</ele><time>2026-03-22T16:13:24Z</time></trkpt><trkpt lat="47.398795722795604" lon="-2.4833486519785137"><ele>15.0</ele><time>2026-03-22T16:13:25Z</time></trkpt><trkpt lat="47.39881270775247" lon="-2.4835032721659385"><ele>15.0</ele><time>2026-03-22T16:13:26Z</time></trkpt><trkpt lat="47.398835101618516" lon="-2.48364691291048"><ele>15.0</ele><time>2026-03-22T16:13:27Z</time></trkpt><trkpt lat="47.398850149823986" lon="-2.4837870021407342"><ele>15.0</ele><time>2026-03-22T16:13:28Z</time></trkpt><trkpt lat="47.398855820058486" lon="-2.4839128059905358"><ele>15.0</ele><time>2026-03-22T16:13:29Z</time></trkpt><trkpt lat="47.39887172108749" lon="-2.484027728390331"><ele>15.166666666666666</ele><time>2026-03-22T16:13:30Z</time></trkpt><trkpt lat="47.39890318952938" lon="-2.484146820034604"><ele>15.333333333333332</ele><time>2026-03-22T16:13:31Z</time></trkpt><trkpt lat="47.39893991907362" lon="-2.4842268471231064"><ele>15.5</ele><time>2026-03-22T16:13:32Z</time></trkpt><trkpt lat="47.398988506712506" lon="-2.4843555803608646"><ele>15.666666666666666</ele><time>2026-03-22T16:13:34Z</time></trkpt><trkpt lat="47.3989770182456" lon="-2.484465344171784"><ele>15.833333333333332</ele><time>2026-03-22T16:13:35Z</time></trkpt><trkpt lat="47.398990349872804" lon="-2.4846187402670536"><ele>16.0</ele><time>2026-03-22T16:13:36Z</time></trkpt><trkpt lat="47.399028878682074" lon="-2.4848096684704983"><ele>16.333333333333332</ele><time>2026-03-22T16:13:37Z</time></trkpt><trkpt lat="47.39908474627668" lon="-2.485039524814355"><ele>16.666666666666668</ele><time>2026-03-22T16:13:38Z</time></trkpt><trkpt lat="47.39915426561187" lon="-2.4853249187016875"><ele>17.0</ele><time>2026-03-22T16:13:39Z</time></trkpt><trkpt lat="47.39924211190713" lon="-2.4856225784830754"><ele>17.0</ele><time>2026-03-22T16:13:40Z</time></trkpt><trkpt lat="47.39935747909776" lon="-2.4859425915882656"><ele>17.0</ele><time>2026-03-22T16:13:41Z</time></trkpt><trkpt lat="47.39947095876011" lon="-2.4862578803842075"><ele>16.5</ele><time>2026-03-22T16:13:42Z</time></trkpt><trkpt lat="47.39958941780007" lon="-2.486561384648373"><ele>16.0</ele><time>2026-03-22T16:13:43Z</time></trkpt><trkpt lat="47.399697585993025" lon="-2.4868327369977647"><ele>15.333333333333332</ele><time>2026-03-22T16:13:44Z</time></trkpt><trkpt lat="47.39979810411879" lon="-2.487083980106786"><ele>14.666666666666668</ele><time>2026-03-22T16:13:45Z</time></trkpt><trkpt lat="47.39988798339824" lon="-2.4873194986859355"><ele>14.0</ele><time>2026-03-22T16:13:46Z</time></trkpt><trkpt lat="47.399974559659796" lon="-2.487537266048238"><ele>14.0</ele><time>2026-03-22T16:13:47Z</time></trkpt><trkpt lat="47.40005260507238" lon="-2.487755394746036"><ele>14.0</ele><time>2026-03-22T16:13:48Z</time></trkpt><trkpt lat="47.40012763951835" lon="-2.4879567416224377"><ele>14.0</ele><time>2026-03-22T16:13:49Z</time></trkpt><trkpt lat="47.40020717718339" lon="-2.4881417436452855"><ele>14.0</ele><time>2026-03-22T16:13:50Z</time></trkpt><trkpt lat="47.40027334526995" lon="-2.4883185971460713"><ele>14.0</ele><time>2026-03-22T16:13:51Z</time></trkpt><trkpt lat="47.400339394188464" lon="-2.488502233188319"><ele>14.0</ele><time>2026-03-22T16:13:52Z</time></trkpt><trkpt lat="47.400423586123466" lon="-2.4887001936107853"><ele>14.0</ele><time>2026-03-22T16:13:53Z</time></trkpt><trkpt lat="47.40051327112497" lon="-2.4889498487674597"><ele>14.0</ele><time>2026-03-22T16:13:54Z</time></trkpt><trkpt lat="47.40061557542824" lon="-2.4892307524446635"><ele>14.0</ele><time>2026-03-22T16:13:55Z</time></trkpt><trkpt lat="47.40072808306732" lon="-2.4895248244178223"><ele>14.0</ele><time>2026-03-22T16:13:56Z</time></trkpt><trkpt lat="47.400817309210744" lon="-2.4897825925432717"><ele>13.75</ele><time>2026-03-22T16:13:57Z</time></trkpt><trkpt lat="47.40089118432126" lon="-2.4900056444998833"><ele>13.5</ele><time>2026-03-22T16:13:58Z</time></trkpt><trkpt lat="47.4009613844901" lon="-2.490181971589"><ele>13.25</ele><time>2026-03-22T16:13:59Z</time></trkpt><trkpt lat="47.401010867061466" lon="-2.490330960709635"><ele>13.0</ele><time>2026-03-22T16:14:00Z</time></trkpt><trkpt lat="47.40105755070214" lon="-2.490463456748744"><ele>12.833333333333332</ele><time>2026-03-22T16:14:01Z</time></trkpt><trkpt lat="47.40110676549995" lon="-2.490556434929619"><ele>12.666666666666666</ele><time>2026-03-22T16:14:02Z</time></trkpt><trkpt lat="47.40116940358845" lon="-2.490617434159869"><ele>12.5</ele><time>2026-03-22T16:14:03Z</time></trkpt><trkpt lat="47.40124738487675" lon="-2.4906309943355005"><ele>12.333333333333332</ele><time>2026-03-22T16:14:04Z</time></trkpt><trkpt lat="47.40131737682427" lon="-2.4905967043310397"><ele>12.166666666666666</ele><time>2026-03-22T16:14:05Z</time></trkpt><trkpt lat="47.40134530020316" lon="-2.490496137448526"><ele>12.0</ele><time>2026-03-22T16:14:06Z</time></trkpt><trkpt lat="47.40135098036566" lon="-2.4903741784086977"><ele>12.0</ele><time>2026-03-22T16:14:07Z</time></trkpt><trkpt lat="47.401344506067446" lon="-2.490218966434141"><ele>12.0</ele><time>2026-03-22T16:14:08Z</time></trkpt><trkpt lat="47.40134176940081" lon="-2.490025146317086"><ele>12.0</ele><time>2026-03-22T16:14:09Z</time></trkpt><trkpt lat="47.40134775738723" lon="-2.4898234745266246"><ele>12.0</ele><time>2026-03-22T16:14:10Z</time></trkpt><trkpt lat="47.401364926697696" lon="-2.489621071908041"><ele>11.666666666666666</ele><time>2026-03-22T16:14:11Z</time></trkpt><trkpt lat="47.40140320590143" lon="-2.4894007001696288"><ele>11.333333333333332</ele><time>2026-03-22T16:14:12Z</time></trkpt><trkpt lat="47.40144591012961" lon="-2.4891819666077875"><ele>11.0</ele><time>2026-03-22T16:14:13Z</time></trkpt><trkpt lat="47.40149908858147" lon="-2.4889741638073826"><ele>11.0</ele><time>2026-03-22T16:14:14Z</time></trkpt><trkpt lat="47.40156239949515" lon="-2.4887949554078324"><ele>11.0</ele><time>2026-03-22T16:14:15Z</time></trkpt><trkpt lat="47.401624014366284" lon="-2.4886219496503204"><ele>11.0</ele><time>2026-03-22T16:14:16Z</time></trkpt><trkpt lat="47.401687137125144" lon="-2.488465953783244"><ele>11.0</ele><time>2026-03-22T16:14:17Z</time></trkpt><trkpt lat="47.40174416418306" lon="-2.4883325905495224"><ele>11.200000000000001</ele><time>2026-03-22T16:14:18Z</time></trkpt><trkpt lat="47.40179422281669" lon="-2.4882256896335453"><ele>11.4</ele><time>2026-03-22T16:14:19Z</time></trkpt><trkpt lat="47.40184404285395" lon="-2.4881494141371294"><ele>11.6</ele><time>2026-03-22T16:14:20Z</time></trkpt><trkpt lat="47.401886336434146" lon="-2.488076018603405"><ele>11.8</ele><time>2026-03-22T16:14:21Z</time></trkpt><trkpt lat="47.40197060941534" lon="-2.4879622737745817"><ele>12.0</ele><time>2026-03-22T16:14:23Z</time></trkpt><trkpt lat="47.40208045602865" lon="-2.487861345855132"><ele>12.0</ele><time>2026-03-22T16:14:25Z</time></trkpt><trkpt lat="47.402150469601644" lon="-2.4877941410822277"><ele>12.0</ele><time>2026-03-22T16:14:26Z</time></trkpt><trkpt lat="47.40223772795543" lon="-2.487703621141763"><ele>12.0</ele><time>2026-03-22T16:14:27Z</time></trkpt><trkpt lat="47.402339216378095" lon="-2.487612437191923"><ele>12.0</ele><time>2026-03-22T16:14:28Z</time></trkpt><trkpt lat="47.40245129988766" lon="-2.4875183096216222"><ele>12.0</ele><time>2026-03-22T16:14:29Z</time></trkpt><trkpt lat="47.40257965842832" lon="-2.487436451541717"><ele>12.0</ele><time>2026-03-22T16:14:30Z</time></trkpt><trkpt lat="47.40270930606518" lon="-2.4873469432833883"><ele>12.0</ele><time>2026-03-22T16:14:31Z</time></trkpt><trkpt lat="47.40283935247108" lon="-2.4872595828106427"><ele>12.0</ele><time>2026-03-22T16:14:32Z</time></trkpt><trkpt lat="47.40297270126508" lon="-2.487160553031992"><ele>12.0</ele><time>2026-03-22T16:14:33Z</time></trkpt><trkpt lat="47.40309937745187" lon="-2.487080681184485"><ele>12.0</ele><time>2026-03-22T16:14:34Z</time></trkpt><trkpt lat="47.40322607484995" lon="-2.4869959928319263"><ele>12.0</ele><time>2026-03-22T16:14:35Z</time></trkpt><trkpt lat="47.403347843195" lon="-2.486906819837559"><ele>12.0</ele><time>2026-03-22T16:14:36Z</time></trkpt><trkpt lat="47.40346663847183" lon="-2.4868207820409802"><ele>12.0</ele><time>2026-03-22T16:14:37Z</time></trkpt><trkpt lat="47.40358576518568" lon="-2.4867358657827747"><ele>12.0</ele><time>2026-03-22T16:14:38Z</time></trkpt><trkpt lat="47.403710392977466" lon="-2.4866536420407037"><ele>12.0</ele><time>2026-03-22T16:14:39Z</time></trkpt><trkpt lat="47.403833439695944" lon="-2.486574510487342"><ele>12.0</ele><time>2026-03-22T16:14:40Z</time></trkpt><trkpt lat="47.40394865218118" lon="-2.4864936239749857"><ele>12.0</ele><time>2026-03-22T16:14:41Z</time></trkpt><trkpt lat="47.404067786107206" lon="-2.486412553710985"><ele>11.5</ele><time>2026-03-22T16:14:42Z</time></trkpt><trkpt lat="47.40417822212728" lon="-2.4863397997854135"><ele>11.0</ele><time>2026-03-22T16:14:43Z</time></trkpt><trkpt lat="47.40428681382887" lon="-2.486263006098403"><ele>10.5</ele><time>2026-03-22T16:14:44Z</time></trkpt><trkpt lat="47.40438926884707" lon="-2.4861911411508557"><ele>10.0</ele><time>2026-03-22T16:14:45Z</time></trkpt><trkpt lat="47.4044876345849" lon="-2.486127765878399"><ele>9.8</ele><time>2026-03-22T16:14:46Z</time></trkpt><trkpt lat="47.404573843477465" lon="-2.486066353706387"><ele>9.6</ele><time>2026-03-22T16:14:47Z</time></trkpt><trkpt lat="47.404655308690195" lon="-2.4860048210539536"><ele>9.4</ele><time>2026-03-22T16:14:48Z</time></trkpt><trkpt lat="47.40472851804669" lon="-2.4859353593377453"><ele>9.2</ele><time>2026-03-22T16:14:49Z</time></trkpt><trkpt lat="47.4047913167516" lon="-2.485857362582004"><ele>9.0</ele><time>2026-03-22T16:14:50Z</time></trkpt><trkpt lat="47.40487120763495" lon="-2.4857853353185986"><ele>9.0</ele><time>2026-03-22T16:14:51Z</time></trkpt><trkpt lat="47.40498949152419" lon="-2.48571680419335"><ele>9.0</ele><time>2026-03-22T16:14:52Z</time></trkpt><trkpt lat="47.40511225110428" lon="-2.485637030132695"><ele>9.0</ele><time>2026-03-22T16:14:53Z</time></trkpt><trkpt lat="47.40523252962889" lon="-2.4855400141145396"><ele>9.0</ele><time>2026-03-22T16:14:54Z</time></trkpt><trkpt lat="47.40535074007586" lon="-2.4854251043915276"><ele>9.0</ele><time>2026-03-22T16:14:55Z</time></trkpt><trkpt lat="47.40546591868724" lon="-2.485326641707573"><ele>9.0</ele><time>2026-03-22T16:14:56Z</time></trkpt><trkpt lat="47.40557650940179" lon="-2.4852223925886854"><ele>9.0</ele><time>2026-03-22T16:14:57Z</time></trkpt><trkpt lat="47.405682886147275" lon="-2.4851054030228727"><ele>9.0</ele><time>2026-03-22T16:14:58Z</time></trkpt><trkpt lat="47.40578996341476" lon="-2.4849977801425234"><ele>9.0</ele><time>2026-03-22T16:14:59Z</time></trkpt><trkpt lat="47.40589324620045" lon="-2.4848932546744016"><ele>9.0</ele><time>2026-03-22T16:15:00Z</time></trkpt><trkpt lat="47.405990112602446" lon="-2.484789759494647"><ele>9.0</ele><time>2026-03-22T16:15:01Z</time></trkpt><trkpt lat="47.40608093271351" lon="-2.484687921996483"><ele>9.0</ele><time>2026-03-22T16:15:02Z</time></trkpt><trkpt lat="47.4061645653516" lon="-2.4846042217730813"><ele>8.833333333333334</ele><time>2026-03-22T16:15:03Z</time></trkpt><trkpt lat="47.40624338097634" lon="-2.4845304487699975"><ele>8.666666666666666</ele><time>2026-03-22T16:15:04.001Z</time></trkpt><trkpt lat="47.40631225785832" lon="-2.4844656236092146"><ele>8.5</ele><time>2026-03-22T16:15:05.001Z</time></trkpt><trkpt lat="47.40637381247536" lon="-2.4844080236244737"><ele>8.333333333333332</ele><time>2026-03-22T16:15:06.001Z</time></trkpt><trkpt lat="47.40644597620197" lon="-2.484345735679154"><ele>8.166666666666666</ele><time>2026-03-22T16:15:07.001Z</time></trkpt><trkpt lat="47.40652329348131" lon="-2.4843000251724505"><ele>8.0</ele><time>2026-03-22T16:15:08.001Z</time></trkpt><trkpt lat="47.40660417204418" lon="-2.484260414195585"><ele>8.0</ele><time>2026-03-22T16:15:09.001Z</time></trkpt><trkpt lat="47.40668318960662" lon="-2.484233318289024"><ele>8.0</ele><time>2026-03-22T16:15:10.001Z</time></trkpt><trkpt lat="47.40675401601085" lon="-2.4842163334812217"><ele>8.0</ele><time>2026-03-22T16:15:11.001Z</time></trkpt><trkpt lat="47.40685539869783" lon="-2.484183266154703"><ele>8.0</ele><time>2026-03-22T16:15:13.001Z</time></trkpt><trkpt lat="47.406896415726685" lon="-2.4840714391533463"><ele>8.0</ele><time>2026-03-22T16:15:15.001Z</time></trkpt><trkpt lat="47.406856877057336" lon="-2.4838871838062038"><ele>8.200000000000001</ele><time>2026-03-22T16:15:17.001Z</time></trkpt><trkpt lat="47.40681762039752" lon="-2.4837632019716214"><ele>8.4</ele><time>2026-03-22T16:15:18.001Z</time></trkpt><trkpt lat="47.406780166550654" lon="-2.483617406531233"><ele>8.600000000000001</ele><time>2026-03-22T16:15:19.001Z</time></trkpt><trkpt lat="47.40674480247179" lon="-2.4834485874539554"><ele>8.8</ele><time>2026-03-22T16:15:20.001Z</time></trkpt><trkpt lat="47.40671038235129" lon="-2.4832795160419865"><ele>9.0</ele><time>2026-03-22T16:15:21.001Z</time></trkpt><trkpt lat="47.40668179474377" lon="-2.483127034222795"><ele>9.0</ele><time>2026-03-22T16:15:22.001Z</time></trkpt><trkpt lat="47.406675243318034" lon="-2.4829807423047234"><ele>9.0</ele><time>2026-03-22T16:15:23.001Z</time></trkpt><trkpt lat="47.406659926043396" lon="-2.4828300372155905"><ele>9.0</ele><time>2026-03-22T16:15:24.001Z</time></trkpt><trkpt lat="47.40662993809437" lon="-2.482662793467419"><ele>9.0</ele><time>2026-03-22T16:15:25.001Z</time></trkpt><trkpt lat="47.40657740859211" lon="-2.482504654714678"><ele>9.0</ele><time>2026-03-22T16:15:26.001Z</time></trkpt><trkpt lat="47.406521792378314" lon="-2.4823769448976534"><ele>8.8</ele><time>2026-03-22T16:15:27.001Z</time></trkpt><trkpt lat="47.40647040869917" lon="-2.4822648436797006"><ele>8.600000000000001</ele><time>2026-03-22T16:15:28.001Z</time></trkpt><trkpt lat="47.406431760717894" lon="-2.482163083852216"><ele>8.4</ele><time>2026-03-22T16:15:29.001Z</time></trkpt><trkpt lat="47.40640648337844" lon="-2.482067309775198"><ele>8.200000000000001</ele><time>2026-03-22T16:15:30.001Z</time></trkpt><trkpt lat="47.40635948702378" lon="-2.481912513877946"><ele>8.0</ele><time>2026-03-22T16:15:32Z</time></trkpt><trkpt lat="47.406315715835326" lon="-2.4817796981380353"><ele>7.999999999999999</ele><time>2026-03-22T16:15:34Z</time></trkpt><trkpt lat="47.40629110399421" lon="-2.481671071216523"><ele>8.0</ele><time>2026-03-22T16:15:36Z</time></trkpt><trkpt lat="47.406272804061174" lon="-2.4815614001001984"><ele>8.0</ele><time>2026-03-22T16:15:42Z</time></trkpt><trkpt lat="47.406244163460315" lon="-2.48147002877778"><ele>8.0</ele><time>2026-03-22T16:15:44Z</time></trkpt><trkpt lat="47.40631056180682" lon="-2.481404954594441"><ele>7.999999999999999</ele><time>2026-03-22T16:15:46Z</time></trkpt><trkpt lat="47.406418184557864" lon="-2.4813934518120133"><ele>8.0</ele><time>2026-03-22T16:15:48Z</time></trkpt><trkpt lat="47.40649682303154" lon="-2.481385232131471"><ele>8.0</ele><time>2026-03-22T16:15:49Z</time></trkpt><trkpt lat="47.40658391284754" lon="-2.4813570815413653"><ele>8.0</ele><time>2026-03-22T16:15:50Z</time></trkpt><trkpt lat="47.406672320456885" lon="-2.481334540589255"><ele>8.0</ele><time>2026-03-22T16:15:51Z</time></trkpt><trkpt lat="47.40676402513701" lon="-2.4813226150603076"><ele>8.0</ele><time>2026-03-22T16:15:52Z</time></trkpt><trkpt lat="47.40685797415593" lon="-2.4813034931888835"><ele>8.0</ele><time>2026-03-22T16:15:53Z</time></trkpt><trkpt lat="47.40694397432404" lon="-2.481280303292305"><ele>7.999999999999999</ele><time>2026-03-22T16:15:54Z</time></trkpt><trkpt lat="47.40702818344073" lon="-2.4812634732847227"><ele>8.0</ele><time>2026-03-22T16:15:55Z</time></trkpt><trkpt lat="47.40711324940692" lon="-2.48124336070344"><ele>8.0</ele><time>2026-03-22T16:15:56Z</time></trkpt><trkpt lat="47.4071899440835" lon="-2.481237696097617"><ele>8.0</ele><time>2026-03-22T16:15:57Z</time></trkpt><trkpt lat="47.4072673842689" lon="-2.481207493694493"><ele>7.999999999999999</ele><time>2026-03-22T16:15:58Z</time></trkpt><trkpt lat="47.40732960589273" lon="-2.4811688830339707"><ele>8.0</ele><time>2026-03-22T16:15:59Z</time></trkpt><trkpt lat="47.4074440346013" lon="-2.481105818805529"><ele>8.0</ele><time>2026-03-22T16:16:01Z</time></trkpt><trkpt lat="47.40751834667294" lon="-2.4809692358866005"><ele>8.0</ele><time>2026-03-22T16:16:03Z</time></trkpt><trkpt lat="47.407626964298906" lon="-2.48086899194229"><ele>8.0</ele><time>2026-03-22T16:16:05Z</time></trkpt><trkpt lat="47.40769502187443" lon="-2.4808245288737254"><ele>8.0</ele><time>2026-03-22T16:16:06Z</time></trkpt><trkpt lat="47.40776932748573" lon="-2.4807712907864956"><ele>8.0</ele><time>2026-03-22T16:16:07Z</time></trkpt><trkpt lat="47.40785408572284" lon="-2.480717630926473"><ele>8.0</ele><time>2026-03-22T16:16:08Z</time></trkpt><trkpt lat="47.407945098813904" lon="-2.480658506397222"><ele>8.0</ele><time>2026-03-22T16:16:09Z</time></trkpt><trkpt lat="47.4080406708812" lon="-2.4806009072171267"><ele>8.0</ele><time>2026-03-22T16:16:10Z</time></trkpt><trkpt lat="47.40814473601156" lon="-2.4805459400480157"><ele>8.0</ele><time>2026-03-22T16:16:11Z</time></trkpt><trkpt lat="47.408238114273175" lon="-2.480482652826077"><ele>8.0</ele><time>2026-03-22T16:16:12Z</time></trkpt><trkpt lat="47.40832214632438" lon="-2.4804321978125596"><ele>7.666666666666666</ele><time>2026-03-22T16:16:13Z</time></trkpt><trkpt lat="47.40840231544369" lon="-2.4803890608632346"><ele>7.333333333333333</ele><time>2026-03-22T16:16:14Z</time></trkpt><trkpt lat="47.408476104971456" lon="-2.480346460507222"><ele>7.0</ele><time>2026-03-22T16:16:15Z</time></trkpt><trkpt lat="47.40853321881168" lon="-2.480301270730564"><ele>6.666666666666666</ele><time>2026-03-22T16:16:16Z</time></trkpt><trkpt lat="47.40859298587622" lon="-2.4802668057029957"><ele>6.333333333333333</ele><time>2026-03-22T16:16:17Z</time></trkpt><trkpt lat="47.40869646969113" lon="-2.480218028684747"><ele>6.0</ele><time>2026-03-22T16:16:19Z</time></trkpt><trkpt lat="47.408758243995884" lon="-2.480175137907579"><ele>6.199999999999999</ele><time>2026-03-22T16:16:20Z</time></trkpt><trkpt lat="47.40883942468257" lon="-2.4801083711910334"><ele>6.3999999999999995</ele><time>2026-03-22T16:16:21Z</time></trkpt><trkpt lat="47.40893380800091" lon="-2.480046068485987"><ele>6.6</ele><time>2026-03-22T16:16:22Z</time></trkpt><trkpt lat="47.40902653871815" lon="-2.4799876386055226"><ele>6.8</ele><time>2026-03-22T16:16:23Z</time></trkpt><trkpt lat="47.40912509510874" lon="-2.4799292140748017"><ele>7.0</ele><time>2026-03-22T16:16:24Z</time></trkpt><trkpt lat="47.40924050291958" lon="-2.4798535617831496"><ele>7.0</ele><time>2026-03-22T16:16:25Z</time></trkpt><trkpt lat="47.40935866466502" lon="-2.4797753522551385"><ele>7.0</ele><time>2026-03-22T16:16:26Z</time></trkpt><trkpt lat="47.409474508785806" lon="-2.4796915044589243"><ele>7.0</ele><time>2026-03-22T16:16:27Z</time></trkpt><trkpt lat="47.40958076878453" lon="-2.4796152156287157"><ele>7.0</ele><time>2026-03-22T16:16:28Z</time></trkpt><trkpt lat="47.40968845087883" lon="-2.479556118863765"><ele>7.6</ele><time>2026-03-22T16:16:29Z</time></trkpt><trkpt lat="47.409782942341714" lon="-2.479499193745003"><ele>8.2</ele><time>2026-03-22T16:16:30Z</time></trkpt><trkpt lat="47.409880222094124" lon="-2.4794395948843704"><ele>8.8</ele><time>2026-03-22T16:16:31Z</time></trkpt><trkpt lat="47.409974165471695" lon="-2.4793860723775754"><ele>9.4</ele><time>2026-03-22T16:16:32Z</time></trkpt><trkpt lat="47.41006705524898" lon="-2.4793421821018202"><ele>10.0</ele><time>2026-03-22T16:16:33Z</time></trkpt><trkpt lat="47.41016054911148" lon="-2.479314718538454"><ele>10.0</ele><time>2026-03-22T16:16:34Z</time></trkpt><trkpt lat="47.41025404084525" lon="-2.479282724561012"><ele>10.0</ele><time>2026-03-22T16:16:35Z</time></trkpt><trkpt lat="47.41034582936151" lon="-2.4792618199378675"><ele>10.0</ele><time>2026-03-22T16:16:36Z</time></trkpt><trkpt lat="47.41042502637284" lon="-2.4792339028273744"><ele>10.0</ele><time>2026-03-22T16:16:37Z</time></trkpt><trkpt lat="47.4104947251371" lon="-2.4792049425312337"><ele>10.0</ele><time>2026-03-22T16:16:38Z</time></trkpt><trkpt lat="47.410559334882436" lon="-2.479157556570782"><ele>10.0</ele><time>2026-03-22T16:16:40Z</time></trkpt><trkpt lat="47.410644068098264" lon="-2.4790778852313258"><ele>10.25</ele><time>2026-03-22T16:16:43Z</time></trkpt><trkpt lat="47.41074248069679" lon="-2.478942333374783"><ele>10.5</ele><time>2026-03-22T16:16:45Z</time></trkpt><trkpt lat="47.410800658858165" lon="-2.478841733887374"><ele>10.75</ele><time>2026-03-22T16:16:46Z</time></trkpt><trkpt lat="47.410868523096184" lon="-2.4787084250708316"><ele>11.0</ele><time>2026-03-22T16:16:47Z</time></trkpt><trkpt lat="47.41093046685033" lon="-2.4785646550469105"><ele>11.0</ele><time>2026-03-22T16:16:48Z</time></trkpt><trkpt lat="47.410987046453215" lon="-2.478432802874494"><ele>11.0</ele><time>2026-03-22T16:16:49Z</time></trkpt><trkpt lat="47.411045542715705" lon="-2.4783029835412584"><ele>11.0</ele><time>2026-03-22T16:16:50Z</time></trkpt><trkpt lat="47.411108638837916" lon="-2.4781874467171274"><ele>11.0</ele><time>2026-03-22T16:16:51Z</time></trkpt><trkpt lat="47.411167327422994" lon="-2.478063637113994"><ele>11.0</ele><time>2026-03-22T16:16:52Z</time></trkpt><trkpt lat="47.4112258543993" lon="-2.4779359768700258"><ele>11.0</ele><time>2026-03-22T16:16:53Z</time></trkpt><trkpt lat="47.411267952318624" lon="-2.4778153695106417"><ele>11.0</ele><time>2026-03-22T16:16:54Z</time></trkpt><trkpt lat="47.41132561939084" lon="-2.4777003812253526"><ele>11.0</ele><time>2026-03-22T16:16:55Z</time></trkpt><trkpt lat="47.41138396725866" lon="-2.4775874190324085"><ele>11.0</ele><time>2026-03-22T16:16:56Z</time></trkpt><trkpt lat="47.41144185615822" lon="-2.4774752268955194"><ele>11.0</ele><time>2026-03-22T16:16:57Z</time></trkpt><trkpt lat="47.41150184334161" lon="-2.477365325111132"><ele>11.0</ele><time>2026-03-22T16:16:58Z</time></trkpt><trkpt lat="47.41156629869598" lon="-2.4772504768366583"><ele>11.0</ele><time>2026-03-22T16:16:59Z</time></trkpt><trkpt lat="47.411632404242894" lon="-2.4771336916908924"><ele>11.0</ele><time>2026-03-22T16:17:00Z</time></trkpt><trkpt lat="47.41169659361758" lon="-2.477014199808854"><ele>11.0</ele><time>2026-03-22T16:17:01Z</time></trkpt><trkpt lat="47.41177067949351" lon="-2.476897169057212"><ele>11.0</ele><time>2026-03-22T16:17:02Z</time></trkpt><trkpt lat="47.41184525111856" lon="-2.4767837573984703"><ele>11.0</ele><time>2026-03-22T16:17:03Z</time></trkpt><trkpt lat="47.41190376413129" lon="-2.4766694189140264"><ele>11.0</ele><time>2026-03-22T16:17:04Z</time></trkpt><trkpt lat="47.411974280101504" lon="-2.476558238767982"><ele>11.0</ele><time>2026-03-22T16:17:05Z</time></trkpt><trkpt lat="47.412037068787335" lon="-2.476454180455459"><ele>11.0</ele><time>2026-03-22T16:17:06Z</time></trkpt><trkpt lat="47.41211134308511" lon="-2.476348786085661"><ele>11.0</ele><time>2026-03-22T16:17:07Z</time></trkpt><trkpt lat="47.41217362169052" lon="-2.4762325606111872"><ele>11.0</ele><time>2026-03-22T16:17:08Z</time></trkpt><trkpt lat="47.412246132664826" lon="-2.4761158145353517"><ele>11.0</ele><time>2026-03-22T16:17:09Z</time></trkpt><trkpt lat="47.412324789144186" lon="-2.476002171036127"><ele>11.0</ele><time>2026-03-22T16:17:10.001Z</time></trkpt><trkpt lat="47.41240689299056" lon="-2.475887983825905"><ele>11.0</ele><time>2026-03-22T16:17:11.001Z</time></trkpt><trkpt lat="47.41249523709479" lon="-2.475774420569451"><ele>11.0</ele><time>2026-03-22T16:17:12.001Z</time></trkpt><trkpt lat="47.41257825177915" lon="-2.475660527625769"><ele>11.0</ele><time>2026-03-22T16:17:13.001Z</time></trkpt><trkpt lat="47.41266342651254" lon="-2.4755551809628353"><ele>11.0</ele><time>2026-03-22T16:17:14.001Z</time></trkpt><trkpt lat="47.41275402884254" lon="-2.475457891518011"><ele>11.0</ele><time>2026-03-22T16:17:15.001Z</time></trkpt><trkpt lat="47.41283710554957" lon="-2.475349936095463"><ele>11.0</ele><time>2026-03-22T16:17:16.001Z</time></trkpt><trkpt lat="47.41291969698064" lon="-2.475242457276406"><ele>11.0</ele><time>2026-03-22T16:17:17.001Z</time></trkpt><trkpt lat="47.41301222143299" lon="-2.475137157995911"><ele>11.5</ele><time>2026-03-22T16:17:18.001Z</time></trkpt><trkpt lat="47.41310432756611" lon="-2.4750236291394367"><ele>12.0</ele><time>2026-03-22T16:17:19.001Z</time></trkpt><trkpt lat="47.41319821600743" lon="-2.4749257818795622"><ele>12.5</ele><time>2026-03-22T16:17:20.001Z</time></trkpt><trkpt lat="47.41328726474068" lon="-2.4748169717243265"><ele>13.0</ele><time>2026-03-22T16:17:21.001Z</time></trkpt><trkpt lat="47.41338637272533" lon="-2.474712030312733"><ele>13.0</ele><time>2026-03-22T16:17:22.001Z</time></trkpt><trkpt lat="47.41348008181933" lon="-2.4745992364256884"><ele>13.0</ele><time>2026-03-22T16:17:23.001Z</time></trkpt><trkpt lat="47.41357289241831" lon="-2.474484534591048"><ele>13.0</ele><time>2026-03-22T16:17:24.001Z</time></trkpt><trkpt lat="47.413665285704056" lon="-2.474373167316403"><ele>13.0</ele><time>2026-03-22T16:17:25.001Z</time></trkpt><trkpt lat="47.41376118718194" lon="-2.4742693816284795"><ele>12.25</ele><time>2026-03-22T16:17:26.001Z</time></trkpt><trkpt lat="47.41384974870748" lon="-2.4741571000313005"><ele>11.5</ele><time>2026-03-22T16:17:27.001Z</time></trkpt><trkpt lat="47.413939263963016" lon="-2.4740527694388956"><ele>10.75</ele><time>2026-03-22T16:17:28.001Z</time></trkpt><trkpt lat="47.414029642495265" lon="-2.4739477694230185"><ele>10.0</ele><time>2026-03-22T16:17:29.001Z</time></trkpt><trkpt lat="47.41411698490845" lon="-2.473840108012826"><ele>9.75</ele><time>2026-03-22T16:17:30.001Z</time></trkpt><trkpt lat="47.41420952871528" lon="-2.4737286014796083"><ele>9.5</ele><time>2026-03-22T16:17:31Z</time></trkpt><trkpt lat="47.41430559686504" lon="-2.4736234453248094"><ele>9.25</ele><time>2026-03-22T16:17:32Z</time></trkpt><trkpt lat="47.41440793707966" lon="-2.4735191961135197"><ele>9.0</ele><time>2026-03-22T16:17:33Z</time></trkpt><trkpt lat="47.41451647137077" lon="-2.4734258165623424"><ele>9.0</ele><time>2026-03-22T16:17:34Z</time></trkpt><trkpt lat="47.41462684352062" lon="-2.473342536288371"><ele>9.0</ele><time>2026-03-22T16:17:35Z</time></trkpt><trkpt lat="47.41473600412426" lon="-2.4732659007693756"><ele>9.0</ele><time>2026-03-22T16:17:36Z</time></trkpt><trkpt lat="47.414837761654105" lon="-2.473174585257986"><ele>9.0</ele><time>2026-03-22T16:17:37Z</time></trkpt><trkpt lat="47.414941530713804" lon="-2.4731076683460866"><ele>8.75</ele><time>2026-03-22T16:17:38Z</time></trkpt><trkpt lat="47.41505639662091" lon="-2.4730503612329104"><ele>8.5</ele><time>2026-03-22T16:17:39Z</time></trkpt><trkpt lat="47.41516454465888" lon="-2.4729909281254168"><ele>8.25</ele><time>2026-03-22T16:17:40Z</time></trkpt><trkpt lat="47.41525787090469" lon="-2.4729084403287755"><ele>8.0</ele><time>2026-03-22T16:17:41Z</time></trkpt><trkpt lat="47.41536160011426" lon="-2.4728441472510525"><ele>7.800000000000001</ele><time>2026-03-22T16:17:42Z</time></trkpt><trkpt lat="47.41546303795153" lon="-2.4727844244538013"><ele>7.6000000000000005</ele><time>2026-03-22T16:17:43Z</time></trkpt><trkpt lat="47.415558259532595" lon="-2.472716704304978"><ele>7.3999999999999995</ele><time>2026-03-22T16:17:44Z</time></trkpt><trkpt lat="47.415649561083285" lon="-2.4726562016011164"><ele>7.199999999999999</ele><time>2026-03-22T16:17:45Z</time></trkpt><trkpt lat="47.415737945102364" lon="-2.4725892463525856"><ele>7.0</ele><time>2026-03-22T16:17:46Z</time></trkpt><trkpt lat="47.41582026153407" lon="-2.472510330878725"><ele>6.666666666666667</ele><time>2026-03-22T16:17:47Z</time></trkpt><trkpt lat="47.415888935469404" lon="-2.472415664730475"><ele>6.333333333333334</ele><time>2026-03-22T16:17:48Z</time></trkpt><trkpt lat="47.41594535157832" lon="-2.4723048719800365"><ele>6.0</ele><time>2026-03-22T16:17:49Z</time></trkpt><trkpt lat="47.41598640146199" lon="-2.4721890787809144"><ele>5.666666666666667</ele><time>2026-03-22T16:17:50Z</time></trkpt><trkpt lat="47.41599885620745" lon="-2.4720552759251753"><ele>5.333333333333334</ele><time>2026-03-22T16:17:51Z</time></trkpt><trkpt lat="47.41599494394476" lon="-2.4719440388147214"><ele>5.0</ele><time>2026-03-22T16:17:52Z</time></trkpt><trkpt lat="47.415987594385484" lon="-2.4718490336602077"><ele>5.0</ele><time>2026-03-22T16:17:53Z</time></trkpt><trkpt lat="47.415981556551124" lon="-2.4717448568166254"><ele>5.0</ele><time>2026-03-22T16:17:55Z</time></trkpt><trkpt lat="47.41597278044144" lon="-2.4716438651764787"><ele>5.0</ele><time>2026-03-22T16:17:57Z</time></trkpt><trkpt lat="47.4159661695676" lon="-2.471536445031738"><ele>5.0</ele><time>2026-03-22T16:17:59Z</time></trkpt><trkpt lat="47.41595573408467" lon="-2.4714108865810385"><ele>5.0</ele><time>2026-03-22T16:18:01Z</time></trkpt><trkpt lat="47.41594460480126" lon="-2.4713004030448036"><ele>5.0</ele><time>2026-03-22T16:18:03Z</time></trkpt><trkpt lat="47.41594145937223" lon="-2.471202023428789"><ele>5.0</ele><time>2026-03-22T16:18:05Z</time></trkpt><trkpt lat="47.41592464171218" lon="-2.4710764095594815"><ele>5.0</ele><time>2026-03-22T16:18:08Z</time></trkpt><trkpt lat="47.41592014560441" lon="-2.4709758134220117"><ele>5.0</ele><time>2026-03-22T16:18:11Z</time></trkpt><trkpt lat="47.41591525512409" lon="-2.470857594819817"><ele>5.0</ele><time>2026-03-22T16:18:15Z</time></trkpt><trkpt lat="47.415945194280084" lon="-2.470762191703667"><ele>5.0</ele><time>2026-03-22T16:18:48Z</time></trkpt><trkpt lat="47.415951395296275" lon="-2.4706524986696605"><ele>5.0</ele><time>2026-03-22T16:18:51Z</time></trkpt><trkpt lat="47.415951907667925" lon="-2.470539159153328"><ele>5.0</ele><time>2026-03-22T16:18:53Z</time></trkpt><trkpt lat="47.415948394335665" lon="-2.4704155249396083"><ele>5.4</ele><time>2026-03-22T16:18:55Z</time></trkpt><trkpt lat="47.415943568005666" lon="-2.470280347524254"><ele>5.8</ele><time>2026-03-22T16:18:57Z</time></trkpt><trkpt lat="47.41589842508666" lon="-2.4701562333415663"><ele>6.199999999999999</ele><time>2026-03-22T16:18:59Z</time></trkpt><trkpt lat="47.41586121779796" lon="-2.470042180069596"><ele>6.6</ele><time>2026-03-22T16:19:01Z</time></trkpt><trkpt lat="47.415812633595316" lon="-2.4698979256562974"><ele>7.0</ele><time>2026-03-22T16:19:03Z</time></trkpt><trkpt lat="47.41579679955485" lon="-2.469800400128466"><ele>7.000000000000001</ele><time>2026-03-22T16:19:04Z</time></trkpt><trkpt lat="47.41576085544248" lon="-2.469704440105119"><ele>7.0</ele><time>2026-03-22T16:19:05Z</time></trkpt><trkpt lat="47.41570931978655" lon="-2.4696003113622558"><ele>7.0</ele><time>2026-03-22T16:19:06Z</time></trkpt><trkpt lat="47.41566001886452" lon="-2.4694780697774936"><ele>7.0</ele><time>2026-03-22T16:19:07Z</time></trkpt><trkpt lat="47.41561162456059" lon="-2.4693529575942894"><ele>7.000000000000001</ele><time>2026-03-22T16:19:08Z</time></trkpt><trkpt lat="47.41557223564809" lon="-2.469226861054528"><ele>7.0</ele><time>2026-03-22T16:19:09Z</time></trkpt><trkpt lat="47.415488720227735" lon="-2.469094755703927"><ele>6.0</ele><time>2026-03-22T16:19:10Z</time></trkpt><trkpt lat="47.415411386465486" lon="-2.4689692682116307"><ele>5.0</ele><time>2026-03-22T16:19:11Z</time></trkpt><trkpt lat="47.41534099826564" lon="-2.4688369080921055"><ele>4.0</ele><time>2026-03-22T16:19:12Z</time></trkpt><trkpt lat="47.41527112328315" lon="-2.468701929243713"><ele>3.0</ele><time>2026-03-22T16:19:13Z</time></trkpt><trkpt lat="47.4151762304018" lon="-2.468575868358771"><ele>3.0</ele><time>2026-03-22T16:19:14Z</time></trkpt><trkpt lat="47.415070729727695" lon="-2.468463956583897"><ele>3.0</ele><time>2026-03-22T16:19:15Z</time></trkpt><trkpt lat="47.41496179829053" lon="-2.468365934215973"><ele>3.0</ele><time>2026-03-22T16:19:16.001Z</time></trkpt><trkpt lat="47.41483678590229" lon="-2.468260148236775"><ele>3.0</ele><time>2026-03-22T16:19:17.001Z</time></trkpt><trkpt lat="47.41470064544157" lon="-2.4681364303809024"><ele>2.0</ele><time>2026-03-22T16:19:18.001Z</time></trkpt><trkpt lat="47.41455465607387" lon="-2.46799983476218"><ele>1.0</ele><time>2026-03-22T16:19:19.001Z</time></trkpt><trkpt lat="47.41440951860064" lon="-2.467865452055244"><ele>0.0</ele><time>2026-03-22T16:19:20.001Z</time></trkpt><trkpt lat="47.414264646216054" lon="-2.467730413489036"><ele>0.0</ele><time>2026-03-22T16:19:21.001Z</time></trkpt><trkpt lat="47.41411168205657" lon="-2.4675876867520223"><ele>0.0</ele><time>2026-03-22T16:19:22.001Z</time></trkpt><trkpt lat="47.413966872278216" lon="-2.467448323265236"><ele>0.0</ele><time>2026-03-22T16:19:23.001Z</time></trkpt><trkpt lat="47.41383089494475" lon="-2.467322338682838"><ele>0.3333333333333333</ele><time>2026-03-22T16:19:24.001Z</time></trkpt><trkpt lat="47.41369273700768" lon="-2.4671912926898023"><ele>0.6666666666666666</ele><time>2026-03-22T16:19:25.001Z</time></trkpt><trkpt lat="47.41356248445419" lon="-2.467055399384064"><ele>1.0</ele><time>2026-03-22T16:19:26.001Z</time></trkpt><trkpt lat="47.41341103994201" lon="-2.4669350859754777"><ele>1.0</ele><time>2026-03-22T16:19:27.001Z</time></trkpt><trkpt lat="47.413257353212956" lon="-2.466790381497645"><ele>1.0</ele><time>2026-03-22T16:19:28.001Z</time></trkpt><trkpt lat="47.41312663131643" lon="-2.4666494920490707"><ele>1.0</ele><time>2026-03-22T16:19:29.001Z</time></trkpt><trkpt lat="47.41298383763581" lon="-2.4665171351552906"><ele>1.0</ele><time>2026-03-22T16:19:30.001Z</time></trkpt><trkpt lat="47.41284150146748" lon="-2.4663935148004295"><ele>1.0</ele><time>2026-03-22T16:19:31.001Z</time></trkpt><trkpt lat="47.41269463976152" lon="-2.4662717335832434"><ele>1.0</ele><time>2026-03-22T16:19:32.001Z</time></trkpt><trkpt lat="47.41254756091775" lon="-2.46615603978029"><ele>0.6666666666666666</ele><time>2026-03-22T16:19:33.001Z</time></trkpt><trkpt lat="47.41239237464971" lon="-2.4660706645760926"><ele>0.3333333333333333</ele><time>2026-03-22T16:19:34.001Z</time></trkpt><trkpt lat="47.41224049347533" lon="-2.4659656864330763"><ele>0.0</ele><time>2026-03-22T16:19:35Z</time></trkpt><trkpt lat="47.41209401747054" lon="-2.465867697466234"><ele>0.0</ele><time>2026-03-22T16:19:36Z</time></trkpt><trkpt lat="47.41195221577593" lon="-2.4657739128441043"><ele>0.0</ele><time>2026-03-22T16:19:37Z</time></trkpt><trkpt lat="47.41181444684242" lon="-2.4656834626502353"><ele>0.0</ele><time>2026-03-22T16:19:38Z</time></trkpt><trkpt lat="47.41167880069112" lon="-2.4655983554781518"><ele>0.0</ele><time>2026-03-22T16:19:39Z</time></trkpt><trkpt lat="47.411540352684014" lon="-2.4655196819310077"><ele>0.0</ele><time>2026-03-22T16:19:40Z</time></trkpt><trkpt lat="47.41140402792397" lon="-2.4654433859733116"><ele>0.0</ele><time>2026-03-22T16:19:41Z</time></trkpt><trkpt lat="47.411274761781705" lon="-2.4653733482592926"><ele>0.0</ele><time>2026-03-22T16:19:42Z</time></trkpt><trkpt lat="47.411156352000134" lon="-2.4653097507929"><ele>0.2</ele><time>2026-03-22T16:19:43Z</time></trkpt><trkpt lat="47.411051653680495" lon="-2.465235031914421"><ele>0.4</ele><time>2026-03-22T16:19:44Z</time></trkpt><trkpt lat="47.41095225105501" lon="-2.4651906336535143"><ele>0.6000000000000001</ele><time>2026-03-22T16:19:45Z</time></trkpt><trkpt lat="47.41085797128144" lon="-2.4651789080942477"><ele>0.8</ele><time>2026-03-22T16:19:46Z</time></trkpt><trkpt lat="47.4107767576088" lon="-2.465152571722046"><ele>1.0</ele><time>2026-03-22T16:19:47Z</time></trkpt><trkpt lat="47.41070729000288" lon="-2.4651101170819443"><ele>1.0</ele><time>2026-03-22T16:19:48Z</time></trkpt><trkpt lat="47.41064325808869" lon="-2.4650972502731765"><ele>1.0</ele><time>2026-03-22T16:19:49Z</time></trkpt><trkpt lat="47.41054125441333" lon="-2.4650780028779047"><ele>1.0</ele><time>2026-03-22T16:19:51Z</time></trkpt><trkpt lat="47.41047732958411" lon="-2.4650546195858944"><ele>1.0</ele><time>2026-03-22T16:19:52Z</time></trkpt><trkpt lat="47.41036166319652" lon="-2.4650218044212737"><ele>1.0</ele><time>2026-03-22T16:19:54Z</time></trkpt><trkpt lat="47.41024677644835" lon="-2.465006955584284"><ele>1.0</ele><time>2026-03-22T16:19:56Z</time></trkpt><trkpt lat="47.410135048338226" lon="-2.4649742590858716"><ele>1.0</ele><time>2026-03-22T16:19:58Z</time></trkpt><trkpt lat="47.41001207905631" lon="-2.46494255791051"><ele>1.0</ele><time>2026-03-22T16:20:00Z</time></trkpt><trkpt lat="47.409949239681296" lon="-2.4649305912758335"><ele>1.0</ele><time>2026-03-22T16:20:01Z</time></trkpt><trkpt lat="47.40988480324847" lon="-2.464909380537307"><ele>1.0</ele><time>2026-03-22T16:20:02Z</time></trkpt><trkpt lat="47.40976857701867" lon="-2.464880302530816"><ele>1.2000000000000002</ele><time>2026-03-22T16:20:04Z</time></trkpt><trkpt lat="47.4096543013989" lon="-2.4648374661877996"><ele>1.4000000000000001</ele><time>2026-03-22T16:20:06Z</time></trkpt><trkpt lat="47.409590077374276" lon="-2.4648289126440304"><ele>1.6</ele><time>2026-03-22T16:20:07Z</time></trkpt><trkpt lat="47.40951183974725" lon="-2.4648203147177843"><ele>1.8</ele><time>2026-03-22T16:20:08Z</time></trkpt><trkpt lat="47.40944234720813" lon="-2.4647952419508923"><ele>2.0</ele><time>2026-03-22T16:20:09Z</time></trkpt><trkpt lat="47.40931992379154" lon="-2.4647552951794145"><ele>1.9999999999999998</ele><time>2026-03-22T16:20:11Z</time></trkpt><trkpt lat="47.409246251459024" lon="-2.4647252968428974"><ele>2.0</ele><time>2026-03-22T16:20:12Z</time></trkpt><trkpt lat="47.40917905172941" lon="-2.4647121879643077"><ele>2.0</ele><time>2026-03-22T16:20:13Z</time></trkpt><trkpt lat="47.40910516812169" lon="-2.4646988095179596"><ele>2.0</ele><time>2026-03-22T16:20:14Z</time></trkpt><trkpt lat="47.40902348617187" lon="-2.4646731257526886"><ele>1.9999999999999998</ele><time>2026-03-22T16:20:15Z</time></trkpt><trkpt lat="47.40894522718619" lon="-2.4646409964987903"><ele>2.0</ele><time>2026-03-22T16:20:16Z</time></trkpt><trkpt lat="47.40886164211756" lon="-2.4646060772868355"><ele>2.333333333333333</ele><time>2026-03-22T16:20:17Z</time></trkpt><trkpt lat="47.408786650728054" lon="-2.4645702856265284"><ele>2.6666666666666665</ele><time>2026-03-22T16:20:18Z</time></trkpt><trkpt lat="47.40871690309018" lon="-2.4645208780886776"><ele>3.0</ele><time>2026-03-22T16:20:19Z</time></trkpt><trkpt lat="47.408643768374" lon="-2.4644522495714165"><ele>3.333333333333333</ele><time>2026-03-22T16:20:20Z</time></trkpt><trkpt lat="47.40858108134599" lon="-2.4643798062189353"><ele>3.6666666666666665</ele><time>2026-03-22T16:20:21Z</time></trkpt><trkpt lat="47.40852353584512" lon="-2.464295713557374"><ele>4.0</ele><time>2026-03-22T16:20:22Z</time></trkpt><trkpt lat="47.40846056625548" lon="-2.464199378340849"><ele>3.9999999999999996</ele><time>2026-03-22T16:20:23Z</time></trkpt><trkpt lat="47.40840134143223" lon="-2.4640942882306205"><ele>4.0</ele><time>2026-03-22T16:20:24Z</time></trkpt><trkpt lat="47.408352545564874" lon="-2.463987192703652"><ele>4.0</ele><time>2026-03-22T16:20:25Z</time></trkpt><trkpt lat="47.40831322155216" lon="-2.4638777200672535"><ele>4.0</ele><time>2026-03-22T16:20:26Z</time></trkpt><trkpt lat="47.40826411908231" lon="-2.4637689103855553"><ele>3.9999999999999996</ele><time>2026-03-22T16:20:27Z</time></trkpt><trkpt lat="47.408205448732936" lon="-2.463677014312801"><ele>4.0</ele><time>2026-03-22T16:20:28Z</time></trkpt><trkpt lat="47.4081315033541" lon="-2.4635930238571064"><ele>4.2</ele><time>2026-03-22T16:20:29Z</time></trkpt><trkpt lat="47.40805482394437" lon="-2.463512558315832"><ele>4.4</ele><time>2026-03-22T16:20:30Z</time></trkpt><trkpt lat="47.40797183957489" lon="-2.46343334998341"><ele>4.6</ele><time>2026-03-22T16:20:31Z</time></trkpt><trkpt lat="47.407881985912866" lon="-2.463368784510928"><ele>4.8</ele><time>2026-03-22T16:20:32Z</time></trkpt><trkpt lat="47.40777996696941" lon="-2.4633286700648886"><ele>5.0</ele><time>2026-03-22T16:20:33Z</time></trkpt><trkpt lat="47.40767755836212" lon="-2.4632944600886586"><ele>5.0</ele><time>2026-03-22T16:20:34Z</time></trkpt><trkpt lat="47.40756892891447" lon="-2.4632527461405647"><ele>5.0</ele><time>2026-03-22T16:20:35Z</time></trkpt><trkpt lat="47.40746072824782" lon="-2.4632110381641743"><ele>5.0</ele><time>2026-03-22T16:20:36Z</time></trkpt><trkpt lat="47.40734675427852" lon="-2.463170088711956"><ele>5.0</ele><time>2026-03-22T16:20:37Z</time></trkpt><trkpt lat="47.40722390320654" lon="-2.463126443096605"><ele>4.75</ele><time>2026-03-22T16:20:38Z</time></trkpt><trkpt lat="47.407091800928036" lon="-2.4630772512661814"><ele>4.5</ele><time>2026-03-22T16:20:39Z</time></trkpt><trkpt lat="47.40696446587249" lon="-2.4630260330265954"><ele>4.25</ele><time>2026-03-22T16:20:40Z</time></trkpt><trkpt lat="47.40684820256115" lon="-2.4629771743980275"><ele>4.0</ele><time>2026-03-22T16:20:41Z</time></trkpt><trkpt lat="47.40672929976982" lon="-2.4629381171920626"><ele>3.75</ele><time>2026-03-22T16:20:42Z</time></trkpt><trkpt lat="47.40661593848076" lon="-2.462893663494876"><ele>3.5</ele><time>2026-03-22T16:20:43Z</time></trkpt><trkpt lat="47.406495443690886" lon="-2.462835816483346"><ele>3.25</ele><time>2026-03-22T16:20:44Z</time></trkpt><trkpt lat="47.406378762508716" lon="-2.4627732969272706"><ele>3.0</ele><time>2026-03-22T16:20:45Z</time></trkpt><trkpt lat="47.40625848044287" lon="-2.4627070003250586"><ele>3.0</ele><time>2026-03-22T16:20:46Z</time></trkpt><trkpt lat="47.40613762932574" lon="-2.462631118265044"><ele>3.0</ele><time>2026-03-22T16:20:47Z</time></trkpt><trkpt lat="47.40603181584859" lon="-2.462552003846654"><ele>3.0</ele><time>2026-03-22T16:20:48Z</time></trkpt><trkpt lat="47.405928096364164" lon="-2.462466741088051"><ele>3.0</ele><time>2026-03-22T16:20:49Z</time></trkpt><trkpt lat="47.405831689400785" lon="-2.462376949185404"><ele>3.0</ele><time>2026-03-22T16:20:50Z</time></trkpt><trkpt lat="47.40574042799054" lon="-2.462296773801714"><ele>3.0</ele><time>2026-03-22T16:20:51Z</time></trkpt><trkpt lat="47.4056406192865" lon="-2.462223315214055"><ele>3.0</ele><time>2026-03-22T16:20:51.999Z</time></trkpt><trkpt lat="47.405535247680895" lon="-2.4621416993864416"><ele>3.0</ele><time>2026-03-22T16:20:52.999Z</time></trkpt><trkpt lat="47.405430545181254" lon="-2.4620526901288287"><ele>3.0</ele><time>2026-03-22T16:20:53.999Z</time></trkpt><trkpt lat="47.40531236275534" lon="-2.4619610270240133"><ele>3.0</ele><time>2026-03-22T16:20:54.999Z</time></trkpt><trkpt lat="47.40518752232913" lon="-2.4618636122169004"><ele>3.0</ele><time>2026-03-22T16:20:55.999Z</time></trkpt><trkpt lat="47.40507381136996" lon="-2.46177192625231"><ele>3.0</ele><time>2026-03-22T16:20:56.999Z</time></trkpt><trkpt lat="47.40496994946417" lon="-2.4616883588542056"><ele>3.0</ele><time>2026-03-22T16:20:57.999Z</time></trkpt><trkpt lat="47.40487182851946" lon="-2.4616145742715205"><ele>3.0</ele><time>2026-03-22T16:20:58.999Z</time></trkpt><trkpt lat="47.404784615093504" lon="-2.461538420054463"><ele>3.0</ele><time>2026-03-22T16:20:59.999Z</time></trkpt><trkpt lat="47.404705934933105" lon="-2.461473879472007"><ele>3.0</ele><time>2026-03-22T16:21:00.999Z</time></trkpt><trkpt lat="47.404627758720416" lon="-2.461414145028088"><ele>3.0</ele><time>2026-03-22T16:21:01.999Z</time></trkpt><trkpt lat="47.404540254064145" lon="-2.4613465569851734"><ele>3.4</ele><time>2026-03-22T16:21:02.999Z</time></trkpt><trkpt lat="47.4044454097407" lon="-2.4612701035814717"><ele>3.8</ele><time>2026-03-22T16:21:03.999Z</time></trkpt><trkpt lat="47.4043458719231" lon="-2.4611929600705014"><ele>4.2</ele><time>2026-03-22T16:21:04.999Z</time></trkpt><trkpt lat="47.40423581374837" lon="-2.461132685606938"><ele>4.6</ele><time>2026-03-22T16:21:05.999Z</time></trkpt><trkpt lat="47.40412924309545" lon="-2.4610882786656068"><ele>5.0</ele><time>2026-03-22T16:21:06.999Z</time></trkpt><trkpt lat="47.40402355516882" lon="-2.461058295908852"><ele>5.0</ele><time>2026-03-22T16:21:07.999Z</time></trkpt><trkpt lat="47.403917213969095" lon="-2.461037455017925"><ele>5.0</ele><time>2026-03-22T16:21:08.999Z</time></trkpt><trkpt lat="47.403811411600344" lon="-2.4610117035815184"><ele>5.0</ele><time>2026-03-22T16:21:09.999Z</time></trkpt><trkpt lat="47.40370421828235" lon="-2.4609854658596153"><ele>5.0</ele><time>2026-03-22T16:21:10.999Z</time></trkpt><trkpt lat="47.40359590799179" lon="-2.4609678712789336"><ele>5.0</ele><time>2026-03-22T16:21:11.999Z</time></trkpt><trkpt lat="47.40348753962311" lon="-2.460946264257762"><ele>6.0</ele><time>2026-03-22T16:21:12.999Z</time></trkpt><trkpt lat="47.403382659866324" lon="-2.4609272140362752"><ele>7.0</ele><time>2026-03-22T16:21:13.999Z</time></trkpt><trkpt lat="47.40327745638302" lon="-2.460929905039935"><ele>8.0</ele><time>2026-03-22T16:21:14.999Z</time></trkpt><trkpt lat="47.403173687649556" lon="-2.4609630534441385"><ele>9.0</ele><time>2026-03-22T16:21:15.999Z</time></trkpt><trkpt lat="47.403080260063156" lon="-2.4610160187976535"><ele>10.0</ele><time>2026-03-22T16:21:16.999Z</time></trkpt><trkpt lat="47.402984677631885" lon="-2.4610851972289245"><ele>9.75</ele><time>2026-03-22T16:21:17.999Z</time></trkpt><trkpt lat="47.40288075751713" lon="-2.4611530473829024"><ele>9.5</ele><time>2026-03-22T16:21:18.999Z</time></trkpt><trkpt lat="47.40277491885959" lon="-2.461215793390071"><ele>9.25</ele><time>2026-03-22T16:21:19.999Z</time></trkpt><trkpt lat="47.402666906303374" lon="-2.461279396686572"><ele>9.0</ele><time>2026-03-22T16:21:20.999Z</time></trkpt><trkpt lat="47.40255857560574" lon="-2.461328349598138"><ele>9.0</ele><time>2026-03-22T16:21:22Z</time></trkpt><trkpt lat="47.402454401286015" lon="-2.461368830209813"><ele>9.0</ele><time>2026-03-22T16:21:23Z</time></trkpt><trkpt lat="47.40233641587983" lon="-2.46142048982521"><ele>9.0</ele><time>2026-03-22T16:21:24Z</time></trkpt><trkpt lat="47.402216408666476" lon="-2.461441633648806"><ele>9.0</ele><time>2026-03-22T16:21:25Z</time></trkpt><trkpt lat="47.402099854209425" lon="-2.461473655271364"><ele>9.2</ele><time>2026-03-22T16:21:26Z</time></trkpt><trkpt lat="47.4019797592381" lon="-2.4615109464085596"><ele>9.4</ele><time>2026-03-22T16:21:27Z</time></trkpt><trkpt lat="47.40186691202492" lon="-2.4615457239239222"><ele>9.6</ele><time>2026-03-22T16:21:28Z</time></trkpt><trkpt lat="47.40176882118895" lon="-2.4615805960461494"><ele>9.8</ele><time>2026-03-22T16:21:29Z</time></trkpt><trkpt lat="47.40167383816505" lon="-2.461625069757873"><ele>10.0</ele><time>2026-03-22T16:21:30Z</time></trkpt><trkpt lat="47.401582148970455" lon="-2.4616748847394914"><ele>10.0</ele><time>2026-03-22T16:21:31Z</time></trkpt><trkpt lat="47.40148693270514" lon="-2.4617210713916413"><ele>10.0</ele><time>2026-03-22T16:21:32Z</time></trkpt><trkpt lat="47.40138799328668" lon="-2.461762458727706"><ele>10.0</ele><time>2026-03-22T16:21:33Z</time></trkpt><trkpt lat="47.40130020152442" lon="-2.461798480750188"><ele>10.0</ele><time>2026-03-22T16:21:34Z</time></trkpt><trkpt lat="47.401219232205534" lon="-2.4618305386088144"><ele>10.0</ele><time>2026-03-22T16:21:35Z</time></trkpt><trkpt lat="47.40113864030143" lon="-2.461866270063502"><ele>9.833333333333334</ele><time>2026-03-22T16:21:36Z</time></trkpt><trkpt lat="47.401068701876696" lon="-2.4618957545855378"><ele>9.666666666666668</ele><time>2026-03-22T16:21:37Z</time></trkpt><trkpt lat="47.40099353761126" lon="-2.461917224027895"><ele>9.5</ele><time>2026-03-22T16:21:38Z</time></trkpt><trkpt lat="47.40091769913079" lon="-2.4619293424406927"><ele>9.333333333333334</ele><time>2026-03-22T16:21:39Z</time></trkpt><trkpt lat="47.400831243400035" lon="-2.461935065886303"><ele>9.166666666666666</ele><time>2026-03-22T16:21:40Z</time></trkpt><trkpt lat="47.40074306995659" lon="-2.461929464005154"><ele>9.0</ele><time>2026-03-22T16:21:41Z</time></trkpt><trkpt lat="47.400654239983496" lon="-2.4619133384754432"><ele>9.0</ele><time>2026-03-22T16:21:42Z</time></trkpt><trkpt lat="47.400573297558026" lon="-2.461888379756629"><ele>9.0</ele><time>2026-03-22T16:21:43Z</time></trkpt><trkpt lat="47.400504959029504" lon="-2.4618632254043478"><ele>9.0</ele><time>2026-03-22T16:21:44Z</time></trkpt><trkpt lat="47.40044085628529" lon="-2.4618379414767233"><ele>9.0</ele><time>2026-03-22T16:21:45Z</time></trkpt><trkpt lat="47.40031851023389" lon="-2.4617870601729206"><ele>9.0</ele><time>2026-03-22T16:21:47Z</time></trkpt><trkpt lat="47.400248666019834" lon="-2.46175991844387"><ele>9.0</ele><time>2026-03-22T16:21:48Z</time></trkpt><trkpt lat="47.400164945708646" lon="-2.461734075045161"><ele>8.833333333333334</ele><time>2026-03-22T16:21:49Z</time></trkpt><trkpt lat="47.400082418124484" lon="-2.461695696317974"><ele>8.666666666666666</ele><time>2026-03-22T16:21:50Z</time></trkpt><trkpt lat="47.400000444659234" lon="-2.461668224978867"><ele>8.5</ele><time>2026-03-22T16:21:51Z</time></trkpt><trkpt lat="47.399920509592405" lon="-2.461637233425148"><ele>8.333333333333332</ele><time>2026-03-22T16:21:52Z</time></trkpt><trkpt lat="47.39984383005447" lon="-2.461612413864148"><ele>8.166666666666666</ele><time>2026-03-22T16:21:53Z</time></trkpt><trkpt lat="47.39976958376815" lon="-2.4615945042190144"><ele>8.0</ele><time>2026-03-22T16:21:54Z</time></trkpt><trkpt lat="47.39970357901195" lon="-2.4615751609915293"><ele>7.999999999999999</ele><time>2026-03-22T16:21:55Z</time></trkpt><trkpt lat="47.39963016509488" lon="-2.461558742821004"><ele>8.0</ele><time>2026-03-22T16:21:56Z</time></trkpt><trkpt lat="47.39950749531085" lon="-2.4615281338237422"><ele>8.0</ele><time>2026-03-22T16:21:58Z</time></trkpt><trkpt lat="47.39944294328141" lon="-2.461491657308008"><ele>8.0</ele><time>2026-03-22T16:21:59Z</time></trkpt><trkpt lat="47.399337076790744" lon="-2.4614741427664812"><ele>7.999999999999999</ele><time>2026-03-22T16:22:01Z</time></trkpt><trkpt lat="47.399271787533934" lon="-2.4614513163917504"><ele>8.0</ele><time>2026-03-22T16:22:03Z</time></trkpt><trkpt lat="47.39920421077955" lon="-2.461444655526623"><ele>7.999999999999999</ele><time>2026-03-22T16:22:05Z</time></trkpt><trkpt lat="47.399123981856356" lon="-2.4614156205852646"><ele>8.0</ele><time>2026-03-22T16:22:09Z</time></trkpt><trkpt lat="47.399077011846806" lon="-2.461282958130105"><ele>8.0</ele><time>2026-03-22T16:22:11Z</time></trkpt><trkpt lat="47.399056863305184" lon="-2.46117499010866"><ele>8.0</ele><time>2026-03-22T16:22:12Z</time></trkpt><trkpt lat="47.39903886138295" lon="-2.4610760285589492"><ele>7.999999999999999</ele><time>2026-03-22T16:22:13Z</time></trkpt><trkpt lat="47.399019311633026" lon="-2.4609838807255446"><ele>8.0</ele><time>2026-03-22T16:22:14Z</time></trkpt><trkpt lat="47.39897584773945" lon="-2.4608106210414356"><ele>8.200000000000001</ele><time>2026-03-22T16:22:16Z</time></trkpt><trkpt lat="47.3989279869747" lon="-2.4606512344978153"><ele>8.4</ele><time>2026-03-22T16:22:18Z</time></trkpt><trkpt lat="47.39890299257477" lon="-2.4604864251861325"><ele>8.600000000000001</ele><time>2026-03-22T16:22:20Z</time></trkpt><trkpt lat="47.39888366594344" lon="-2.4603947960118315"><ele>8.8</ele><time>2026-03-22T16:22:22Z</time></trkpt><trkpt lat="47.39894909829568" lon="-2.4603022602595157"><ele>9.0</ele><time>2026-03-22T16:22:30Z</time></trkpt><trkpt lat="47.39904236269463" lon="-2.4602870996870005"><ele>9.166666666666666</ele><time>2026-03-22T16:22:32Z</time></trkpt><trkpt lat="47.39913147451814" lon="-2.460282152413164"><ele>9.333333333333334</ele><time>2026-03-22T16:22:34Z</time></trkpt><trkpt lat="47.399241040783295" lon="-2.4602596486122414"><ele>9.5</ele><time>2026-03-22T16:22:35.999Z</time></trkpt><trkpt lat="47.39934964982185" lon="-2.4602499832615057"><ele>9.666666666666668</ele><time>2026-03-22T16:22:37.999Z</time></trkpt><trkpt lat="47.39941546325883" lon="-2.4602527045781173"><ele>9.833333333333334</ele><time>2026-03-22T16:22:39.999Z</time></trkpt><trkpt lat="47.399485284342184" lon="-2.4602312222650866"><ele>10.0</ele><time>2026-03-22T16:22:42.999Z</time></trkpt><trkpt lat="47.399525079831996" lon="-2.4600630136689325"><ele>10.0</ele><time>2026-03-22T16:22:44.999Z</time></trkpt><trkpt lat="47.39950904722174" lon="-2.4599424300179042"><ele>10.0</ele><time>2026-03-22T16:22:45.999Z</time></trkpt><trkpt lat="47.3994863324473" lon="-2.4598034620117013"><ele>10.0</ele><time>2026-03-22T16:22:46.999Z</time></trkpt><trkpt lat="47.399472305858055" lon="-2.4596671901369684"><ele>10.0</ele><time>2026-03-22T16:22:47.999Z</time></trkpt><trkpt lat="47.399456018333645" lon="-2.4595491512066436"><ele>10.0</ele><time>2026-03-22T16:22:48.999Z</time></trkpt><trkpt lat="47.399444477783355" lon="-2.4594391096321395"><ele>10.0</ele><time>2026-03-22T16:22:49.999Z</time></trkpt><trkpt lat="47.39943674718999" lon="-2.4593432747884094"><ele>10.4</ele><time>2026-03-22T16:22:50.999Z</time></trkpt><trkpt lat="47.3994343553803" lon="-2.4592431622705115"><ele>10.8</ele><time>2026-03-22T16:22:51.999Z</time></trkpt><trkpt lat="47.399428706570255" lon="-2.4591451441528958"><ele>11.2</ele><time>2026-03-22T16:22:52.999Z</time></trkpt><trkpt lat="47.39939296406872" lon="-2.4590272017804677"><ele>11.6</ele><time>2026-03-22T16:22:54.999Z</time></trkpt><trkpt lat="47.39930459229838" lon="-2.459038558717809"><ele>12.0</ele><time>2026-03-22T16:22:56.999Z</time></trkpt><trkpt lat="47.399167712049014" lon="-2.459081124464356"><ele>11.999999999999998</ele><time>2026-03-22T16:22:58.999Z</time></trkpt><trkpt lat="47.399093098662725" lon="-2.4591116216462185"><ele>12.0</ele><time>2026-03-22T16:22:59.999Z</time></trkpt><trkpt lat="47.39902210752922" lon="-2.4591350218340375"><ele>12.0</ele><time>2026-03-22T16:23:00.999Z</time></trkpt><trkpt lat="47.39896021068306" lon="-2.4591654817962656"><ele>12.0</ele><time>2026-03-22T16:23:01.999Z</time></trkpt><trkpt lat="47.398912717280794" lon="-2.459227657677599"><ele>12.0</ele><time>2026-03-22T16:23:02.999Z</time></trkpt><trkpt lat="47.398891374567015" lon="-2.4593203255773135"><ele>11.999999999999998</ele><time>2026-03-22T16:23:03.999Z</time></trkpt><trkpt lat="47.39886384413785" lon="-2.459420587558921"><ele>12.0</ele><time>2026-03-22T16:23:04.999Z</time></trkpt><trkpt lat="47.398805960549936" lon="-2.459474890838458"><ele>11.666666666666666</ele><time>2026-03-22T16:23:05.999Z</time></trkpt><trkpt lat="47.398724000082275" lon="-2.4595047438360007"><ele>11.333333333333334</ele><time>2026-03-22T16:23:06.999Z</time></trkpt><trkpt lat="47.3986423979718" lon="-2.4595277207255126"><ele>11.0</ele><time>2026-03-22T16:23:07.999Z</time></trkpt><trkpt lat="47.39856224510824" lon="-2.4595692574838144"><ele>10.666666666666668</ele><time>2026-03-22T16:23:08.999Z</time></trkpt><trkpt lat="47.39848127413515" lon="-2.459618526729306"><ele>10.333333333333334</ele><time>2026-03-22T16:23:09.999Z</time></trkpt><trkpt lat="47.39839267602643" lon="-2.4596468654577235"><ele>10.0</ele><time>2026-03-22T16:23:10.999Z</time></trkpt><trkpt lat="47.398307012364555" lon="-2.4596428764366625"><ele>10.0</ele><time>2026-03-22T16:23:11.999Z</time></trkpt><trkpt lat="47.398234164554616" lon="-2.45962156033173"><ele>10.0</ele><time>2026-03-22T16:23:12.999Z</time></trkpt><trkpt lat="47.398136376096545" lon="-2.45959528949368"><ele>10.0</ele><time>2026-03-22T16:23:14.999Z</time></trkpt><trkpt lat="47.398064935178766" lon="-2.4595152192282006"><ele>10.0</ele><time>2026-03-22T16:23:18.999Z</time></trkpt><trkpt lat="47.398040212806876" lon="-2.459390505589903"><ele>10.0</ele><time>2026-03-22T16:23:19.999Z</time></trkpt><trkpt lat="47.39802000357354" lon="-2.459248358514953"><ele>10.0</ele><time>2026-03-22T16:23:20.999Z</time></trkpt><trkpt lat="47.39800401902153" lon="-2.4591275274178477"><ele>10.0</ele><time>2026-03-22T16:23:21.999Z</time></trkpt><trkpt lat="47.39798033784281" lon="-2.4590208968248493"><ele>10.0</ele><time>2026-03-22T16:23:22.999Z</time></trkpt><trkpt lat="47.39795831328108" lon="-2.458912374328027"><ele>10.0</ele><time>2026-03-22T16:23:23.999Z</time></trkpt><trkpt lat="47.39793514169602" lon="-2.458810639079804"><ele>10.0</ele><time>2026-03-22T16:23:24.999Z</time></trkpt><trkpt lat="47.397919895113205" lon="-2.4587162187093887"><ele>10.0</ele><time>2026-03-22T16:23:25.999Z</time></trkpt><trkpt lat="47.39790094565193" lon="-2.4585692839696476"><ele>10.4</ele><time>2026-03-22T16:23:28Z</time></trkpt><trkpt lat="47.39795392675543" lon="-2.4584981022557852"><ele>10.8</ele><time>2026-03-22T16:23:30Z</time></trkpt><trkpt lat="47.398043551857484" lon="-2.458451076733935"><ele>11.2</ele><time>2026-03-22T16:23:32Z</time></trkpt><trkpt lat="47.39810551086742" lon="-2.4584096202276458"><ele>11.6</ele><time>2026-03-22T16:23:33Z</time></trkpt><trkpt lat="47.39821143280594" lon="-2.4583318016063265"><ele>12.0</ele><time>2026-03-22T16:23:35Z</time></trkpt><trkpt lat="47.398313189899326" lon="-2.458290141291448"><ele>12.0</ele><time>2026-03-22T16:23:37Z</time></trkpt><trkpt lat="47.39836066311976" lon="-2.4583590507021453"><ele>12.0</ele><time>2026-03-22T16:23:39Z</time></trkpt><trkpt lat="47.39836690281624" lon="-2.4584886020114634"><ele>12.0</ele><time>2026-03-22T16:23:42Z</time></trkpt><trkpt lat="47.3983673938271" lon="-2.458595406775097"><ele>12.0</ele><time>2026-03-22T16:23:44Z</time></trkpt><trkpt lat="47.398410418930155" lon="-2.458674025707658"><ele>12.0</ele><time>2026-03-22T16:23:47Z</time></trkpt><trkpt lat="47.398358166130386" lon="-2.45859348939376"><ele>12.0</ele><time>2026-03-22T16:23:52Z</time></trkpt><trkpt lat="47.39834971296155" lon="-2.458467290062671"><ele>12.0</ele><time>2026-03-22T16:23:54Z</time></trkpt><trkpt lat="47.398318146924225" lon="-2.458368059674173"><ele>12.0</ele><time>2026-03-22T16:23:56Z</time></trkpt><trkpt lat="47.398232516915044" lon="-2.458319794284865"><ele>12.0</ele><time>2026-03-22T16:23:58Z</time></trkpt><trkpt lat="47.398129087300674" lon="-2.4583924402611763"><ele>12.0</ele><time>2026-03-22T16:24:00Z</time></trkpt><trkpt lat="47.39806736334766" lon="-2.458434408093691"><ele>12.0</ele><time>2026-03-22T16:24:01Z</time></trkpt><trkpt lat="47.39800436793362" lon="-2.458478798727593"><ele>12.0</ele><time>2026-03-22T16:24:02Z</time></trkpt><trkpt lat="47.39792117582906" lon="-2.458576325055294"><ele>12.0</ele><time>2026-03-22T16:24:04Z</time></trkpt><trkpt lat="47.39792449127006" lon="-2.458738183477838"><ele>12.0</ele><time>2026-03-22T16:24:06Z</time></trkpt><trkpt lat="47.39796357413929" lon="-2.458870032421674"><ele>12.0</ele><time>2026-03-22T16:24:07Z</time></trkpt><trkpt lat="47.39799212364629" lon="-2.459018265999144"><ele>12.0</ele><time>2026-03-22T16:24:08Z</time></trkpt><trkpt lat="47.39802705200325" lon="-2.459160940367937"><ele>12.0</ele><time>2026-03-22T16:24:09Z</time></trkpt><trkpt lat="47.39804868689495" lon="-2.459291267460593"><ele>11.6</ele><time>2026-03-22T16:24:10Z</time></trkpt><trkpt lat="47.39807379961438" lon="-2.4594308228929136"><ele>11.2</ele><time>2026-03-22T16:24:11Z</time></trkpt><trkpt lat="47.39810175357346" lon="-2.4595760704447946"><ele>10.8</ele><time>2026-03-22T16:24:12Z</time></trkpt><trkpt lat="47.398114064923234" lon="-2.459735244261405"><ele>10.4</ele><time>2026-03-22T16:24:13Z</time></trkpt><trkpt lat="47.39811519632401" lon="-2.4598949721701975"><ele>10.0</ele><time>2026-03-22T16:24:14Z</time></trkpt><trkpt lat="47.39811404441267" lon="-2.460039836345834"><ele>10.0</ele><time>2026-03-22T16:24:15Z</time></trkpt><trkpt lat="47.39811673390511" lon="-2.460166420492664"><ele>10.0</ele><time>2026-03-22T16:24:16Z</time></trkpt><trkpt lat="47.3981192678964" lon="-2.460309621821278"><ele>10.0</ele><time>2026-03-22T16:24:18Z</time></trkpt><trkpt lat="47.39807336139535" lon="-2.460379885719572"><ele>10.0</ele><time>2026-03-22T16:24:24Z</time></trkpt><trkpt lat="47.39792503125213" lon="-2.460358776027369"><ele>10.0</ele><time>2026-03-22T16:24:26Z</time></trkpt><trkpt lat="47.39780467033659" lon="-2.460298061661979"><ele>10.0</ele><time>2026-03-22T16:24:27Z</time></trkpt><trkpt lat="47.39766174638585" lon="-2.4602819031556864"><ele>10.0</ele><time>2026-03-22T16:24:28Z</time></trkpt><trkpt lat="47.39754684319" lon="-2.4602680900714344"><ele>10.0</ele><time>2026-03-22T16:24:29Z</time></trkpt><trkpt lat="47.39742655646543" lon="-2.46025332183439"><ele>10.0</ele><time>2026-03-22T16:24:30Z</time></trkpt><trkpt lat="47.397325551955404" lon="-2.4602304847704057"><ele>10.0</ele><time>2026-03-22T16:24:31Z</time></trkpt><trkpt lat="47.397231676865296" lon="-2.4602191746187376"><ele>10.0</ele><time>2026-03-22T16:24:32Z</time></trkpt><trkpt lat="47.397142284906124" lon="-2.46020711777786"><ele>10.0</ele><time>2026-03-22T16:24:33Z</time></trkpt><trkpt lat="47.39705280150947" lon="-2.4601880481607634"><ele>10.0</ele><time>2026-03-22T16:24:33.999Z</time></trkpt><trkpt lat="47.39696324506318" lon="-2.4601782262102443"><ele>10.0</ele><time>2026-03-22T16:24:34.999Z</time></trkpt><trkpt lat="47.396886701028016" lon="-2.4601786446945177"><ele>10.0</ele><time>2026-03-22T16:24:35.999Z</time></trkpt><trkpt lat="47.396819047396185" lon="-2.4601755265453"><ele>10.166666666666668</ele><time>2026-03-22T16:24:36.999Z</time></trkpt><trkpt lat="47.39675063668936" lon="-2.4601731706262044"><ele>10.333333333333334</ele><time>2026-03-22T16:24:37.999Z</time></trkpt><trkpt lat="47.396681154905224" lon="-2.4601794741099536"><ele>10.5</ele><time>2026-03-22T16:24:38.999Z</time></trkpt><trkpt lat="47.396617708728" lon="-2.4601748080771277"><ele>10.666666666666666</ele><time>2026-03-22T16:24:39.999Z</time></trkpt><trkpt lat="47.39654029439027" lon="-2.460170111884789"><ele>10.833333333333332</ele><time>2026-03-22T16:24:40.999Z</time></trkpt><trkpt lat="47.396425136565384" lon="-2.46017603236618"><ele>11.0</ele><time>2026-03-22T16:24:41.999Z</time></trkpt><trkpt lat="47.396279068298256" lon="-2.4602067541097057"><ele>11.5</ele><time>2026-03-22T16:24:42.999Z</time></trkpt><trkpt lat="47.396133056960906" lon="-2.4602503579220123"><ele>12.0</ele><time>2026-03-22T16:24:43.999Z</time></trkpt><trkpt lat="47.396012127583646" lon="-2.460289024174238"><ele>12.5</ele><time>2026-03-22T16:24:44.999Z</time></trkpt><trkpt lat="47.39588854199031" lon="-2.460319362331376"><ele>13.0</ele><time>2026-03-22T16:24:45.999Z</time></trkpt><trkpt lat="47.39576254221628" lon="-2.460340485647493"><ele>13.0</ele><time>2026-03-22T16:24:46.999Z</time></trkpt><trkpt lat="47.395628949510495" lon="-2.460336580927299"><ele>13.0</ele><time>2026-03-22T16:24:47.999Z</time></trkpt><trkpt lat="47.3954936042744" lon="-2.4603190767669103"><ele>13.0</ele><time>2026-03-22T16:24:48.999Z</time></trkpt><trkpt lat="47.39536190776387" lon="-2.460296393889642"><ele>13.0</ele><time>2026-03-22T16:24:49.999Z</time></trkpt><trkpt lat="47.39523712891893" lon="-2.4602779973726108"><ele>13.0</ele><time>2026-03-22T16:24:50.999Z</time></trkpt><trkpt lat="47.395122939845635" lon="-2.4602585157627432"><ele>13.0</ele><time>2026-03-22T16:24:51.999Z</time></trkpt><trkpt lat="47.39500662922067" lon="-2.4602354365025825"><ele>13.0</ele><time>2026-03-22T16:24:52.999Z</time></trkpt><trkpt lat="47.39489378646954" lon="-2.46020506134878"><ele>13.0</ele><time>2026-03-22T16:24:53.999Z</time></trkpt><trkpt lat="47.39479238316583" lon="-2.4601944102605424"><ele>13.0</ele><time>2026-03-22T16:24:54.999Z</time></trkpt><trkpt lat="47.394698793757925" lon="-2.4601992882276122"><ele>12.999999999999998</ele><time>2026-03-22T16:24:55.999Z</time></trkpt><trkpt lat="47.39460694725272" lon="-2.460187644091634"><ele>13.0</ele><time>2026-03-22T16:24:56.999Z</time></trkpt><trkpt lat="47.39452820296393" lon="-2.4601837274910294"><ele>13.0</ele><time>2026-03-22T16:24:57.999Z</time></trkpt><trkpt lat="47.394450672258074" lon="-2.460182865938925"><ele>13.0</ele><time>2026-03-22T16:24:58.999Z</time></trkpt><trkpt lat="47.3943671076829" lon="-2.4601830036642682"><ele>12.999999999999998</ele><time>2026-03-22T16:24:59.999Z</time></trkpt><trkpt lat="47.394284876667584" lon="-2.460181498756794"><ele>13.0</ele><time>2026-03-22T16:25:00.999Z</time></trkpt><trkpt lat="47.39420109632738" lon="-2.4601758054891465"><ele>13.0</ele><time>2026-03-22T16:25:01.999Z</time></trkpt><trkpt lat="47.3941094488302" lon="-2.460168610520479"><ele>13.0</ele><time>2026-03-22T16:25:02.999Z</time></trkpt><trkpt lat="47.394009007954836" lon="-2.460178776199731"><ele>13.0</ele><time>2026-03-22T16:25:03.999Z</time></trkpt><trkpt lat="47.39390743544484" lon="-2.4601825000599105"><ele>13.0</ele><time>2026-03-22T16:25:04.999Z</time></trkpt><trkpt lat="47.39380830725534" lon="-2.46018547944883"><ele>13.0</ele><time>2026-03-22T16:25:05.999Z</time></trkpt><trkpt lat="47.393702043988895" lon="-2.460183008128798"><ele>13.4</ele><time>2026-03-22T16:25:06.999Z</time></trkpt><trkpt lat="47.39358714656197" lon="-2.4601826966347606"><ele>13.8</ele><time>2026-03-22T16:25:07.999Z</time></trkpt><trkpt lat="47.39347149876962" lon="-2.460185981366115"><ele>14.2</ele><time>2026-03-22T16:25:08.999Z</time></trkpt><trkpt lat="47.393375330434424" lon="-2.4602005879346915"><ele>14.6</ele><time>2026-03-22T16:25:09.999Z</time></trkpt><trkpt lat="47.393291751894175" lon="-2.460207073436685"><ele>15.0</ele><time>2026-03-22T16:25:10.999Z</time></trkpt><trkpt lat="47.393220866005784" lon="-2.4602030488851843"><ele>15.0</ele><time>2026-03-22T16:25:11.999Z</time></trkpt><trkpt lat="47.39315530284759" lon="-2.4601964331666917"><ele>15.0</ele><time>2026-03-22T16:25:12.999Z</time></trkpt><trkpt lat="47.39302446491206" lon="-2.4602135064262627"><ele>15.0</ele><time>2026-03-22T16:25:14.999Z</time></trkpt><trkpt lat="47.392941754876134" lon="-2.4602175634454135"><ele>15.0</ele><time>2026-03-22T16:25:15.999Z</time></trkpt><trkpt lat="47.392859441644426" lon="-2.4602141939227393"><ele>15.0</ele><time>2026-03-22T16:25:16.999Z</time></trkpt><trkpt lat="47.392784785621075" lon="-2.4602117390754716"><ele>15.0</ele><time>2026-03-22T16:25:17.999Z</time></trkpt><trkpt lat="47.39266329176908" lon="-2.460207271671628"><ele>15.333333333333334</ele><time>2026-03-22T16:25:19.999Z</time></trkpt><trkpt lat="47.39254754474119" lon="-2.460217240760779"><ele>15.666666666666668</ele><time>2026-03-22T16:25:21.999Z</time></trkpt><trkpt lat="47.39243466749658" lon="-2.460298828357497"><ele>16.0</ele><time>2026-03-22T16:25:23.999Z</time></trkpt><trkpt lat="47.39237962227558" lon="-2.4603577185403793"><ele>16.333333333333336</ele><time>2026-03-22T16:25:24.999Z</time></trkpt><trkpt lat="47.39232077870612" lon="-2.4604119953836014"><ele>16.666666666666668</ele><time>2026-03-22T16:25:25.999Z</time></trkpt><trkpt lat="47.39225706083498" lon="-2.460430367274127"><ele>17.0</ele><time>2026-03-22T16:25:26.999Z</time></trkpt><trkpt lat="47.392193341201626" lon="-2.4603977371136505"><ele>17.4</ele><time>2026-03-22T16:25:27.999Z</time></trkpt><trkpt lat="47.39214763134717" lon="-2.4603170504870495"><ele>17.799999999999997</ele><time>2026-03-22T16:25:28.999Z</time></trkpt><trkpt lat="47.392138127461656" lon="-2.4602061656491743"><ele>18.2</ele><time>2026-03-22T16:25:29.999Z</time></trkpt><trkpt lat="47.39215581366299" lon="-2.4600660411499593"><ele>18.599999999999998</ele><time>2026-03-22T16:25:30.999Z</time></trkpt><trkpt lat="47.39215845691214" lon="-2.4598936409050065"><ele>19.0</ele><time>2026-03-22T16:25:31.999Z</time></trkpt><trkpt lat="47.39211737995731" lon="-2.4596861907157948"><ele>19.333333333333332</ele><time>2026-03-22T16:25:32.999Z</time></trkpt><trkpt lat="47.392036746097695" lon="-2.4594566421574187"><ele>19.666666666666668</ele><time>2026-03-22T16:25:34Z</time></trkpt><trkpt lat="47.391920459893974" lon="-2.459211344157182"><ele>20.0</ele><time>2026-03-22T16:25:35Z</time></trkpt><trkpt lat="47.391776862487156" lon="-2.4589391985116045"><ele>19.0</ele><time>2026-03-22T16:25:36Z</time></trkpt><trkpt lat="47.391625975631484" lon="-2.4586388314363474"><ele>18.0</ele><time>2026-03-22T16:25:37Z</time></trkpt><trkpt lat="47.3914681076626" lon="-2.458338870413934"><ele>18.5</ele><time>2026-03-22T16:25:38Z</time></trkpt><trkpt lat="47.39129545172511" lon="-2.4580322554735945"><ele>19.0</ele><time>2026-03-22T16:25:39Z</time></trkpt><trkpt lat="47.39115713537951" lon="-2.457702574829632"><ele>19.0</ele><time>2026-03-22T16:25:40Z</time></trkpt><trkpt lat="47.39100377798487" lon="-2.4573858455724533"><ele>19.0</ele><time>2026-03-22T16:25:41Z</time></trkpt><trkpt lat="47.39085420523607" lon="-2.457074136281926"><ele>19.0</ele><time>2026-03-22T16:25:42Z</time></trkpt><trkpt lat="47.39070147683095" lon="-2.4567912313712528"><ele>19.0</ele><time>2026-03-22T16:25:43Z</time></trkpt><trkpt lat="47.39056248328533" lon="-2.4565240661943166"><ele>20.0</ele><time>2026-03-22T16:25:44Z</time></trkpt><trkpt lat="47.390420782442845" lon="-2.4562526461472247"><ele>21.0</ele><time>2026-03-22T16:25:45Z</time></trkpt><trkpt lat="47.39028460911344" lon="-2.4559764665727144"><ele>21.0</ele><time>2026-03-22T16:25:46Z</time></trkpt><trkpt lat="47.39014413972764" lon="-2.4557147322719866"><ele>21.0</ele><time>2026-03-22T16:25:47Z</time></trkpt><trkpt lat="47.39001241676073" lon="-2.4554487998101866"><ele>21.0</ele><time>2026-03-22T16:25:48Z</time></trkpt><trkpt lat="47.38989828027393" lon="-2.4551927627264005"><ele>20.333333333333332</ele><time>2026-03-22T16:25:49Z</time></trkpt><trkpt lat="47.38978861565522" lon="-2.4549446803794903"><ele>19.666666666666664</ele><time>2026-03-22T16:25:50Z</time></trkpt><trkpt lat="47.389690231270485" lon="-2.4546689472469967"><ele>19.0</ele><time>2026-03-22T16:25:51Z</time></trkpt><trkpt lat="47.38959490477872" lon="-2.4543719492805445"><ele>17.0</ele><time>2026-03-22T16:25:52Z</time></trkpt><trkpt lat="47.389509184182664" lon="-2.454064710885276"><ele>15.0</ele><time>2026-03-22T16:25:53Z</time></trkpt><trkpt lat="47.38943825708427" lon="-2.4537498469837877"><ele>13.5</ele><time>2026-03-22T16:25:54Z</time></trkpt><trkpt lat="47.389377783176826" lon="-2.4534284621974862"><ele>12.0</ele><time>2026-03-22T16:25:55Z</time></trkpt><trkpt lat="47.389328412759596" lon="-2.4530779087820727"><ele>11.0</ele><time>2026-03-22T16:25:56Z</time></trkpt><trkpt lat="47.3892937486076" lon="-2.4527145213464285"><ele>10.0</ele><time>2026-03-22T16:25:57Z</time></trkpt><trkpt lat="47.38926732993621" lon="-2.4523839258960725"><ele>10.0</ele><time>2026-03-22T16:25:58Z</time></trkpt><trkpt lat="47.3892361461551" lon="-2.452076437629404"><ele>10.0</ele><time>2026-03-22T16:25:59Z</time></trkpt><trkpt lat="47.38921096000156" lon="-2.4517826487674537"><ele>10.0</ele><time>2026-03-22T16:26:00Z</time></trkpt><trkpt lat="47.38918418037692" lon="-2.451500533522664"><ele>10.333333333333334</ele><time>2026-03-22T16:26:01Z</time></trkpt><trkpt lat="47.38915784004894" lon="-2.451234895071908"><ele>10.666666666666666</ele><time>2026-03-22T16:26:02Z</time></trkpt><trkpt lat="47.389124984623926" lon="-2.450984190897802"><ele>11.0</ele><time>2026-03-22T16:26:03Z</time></trkpt><trkpt lat="47.3890955265983" lon="-2.4507412379317013"><ele>11.0</ele><time>2026-03-22T16:26:04Z</time></trkpt><trkpt lat="47.38907869015052" lon="-2.450501810776002"><ele>11.0</ele><time>2026-03-22T16:26:05Z</time></trkpt><trkpt lat="47.38906420555486" lon="-2.4502634853814316"><ele>11.0</ele><time>2026-03-22T16:26:06Z</time></trkpt><trkpt lat="47.38905735610492" lon="-2.4500011746436834"><ele>11.333333333333332</ele><time>2026-03-22T16:26:07Z</time></trkpt><trkpt lat="47.3890454226608" lon="-2.4497547770177746"><ele>11.666666666666666</ele><time>2026-03-22T16:26:08Z</time></trkpt><trkpt lat="47.38905858432515" lon="-2.449461605485966"><ele>12.0</ele><time>2026-03-22T16:26:09Z</time></trkpt><trkpt lat="47.38908980307827" lon="-2.449140158440491"><ele>11.0</ele><time>2026-03-22T16:26:10Z</time></trkpt><trkpt lat="47.38914086581107" lon="-2.4488062028291053"><ele>10.0</ele><time>2026-03-22T16:26:11Z</time></trkpt><trkpt lat="47.389189978551116" lon="-2.4484662022197123"><ele>9.0</ele><time>2026-03-22T16:26:12Z</time></trkpt><trkpt lat="47.38923954410755" lon="-2.4481089089398624"><ele>8.0</ele><time>2026-03-22T16:26:13Z</time></trkpt><trkpt lat="47.38928152653024" lon="-2.447758231707485"><ele>6.5</ele><time>2026-03-22T16:26:14Z</time></trkpt><trkpt lat="47.38932601723918" lon="-2.4474005945515707"><ele>5.0</ele><time>2026-03-22T16:26:15Z</time></trkpt><trkpt lat="47.38937152401266" lon="-2.447046530751784"><ele>5.0</ele><time>2026-03-22T16:26:16Z</time></trkpt><trkpt lat="47.38941705019914" lon="-2.446700113744102"><ele>5.0</ele><time>2026-03-22T16:26:17Z</time></trkpt><trkpt lat="47.389469020485016" lon="-2.4463579977891294"><ele>5.0</ele><time>2026-03-22T16:26:18Z</time></trkpt><trkpt lat="47.38950601916713" lon="-2.446026098531818"><ele>5.0</ele><time>2026-03-22T16:26:19Z</time></trkpt><trkpt lat="47.38954813171946" lon="-2.4456992567507077"><ele>4.5</ele><time>2026-03-22T16:26:20Z</time></trkpt><trkpt lat="47.38959021102245" lon="-2.445369492627065"><ele>4.0</ele><time>2026-03-22T16:26:21Z</time></trkpt><trkpt lat="47.389630874213516" lon="-2.445040787152788"><ele>4.0</ele><time>2026-03-22T16:26:22Z</time></trkpt><trkpt lat="47.38967091847963" lon="-2.4447394257723913"><ele>4.0</ele><time>2026-03-22T16:26:23Z</time></trkpt><trkpt lat="47.389710823386736" lon="-2.4444547224541475"><ele>4.0</ele><time>2026-03-22T16:26:24Z</time></trkpt><trkpt lat="47.389749379734106" lon="-2.4441968151456708"><ele>4.333333333333333</ele><time>2026-03-22T16:26:25Z</time></trkpt><trkpt lat="47.38978075175745" lon="-2.44395532051168"><ele>4.666666666666667</ele><time>2026-03-22T16:26:26Z</time></trkpt><trkpt lat="47.38980407916372" lon="-2.443729261379914"><ele>5.0</ele><time>2026-03-22T16:26:27Z</time></trkpt><trkpt lat="47.38983220327694" lon="-2.4435132477256674"><ele>5.666666666666667</ele><time>2026-03-22T16:26:28Z</time></trkpt><trkpt lat="47.389865315524396" lon="-2.4433155485347133"><ele>6.333333333333334</ele><time>2026-03-22T16:26:29Z</time></trkpt><trkpt lat="47.38989008342521" lon="-2.4430928690142295"><ele>7.0</ele><time>2026-03-22T16:26:30Z</time></trkpt><trkpt lat="47.38990956529041" lon="-2.4428558226792627"><ele>8.333333333333334</ele><time>2026-03-22T16:26:31Z</time></trkpt><trkpt lat="47.389934013500806" lon="-2.4426024798521455"><ele>9.666666666666666</ele><time>2026-03-22T16:26:32Z</time></trkpt><trkpt lat="47.389952412059294" lon="-2.4423382373349853"><ele>11.0</ele><time>2026-03-22T16:26:33Z</time></trkpt><trkpt lat="47.38995720970762" lon="-2.4420629451185363"><ele>11.333333333333332</ele><time>2026-03-22T16:26:34Z</time></trkpt><trkpt lat="47.389958292920106" lon="-2.4417827770087217"><ele>11.666666666666666</ele><time>2026-03-22T16:26:34.999Z</time></trkpt><trkpt lat="47.38996022772263" lon="-2.441507833859419"><ele>12.0</ele><time>2026-03-22T16:26:35.999Z</time></trkpt><trkpt lat="47.38996084943546" lon="-2.4412355445207887"><ele>12.0</ele><time>2026-03-22T16:26:36.999Z</time></trkpt><trkpt lat="47.38995670908534" lon="-2.4409679506245237"><ele>12.0</ele><time>2026-03-22T16:26:37.999Z</time></trkpt><trkpt lat="47.38994952115905" lon="-2.4407133040133293"><ele>12.0</ele><time>2026-03-22T16:26:38.999Z</time></trkpt><trkpt lat="47.389957409572986" lon="-2.4404649919195083"><ele>12.0</ele><time>2026-03-22T16:26:39.999Z</time></trkpt><trkpt lat="47.389958281675135" lon="-2.4402225920540266"><ele>12.0</ele><time>2026-03-22T16:26:40.999Z</time></trkpt><trkpt lat="47.389952700424764" lon="-2.439989994565074"><ele>12.0</ele><time>2026-03-22T16:26:41.999Z</time></trkpt><trkpt lat="47.389949838339085" lon="-2.4397442204025452"><ele>12.666666666666668</ele><time>2026-03-22T16:26:42.999Z</time></trkpt><trkpt lat="47.38994967357392" lon="-2.439500302420338"><ele>13.333333333333334</ele><time>2026-03-22T16:26:43.999Z</time></trkpt><trkpt lat="47.38995349237082" lon="-2.4392610956782654"><ele>14.0</ele><time>2026-03-22T16:26:44.999Z</time></trkpt><trkpt lat="47.38995171215516" lon="-2.43904546619483"><ele>14.0</ele><time>2026-03-22T16:26:45.999Z</time></trkpt><trkpt lat="47.38994621486983" lon="-2.438823305284771"><ele>14.0</ele><time>2026-03-22T16:26:46.999Z</time></trkpt><trkpt lat="47.389944714289456" lon="-2.438607781933753"><ele>14.0</ele><time>2026-03-22T16:26:47.999Z</time></trkpt><trkpt lat="47.38994855438867" lon="-2.438417477888817"><ele>14.0</ele><time>2026-03-22T16:26:48.999Z</time></trkpt><trkpt lat="47.38994731825587" lon="-2.438233925447335"><ele>13.799999999999999</ele><time>2026-03-22T16:26:49.999Z</time></trkpt><trkpt lat="47.38995058506294" lon="-2.4380639909260013"><ele>13.599999999999998</ele><time>2026-03-22T16:26:50.999Z</time></trkpt><trkpt lat="47.389950908677676" lon="-2.4379092975177117"><ele>13.4</ele><time>2026-03-22T16:26:51.999Z</time></trkpt><trkpt lat="47.38992487414258" lon="-2.4377679553730407"><ele>13.2</ele><time>2026-03-22T16:26:52.999Z</time></trkpt><trkpt lat="47.389870998404" lon="-2.4376577876810477"><ele>13.0</ele><time>2026-03-22T16:26:53.999Z</time></trkpt><trkpt lat="47.38977939500835" lon="-2.4375793614144277"><ele>12.5</ele><time>2026-03-22T16:26:54.999Z</time></trkpt><trkpt lat="47.38967287014709" lon="-2.4375437862806906"><ele>12.0</ele><time>2026-03-22T16:26:55.999Z</time></trkpt><trkpt lat="47.389539031248596" lon="-2.437542117465273"><ele>11.5</ele><time>2026-03-22T16:26:56.999Z</time></trkpt><trkpt lat="47.38939645199457" lon="-2.43751074896259"><ele>11.0</ele><time>2026-03-22T16:26:57.999Z</time></trkpt><trkpt lat="47.38924251337945" lon="-2.4374360883000916"><ele>11.0</ele><time>2026-03-22T16:26:58.999Z</time></trkpt><trkpt lat="47.38908285604005" lon="-2.437338978100519"><ele>11.0</ele><time>2026-03-22T16:26:59.999Z</time></trkpt><trkpt lat="47.38893570460603" lon="-2.43722985904288"><ele>11.0</ele><time>2026-03-22T16:27:00.999Z</time></trkpt><trkpt lat="47.38881185186308" lon="-2.437096243816794"><ele>11.75</ele><time>2026-03-22T16:27:01.999Z</time></trkpt><trkpt lat="47.38870858504648" lon="-2.4369863686950475"><ele>12.5</ele><time>2026-03-22T16:27:02.999Z</time></trkpt><trkpt lat="47.38861429698816" lon="-2.4368673162991477"><ele>13.25</ele><time>2026-03-22T16:27:03.999Z</time></trkpt><trkpt lat="47.38851455562924" lon="-2.4367513837534847"><ele>14.0</ele><time>2026-03-22T16:27:04.999Z</time></trkpt><trkpt lat="47.38842495239074" lon="-2.4366518255104768"><ele>14.0</ele><time>2026-03-22T16:27:05.999Z</time></trkpt><trkpt lat="47.38834101827087" lon="-2.436549615364293"><ele>13.999999999999998</ele><time>2026-03-22T16:27:06.999Z</time></trkpt><trkpt lat="47.38826449887732" lon="-2.4364612798546728"><ele>13.999999999999998</ele><time>2026-03-22T16:27:07.999Z</time></trkpt><trkpt lat="47.38819300730545" lon="-2.436369988556721"><ele>14.0</ele><time>2026-03-22T16:27:08.999Z</time></trkpt><trkpt lat="47.38812343997884" lon="-2.4362902795951777"><ele>14.0</ele><time>2026-03-22T16:27:09.999Z</time></trkpt><trkpt lat="47.38805344448786" lon="-2.4362109758779456"><ele>14.333333333333334</ele><time>2026-03-22T16:27:10.999Z</time></trkpt><trkpt lat="47.38798365196841" lon="-2.4361362006713927"><ele>14.666666666666668</ele><time>2026-03-22T16:27:11.999Z</time></trkpt><trkpt lat="47.38792594217199" lon="-2.4360723883389563"><ele>15.0</ele><time>2026-03-22T16:27:12.999Z</time></trkpt><trkpt lat="47.38786565608454" lon="-2.4360125356245734"><ele>15.333333333333332</ele><time>2026-03-22T16:27:13.999Z</time></trkpt><trkpt lat="47.38779920871836" lon="-2.435947553268462"><ele>15.666666666666666</ele><time>2026-03-22T16:27:14.999Z</time></trkpt><trkpt lat="47.387733571560645" lon="-2.4358902493110137"><ele>16.0</ele><time>2026-03-22T16:27:15.999Z</time></trkpt><trkpt lat="47.387674974056054" lon="-2.435855320137066"><ele>15.999999999999998</ele><time>2026-03-22T16:27:16.999Z</time></trkpt><trkpt lat="47.387601360186984" lon="-2.435835330128092"><ele>16.0</ele><time>2026-03-22T16:27:18.999Z</time></trkpt><trkpt lat="47.38754720595694" lon="-2.435782340084523"><ele>16.0</ele><time>2026-03-22T16:27:30.999Z</time></trkpt><trkpt lat="47.38746761910553" lon="-2.435673126485332"><ele>16.0</ele><time>2026-03-22T16:27:32.999Z</time></trkpt><trkpt lat="47.38743762737847" lon="-2.4355822947195915"><ele>15.999999999999998</ele><time>2026-03-22T16:27:33.999Z</time></trkpt><trkpt lat="47.38740465937796" lon="-2.4354781014489335"><ele>16.0</ele><time>2026-03-22T16:27:34.999Z</time></trkpt><trkpt lat="47.38737274799877" lon="-2.435374875508863"><ele>16.285714285714285</ele><time>2026-03-22T16:27:35.999Z</time></trkpt><trkpt lat="47.38733633422661" lon="-2.4352744840132887"><ele>16.57142857142857</ele><time>2026-03-22T16:27:36.999Z</time></trkpt><trkpt lat="47.38729653020153" lon="-2.43518261523313"><ele>16.857142857142858</ele><time>2026-03-22T16:27:37.999Z</time></trkpt><trkpt lat="47.387253396926724" lon="-2.435098432494592"><ele>17.142857142857142</ele><time>2026-03-22T16:27:38.999Z</time></trkpt><trkpt lat="47.38720194624006" lon="-2.435017259228444"><ele>17.42857142857143</ele><time>2026-03-22T16:27:40Z</time></trkpt><trkpt lat="47.387153824004336" lon="-2.4349379675318232"><ele>17.714285714285715</ele><time>2026-03-22T16:27:41Z</time></trkpt><trkpt lat="47.38710346684448" lon="-2.4348551682131108"><ele>18.0</ele><time>2026-03-22T16:27:42Z</time></trkpt><trkpt lat="47.38704998070581" lon="-2.434775185960916"><ele>18.6</ele><time>2026-03-22T16:27:43Z</time></trkpt><trkpt lat="47.386993643334144" lon="-2.434681016564736"><ele>19.200000000000003</ele><time>2026-03-22T16:27:44Z</time></trkpt><trkpt lat="47.38693166675269" lon="-2.434596040962059"><ele>19.8</ele><time>2026-03-22T16:27:45Z</time></trkpt><trkpt lat="47.38686876010292" lon="-2.434516829976094"><ele>20.400000000000002</ele><time>2026-03-22T16:27:46Z</time></trkpt><trkpt lat="47.386796625339414" lon="-2.434428520729591"><ele>21.0</ele><time>2026-03-22T16:27:47Z</time></trkpt><trkpt lat="47.3867127990285" lon="-2.434329756246856"><ele>21.0</ele><time>2026-03-22T16:27:48Z</time></trkpt><trkpt lat="47.38662523146944" lon="-2.434231607101157"><ele>21.0</ele><time>2026-03-22T16:27:49Z</time></trkpt><trkpt lat="47.386527077316586" lon="-2.434154446985696"><ele>21.0</ele><time>2026-03-22T16:27:50Z</time></trkpt><trkpt lat="47.38644295926105" lon="-2.4340548851782025"><ele>21.0</ele><time>2026-03-22T16:27:51Z</time></trkpt><trkpt lat="47.38632897621663" lon="-2.4339573531158787"><ele>21.5</ele><time>2026-03-22T16:27:52Z</time></trkpt><trkpt lat="47.38621253060184" lon="-2.43387551307559"><ele>22.0</ele><time>2026-03-22T16:27:53Z</time></trkpt><trkpt lat="47.38612806019187" lon="-2.4337641153377296"><ele>22.5</ele><time>2026-03-22T16:27:54Z</time></trkpt><trkpt lat="47.38599982567692" lon="-2.4336508575443623"><ele>23.0</ele><time>2026-03-22T16:27:55Z</time></trkpt><trkpt lat="47.38587891037179" lon="-2.43353899591748"><ele>23.0</ele><time>2026-03-22T16:27:56Z</time></trkpt><trkpt lat="47.38576507818493" lon="-2.433443565981947"><ele>23.0</ele><time>2026-03-22T16:27:57Z</time></trkpt><trkpt lat="47.38564806041664" lon="-2.433328601196864"><ele>23.0</ele><time>2026-03-22T16:27:58Z</time></trkpt><trkpt lat="47.38553849986091" lon="-2.4332030133045115"><ele>23.0</ele><time>2026-03-22T16:27:59Z</time></trkpt><trkpt lat="47.38543866277988" lon="-2.4330713169444764"><ele>21.5</ele><time>2026-03-22T16:28:00Z</time></trkpt><trkpt lat="47.38534754507393" lon="-2.4329401984988626"><ele>20.0</ele><time>2026-03-22T16:28:01Z</time></trkpt><trkpt lat="47.385271551843175" lon="-2.432784862124525"><ele>18.5</ele><time>2026-03-22T16:28:02Z</time></trkpt><trkpt lat="47.38520108618305" lon="-2.4326226066887613"><ele>17.0</ele><time>2026-03-22T16:28:03Z</time></trkpt><trkpt lat="47.38513004609305" lon="-2.432468896207849"><ele>17.0</ele><time>2026-03-22T16:28:04Z</time></trkpt><trkpt lat="47.38505307701772" lon="-2.4323069168772884"><ele>17.0</ele><time>2026-03-22T16:28:05Z</time></trkpt><trkpt lat="47.38498482668755" lon="-2.432134461432904"><ele>17.0</ele><time>2026-03-22T16:28:06Z</time></trkpt><trkpt lat="47.38492070500884" lon="-2.4319838725996177"><ele>17.0</ele><time>2026-03-22T16:28:07Z</time></trkpt><trkpt lat="47.384851627298424" lon="-2.431827790507677"><ele>16.2</ele><time>2026-03-22T16:28:08Z</time></trkpt><trkpt lat="47.38479456490946" lon="-2.4316802753115305"><ele>15.399999999999999</ele><time>2026-03-22T16:28:09Z</time></trkpt><trkpt lat="47.38473820672108" lon="-2.431542814774771"><ele>14.600000000000001</ele><time>2026-03-22T16:28:10Z</time></trkpt><trkpt lat="47.38468734559006" lon="-2.431407712212999"><ele>13.8</ele><time>2026-03-22T16:28:11Z</time></trkpt><trkpt lat="47.384622922060146" lon="-2.431276598916961"><ele>13.0</ele><time>2026-03-22T16:28:12Z</time></trkpt><trkpt lat="47.38456665984752" lon="-2.431124772906547"><ele>12.200000000000001</ele><time>2026-03-22T16:28:13Z</time></trkpt><trkpt lat="47.384512534626374" lon="-2.4309883300120605"><ele>11.4</ele><time>2026-03-22T16:28:14Z</time></trkpt><trkpt lat="47.38445922127489" lon="-2.430866127984777"><ele>10.600000000000001</ele><time>2026-03-22T16:28:15Z</time></trkpt><trkpt lat="47.38441335462755" lon="-2.4307573659857726"><ele>9.8</ele><time>2026-03-22T16:28:16Z</time></trkpt><trkpt lat="47.38437258800326" lon="-2.430672263662174"><ele>9.0</ele><time>2026-03-22T16:28:17Z</time></trkpt><trkpt lat="47.38428588572825" lon="-2.430542802977051"><ele>9.0</ele><time>2026-03-22T16:28:19Z</time></trkpt><trkpt lat="47.384167339268586" lon="-2.430472793831278"><ele>9.0</ele><time>2026-03-22T16:28:21Z</time></trkpt><trkpt lat="47.38408772600277" lon="-2.430475094812981"><ele>9.0</ele><time>2026-03-22T16:28:22Z</time></trkpt><trkpt lat="47.384007879604376" lon="-2.4304798297665444"><ele>9.0</ele><time>2026-03-22T16:28:23Z</time></trkpt><trkpt lat="47.38393178680549" lon="-2.430434016041436"><ele>9.0</ele><time>2026-03-22T16:28:24Z</time></trkpt><trkpt lat="47.383846726492514" lon="-2.4303695812133754"><ele>8.8</ele><time>2026-03-22T16:28:25Z</time></trkpt><trkpt lat="47.38375547551743" lon="-2.4303317364426085"><ele>8.600000000000001</ele><time>2026-03-22T16:28:26Z</time></trkpt><trkpt lat="47.38366094193709" lon="-2.430326911326894"><ele>8.4</ele><time>2026-03-22T16:28:27Z</time></trkpt><trkpt lat="47.38356824880144" lon="-2.4303039809846445"><ele>8.200000000000001</ele><time>2026-03-22T16:28:28Z</time></trkpt><trkpt lat="47.38347682697596" lon="-2.4302483447313703"><ele>8.0</ele><time>2026-03-22T16:28:28.999Z</time></trkpt><trkpt lat="47.38339067468741" lon="-2.4301660756929193"><ele>8.0</ele><time>2026-03-22T16:28:29.999Z</time></trkpt><trkpt lat="47.38331199198124" lon="-2.4300728534775"><ele>8.0</ele><time>2026-03-22T16:28:30.999Z</time></trkpt><trkpt lat="47.383246556183465" lon="-2.429961771352504"><ele>8.0</ele><time>2026-03-22T16:28:31.999Z</time></trkpt><trkpt lat="47.383184054860415" lon="-2.4298401067233564"><ele>8.0</ele><time>2026-03-22T16:28:32.999Z</time></trkpt><trkpt lat="47.383136559967284" lon="-2.429713581004893"><ele>8.0</ele><time>2026-03-22T16:28:33.999Z</time></trkpt><trkpt lat="47.38311244580906" lon="-2.4295660369946486"><ele>9.4</ele><time>2026-03-22T16:28:34.999Z</time></trkpt><trkpt lat="47.38308947639908" lon="-2.429421445633547"><ele>10.8</ele><time>2026-03-22T16:28:35.999Z</time></trkpt><trkpt lat="47.38306175480751" lon="-2.4292860270937853"><ele>12.2</ele><time>2026-03-22T16:28:36.999Z</time></trkpt><trkpt lat="47.38303299889013" lon="-2.429143446530899"><ele>13.6</ele><time>2026-03-22T16:28:37.999Z</time></trkpt><trkpt lat="47.3830096970267" lon="-2.4289760254155803"><ele>15.0</ele><time>2026-03-22T16:28:38.999Z</time></trkpt><trkpt lat="47.38297962884603" lon="-2.4288024816264375"><ele>16.25</ele><time>2026-03-22T16:28:39.999Z</time></trkpt><trkpt lat="47.382935306557364" lon="-2.4286387710300215"><ele>17.5</ele><time>2026-03-22T16:28:40.999Z</time></trkpt><trkpt lat="47.38289622969859" lon="-2.4284673611487686"><ele>18.75</ele><time>2026-03-22T16:28:41.999Z</time></trkpt><trkpt lat="47.3828607104786" lon="-2.428294531145839"><ele>20.0</ele><time>2026-03-22T16:28:42.999Z</time></trkpt><trkpt lat="47.38280977834148" lon="-2.428136643285353"><ele>20.0</ele><time>2026-03-22T16:28:43.999Z</time></trkpt><trkpt lat="47.38274611693824" lon="-2.4280024490720242"><ele>20.0</ele><time>2026-03-22T16:28:44.999Z</time></trkpt><trkpt lat="47.38266327405863" lon="-2.4278752642574633"><ele>20.0</ele><time>2026-03-22T16:28:45.999Z</time></trkpt><trkpt lat="47.382580640310906" lon="-2.427746426368031"><ele>20.0</ele><time>2026-03-22T16:28:46.999Z</time></trkpt><trkpt lat="47.3824896136717" lon="-2.427621083282043"><ele>19.75</ele><time>2026-03-22T16:28:47.999Z</time></trkpt><trkpt lat="47.382395429926945" lon="-2.4274902768177182"><ele>19.5</ele><time>2026-03-22T16:28:48.999Z</time></trkpt><trkpt lat="47.38229898383899" lon="-2.427360680325341"><ele>19.25</ele><time>2026-03-22T16:28:49.999Z</time></trkpt><trkpt lat="47.38220547310448" lon="-2.4272385591069883"><ele>19.0</ele><time>2026-03-22T16:28:50.999Z</time></trkpt><trkpt lat="47.38210909088328" lon="-2.4271154117291047"><ele>19.0</ele><time>2026-03-22T16:28:51.999Z</time></trkpt><trkpt lat="47.38201172937628" lon="-2.4269804574264375"><ele>19.0</ele><time>2026-03-22T16:28:52.999Z</time></trkpt><trkpt lat="47.38190939340594" lon="-2.426844232215601"><ele>19.0</ele><time>2026-03-22T16:28:53.999Z</time></trkpt><trkpt lat="47.38180349488273" lon="-2.4267147325816136"><ele>19.0</ele><time>2026-03-22T16:28:54.999Z</time></trkpt><trkpt lat="47.3816906463084" lon="-2.4265720142482796"><ele>19.0</ele><time>2026-03-22T16:28:55.999Z</time></trkpt><trkpt lat="47.38157682412603" lon="-2.426417636112242"><ele>19.0</ele><time>2026-03-22T16:28:56.999Z</time></trkpt><trkpt lat="47.38144683132814" lon="-2.426243056039259"><ele>19.0</ele><time>2026-03-22T16:28:57.999Z</time></trkpt><trkpt lat="47.38129949153893" lon="-2.4260307359383146"><ele>18.5</ele><time>2026-03-22T16:28:58.999Z</time></trkpt><trkpt lat="47.38112193721582" lon="-2.4257884328720287"><ele>18.0</ele><time>2026-03-22T16:28:59.999Z</time></trkpt><trkpt lat="47.38091691164142" lon="-2.4255321648053743"><ele>16.5</ele><time>2026-03-22T16:29:00.999Z</time></trkpt><trkpt lat="47.38070877031758" lon="-2.425279085817354"><ele>15.0</ele><time>2026-03-22T16:29:01.999Z</time></trkpt><trkpt lat="47.38049821855019" lon="-2.4250247143404438"><ele>14.0</ele><time>2026-03-22T16:29:02.999Z</time></trkpt><trkpt lat="47.38029046879685" lon="-2.4247644261342307"><ele>13.0</ele><time>2026-03-22T16:29:03.999Z</time></trkpt><trkpt lat="47.380085244909345" lon="-2.424495452580439"><ele>12.5</ele><time>2026-03-22T16:29:04.999Z</time></trkpt><trkpt lat="47.37988609964297" lon="-2.424235218929808"><ele>12.0</ele><time>2026-03-22T16:29:05.999Z</time></trkpt><trkpt lat="47.37969097257062" lon="-2.4239879013196157"><ele>12.0</ele><time>2026-03-22T16:29:06.999Z</time></trkpt><trkpt lat="47.379504256091074" lon="-2.4237459753577717"><ele>12.0</ele><time>2026-03-22T16:29:07.999Z</time></trkpt><trkpt lat="47.3793165900216" lon="-2.423500086564662"><ele>12.0</ele><time>2026-03-22T16:29:08.999Z</time></trkpt><trkpt lat="47.37912799863038" lon="-2.423259005910849"><ele>12.0</ele><time>2026-03-22T16:29:09.999Z</time></trkpt><trkpt lat="47.378938680219505" lon="-2.4230130912955836"><ele>12.5</ele><time>2026-03-22T16:29:10.999Z</time></trkpt><trkpt lat="47.378750440916654" lon="-2.422774730051997"><ele>13.0</ele><time>2026-03-22T16:29:11.999Z</time></trkpt><trkpt lat="47.37856696207083" lon="-2.4225337590367975"><ele>13.0</ele><time>2026-03-22T16:29:12.999Z</time></trkpt><trkpt lat="47.37838541559285" lon="-2.4223007250348814"><ele>13.0</ele><time>2026-03-22T16:29:13.999Z</time></trkpt><trkpt lat="47.37820104091702" lon="-2.422069538021418"><ele>14.5</ele><time>2026-03-22T16:29:14.999Z</time></trkpt><trkpt lat="47.37802025695066" lon="-2.421844860434761"><ele>16.0</ele><time>2026-03-22T16:29:15.999Z</time></trkpt><trkpt lat="47.37784588061459" lon="-2.421618616660186"><ele>16.0</ele><time>2026-03-22T16:29:16.999Z</time></trkpt><trkpt lat="47.37768174414636" lon="-2.4213819676615267"><ele>16.0</ele><time>2026-03-22T16:29:17.999Z</time></trkpt><trkpt lat="47.37749719994994" lon="-2.4211634994777853"><ele>15.333333333333332</ele><time>2026-03-22T16:29:18.999Z</time></trkpt><trkpt lat="47.37732497387849" lon="-2.42094266105732"><ele>14.666666666666668</ele><time>2026-03-22T16:29:19.999Z</time></trkpt><trkpt lat="47.37716697344477" lon="-2.420737645521355"><ele>14.0</ele><time>2026-03-22T16:29:20.999Z</time></trkpt><trkpt lat="47.377015352669446" lon="-2.4205518293730632"><ele>11.666666666666668</ele><time>2026-03-22T16:29:21.999Z</time></trkpt><trkpt lat="47.376868746375564" lon="-2.420369026689859"><ele>9.333333333333334</ele><time>2026-03-22T16:29:22.999Z</time></trkpt><trkpt lat="47.37672743383424" lon="-2.4201915899455098"><ele>7.0</ele><time>2026-03-22T16:29:23.999Z</time></trkpt><trkpt lat="47.37659303268751" lon="-2.4200251923672793"><ele>7.0</ele><time>2026-03-22T16:29:24.999Z</time></trkpt><trkpt lat="47.37646545781251" lon="-2.419830483478221"><ele>7.0</ele><time>2026-03-22T16:29:25.999Z</time></trkpt><trkpt lat="47.37635338177157" lon="-2.41964667564531"><ele>7.0</ele><time>2026-03-22T16:29:26.999Z</time></trkpt><trkpt lat="47.376262244656964" lon="-2.419437986973944"><ele>6.666666666666667</ele><time>2026-03-22T16:29:27.999Z</time></trkpt><trkpt lat="47.37619041448153" lon="-2.4191992418638115"><ele>6.333333333333334</ele><time>2026-03-22T16:29:28.999Z</time></trkpt><trkpt lat="47.37613667505847" lon="-2.4189323669690803"><ele>6.0</ele><time>2026-03-22T16:29:29.999Z</time></trkpt><trkpt lat="47.37609684018963" lon="-2.41864768278493"><ele>8.333333333333332</ele><time>2026-03-22T16:29:30.999Z</time></trkpt><trkpt lat="47.37605598924208" lon="-2.418353577024453"><ele>10.666666666666666</ele><time>2026-03-22T16:29:31.999Z</time></trkpt><trkpt lat="47.37601704970136" lon="-2.4180560029515092"><ele>13.0</ele><time>2026-03-22T16:29:32.999Z</time></trkpt><trkpt lat="47.37600132245969" lon="-2.4177469834116723"><ele>14.333333333333332</ele><time>2026-03-22T16:29:33.999Z</time></trkpt><trkpt lat="47.37597949810528" lon="-2.417422891457079"><ele>15.666666666666668</ele><time>2026-03-22T16:29:34.999Z</time></trkpt><trkpt lat="47.3759532918596" lon="-2.417115148356252"><ele>17.0</ele><time>2026-03-22T16:29:35.999Z</time></trkpt><trkpt lat="47.37592455145161" lon="-2.416813194756846"><ele>17.0</ele><time>2026-03-22T16:29:36.999Z</time></trkpt><trkpt lat="47.3759111042576" lon="-2.416499588941164"><ele>17.0</ele><time>2026-03-22T16:29:37.999Z</time></trkpt><trkpt lat="47.37587790950916" lon="-2.4161907203874784"><ele>17.0</ele><time>2026-03-22T16:29:38.999Z</time></trkpt><trkpt lat="47.375838370664795" lon="-2.415896469012653"><ele>16.333333333333336</ele><time>2026-03-22T16:29:39.999Z</time></trkpt><trkpt lat="47.375799570212024" lon="-2.415587371273805"><ele>15.666666666666668</ele><time>2026-03-22T16:29:40.999Z</time></trkpt><trkpt lat="47.375765965607926" lon="-2.4152649959929877"><ele>15.0</ele><time>2026-03-22T16:29:41.999Z</time></trkpt><trkpt lat="47.375740808083826" lon="-2.414919810260974"><ele>14.5</ele><time>2026-03-22T16:29:42.999Z</time></trkpt><trkpt lat="47.375704621865005" lon="-2.4145621174676655"><ele>14.0</ele><time>2026-03-22T16:29:43.999Z</time></trkpt><trkpt lat="47.37566569201514" lon="-2.4142042367262215"><ele>14.0</ele><time>2026-03-22T16:29:44.999Z</time></trkpt><trkpt lat="47.37562274106053" lon="-2.413825151651364"><ele>14.0</ele><time>2026-03-22T16:29:46Z</time></trkpt><trkpt lat="47.37557561545424" lon="-2.413451382669413"><ele>13.5</ele><time>2026-03-22T16:29:47Z</time></trkpt><trkpt lat="47.37553186818799" lon="-2.4130917236238516"><ele>13.0</ele><time>2026-03-22T16:29:48Z</time></trkpt><trkpt lat="47.37548243504781" lon="-2.41272208032509"><ele>15.5</ele><time>2026-03-22T16:29:49Z</time></trkpt><trkpt lat="47.37543869703184" lon="-2.412359279678796"><ele>18.0</ele><time>2026-03-22T16:29:50Z</time></trkpt><trkpt lat="47.37540259747515" lon="-2.412001338379917"><ele>19.5</ele><time>2026-03-22T16:29:51Z</time></trkpt><trkpt lat="47.375370114870854" lon="-2.4116504630307958"><ele>21.0</ele><time>2026-03-22T16:29:52Z</time></trkpt><trkpt lat="47.37533027719903" lon="-2.4112993855142406"><ele>21.0</ele><time>2026-03-22T16:29:53Z</time></trkpt><trkpt lat="47.37529638692263" lon="-2.4109516261428325"><ele>21.0</ele><time>2026-03-22T16:29:54Z</time></trkpt><trkpt lat="47.37525906585971" lon="-2.4106134959459724"><ele>21.0</ele><time>2026-03-22T16:29:55Z</time></trkpt><trkpt lat="47.37522174274776" lon="-2.410262457849482"><ele>21.0</ele><time>2026-03-22T16:29:56Z</time></trkpt><trkpt lat="47.375186050644295" lon="-2.409929361125862"><ele>21.5</ele><time>2026-03-22T16:29:57Z</time></trkpt><trkpt lat="47.37515066708005" lon="-2.4095862528039382"><ele>22.0</ele><time>2026-03-22T16:29:58Z</time></trkpt><trkpt lat="47.375112681294105" lon="-2.4092528329475464"><ele>22.0</ele><time>2026-03-22T16:29:59Z</time></trkpt><trkpt lat="47.375068398577056" lon="-2.4089176188851087"><ele>22.0</ele><time>2026-03-22T16:30:00Z</time></trkpt><trkpt lat="47.37502432795819" lon="-2.408590481986902"><ele>20.0</ele><time>2026-03-22T16:30:01Z</time></trkpt><trkpt lat="47.37497944137704" lon="-2.408254659092984"><ele>18.0</ele><time>2026-03-22T16:30:02Z</time></trkpt><trkpt lat="47.37492779711843" lon="-2.4079238933173563"><ele>17.5</ele><time>2026-03-22T16:30:03Z</time></trkpt><trkpt lat="47.374879306155584" lon="-2.407589287938178"><ele>17.0</ele><time>2026-03-22T16:30:04Z</time></trkpt><trkpt lat="47.37483107546898" lon="-2.40725539310221"><ele>16.5</ele><time>2026-03-22T16:30:05Z</time></trkpt><trkpt lat="47.37478499075844" lon="-2.4069227902766093"><ele>16.0</ele><time>2026-03-22T16:30:06Z</time></trkpt><trkpt lat="47.37473907924838" lon="-2.4065887021681864"><ele>16.0</ele><time>2026-03-22T16:30:07Z</time></trkpt><trkpt lat="47.3746918242746" lon="-2.406253365776671"><ele>16.0</ele><time>2026-03-22T16:30:08Z</time></trkpt><trkpt lat="47.374643439338946" lon="-2.4059189799388667"><ele>16.0</ele><time>2026-03-22T16:30:09Z</time></trkpt><trkpt lat="47.37459197729234" lon="-2.405589970715934"><ele>16.0</ele><time>2026-03-22T16:30:10Z</time></trkpt><trkpt lat="47.374544589205925" lon="-2.4052606837729735"><ele>16.333333333333332</ele><time>2026-03-22T16:30:11Z</time></trkpt><trkpt lat="47.37449811318999" lon="-2.4049484176456346"><ele>16.666666666666668</ele><time>2026-03-22T16:30:12Z</time></trkpt><trkpt lat="47.37445230836916" lon="-2.404633836235579"><ele>17.0</ele><time>2026-03-22T16:30:13Z</time></trkpt><trkpt lat="47.374403177868366" lon="-2.404312011091046"><ele>17.333333333333336</ele><time>2026-03-22T16:30:14Z</time></trkpt><trkpt lat="47.37435546931892" lon="-2.403989590589832"><ele>17.666666666666668</ele><time>2026-03-22T16:30:15Z</time></trkpt><trkpt lat="47.37431088257281" lon="-2.403682613624544"><ele>18.0</ele><time>2026-03-22T16:30:16Z</time></trkpt><trkpt lat="47.374271189931044" lon="-2.403400088595486"><ele>18.0</ele><time>2026-03-22T16:30:17Z</time></trkpt><trkpt lat="47.37423131684576" lon="-2.4031287127532837"><ele>18.0</ele><time>2026-03-22T16:30:18Z</time></trkpt><trkpt lat="47.37419243288901" lon="-2.402873925654116"><ele>18.0</ele><time>2026-03-22T16:30:19Z</time></trkpt><trkpt lat="47.374155466466554" lon="-2.4026291662397163"><ele>18.0</ele><time>2026-03-22T16:30:20Z</time></trkpt><trkpt lat="47.374125961888176" lon="-2.402393579226777"><ele>18.0</ele><time>2026-03-22T16:30:21Z</time></trkpt><trkpt lat="47.37410472736014" lon="-2.402173956319166"><ele>18.0</ele><time>2026-03-22T16:30:22Z</time></trkpt><trkpt lat="47.37409981054938" lon="-2.401971835462581"><ele>18.0</ele><time>2026-03-22T16:30:23Z</time></trkpt><trkpt lat="47.37411434833916" lon="-2.401786747495582"><ele>18.0</ele><time>2026-03-22T16:30:24Z</time></trkpt><trkpt lat="47.37414374695631" lon="-2.4016075532778522"><ele>18.0</ele><time>2026-03-22T16:30:25Z</time></trkpt><trkpt lat="47.374182241327496" lon="-2.4014494051658826"><ele>18.0</ele><time>2026-03-22T16:30:26Z</time></trkpt><trkpt lat="47.37420404747155" lon="-2.401318473440032"><ele>18.0</ele><time>2026-03-22T16:30:27Z</time></trkpt><trkpt lat="47.37420781349089" lon="-2.401204125503329"><ele>18.0</ele><time>2026-03-22T16:30:28Z</time></trkpt><trkpt lat="47.37419275871838" lon="-2.4011029559300336"><ele>18.0</ele><time>2026-03-22T16:30:29Z</time></trkpt><trkpt lat="47.3741647848968" lon="-2.401015626549878"><ele>18.0</ele><time>2026-03-22T16:30:30Z</time></trkpt><trkpt lat="47.37407722024481" lon="-2.4009350773419182"><ele>18.0</ele><time>2026-03-22T16:30:32Z</time></trkpt><trkpt lat="47.37397776152621" lon="-2.40083772122583"><ele>18.0</ele><time>2026-03-22T16:30:38Z</time></trkpt><trkpt lat="47.37392501229468" lon="-2.400720165825762"><ele>18.0</ele><time>2026-03-22T16:30:39Z</time></trkpt><trkpt lat="47.3738856227887" lon="-2.4005577470129156"><ele>17.333333333333332</ele><time>2026-03-22T16:30:39.999Z</time></trkpt><trkpt lat="47.37386064961576" lon="-2.400376989229723"><ele>16.666666666666664</ele><time>2026-03-22T16:30:40.999Z</time></trkpt><trkpt lat="47.37383580645368" lon="-2.4001422188591115"><ele>16.0</ele><time>2026-03-22T16:30:41.999Z</time></trkpt><trkpt lat="47.373812646481156" lon="-2.3998353913177612"><ele>15.666666666666666</ele><time>2026-03-22T16:30:42.999Z</time></trkpt><trkpt lat="47.37378709977527" lon="-2.3995475885423687"><ele>15.333333333333332</ele><time>2026-03-22T16:30:43.999Z</time></trkpt><trkpt lat="47.373749913242854" lon="-2.399238497397547"><ele>15.0</ele><time>2026-03-22T16:30:44.999Z</time></trkpt><trkpt lat="47.37373023615565" lon="-2.3988982681574478"><ele>15.5</ele><time>2026-03-22T16:30:45.999Z</time></trkpt><trkpt lat="47.37370796799262" lon="-2.3985505521038406"><ele>16.0</ele><time>2026-03-22T16:30:46.999Z</time></trkpt><trkpt lat="47.37369536911681" lon="-2.3982220265897634"><ele>16.0</ele><time>2026-03-22T16:30:47.999Z</time></trkpt><trkpt lat="47.37367348014612" lon="-2.3979125847010905"><ele>16.0</ele><time>2026-03-22T16:30:48.999Z</time></trkpt><trkpt lat="47.37364678965539" lon="-2.3976118219376246"><ele>16.0</ele><time>2026-03-22T16:30:49.999Z</time></trkpt><trkpt lat="47.37362511897565" lon="-2.3973158541980077"><ele>16.0</ele><time>2026-03-22T16:30:50.999Z</time></trkpt><trkpt lat="47.37360261327815" lon="-2.3970318253153624"><ele>16.0</ele><time>2026-03-22T16:30:51.999Z</time></trkpt><trkpt lat="47.37357613745396" lon="-2.3967465385043174"><ele>16.0</ele><time>2026-03-22T16:30:52.999Z</time></trkpt><trkpt lat="47.37355377605985" lon="-2.3964726836873917"><ele>16.333333333333332</ele><time>2026-03-22T16:30:53.999Z</time></trkpt><trkpt lat="47.3735254188568" lon="-2.3961942468064987"><ele>16.666666666666668</ele><time>2026-03-22T16:30:54.999Z</time></trkpt><trkpt lat="47.3735074800282" lon="-2.3959158178003013"><ele>17.0</ele><time>2026-03-22T16:30:55.999Z</time></trkpt><trkpt lat="47.373486793879685" lon="-2.395628786425954"><ele>17.333333333333336</ele><time>2026-03-22T16:30:56.999Z</time></trkpt><trkpt lat="47.37346330418538" lon="-2.3953378084735135"><ele>17.666666666666668</ele><time>2026-03-22T16:30:57.999Z</time></trkpt><trkpt lat="47.373442243566735" lon="-2.3950466179689074"><ele>18.0</ele><time>2026-03-22T16:30:58.999Z</time></trkpt><trkpt lat="47.37341910379132" lon="-2.3947420145323886"><ele>17.666666666666668</ele><time>2026-03-22T16:30:59.999Z</time></trkpt><trkpt lat="47.37339397817478" lon="-2.3944460656296234"><ele>17.333333333333336</ele><time>2026-03-22T16:31:00.999Z</time></trkpt><trkpt lat="47.3733756425133" lon="-2.394133141766047"><ele>17.0</ele><time>2026-03-22T16:31:01.999Z</time></trkpt><trkpt lat="47.3733660531868" lon="-2.3938074162501852"><ele>16.666666666666668</ele><time>2026-03-22T16:31:02.999Z</time></trkpt><trkpt lat="47.37332463408665" lon="-2.3934946586281196"><ele>16.333333333333332</ele><time>2026-03-22T16:31:03.999Z</time></trkpt><trkpt lat="47.373298129770056" lon="-2.3931710792908554"><ele>16.0</ele><time>2026-03-22T16:31:04.999Z</time></trkpt><trkpt lat="47.37327340938161" lon="-2.3928502135621224"><ele>16.0</ele><time>2026-03-22T16:31:05.999Z</time></trkpt><trkpt lat="47.37324972307334" lon="-2.3925453464131516"><ele>16.0</ele><time>2026-03-22T16:31:06.999Z</time></trkpt><trkpt lat="47.373225404729354" lon="-2.392218974682858"><ele>16.0</ele><time>2026-03-22T16:31:07.999Z</time></trkpt><trkpt lat="47.37320105695747" lon="-2.391898864031126"><ele>16.0</ele><time>2026-03-22T16:31:08.999Z</time></trkpt><trkpt lat="47.37317743752799" lon="-2.3915886453456836"><ele>16.0</ele><time>2026-03-22T16:31:09.999Z</time></trkpt><trkpt lat="47.37315277965037" lon="-2.3912813105130026"><ele>16.0</ele><time>2026-03-22T16:31:10.999Z</time></trkpt><trkpt lat="47.37312745832094" lon="-2.3909672566203444"><ele>16.666666666666664</ele><time>2026-03-22T16:31:11.999Z</time></trkpt><trkpt lat="47.37310940741104" lon="-2.3906528396831646"><ele>17.333333333333332</ele><time>2026-03-22T16:31:12.999Z</time></trkpt><trkpt lat="47.373098254162144" lon="-2.3903442479859214"><ele>18.0</ele><time>2026-03-22T16:31:13.999Z</time></trkpt><trkpt lat="47.37307173782444" lon="-2.3900446674576017"><ele>18.0</ele><time>2026-03-22T16:31:14.999Z</time></trkpt><trkpt lat="47.37304256201656" lon="-2.389745985929453"><ele>18.0</ele><time>2026-03-22T16:31:15.999Z</time></trkpt><trkpt lat="47.37300476653005" lon="-2.389465583713658"><ele>18.0</ele><time>2026-03-22T16:31:16.999Z</time></trkpt><trkpt lat="47.37294933008515" lon="-2.389183353244622"><ele>17.333333333333332</ele><time>2026-03-22T16:31:17.999Z</time></trkpt><trkpt lat="47.37286604695513" lon="-2.3889012817695034"><ele>16.666666666666664</ele><time>2026-03-22T16:31:18.999Z</time></trkpt><trkpt lat="47.37276550614169" lon="-2.3886136697779525"><ele>16.0</ele><time>2026-03-22T16:31:19.999Z</time></trkpt><trkpt lat="47.37267490374148" lon="-2.388322427419521"><ele>15.5</ele><time>2026-03-22T16:31:20.999Z</time></trkpt><trkpt lat="47.37259006143199" lon="-2.3880215335938146"><ele>15.0</ele><time>2026-03-22T16:31:21.999Z</time></trkpt><trkpt lat="47.37248907539487" lon="-2.3877103955319887"><ele>14.5</ele><time>2026-03-22T16:31:22.999Z</time></trkpt><trkpt lat="47.37236489970993" lon="-2.3874005255535438"><ele>14.0</ele><time>2026-03-22T16:31:23.999Z</time></trkpt><trkpt lat="47.372247173278254" lon="-2.3871230003179518"><ele>13.666666666666668</ele><time>2026-03-22T16:31:24.999Z</time></trkpt><trkpt lat="47.37213826307192" lon="-2.386863273029971"><ele>13.333333333333332</ele><time>2026-03-22T16:31:25.999Z</time></trkpt><trkpt lat="47.37203257920699" lon="-2.3866012853439043"><ele>13.0</ele><time>2026-03-22T16:31:26.999Z</time></trkpt><trkpt lat="47.37192590339416" lon="-2.38633976022802"><ele>13.0</ele><time>2026-03-22T16:31:27.999Z</time></trkpt><trkpt lat="47.371814528228924" lon="-2.3860602468659646"><ele>13.0</ele><time>2026-03-22T16:31:28.999Z</time></trkpt><trkpt lat="47.37170902034809" lon="-2.385800706385396"><ele>13.0</ele><time>2026-03-22T16:31:29.999Z</time></trkpt><trkpt lat="47.371617695567785" lon="-2.3855800228688966"><ele>13.666666666666666</ele><time>2026-03-22T16:31:30.999Z</time></trkpt><trkpt lat="47.37152829456839" lon="-2.385385092390842"><ele>14.333333333333332</ele><time>2026-03-22T16:31:31.999Z</time></trkpt><trkpt lat="47.3714073213451" lon="-2.385221056605964"><ele>15.0</ele><time>2026-03-22T16:31:32.999Z</time></trkpt><trkpt lat="47.37125535777533" lon="-2.3850831098741176"><ele>13.666666666666666</ele><time>2026-03-22T16:31:33.999Z</time></trkpt><trkpt lat="47.371072502908255" lon="-2.3849618384080125"><ele>12.333333333333332</ele><time>2026-03-22T16:31:34.999Z</time></trkpt><trkpt lat="47.37088463566868" lon="-2.3848436474900656"><ele>11.0</ele><time>2026-03-22T16:31:35.999Z</time></trkpt><trkpt lat="47.37069240427449" lon="-2.384729940225042"><ele>11.0</ele><time>2026-03-22T16:31:36.999Z</time></trkpt><trkpt lat="47.370533002295225" lon="-2.384606605895261"><ele>11.0</ele><time>2026-03-22T16:31:37.999Z</time></trkpt><trkpt lat="47.37040305698336" lon="-2.384517993083782"><ele>11.0</ele><time>2026-03-22T16:31:38.999Z</time></trkpt><trkpt lat="47.370295515860924" lon="-2.3844465621351723"><ele>11.0</ele><time>2026-03-22T16:31:39.999Z</time></trkpt><trkpt lat="47.37018508810065" lon="-2.3843771232909634"><ele>9.5</ele><time>2026-03-22T16:31:40.999Z</time></trkpt><trkpt lat="47.370080000883824" lon="-2.384311116634256"><ele>8.0</ele><time>2026-03-22T16:31:41.999Z</time></trkpt><trkpt lat="47.3699733765397" lon="-2.3842482738469433"><ele>6.5</ele><time>2026-03-22T16:31:42.999Z</time></trkpt><trkpt lat="47.36984629436547" lon="-2.384194626705685"><ele>5.0</ele><time>2026-03-22T16:31:43.999Z</time></trkpt><trkpt lat="47.36971202494874" lon="-2.3841662886119925"><ele>4.75</ele><time>2026-03-22T16:31:44.999Z</time></trkpt><trkpt lat="47.369576105690726" lon="-2.38416211709444"><ele>4.5</ele><time>2026-03-22T16:31:45.999Z</time></trkpt><trkpt lat="47.36943940145203" lon="-2.384176558409919"><ele>4.25</ele><time>2026-03-22T16:31:46.999Z</time></trkpt><trkpt lat="47.36931762601748" lon="-2.3841762367134667"><ele>4.0</ele><time>2026-03-22T16:31:47.999Z</time></trkpt><trkpt lat="47.36920884881758" lon="-2.3841744776654226"><ele>4.0</ele><time>2026-03-22T16:31:48.999Z</time></trkpt><trkpt lat="47.3691118481693" lon="-2.3841636165094164"><ele>4.0</ele><time>2026-03-22T16:31:49.999Z</time></trkpt><trkpt lat="47.369025194989824" lon="-2.384154490450282"><ele>4.0</ele><time>2026-03-22T16:31:50.999Z</time></trkpt><trkpt lat="47.3689447046526" lon="-2.3841182086269677"><ele>4.0</ele><time>2026-03-22T16:31:52Z</time></trkpt><trkpt lat="47.368847382031056" lon="-2.384063616392014"><ele>4.0</ele><time>2026-03-22T16:31:53Z</time></trkpt><trkpt lat="47.368742216621094" lon="-2.383991183547104"><ele>4.75</ele><time>2026-03-22T16:31:54Z</time></trkpt><trkpt lat="47.36862180812593" lon="-2.383895195726489"><ele>5.5</ele><time>2026-03-22T16:31:55Z</time></trkpt><trkpt lat="47.3685013564402" lon="-2.383794869247297"><ele>6.25</ele><time>2026-03-22T16:31:56Z</time></trkpt><trkpt lat="47.36837335950667" lon="-2.3836802237556616"><ele>7.0</ele><time>2026-03-22T16:31:57Z</time></trkpt><trkpt lat="47.36824222901165" lon="-2.3835674434769882"><ele>7.666666666666667</ele><time>2026-03-22T16:31:58Z</time></trkpt><trkpt lat="47.36810456445394" lon="-2.3834463195551163"><ele>8.333333333333334</ele><time>2026-03-22T16:31:59Z</time></trkpt><trkpt lat="47.36797596344278" lon="-2.3833378285390605"><ele>9.0</ele><time>2026-03-22T16:32:00Z</time></trkpt><trkpt lat="47.367841170728354" lon="-2.3832306726654284"><ele>9.25</ele><time>2026-03-22T16:32:01Z</time></trkpt><trkpt lat="47.367715946812815" lon="-2.383138563526676"><ele>9.5</ele><time>2026-03-22T16:32:02Z</time></trkpt><trkpt lat="47.36761305825378" lon="-2.383044513212229"><ele>9.75</ele><time>2026-03-22T16:32:03Z</time></trkpt><trkpt lat="47.36750630491022" lon="-2.3829433571983523"><ele>10.0</ele><time>2026-03-22T16:32:04Z</time></trkpt><trkpt lat="47.36739913309409" lon="-2.3828777859220662"><ele>10.0</ele><time>2026-03-22T16:32:05Z</time></trkpt><trkpt lat="47.36729277959669" lon="-2.3827876637036147"><ele>10.0</ele><time>2026-03-22T16:32:06Z</time></trkpt><trkpt lat="47.36719829111121" lon="-2.3826820436196074"><ele>10.0</ele><time>2026-03-22T16:32:07Z</time></trkpt><trkpt lat="47.367116157684386" lon="-2.382548942738267"><ele>10.0</ele><time>2026-03-22T16:32:08Z</time></trkpt><trkpt lat="47.36703504397846" lon="-2.382412592074094"><ele>10.0</ele><time>2026-03-22T16:32:09Z</time></trkpt><trkpt lat="47.36694651433585" lon="-2.3822700541884987"><ele>10.0</ele><time>2026-03-22T16:32:10Z</time></trkpt><trkpt lat="47.36684957873277" lon="-2.382117944388651"><ele>10.0</ele><time>2026-03-22T16:32:11Z</time></trkpt><trkpt lat="47.36675337191743" lon="-2.3819655422788157"><ele>10.0</ele><time>2026-03-22T16:32:12Z</time></trkpt><trkpt lat="47.36665944710818" lon="-2.381822304792406"><ele>10.25</ele><time>2026-03-22T16:32:13Z</time></trkpt><trkpt lat="47.36656729748636" lon="-2.3816775101956695"><ele>10.5</ele><time>2026-03-22T16:32:14Z</time></trkpt><trkpt lat="47.36647721268768" lon="-2.3815257561082483"><ele>10.75</ele><time>2026-03-22T16:32:15Z</time></trkpt><trkpt lat="47.366388458073445" lon="-2.381387092525021"><ele>11.0</ele><time>2026-03-22T16:32:16Z</time></trkpt><trkpt lat="47.36630915396806" lon="-2.381258356034122"><ele>11.0</ele><time>2026-03-22T16:32:17Z</time></trkpt><trkpt lat="47.36623481137355" lon="-2.3811420872199744"><ele>11.0</ele><time>2026-03-22T16:32:18Z</time></trkpt><trkpt lat="47.36616913219565" lon="-2.3810343079146246"><ele>11.0</ele><time>2026-03-22T16:32:19Z</time></trkpt><trkpt lat="47.36611647102318" lon="-2.3809002541863866"><ele>11.0</ele><time>2026-03-22T16:32:20Z</time></trkpt><trkpt lat="47.36607916362248" lon="-2.380739392461398"><ele>11.0</ele><time>2026-03-22T16:32:21Z</time></trkpt><trkpt lat="47.36606758072258" lon="-2.3805468083578205"><ele>11.0</ele><time>2026-03-22T16:32:22Z</time></trkpt><trkpt lat="47.36607020611274" lon="-2.380355637610909"><ele>11.0</ele><time>2026-03-22T16:32:23Z</time></trkpt><trkpt lat="47.366072103762605" lon="-2.38017260982829"><ele>11.0</ele><time>2026-03-22T16:32:24Z</time></trkpt><trkpt lat="47.366053396197216" lon="-2.379995558775275"><ele>11.0</ele><time>2026-03-22T16:32:25Z</time></trkpt><trkpt lat="47.36600597068236" lon="-2.3798154898725943"><ele>10.5</ele><time>2026-03-22T16:32:26Z</time></trkpt><trkpt lat="47.365926141098655" lon="-2.3796463191006123"><ele>10.0</ele><time>2026-03-22T16:32:27Z</time></trkpt><trkpt lat="47.365835818912416" lon="-2.3794733926687264"><ele>9.5</ele><time>2026-03-22T16:32:28Z</time></trkpt><trkpt lat="47.36576254513849" lon="-2.3792831607442215"><ele>9.0</ele><time>2026-03-22T16:32:29Z</time></trkpt><trkpt lat="47.36570714938033" lon="-2.3790707804552196"><ele>9.0</ele><time>2026-03-22T16:32:30Z</time></trkpt><trkpt lat="47.36566112844998" lon="-2.3788549778623365"><ele>9.0</ele><time>2026-03-22T16:32:31Z</time></trkpt><trkpt lat="47.36561491698094" lon="-2.3786441027995178"><ele>9.0</ele><time>2026-03-22T16:32:32Z</time></trkpt><trkpt lat="47.365568938929414" lon="-2.378440947919118"><ele>9.0</ele><time>2026-03-22T16:32:33Z</time></trkpt><trkpt lat="47.36552272926165" lon="-2.3782468261950056"><ele>9.0</ele><time>2026-03-22T16:32:34Z</time></trkpt><trkpt lat="47.365461769541106" lon="-2.378059547775258"><ele>9.0</ele><time>2026-03-22T16:32:35Z</time></trkpt><trkpt lat="47.36538379456314" lon="-2.3778930997848087"><ele>9.0</ele><time>2026-03-22T16:32:36Z</time></trkpt><trkpt lat="47.36528867555203" lon="-2.3777441597921225"><ele>9.0</ele><time>2026-03-22T16:32:37Z</time></trkpt><trkpt lat="47.365171691911435" lon="-2.377622594130639"><ele>9.0</ele><time>2026-03-22T16:32:38Z</time></trkpt><trkpt lat="47.36504155313847" lon="-2.377514262222583"><ele>9.0</ele><time>2026-03-22T16:32:39Z</time></trkpt><trkpt lat="47.364928581353546" lon="-2.3773971452303453"><ele>9.0</ele><time>2026-03-22T16:32:40Z</time></trkpt><trkpt lat="47.36484146085012" lon="-2.377254771322086"><ele>9.0</ele><time>2026-03-22T16:32:41Z</time></trkpt><trkpt lat="47.36476238916666" lon="-2.3770754029418826"><ele>9.25</ele><time>2026-03-22T16:32:42Z</time></trkpt><trkpt lat="47.36469087058473" lon="-2.3768683954238825"><ele>9.5</ele><time>2026-03-22T16:32:43Z</time></trkpt><trkpt lat="47.36462217035002" lon="-2.376684117309084"><ele>9.75</ele><time>2026-03-22T16:32:44Z</time></trkpt><trkpt lat="47.364552687765226" lon="-2.376522924325291"><ele>10.0</ele><time>2026-03-22T16:32:45Z</time></trkpt><trkpt lat="47.364476178972154" lon="-2.3763853232083516"><ele>9.5</ele><time>2026-03-22T16:32:45.999Z</time></trkpt><trkpt lat="47.36438559303991" lon="-2.3762859001728858"><ele>9.0</ele><time>2026-03-22T16:32:46.999Z</time></trkpt><trkpt lat="47.36428815700335" lon="-2.3762109391618034"><ele>8.5</ele><time>2026-03-22T16:32:47.999Z</time></trkpt><trkpt lat="47.3641607737034" lon="-2.376169390140032"><ele>8.0</ele><time>2026-03-22T16:32:48.999Z</time></trkpt><trkpt lat="47.364016482775064" lon="-2.3761624772088696"><ele>8.0</ele><time>2026-03-22T16:32:49.999Z</time></trkpt><trkpt lat="47.36386680509799" lon="-2.3761433136084613"><ele>8.0</ele><time>2026-03-22T16:32:50.999Z</time></trkpt><trkpt lat="47.36372165180871" lon="-2.376108519124531"><ele>8.0</ele><time>2026-03-22T16:32:51.999Z</time></trkpt><trkpt lat="47.36357860114508" lon="-2.376032093834193"><ele>8.0</ele><time>2026-03-22T16:32:52.999Z</time></trkpt><trkpt lat="47.36344258393923" lon="-2.3759079284028033"><ele>7.0</ele><time>2026-03-22T16:32:53.999Z</time></trkpt><trkpt lat="47.36330691688515" lon="-2.3757456743078746"><ele>6.0</ele><time>2026-03-22T16:32:54.999Z</time></trkpt><trkpt lat="47.36316878232437" lon="-2.375567235031086"><ele>5.0</ele><time>2026-03-22T16:32:55.999Z</time></trkpt><trkpt lat="47.36301986394004" lon="-2.3753927529231755"><ele>4.666666666666667</ele><time>2026-03-22T16:32:56.999Z</time></trkpt><trkpt lat="47.362855007988905" lon="-2.37523958459167"><ele>4.333333333333333</ele><time>2026-03-22T16:32:57.999Z</time></trkpt><trkpt lat="47.36267925306401" lon="-2.3750874844985237"><ele>4.0</ele><time>2026-03-22T16:32:58.999Z</time></trkpt><trkpt lat="47.362517952424334" lon="-2.3749456446171995"><ele>4.0</ele><time>2026-03-22T16:32:59.999Z</time></trkpt><trkpt lat="47.36235977358467" lon="-2.3748145678920554"><ele>4.0</ele><time>2026-03-22T16:33:00.999Z</time></trkpt><trkpt lat="47.362207196395715" lon="-2.3747038848611584"><ele>4.0</ele><time>2026-03-22T16:33:01.999Z</time></trkpt><trkpt lat="47.36205770985587" lon="-2.374618044217186"><ele>4.25</ele><time>2026-03-22T16:33:02.999Z</time></trkpt><trkpt lat="47.36191658979674" lon="-2.374567860845499"><ele>4.5</ele><time>2026-03-22T16:33:03.999Z</time></trkpt><trkpt lat="47.3617818797068" lon="-2.374521416049297"><ele>4.75</ele><time>2026-03-22T16:33:04.999Z</time></trkpt><trkpt lat="47.36165590933106" lon="-2.3744713969508178"><ele>5.0</ele><time>2026-03-22T16:33:05.999Z</time></trkpt><trkpt lat="47.36154511537237" lon="-2.3744321938184996"><ele>5.0</ele><time>2026-03-22T16:33:06.999Z</time></trkpt><trkpt lat="47.361441245979165" lon="-2.374396367629033"><ele>5.0</ele><time>2026-03-22T16:33:07.999Z</time></trkpt><trkpt lat="47.36134974470543" lon="-2.3743608960722393"><ele>5.0</ele><time>2026-03-22T16:33:08.999Z</time></trkpt><trkpt lat="47.361250945623816" lon="-2.374321377415997"><ele>5.0</ele><time>2026-03-22T16:33:09.999Z</time></trkpt><trkpt lat="47.36114924248109" lon="-2.3742875518050854"><ele>5.0</ele><time>2026-03-22T16:33:10.999Z</time></trkpt><trkpt lat="47.36104530207699" lon="-2.3742579082293047"><ele>5.0</ele><time>2026-03-22T16:33:11.999Z</time></trkpt><trkpt lat="47.36094753197013" lon="-2.3742284801839197"><ele>5.0</ele><time>2026-03-22T16:33:12.999Z</time></trkpt><trkpt lat="47.360860438649844" lon="-2.374204470196745"><ele>5.0</ele><time>2026-03-22T16:33:13.999Z</time></trkpt><trkpt lat="47.36077997973034" lon="-2.3741899966529725"><ele>5.0</ele><time>2026-03-22T16:33:14.999Z</time></trkpt><trkpt lat="47.360702709560584" lon="-2.374172146626932"><ele>5.0</ele><time>2026-03-22T16:33:15.999Z</time></trkpt><trkpt lat="47.360631291476906" lon="-2.3741506913355264"><ele>5.0</ele><time>2026-03-22T16:33:16.999Z</time></trkpt><trkpt lat="47.36056438557636" lon="-2.3741387934933655"><ele>5.0</ele><time>2026-03-22T16:33:17.999Z</time></trkpt><trkpt lat="47.36044133837414" lon="-2.374144896464768"><ele>5.0</ele><time>2026-03-22T16:33:19.999Z</time></trkpt><trkpt lat="47.360369769530344" lon="-2.3741784997734703"><ele>5.0</ele><time>2026-03-22T16:33:20.999Z</time></trkpt><trkpt lat="47.36029017999257" lon="-2.374187359969432"><ele>5.0</ele><time>2026-03-22T16:33:21.999Z</time></trkpt><trkpt lat="47.36020697192304" lon="-2.3741417286061344"><ele>5.0</ele><time>2026-03-22T16:33:22.999Z</time></trkpt><trkpt lat="47.360125322299545" lon="-2.3740581027561656"><ele>5.0</ele><time>2026-03-22T16:33:23.999Z</time></trkpt><trkpt lat="47.360023568811364" lon="-2.3739657077457084"><ele>5.0</ele><time>2026-03-22T16:33:24.999Z</time></trkpt><trkpt lat="47.35990234729754" lon="-2.3738946754395287"><ele>5.0</ele><time>2026-03-22T16:33:25.999Z</time></trkpt><trkpt lat="47.35978171193927" lon="-2.3738201887059702"><ele>5.0</ele><time>2026-03-22T16:33:26.999Z</time></trkpt><trkpt lat="47.35965374285791" lon="-2.373755281363527"><ele>5.75</ele><time>2026-03-22T16:33:27.999Z</time></trkpt><trkpt lat="47.35950957866958" lon="-2.3737114349087816"><ele>6.5</ele><time>2026-03-22T16:33:28.999Z</time></trkpt><trkpt lat="47.359365390392405" lon="-2.373658925619646"><ele>7.25</ele><time>2026-03-22T16:33:29.999Z</time></trkpt><trkpt lat="47.35922044495425" lon="-2.373602720139193"><ele>8.0</ele><time>2026-03-22T16:33:30.999Z</time></trkpt><trkpt lat="47.35907622866199" lon="-2.3735418720420123"><ele>8.0</ele><time>2026-03-22T16:33:31.999Z</time></trkpt><trkpt lat="47.35893781094148" lon="-2.373474971973328"><ele>8.0</ele><time>2026-03-22T16:33:32.999Z</time></trkpt><trkpt lat="47.358799329602206" lon="-2.373414660516938"><ele>8.0</ele><time>2026-03-22T16:33:33.999Z</time></trkpt><trkpt lat="47.35867214351821" lon="-2.3733686731936143"><ele>8.0</ele><time>2026-03-22T16:33:34.999Z</time></trkpt><trkpt lat="47.35856406083603" lon="-2.3733288694647108"><ele>8.333333333333332</ele><time>2026-03-22T16:33:35.999Z</time></trkpt><trkpt lat="47.35846193300851" lon="-2.3733021554252276"><ele>8.666666666666666</ele><time>2026-03-22T16:33:36.999Z</time></trkpt><trkpt lat="47.35837096211743" lon="-2.373281574340773"><ele>9.0</ele><time>2026-03-22T16:33:37.999Z</time></trkpt><trkpt lat="47.358300217486885" lon="-2.3732603654466335"><ele>9.333333333333334</ele><time>2026-03-22T16:33:38.999Z</time></trkpt><trkpt lat="47.35823142424258" lon="-2.373228928435599"><ele>9.666666666666668</ele><time>2026-03-22T16:33:39.999Z</time></trkpt><trkpt lat="47.358138428093916" lon="-2.3731877850396446"><ele>10.0</ele><time>2026-03-22T16:33:40.999Z</time></trkpt><trkpt lat="47.358042224088265" lon="-2.373161611065249"><ele>10.5</ele><time>2026-03-22T16:33:41.999Z</time></trkpt><trkpt lat="47.357940073099634" lon="-2.3731322690237646"><ele>11.0</ele><time>2026-03-22T16:33:42.999Z</time></trkpt><trkpt lat="47.35782073587385" lon="-2.373093700346354"><ele>11.5</ele><time>2026-03-22T16:33:43.999Z</time></trkpt><trkpt lat="47.35767921449498" lon="-2.373044397455264"><ele>12.0</ele><time>2026-03-22T16:33:44.999Z</time></trkpt><trkpt lat="47.357548851138056" lon="-2.372987277305661"><ele>12.0</ele><time>2026-03-22T16:33:45.999Z</time></trkpt><trkpt lat="47.35742641003643" lon="-2.3729235798424635"><ele>12.0</ele><time>2026-03-22T16:33:46.999Z</time></trkpt><trkpt lat="47.357314300796624" lon="-2.372832889883774"><ele>12.0</ele><time>2026-03-22T16:33:47.999Z</time></trkpt><trkpt lat="47.35721873912874" lon="-2.372724337393411"><ele>12.0</ele><time>2026-03-22T16:33:48.999Z</time></trkpt><trkpt lat="47.35714659787091" lon="-2.3726082129060364"><ele>12.5</ele><time>2026-03-22T16:33:49.999Z</time></trkpt><trkpt lat="47.35709716871441" lon="-2.3724967711953564"><ele>13.0</ele><time>2026-03-22T16:33:50.999Z</time></trkpt><trkpt lat="47.35706534482473" lon="-2.3724014074482533"><ele>13.5</ele><time>2026-03-22T16:33:51.999Z</time></trkpt><trkpt lat="47.357034797044115" lon="-2.3723101132455264"><ele>14.0</ele><time>2026-03-22T16:33:52.999Z</time></trkpt><trkpt lat="47.35702264048187" lon="-2.372207601247392"><ele>14.5</ele><time>2026-03-22T16:33:53.999Z</time></trkpt><trkpt lat="47.35700914782112" lon="-2.372080439718155"><ele>15.0</ele><time>2026-03-22T16:33:54.999Z</time></trkpt><trkpt lat="47.35699455506225" lon="-2.3719224456528583"><ele>15.0</ele><time>2026-03-22T16:33:55.999Z</time></trkpt><trkpt lat="47.35696987906633" lon="-2.371742211438381"><ele>15.0</ele><time>2026-03-22T16:33:56.999Z</time></trkpt><trkpt lat="47.35693731939259" lon="-2.3715527502040277"><ele>15.0</ele><time>2026-03-22T16:33:58Z</time></trkpt><trkpt lat="47.356906622851234" lon="-2.3713652174269053"><ele>15.0</ele><time>2026-03-22T16:33:59Z</time></trkpt><trkpt lat="47.356877876783045" lon="-2.3712042424919013"><ele>15.0</ele><time>2026-03-22T16:34:00Z</time></trkpt><trkpt lat="47.35685604920835" lon="-2.371047013979326"><ele>15.0</ele><time>2026-03-22T16:34:01Z</time></trkpt><trkpt lat="47.35684816210346" lon="-2.3708978467247945"><ele>15.0</ele><time>2026-03-22T16:34:02Z</time></trkpt><trkpt lat="47.35686078075491" lon="-2.370757894270457"><ele>15.0</ele><time>2026-03-22T16:34:03Z</time></trkpt><trkpt lat="47.356884061075654" lon="-2.3706213981901585"><ele>15.0</ele><time>2026-03-22T16:34:04Z</time></trkpt><trkpt lat="47.35689881340745" lon="-2.370482718440596"><ele>15.0</ele><time>2026-03-22T16:34:05Z</time></trkpt><trkpt lat="47.356869870352696" lon="-2.37033029450785"><ele>15.0</ele><time>2026-03-22T16:34:06Z</time></trkpt><trkpt lat="47.356837760486954" lon="-2.3701681009809126"><ele>15.0</ele><time>2026-03-22T16:34:07Z</time></trkpt><trkpt lat="47.35680512363233" lon="-2.3700043507606123"><ele>15.0</ele><time>2026-03-22T16:34:08Z</time></trkpt><trkpt lat="47.356772168048586" lon="-2.369856646204898"><ele>15.0</ele><time>2026-03-22T16:34:09Z</time></trkpt><trkpt lat="47.356745964966784" lon="-2.369731061364388"><ele>15.0</ele><time>2026-03-22T16:34:10Z</time></trkpt><trkpt lat="47.356721569013374" lon="-2.3696277506822625"><ele>15.0</ele><time>2026-03-22T16:34:11Z</time></trkpt><trkpt lat="47.356681833144826" lon="-2.3694882090868163"><ele>15.0</ele><time>2026-03-22T16:34:13Z</time></trkpt><trkpt lat="47.356619530169894" lon="-2.3693637077762726"><ele>15.0</ele><time>2026-03-22T16:34:15Z</time></trkpt><trkpt lat="47.35658952166825" lon="-2.369256960283522"><ele>15.0</ele><time>2026-03-22T16:34:17Z</time></trkpt><trkpt lat="47.35657242030144" lon="-2.369162630200214"><ele>15.0</ele><time>2026-03-22T16:34:22Z</time></trkpt><trkpt lat="47.35656212071667" lon="-2.3690300242729587"><ele>15.0</ele><time>2026-03-22T16:34:24Z</time></trkpt><trkpt lat="47.35654740492999" lon="-2.3689188628174276"><ele>15.0</ele><time>2026-03-22T16:34:25Z</time></trkpt><trkpt lat="47.356506622529615" lon="-2.3687907018483205"><ele>15.0</ele><time>2026-03-22T16:34:26Z</time></trkpt><trkpt lat="47.35645769283124" lon="-2.36861580639022"><ele>15.0</ele><time>2026-03-22T16:34:27Z</time></trkpt><trkpt lat="47.356411161956004" lon="-2.368457318361388"><ele>15.0</ele><time>2026-03-22T16:34:28Z</time></trkpt><trkpt lat="47.35636642142262" lon="-2.368315647283797"><ele>15.0</ele><time>2026-03-22T16:34:29Z</time></trkpt><trkpt lat="47.3563305191305" lon="-2.3681748615768288"><ele>15.0</ele><time>2026-03-22T16:34:30Z</time></trkpt><trkpt lat="47.35629652112395" lon="-2.368060489595644"><ele>15.0</ele><time>2026-03-22T16:34:31Z</time></trkpt><trkpt lat="47.356266402001886" lon="-2.3679522555304446"><ele>15.0</ele><time>2026-03-22T16:34:32Z</time></trkpt><trkpt lat="47.356234433812254" lon="-2.3678613376250333"><ele>15.0</ele><time>2026-03-22T16:34:33Z</time></trkpt><trkpt lat="47.356209150115546" lon="-2.3677610731306307"><ele>15.0</ele><time>2026-03-22T16:34:34Z</time></trkpt><trkpt lat="47.35618333770412" lon="-2.3676719106690616"><ele>14.833333333333334</ele><time>2026-03-22T16:34:35Z</time></trkpt><trkpt lat="47.35615134145754" lon="-2.367582559022511"><ele>14.666666666666668</ele><time>2026-03-22T16:34:36Z</time></trkpt><trkpt lat="47.35611252150403" lon="-2.367451019007949"><ele>14.5</ele><time>2026-03-22T16:34:38Z</time></trkpt><trkpt lat="47.35608607021403" lon="-2.3673644007699624"><ele>14.333333333333334</ele><time>2026-03-22T16:34:45Z</time></trkpt><trkpt lat="47.35605026427405" lon="-2.3672295843088187"><ele>14.166666666666668</ele><time>2026-03-22T16:34:46.999Z</time></trkpt><trkpt lat="47.35602182276022" lon="-2.367136457264109"><ele>14.0</ele><time>2026-03-22T16:34:47.999Z</time></trkpt><trkpt lat="47.35599113073843" lon="-2.367046732149231"><ele>14.000000000000002</ele><time>2026-03-22T16:34:48.999Z</time></trkpt><trkpt lat="47.355963503638726" lon="-2.366948236664737"><ele>14.0</ele><time>2026-03-22T16:34:49.999Z</time></trkpt><trkpt lat="47.35593678001525" lon="-2.366842429306188"><ele>14.0</ele><time>2026-03-22T16:34:50.999Z</time></trkpt><trkpt lat="47.35590905509077" lon="-2.366734090416629"><ele>14.0</ele><time>2026-03-22T16:34:51.999Z</time></trkpt><trkpt lat="47.35587978780455" lon="-2.3666318515287164"><ele>14.000000000000002</ele><time>2026-03-22T16:34:52.999Z</time></trkpt><trkpt lat="47.35584959934029" lon="-2.366526773906887"><ele>14.0</ele><time>2026-03-22T16:34:53.999Z</time></trkpt><trkpt lat="47.35582262029076" lon="-2.3664245879689716"><ele>13.666666666666668</ele><time>2026-03-22T16:34:54.999Z</time></trkpt><trkpt lat="47.35579110212015" lon="-2.366322184878312"><ele>13.333333333333334</ele><time>2026-03-22T16:34:55.999Z</time></trkpt><trkpt lat="47.35575767459312" lon="-2.366201217527386"><ele>13.0</ele><time>2026-03-22T16:34:56.999Z</time></trkpt><trkpt lat="47.35572956057367" lon="-2.3660798267587824"><ele>12.666666666666668</ele><time>2026-03-22T16:34:57.999Z</time></trkpt><trkpt lat="47.35569194162552" lon="-2.3659629977526593"><ele>12.333333333333334</ele><time>2026-03-22T16:34:58.999Z</time></trkpt><trkpt lat="47.35565421146046" lon="-2.3658418146361444"><ele>12.0</ele><time>2026-03-22T16:34:59.999Z</time></trkpt><trkpt lat="47.355623671141714" lon="-2.3657243834283608"><ele>12.0</ele><time>2026-03-22T16:35:00.999Z</time></trkpt><trkpt lat="47.355585912024495" lon="-2.365589311912156"><ele>12.0</ele><time>2026-03-22T16:35:01.999Z</time></trkpt><trkpt lat="47.355542915760815" lon="-2.3654518907625586"><ele>12.0</ele><time>2026-03-22T16:35:02.999Z</time></trkpt><trkpt lat="47.355501446038616" lon="-2.3653095323900897"><ele>12.0</ele><time>2026-03-22T16:35:03.999Z</time></trkpt><trkpt lat="47.35546179631404" lon="-2.3651667060825945"><ele>12.0</ele><time>2026-03-22T16:35:04.999Z</time></trkpt><trkpt lat="47.35542175275892" lon="-2.3650093439303257"><ele>12.6</ele><time>2026-03-22T16:35:05.999Z</time></trkpt><trkpt lat="47.35537695143115" lon="-2.3648561999860167"><ele>13.2</ele><time>2026-03-22T16:35:06.999Z</time></trkpt><trkpt lat="47.35533657225786" lon="-2.3647047695385486"><ele>13.8</ele><time>2026-03-22T16:35:07.999Z</time></trkpt><trkpt lat="47.3552863609596" lon="-2.3645580935666968"><ele>14.4</ele><time>2026-03-22T16:35:08.999Z</time></trkpt><trkpt lat="47.3552289219458" lon="-2.364415341603415"><ele>15.0</ele><time>2026-03-22T16:35:09.999Z</time></trkpt><trkpt lat="47.35516130230372" lon="-2.364284054716295"><ele>15.0</ele><time>2026-03-22T16:35:10.999Z</time></trkpt><trkpt lat="47.355083416929034" lon="-2.3641728284050068"><ele>15.0</ele><time>2026-03-22T16:35:11.999Z</time></trkpt><trkpt lat="47.35497938876697" lon="-2.364112990153794"><ele>15.0</ele><time>2026-03-22T16:35:12.999Z</time></trkpt><trkpt lat="47.354859750945195" lon="-2.364071227304968"><ele>15.0</ele><time>2026-03-22T16:35:13.999Z</time></trkpt><trkpt lat="47.35472292099749" lon="-2.364038766303474"><ele>15.0</ele><time>2026-03-22T16:35:14.999Z</time></trkpt><trkpt lat="47.35459335677544" lon="-2.364008935968289"><ele>15.0</ele><time>2026-03-22T16:35:15.999Z</time></trkpt><trkpt lat="47.35446572311343" lon="-2.3639735545707894"><ele>15.0</ele><time>2026-03-22T16:35:16.999Z</time></trkpt><trkpt lat="47.354325385371254" lon="-2.3639332949601326"><ele>15.0</ele><time>2026-03-22T16:35:17.999Z</time></trkpt><trkpt lat="47.354186831249166" lon="-2.3638709984395527"><ele>14.75</ele><time>2026-03-22T16:35:18.999Z</time></trkpt><trkpt lat="47.35407950987227" lon="-2.3638082976994177"><ele>14.5</ele><time>2026-03-22T16:35:19.999Z</time></trkpt><trkpt lat="47.35395008319099" lon="-2.363791249453106"><ele>14.25</ele><time>2026-03-22T16:35:20.999Z</time></trkpt><trkpt lat="47.3538353918717" lon="-2.3637609359844527"><ele>14.0</ele><time>2026-03-22T16:35:21.999Z</time></trkpt><trkpt lat="47.35372410885374" lon="-2.3637210109161257"><ele>14.0</ele><time>2026-03-22T16:35:22.999Z</time></trkpt><trkpt lat="47.35360956995348" lon="-2.3636856840938227"><ele>14.0</ele><time>2026-03-22T16:35:23.999Z</time></trkpt><trkpt lat="47.35349192971755" lon="-2.363641858784059"><ele>14.0</ele><time>2026-03-22T16:35:24.999Z</time></trkpt><trkpt lat="47.35338236800188" lon="-2.3635700345358033"><ele>14.0</ele><time>2026-03-22T16:35:25.999Z</time></trkpt><trkpt lat="47.353278617581616" lon="-2.3634541048359803"><ele>14.0</ele><time>2026-03-22T16:35:26.999Z</time></trkpt><trkpt lat="47.35318807657084" lon="-2.3633198576433783"><ele>14.0</ele><time>2026-03-22T16:35:27.999Z</time></trkpt><trkpt lat="47.35311036073565" lon="-2.3631827736012867"><ele>14.0</ele><time>2026-03-22T16:35:28.999Z</time></trkpt><trkpt lat="47.35303143812891" lon="-2.3630511695367167"><ele>14.0</ele><time>2026-03-22T16:35:29.999Z</time></trkpt><trkpt lat="47.35294961975066" lon="-2.362935816682422"><ele>13.25</ele><time>2026-03-22T16:35:30.999Z</time></trkpt><trkpt lat="47.35286473079524" lon="-2.362822004983879"><ele>12.5</ele><time>2026-03-22T16:35:31.999Z</time></trkpt><trkpt lat="47.35276869877827" lon="-2.362721717719649"><ele>11.75</ele><time>2026-03-22T16:35:32.999Z</time></trkpt><trkpt lat="47.35265675805914" lon="-2.3626430603412545"><ele>11.0</ele><time>2026-03-22T16:35:33.999Z</time></trkpt><trkpt lat="47.35253057883915" lon="-2.3625796932321856"><ele>11.0</ele><time>2026-03-22T16:35:34.999Z</time></trkpt><trkpt lat="47.35239326678004" lon="-2.3625246823923858"><ele>11.0</ele><time>2026-03-22T16:35:35.999Z</time></trkpt><trkpt lat="47.352252017116946" lon="-2.3624637157064137"><ele>11.0</ele><time>2026-03-22T16:35:36.999Z</time></trkpt><trkpt lat="47.35211392087411" lon="-2.362397614031282"><ele>11.0</ele><time>2026-03-22T16:35:37.999Z</time></trkpt><trkpt lat="47.351977102213354" lon="-2.3623358116230877"><ele>11.25</ele><time>2026-03-22T16:35:38.999Z</time></trkpt><trkpt lat="47.351846222300196" lon="-2.362276048339531"><ele>11.5</ele><time>2026-03-22T16:35:39.999Z</time></trkpt><trkpt lat="47.351720999270384" lon="-2.3622096547278577"><ele>11.75</ele><time>2026-03-22T16:35:40.999Z</time></trkpt><trkpt lat="47.35159100728371" lon="-2.3621496788522003"><ele>12.0</ele><time>2026-03-22T16:35:41.999Z</time></trkpt><trkpt lat="47.351463000473764" lon="-2.362092455671213"><ele>12.6</ele><time>2026-03-22T16:35:42.999Z</time></trkpt><trkpt lat="47.35133745769963" lon="-2.362032292882305"><ele>13.2</ele><time>2026-03-22T16:35:43.999Z</time></trkpt><trkpt lat="47.35122934721187" lon="-2.3619669255058477"><ele>13.8</ele><time>2026-03-22T16:35:44.999Z</time></trkpt><trkpt lat="47.351143220111574" lon="-2.3619057862711323"><ele>14.4</ele><time>2026-03-22T16:35:45.999Z</time></trkpt><trkpt lat="47.3510729828215" lon="-2.3618386835817518"><ele>15.0</ele><time>2026-03-22T16:35:46.999Z</time></trkpt><trkpt lat="47.350987833251224" lon="-2.3617391821911164"><ele>15.0</ele><time>2026-03-22T16:35:47.999Z</time></trkpt><trkpt lat="47.35089150875602" lon="-2.361585078557423"><ele>15.0</ele><time>2026-03-22T16:35:48.999Z</time></trkpt><trkpt lat="47.3507897100712" lon="-2.3613828697191224"><ele>15.0</ele><time>2026-03-22T16:35:49.999Z</time></trkpt><trkpt lat="47.350692470468296" lon="-2.3611417017711576"><ele>14.666666666666668</ele><time>2026-03-22T16:35:50.999Z</time></trkpt><trkpt lat="47.350598911494636" lon="-2.360889085834109"><ele>14.333333333333334</ele><time>2026-03-22T16:35:51.999Z</time></trkpt><trkpt lat="47.35050432518395" lon="-2.3606403882353058"><ele>14.0</ele><time>2026-03-22T16:35:52.999Z</time></trkpt><trkpt lat="47.35039698577337" lon="-2.360366277092829"><ele>14.666666666666668</ele><time>2026-03-22T16:35:53.999Z</time></trkpt><trkpt lat="47.3502837027203" lon="-2.360070308703667"><ele>15.333333333333332</ele><time>2026-03-22T16:35:54.999Z</time></trkpt><trkpt lat="47.35017813001023" lon="-2.3597868386405603"><ele>16.0</ele><time>2026-03-22T16:35:55.999Z</time></trkpt><trkpt lat="47.35007383134064" lon="-2.3595074063288224"><ele>16.0</ele><time>2026-03-22T16:35:56.999Z</time></trkpt><trkpt lat="47.34996784865102" lon="-2.359229199028823"><ele>16.0</ele><time>2026-03-22T16:35:57.999Z</time></trkpt><trkpt lat="47.34986158786058" lon="-2.3589597776520814"><ele>16.0</ele><time>2026-03-22T16:35:58.999Z</time></trkpt><trkpt lat="47.34976140598533" lon="-2.358705223372489"><ele>15.333333333333332</ele><time>2026-03-22T16:35:59.999Z</time></trkpt><trkpt lat="47.34967173284148" lon="-2.3584649431258384"><ele>14.666666666666668</ele><time>2026-03-22T16:36:00.999Z</time></trkpt><trkpt lat="47.3495835725074" lon="-2.3582337035119196"><ele>14.0</ele><time>2026-03-22T16:36:01.999Z</time></trkpt><trkpt lat="47.34949757710775" lon="-2.3580022201981508"><ele>14.0</ele><time>2026-03-22T16:36:02.999Z</time></trkpt><trkpt lat="47.349413545417704" lon="-2.3577715687465366"><ele>14.0</ele><time>2026-03-22T16:36:04Z</time></trkpt><trkpt lat="47.3493269239999" lon="-2.357552887050642"><ele>14.0</ele><time>2026-03-22T16:36:05Z</time></trkpt><trkpt lat="47.349234126868446" lon="-2.35734198911935"><ele>14.333333333333334</ele><time>2026-03-22T16:36:06Z</time></trkpt><trkpt lat="47.34913165499162" lon="-2.35713647889557"><ele>14.666666666666668</ele><time>2026-03-22T16:36:07Z</time></trkpt><trkpt lat="47.34901990326049" lon="-2.356963799060058"><ele>15.0</ele><time>2026-03-22T16:36:08Z</time></trkpt><trkpt lat="47.34889928400852" lon="-2.356814198388818"><ele>14.0</ele><time>2026-03-22T16:36:09Z</time></trkpt><trkpt lat="47.348746706759115" lon="-2.3566943044891158"><ele>13.0</ele><time>2026-03-22T16:36:10Z</time></trkpt><trkpt lat="47.34857981122037" lon="-2.356605783735092"><ele>12.0</ele><time>2026-03-22T16:36:11Z</time></trkpt><trkpt lat="47.34840406782209" lon="-2.356524337605669"><ele>12.0</ele><time>2026-03-22T16:36:12Z</time></trkpt><trkpt lat="47.34823900968739" lon="-2.356433827922492"><ele>12.0</ele><time>2026-03-22T16:36:13Z</time></trkpt><trkpt lat="47.34807834553328" lon="-2.3563118514704904"><ele>12.0</ele><time>2026-03-22T16:36:14Z</time></trkpt><trkpt lat="47.34793422714535" lon="-2.3561594226992892"><ele>12.0</ele><time>2026-03-22T16:36:15Z</time></trkpt><trkpt lat="47.3477934122022" lon="-2.356001232885758"><ele>12.0</ele><time>2026-03-22T16:36:16Z</time></trkpt><trkpt lat="47.347659076793654" lon="-2.355833014175972"><ele>12.0</ele><time>2026-03-22T16:36:17Z</time></trkpt><trkpt lat="47.347525113751416" lon="-2.3556580548522725"><ele>12.333333333333332</ele><time>2026-03-22T16:36:18Z</time></trkpt><trkpt lat="47.34739079295537" lon="-2.3554772854312085"><ele>12.666666666666666</ele><time>2026-03-22T16:36:19Z</time></trkpt><trkpt lat="47.34726462646454" lon="-2.355279547076575"><ele>13.0</ele><time>2026-03-22T16:36:20Z</time></trkpt><trkpt lat="47.347145038588444" lon="-2.3550799560764135"><ele>13.0</ele><time>2026-03-22T16:36:21Z</time></trkpt><trkpt lat="47.347025750513005" lon="-2.3548877301266544"><ele>13.0</ele><time>2026-03-22T16:36:22Z</time></trkpt><trkpt lat="47.34691340975958" lon="-2.3547065412674346"><ele>13.0</ele><time>2026-03-22T16:36:23Z</time></trkpt><trkpt lat="47.34680557841721" lon="-2.354533211598424"><ele>12.0</ele><time>2026-03-22T16:36:24Z</time></trkpt><trkpt lat="47.346698467685" lon="-2.3543660227827075"><ele>11.0</ele><time>2026-03-22T16:36:25Z</time></trkpt><trkpt lat="47.34659142132556" lon="-2.354212709948471"><ele>10.0</ele><time>2026-03-22T16:36:26Z</time></trkpt><trkpt lat="47.346467489320325" lon="-2.3540719704406414"><ele>9.25</ele><time>2026-03-22T16:36:27Z</time></trkpt><trkpt lat="47.34633502090396" lon="-2.353955809285617"><ele>8.5</ele><time>2026-03-22T16:36:28Z</time></trkpt><trkpt lat="47.346203401450865" lon="-2.353838246583036"><ele>7.75</ele><time>2026-03-22T16:36:29Z</time></trkpt><trkpt lat="47.346086925342085" lon="-2.3537377951736262"><ele>7.0</ele><time>2026-03-22T16:36:30Z</time></trkpt><trkpt lat="47.34598892342191" lon="-2.353652378050754"><ele>8.5</ele><time>2026-03-22T16:36:31Z</time></trkpt><trkpt lat="47.34587459367124" lon="-2.3535717920902997"><ele>10.0</ele><time>2026-03-22T16:36:32Z</time></trkpt><trkpt lat="47.34576722506289" lon="-2.3535022966929238"><ele>11.5</ele><time>2026-03-22T16:36:33Z</time></trkpt><trkpt lat="47.34565883783187" lon="-2.3534527221530324"><ele>13.0</ele><time>2026-03-22T16:36:34Z</time></trkpt><trkpt lat="47.34553594536805" lon="-2.353391625752093"><ele>13.2</ele><time>2026-03-22T16:36:35Z</time></trkpt><trkpt lat="47.345424972136385" lon="-2.3533398182624743"><ele>13.4</ele><time>2026-03-22T16:36:36Z</time></trkpt><trkpt lat="47.34532239125758" lon="-2.353286621925425"><ele>13.599999999999998</ele><time>2026-03-22T16:36:37Z</time></trkpt><trkpt lat="47.345231876997495" lon="-2.3532384034202525"><ele>13.799999999999999</ele><time>2026-03-22T16:36:38Z</time></trkpt><trkpt lat="47.345146362449846" lon="-2.3531923769243046"><ele>14.0</ele><time>2026-03-22T16:36:39Z</time></trkpt><trkpt lat="47.34506256960367" lon="-2.353147075446274"><ele>14.000000000000002</ele><time>2026-03-22T16:36:40Z</time></trkpt><trkpt lat="47.344980838728205" lon="-2.353090304522756"><ele>14.0</ele><time>2026-03-22T16:36:41Z</time></trkpt><trkpt lat="47.34490312271275" lon="-2.3530271834060548"><ele>14.0</ele><time>2026-03-22T16:36:42Z</time></trkpt><trkpt lat="47.34483056681638" lon="-2.3529709463036497"><ele>14.0</ele><time>2026-03-22T16:36:43Z</time></trkpt><trkpt lat="47.3447637879066" lon="-2.3529142936031526"><ele>14.000000000000002</ele><time>2026-03-22T16:36:44Z</time></trkpt><trkpt lat="47.34466979705016" lon="-2.352847276896757"><ele>14.0</ele><time>2026-03-22T16:36:46Z</time></trkpt><trkpt lat="47.34457210372889" lon="-2.3528730526911366"><ele>14.0</ele><time>2026-03-22T16:36:48Z</time></trkpt><trkpt lat="47.34448984659319" lon="-2.3530136755812974"><ele>13.999999999999998</ele><time>2026-03-22T16:36:50Z</time></trkpt><trkpt lat="47.34446997245074" lon="-2.3531339836379788"><ele>13.999999999999998</ele><time>2026-03-22T16:36:51Z</time></trkpt><trkpt lat="47.344448445754416" lon="-2.3532708125346415"><ele>14.0</ele><time>2026-03-22T16:36:52Z</time></trkpt><trkpt lat="47.34441416720202" lon="-2.353427111842208"><ele>14.0</ele><time>2026-03-22T16:36:53Z</time></trkpt><trkpt lat="47.34436915097937" lon="-2.3535990277242123"><ele>14.0</ele><time>2026-03-22T16:36:54Z</time></trkpt><trkpt lat="47.34432046245693" lon="-2.353775560366572"><ele>14.0</ele><time>2026-03-22T16:36:55Z</time></trkpt><trkpt lat="47.344264272617735" lon="-2.3539448038419106"><ele>14.0</ele><time>2026-03-22T16:36:56Z</time></trkpt><trkpt lat="47.34420243234973" lon="-2.3541053106471224"><ele>14.0</ele><time>2026-03-22T16:36:57Z</time></trkpt><trkpt lat="47.34416617833796" lon="-2.3542622295119235"><ele>13.6</ele><time>2026-03-22T16:36:58Z</time></trkpt><trkpt lat="47.34413734529761" lon="-2.3544107543937445"><ele>13.2</ele><time>2026-03-22T16:36:58.999Z</time></trkpt><trkpt lat="47.34408996141322" lon="-2.354559046898148"><ele>12.799999999999999</ele><time>2026-03-22T16:36:59.999Z</time></trkpt><trkpt lat="47.34403269153872" lon="-2.3546988221435803"><ele>12.399999999999999</ele><time>2026-03-22T16:37:00.999Z</time></trkpt><trkpt lat="47.3439615236911" lon="-2.354821390230076"><ele>12.0</ele><time>2026-03-22T16:37:01.999Z</time></trkpt><trkpt lat="47.343868137167725" lon="-2.3549430420009307"><ele>12.0</ele><time>2026-03-22T16:37:02.999Z</time></trkpt><trkpt lat="47.34375423925397" lon="-2.3550985163700777"><ele>12.0</ele><time>2026-03-22T16:37:03.999Z</time></trkpt><trkpt lat="47.34362588723829" lon="-2.3552791814999248"><ele>12.0</ele><time>2026-03-22T16:37:04.999Z</time></trkpt><trkpt lat="47.343490904358205" lon="-2.3554624895883496"><ele>11.333333333333334</ele><time>2026-03-22T16:37:05.999Z</time></trkpt><trkpt lat="47.34335851301142" lon="-2.355630598750027"><ele>10.666666666666668</ele><time>2026-03-22T16:37:06.999Z</time></trkpt><trkpt lat="47.343234376626214" lon="-2.3558265117629063"><ele>10.0</ele><time>2026-03-22T16:37:07.999Z</time></trkpt><trkpt lat="47.343105474555365" lon="-2.3560183593797017"><ele>11.333333333333334</ele><time>2026-03-22T16:37:08.999Z</time></trkpt><trkpt lat="47.342968671063765" lon="-2.356196973026426"><ele>12.666666666666668</ele><time>2026-03-22T16:37:09.999Z</time></trkpt><trkpt lat="47.34284735288576" lon="-2.3563658195974235"><ele>14.0</ele><time>2026-03-22T16:37:10.999Z</time></trkpt><trkpt lat="47.3427383424955" lon="-2.356531226913374"><ele>14.0</ele><time>2026-03-22T16:37:11.999Z</time></trkpt><trkpt lat="47.34264307657308" lon="-2.3566713049504386"><ele>13.999999999999998</ele><time>2026-03-22T16:37:12.999Z</time></trkpt><trkpt lat="47.34256639059913" lon="-2.356772066822486"><ele>13.999999999999998</ele><time>2026-03-22T16:37:13.999Z</time></trkpt><trkpt lat="47.342489331355935" lon="-2.3568479377649547"><ele>14.0</ele><time>2026-03-22T16:37:14.999Z</time></trkpt><trkpt lat="47.34239584685269" lon="-2.356901565085769"><ele>14.0</ele><time>2026-03-22T16:37:15.999Z</time></trkpt><trkpt lat="47.34229566495335" lon="-2.3569314107766877"><ele>15.0</ele><time>2026-03-22T16:37:16.999Z</time></trkpt><trkpt lat="47.342196370740744" lon="-2.356950558887796"><ele>15.999999999999998</ele><time>2026-03-22T16:37:17.999Z</time></trkpt><trkpt lat="47.34209874172521" lon="-2.3569809884105872"><ele>17.0</ele><time>2026-03-22T16:37:18.999Z</time></trkpt><trkpt lat="47.34201226752838" lon="-2.3569800388715882"><ele>18.0</ele><time>2026-03-22T16:37:19.999Z</time></trkpt><trkpt lat="47.341928301621024" lon="-2.356911421392367"><ele>19.0</ele><time>2026-03-22T16:37:20.999Z</time></trkpt><trkpt lat="47.34185561616477" lon="-2.3567824364365677"><ele>19.0</ele><time>2026-03-22T16:37:21.999Z</time></trkpt><trkpt lat="47.34178593912324" lon="-2.3566285092055117"><ele>19.0</ele><time>2026-03-22T16:37:22.999Z</time></trkpt><trkpt lat="47.341681729822206" lon="-2.3564550950737915"><ele>19.0</ele><time>2026-03-22T16:37:23.999Z</time></trkpt><trkpt lat="47.341562056135245" lon="-2.3562866251591386"><ele>19.0</ele><time>2026-03-22T16:37:24.999Z</time></trkpt><trkpt lat="47.34146071968405" lon="-2.3561279449353023"><ele>19.0</ele><time>2026-03-22T16:37:25.999Z</time></trkpt><trkpt lat="47.34138132731879" lon="-2.355967125555733"><ele>19.0</ele><time>2026-03-22T16:37:26.999Z</time></trkpt><trkpt lat="47.34131057614677" lon="-2.3557717765617716"><ele>19.0</ele><time>2026-03-22T16:37:27.999Z</time></trkpt><trkpt lat="47.34124786930418" lon="-2.35555892379255"><ele>19.0</ele><time>2026-03-22T16:37:28.999Z</time></trkpt><trkpt lat="47.34118443973172" lon="-2.355332162426452"><ele>19.0</ele><time>2026-03-22T16:37:29.999Z</time></trkpt><trkpt lat="47.34111486317154" lon="-2.355129185106898"><ele>19.0</ele><time>2026-03-22T16:37:30.999Z</time></trkpt><trkpt lat="47.34103853632383" lon="-2.3549294089863615"><ele>19.0</ele><time>2026-03-22T16:37:31.999Z</time></trkpt><trkpt lat="47.3409636259068" lon="-2.3547277235951913"><ele>18.666666666666664</ele><time>2026-03-22T16:37:32.999Z</time></trkpt><trkpt lat="47.3408892425862" lon="-2.354524266657999"><ele>18.333333333333332</ele><time>2026-03-22T16:37:33.999Z</time></trkpt><trkpt lat="47.34081164767411" lon="-2.3543200613983717"><ele>18.0</ele><time>2026-03-22T16:37:34.999Z</time></trkpt><trkpt lat="47.34074021574471" lon="-2.3541350720912186"><ele>18.0</ele><time>2026-03-22T16:37:35.999Z</time></trkpt><trkpt lat="47.34067187036801" lon="-2.353969595954719"><ele>18.0</ele><time>2026-03-22T16:37:36.999Z</time></trkpt><trkpt lat="47.34061144062824" lon="-2.353807990749537"><ele>18.0</ele><time>2026-03-22T16:37:37.999Z</time></trkpt><trkpt lat="47.340538425599036" lon="-2.3536589358586015"><ele>18.0</ele><time>2026-03-22T16:37:38.999Z</time></trkpt><trkpt lat="47.34045394074362" lon="-2.353529587299177"><ele>19.0</ele><time>2026-03-22T16:37:39.999Z</time></trkpt><trkpt lat="47.34035605972919" lon="-2.353424552573606"><ele>20.0</ele><time>2026-03-22T16:37:40.999Z</time></trkpt><trkpt lat="47.34024534675792" lon="-2.35333042803434"><ele>21.0</ele><time>2026-03-22T16:37:41.999Z</time></trkpt><trkpt lat="47.34011779475888" lon="-2.353210510422198"><ele>22.0</ele><time>2026-03-22T16:37:42.999Z</time></trkpt><trkpt lat="47.33999146453357" lon="-2.3530790724329727"><ele>22.5</ele><time>2026-03-22T16:37:43.999Z</time></trkpt><trkpt lat="47.33987556591331" lon="-2.3529723429898244"><ele>23.0</ele><time>2026-03-22T16:37:44.999Z</time></trkpt><trkpt lat="47.33978247098286" lon="-2.352874154909807"><ele>23.5</ele><time>2026-03-22T16:37:45.999Z</time></trkpt><trkpt lat="47.33969930347516" lon="-2.3527796483270222"><ele>24.0</ele><time>2026-03-22T16:37:46.999Z</time></trkpt><trkpt lat="47.339610055031685" lon="-2.35268494184607"><ele>24.5</ele><time>2026-03-22T16:37:47.999Z</time></trkpt><trkpt lat="47.339532271350436" lon="-2.3525947943943746"><ele>25.0</ele><time>2026-03-22T16:37:48.999Z</time></trkpt><trkpt lat="47.3394694219366" lon="-2.3524675565173516"><ele>25.5</ele><time>2026-03-22T16:37:49.999Z</time></trkpt><trkpt lat="47.339415102226994" lon="-2.3522890115770108"><ele>26.0</ele><time>2026-03-22T16:37:50.999Z</time></trkpt><trkpt lat="47.339365576785916" lon="-2.352118928040284"><ele>26.0</ele><time>2026-03-22T16:37:51.999Z</time></trkpt><trkpt lat="47.33929584822567" lon="-2.351977407708122"><ele>26.0</ele><time>2026-03-22T16:37:52.999Z</time></trkpt><trkpt lat="47.33920136148385" lon="-2.3518585691905978"><ele>26.0</ele><time>2026-03-22T16:37:53.999Z</time></trkpt><trkpt lat="47.33908434072367" lon="-2.3517459042495643"><ele>26.0</ele><time>2026-03-22T16:37:54.999Z</time></trkpt><trkpt lat="47.33895272832891" lon="-2.351631462936034"><ele>26.0</ele><time>2026-03-22T16:37:55.999Z</time></trkpt><trkpt lat="47.33881367572963" lon="-2.351511218364205"><ele>26.0</ele><time>2026-03-22T16:37:56.999Z</time></trkpt><trkpt lat="47.33867716059209" lon="-2.3514013645062763"><ele>26.0</ele><time>2026-03-22T16:37:57.999Z</time></trkpt><trkpt lat="47.338544912623775" lon="-2.351303073354288"><ele>25.666666666666664</ele><time>2026-03-22T16:37:58.999Z</time></trkpt><trkpt lat="47.33841546998045" lon="-2.3511902060690537"><ele>25.333333333333336</ele><time>2026-03-22T16:37:59.999Z</time></trkpt><trkpt lat="47.33826550789081" lon="-2.3510929034828463"><ele>25.0</ele><time>2026-03-22T16:38:00.999Z</time></trkpt><trkpt lat="47.338104344017644" lon="-2.350996517938136"><ele>25.0</ele><time>2026-03-22T16:38:01.999Z</time></trkpt><trkpt lat="47.33794889652987" lon="-2.3509140472985957"><ele>25.0</ele><time>2026-03-22T16:38:02.999Z</time></trkpt><trkpt lat="47.33780115841993" lon="-2.350826943414052"><ele>25.0</ele><time>2026-03-22T16:38:03.999Z</time></trkpt><trkpt lat="47.33767078354047" lon="-2.3507544875831545"><ele>25.0</ele><time>2026-03-22T16:38:04.999Z</time></trkpt><trkpt lat="47.33755118269123" lon="-2.3506823995715647"><ele>25.0</ele><time>2026-03-22T16:38:05.999Z</time></trkpt><trkpt lat="47.33743516911452" lon="-2.3505955024955045"><ele>25.0</ele><time>2026-03-22T16:38:06.999Z</time></trkpt><trkpt lat="47.33732090862664" lon="-2.350480354042323"><ele>25.0</ele><time>2026-03-22T16:38:07.999Z</time></trkpt><trkpt lat="47.33720573395407" lon="-2.350305690546047"><ele>24.666666666666668</ele><time>2026-03-22T16:38:08.999Z</time></trkpt><trkpt lat="47.337089026703985" lon="-2.3501145749923307"><ele>24.333333333333336</ele><time>2026-03-22T16:38:10Z</time></trkpt><trkpt lat="47.33696883628633" lon="-2.3499183966143145"><ele>24.0</ele><time>2026-03-22T16:38:11Z</time></trkpt><trkpt lat="47.33683064074604" lon="-2.349719042234825"><ele>25.333333333333336</ele><time>2026-03-22T16:38:12Z</time></trkpt><trkpt lat="47.33669478979419" lon="-2.3495201008544337"><ele>26.666666666666668</ele><time>2026-03-22T16:38:13Z</time></trkpt><trkpt lat="47.336561332897006" lon="-2.349332482452995"><ele>28.0</ele><time>2026-03-22T16:38:14Z</time></trkpt><trkpt lat="47.33642576830922" lon="-2.349144685233071"><ele>28.333333333333336</ele><time>2026-03-22T16:38:15Z</time></trkpt><trkpt lat="47.33627957230891" lon="-2.3489822262282405"><ele>28.666666666666664</ele><time>2026-03-22T16:38:16Z</time></trkpt><trkpt lat="47.33613678063162" lon="-2.348808417367847"><ele>29.0</ele><time>2026-03-22T16:38:17Z</time></trkpt><trkpt lat="47.33600201344753" lon="-2.348647474295019"><ele>29.0</ele><time>2026-03-22T16:38:18Z</time></trkpt><trkpt lat="47.33588779342772" lon="-2.3484942399566426"><ele>29.0</ele><time>2026-03-22T16:38:19Z</time></trkpt><trkpt lat="47.335778900667506" lon="-2.34834529166058"><ele>29.0</ele><time>2026-03-22T16:38:20Z</time></trkpt><trkpt lat="47.33567075507886" lon="-2.3481864095459617"><ele>29.0</ele><time>2026-03-22T16:38:21Z</time></trkpt><trkpt lat="47.33557061018887" lon="-2.348066646080867"><ele>29.0</ele><time>2026-03-22T16:38:22Z</time></trkpt><trkpt lat="47.335487133514555" lon="-2.347944775378918"><ele>29.0</ele><time>2026-03-22T16:38:23Z</time></trkpt><trkpt lat="47.33540226403165" lon="-2.347822233933725"><ele>29.0</ele><time>2026-03-22T16:38:24Z</time></trkpt><trkpt lat="47.335323369545286" lon="-2.3477246325932364"><ele>28.5</ele><time>2026-03-22T16:38:25Z</time></trkpt><trkpt lat="47.33523781797686" lon="-2.3476037613682124"><ele>28.0</ele><time>2026-03-22T16:38:26Z</time></trkpt><trkpt lat="47.33515440092208" lon="-2.347516146085678"><ele>27.5</ele><time>2026-03-22T16:38:27Z</time></trkpt><trkpt lat="47.335033762096174" lon="-2.347362102679456"><ele>27.0</ele><time>2026-03-22T16:38:28Z</time></trkpt><trkpt lat="47.33494558532074" lon="-2.3472159906156382"><ele>26.5</ele><time>2026-03-22T16:38:29Z</time></trkpt><trkpt lat="47.33486612226465" lon="-2.347081926329091"><ele>26.0</ele><time>2026-03-22T16:38:30Z</time></trkpt><trkpt lat="47.33477546408624" lon="-2.346960355522447"><ele>25.5</ele><time>2026-03-22T16:38:31Z</time></trkpt><trkpt lat="47.3346787022782" lon="-2.346814779721015"><ele>25.0</ele><time>2026-03-22T16:38:32Z</time></trkpt><trkpt lat="47.33459108264243" lon="-2.346650333833762"><ele>24.333333333333336</ele><time>2026-03-22T16:38:33Z</time></trkpt><trkpt lat="47.33450003002569" lon="-2.346497693044215"><ele>23.666666666666668</ele><time>2026-03-22T16:38:34Z</time></trkpt><trkpt lat="47.334401395115826" lon="-2.346316395318997"><ele>23.0</ele><time>2026-03-22T16:38:35Z</time></trkpt><trkpt lat="47.33429340665695" lon="-2.3461143030515053"><ele>23.0</ele><time>2026-03-22T16:38:36Z</time></trkpt><trkpt lat="47.33418846476215" lon="-2.345912057519689"><ele>23.0</ele><time>2026-03-22T16:38:37Z</time></trkpt><trkpt lat="47.33409816254338" lon="-2.3457450550892887"><ele>23.0</ele><time>2026-03-22T16:38:38Z</time></trkpt><trkpt lat="47.334011807577056" lon="-2.345599970760454"><ele>23.0</ele><time>2026-03-22T16:38:39Z</time></trkpt><trkpt lat="47.33392567617757" lon="-2.3454345060696395"><ele>23.0</ele><time>2026-03-22T16:38:40Z</time></trkpt><trkpt lat="47.333847014255056" lon="-2.345271315967107"><ele>23.0</ele><time>2026-03-22T16:38:41Z</time></trkpt><trkpt lat="47.333781368099864" lon="-2.345140732505635"><ele>23.0</ele><time>2026-03-22T16:38:42Z</time></trkpt><trkpt lat="47.33371411321865" lon="-2.345020749232502"><ele>23.0</ele><time>2026-03-22T16:38:43Z</time></trkpt><trkpt lat="47.33365857382775" lon="-2.344920476208898"><ele>23.0</ele><time>2026-03-22T16:38:44Z</time></trkpt><trkpt lat="47.33360237788298" lon="-2.34483035190902"><ele>23.0</ele><time>2026-03-22T16:38:46Z</time></trkpt><trkpt lat="47.33352990314497" lon="-2.3448296519955747"><ele>23.0</ele><time>2026-03-22T16:38:57.999Z</time></trkpt><trkpt lat="47.33350158695553" lon="-2.3449292333520475"><ele>23.0</ele><time>2026-03-22T16:38:59.999Z</time></trkpt><trkpt lat="47.33346444819693" lon="-2.3450319093308485"><ele>23.0</ele><time>2026-03-22T16:39:01.999Z</time></trkpt><trkpt lat="47.33341004464018" lon="-2.345130532061299"><ele>23.0</ele><time>2026-03-22T16:39:05.999Z</time></trkpt><trkpt lat="47.333484752723564" lon="-2.3450249575529205"><ele>23.0</ele><time>2026-03-22T16:39:13.999Z</time></trkpt><trkpt lat="47.33353111086447" lon="-2.344951137776431"><ele>23.0</ele><time>2026-03-22T16:39:14.999Z</time></trkpt><trkpt lat="47.33356111446974" lon="-2.3448352448809517"><ele>23.0</ele><time>2026-03-22T16:39:15.999Z</time></trkpt><trkpt lat="47.33361201065289" lon="-2.344671771591229"><ele>23.0</ele><time>2026-03-22T16:39:16.999Z</time></trkpt><trkpt lat="47.333676130972115" lon="-2.3444821420511555"><ele>23.0</ele><time>2026-03-22T16:39:17.999Z</time></trkpt><trkpt lat="47.333737855021674" lon="-2.344306576247725"><ele>22.25</ele><time>2026-03-22T16:39:18.999Z</time></trkpt><trkpt lat="47.33380288261282" lon="-2.3441432308894217"><ele>21.5</ele><time>2026-03-22T16:39:19.999Z</time></trkpt><trkpt lat="47.33386875005523" lon="-2.343970064821725"><ele>20.75</ele><time>2026-03-22T16:39:20.999Z</time></trkpt><trkpt lat="47.33393482099065" lon="-2.3437963756411806"><ele>20.0</ele><time>2026-03-22T16:39:21.999Z</time></trkpt><trkpt lat="47.33399217012528" lon="-2.3436044729015815"><ele>20.0</ele><time>2026-03-22T16:39:22.999Z</time></trkpt><trkpt lat="47.33404976390485" lon="-2.343417932211966"><ele>20.0</ele><time>2026-03-22T16:39:23.999Z</time></trkpt><trkpt lat="47.3341153222383" lon="-2.3432418502550134"><ele>20.0</ele><time>2026-03-22T16:39:24.999Z</time></trkpt><trkpt lat="47.3341669339153" lon="-2.343067605358898"><ele>20.0</ele><time>2026-03-22T16:39:25.999Z</time></trkpt><trkpt lat="47.33422126557938" lon="-2.3429022691227175"><ele>20.0</ele><time>2026-03-22T16:39:26.999Z</time></trkpt><trkpt lat="47.33428045675592" lon="-2.3427408873286755"><ele>20.0</ele><time>2026-03-22T16:39:27.999Z</time></trkpt><trkpt lat="47.33433071318858" lon="-2.3425834966359127"><ele>20.0</ele><time>2026-03-22T16:39:28.999Z</time></trkpt><trkpt lat="47.33440072705656" lon="-2.3424268655237577"><ele>20.0</ele><time>2026-03-22T16:39:29.999Z</time></trkpt><trkpt lat="47.334496063729546" lon="-2.3422842283606817"><ele>20.0</ele><time>2026-03-22T16:39:30.999Z</time></trkpt><trkpt lat="47.33459473932462" lon="-2.3421437534573037"><ele>20.0</ele><time>2026-03-22T16:39:31.999Z</time></trkpt><trkpt lat="47.334709918364695" lon="-2.3420131870150507"><ele>20.0</ele><time>2026-03-22T16:39:32.999Z</time></trkpt><trkpt lat="47.33484945426772" lon="-2.3418848432315325"><ele>20.0</ele><time>2026-03-22T16:39:33.999Z</time></trkpt><trkpt lat="47.335008382213346" lon="-2.3417676434454777"><ele>20.0</ele><time>2026-03-22T16:39:34.999Z</time></trkpt><trkpt lat="47.33518217169339" lon="-2.3416526892666236"><ele>20.0</ele><time>2026-03-22T16:39:35.999Z</time></trkpt><trkpt lat="47.33533229859521" lon="-2.341543794744995"><ele>20.0</ele><time>2026-03-22T16:39:36.999Z</time></trkpt><trkpt lat="47.33550142357286" lon="-2.341435530291815"><ele>19.666666666666668</ele><time>2026-03-22T16:39:37.999Z</time></trkpt><trkpt lat="47.33566567481238" lon="-2.3413116532518172"><ele>19.333333333333332</ele><time>2026-03-22T16:39:38.999Z</time></trkpt><trkpt lat="47.33582660025106" lon="-2.3411812249086563"><ele>19.0</ele><time>2026-03-22T16:39:39.999Z</time></trkpt><trkpt lat="47.335989657707195" lon="-2.3410539694066475"><ele>19.0</ele><time>2026-03-22T16:39:40.999Z</time></trkpt><trkpt lat="47.336146314250215" lon="-2.340924002392195"><ele>19.0</ele><time>2026-03-22T16:39:41.999Z</time></trkpt><trkpt lat="47.33628776767319" lon="-2.3408016147939104"><ele>19.0</ele><time>2026-03-22T16:39:42.999Z</time></trkpt><trkpt lat="47.336437813949246" lon="-2.3406773174252935"><ele>18.75</ele><time>2026-03-22T16:39:43.999Z</time></trkpt><trkpt lat="47.33657320401141" lon="-2.3405657497984227"><ele>18.5</ele><time>2026-03-22T16:39:44.999Z</time></trkpt><trkpt lat="47.33668320881349" lon="-2.340467152811452"><ele>18.25</ele><time>2026-03-22T16:39:45.999Z</time></trkpt><trkpt lat="47.33678856099495" lon="-2.3403840219027945"><ele>18.0</ele><time>2026-03-22T16:39:46.999Z</time></trkpt><trkpt lat="47.336881367467015" lon="-2.3402981348544225"><ele>17.8</ele><time>2026-03-22T16:39:47.999Z</time></trkpt><trkpt lat="47.33696519824185" lon="-2.3402216574884678"><ele>17.6</ele><time>2026-03-22T16:39:48.999Z</time></trkpt><trkpt lat="47.33705658477009" lon="-2.340149447414671"><ele>17.4</ele><time>2026-03-22T16:39:49.999Z</time></trkpt><trkpt lat="47.337122004073514" lon="-2.3400936655544653"><ele>17.2</ele><time>2026-03-22T16:39:50.999Z</time></trkpt><trkpt lat="47.33719318725874" lon="-2.340032000203574"><ele>17.0</ele><time>2026-03-22T16:39:51.999Z</time></trkpt><trkpt lat="47.33728412656166" lon="-2.3399633999422043"><ele>17.0</ele><time>2026-03-22T16:39:52.999Z</time></trkpt><trkpt lat="47.337387420848266" lon="-2.3398882720255467"><ele>17.0</ele><time>2026-03-22T16:39:53.999Z</time></trkpt><trkpt lat="47.33748051963077" lon="-2.3398077076018216"><ele>17.0</ele><time>2026-03-22T16:39:54.999Z</time></trkpt><trkpt lat="47.33758030282812" lon="-2.3397205385620063"><ele>17.0</ele><time>2026-03-22T16:39:55.999Z</time></trkpt><trkpt lat="47.33768954629329" lon="-2.339630985376054"><ele>17.0</ele><time>2026-03-22T16:39:56.999Z</time></trkpt><trkpt lat="47.337803530892195" lon="-2.3395389318250004"><ele>17.0</ele><time>2026-03-22T16:39:57.999Z</time></trkpt><trkpt lat="47.337927151072236" lon="-2.3394387930451486"><ele>17.0</ele><time>2026-03-22T16:39:58.999Z</time></trkpt><trkpt lat="47.338054395100045" lon="-2.33935728019015"><ele>17.0</ele><time>2026-03-22T16:39:59.999Z</time></trkpt><trkpt lat="47.33817712756315" lon="-2.339267777762594"><ele>17.0</ele><time>2026-03-22T16:40:00.999Z</time></trkpt><trkpt lat="47.33829185780431" lon="-2.3391676521844387"><ele>17.0</ele><time>2026-03-22T16:40:01.999Z</time></trkpt><trkpt lat="47.338392946199946" lon="-2.339086048340933"><ele>17.0</ele><time>2026-03-22T16:40:02.999Z</time></trkpt><trkpt lat="47.33848548281582" lon="-2.3390226612726157"><ele>17.0</ele><time>2026-03-22T16:40:03.999Z</time></trkpt><trkpt lat="47.338567110698826" lon="-2.3389554779755444"><ele>17.0</ele><time>2026-03-22T16:40:04.999Z</time></trkpt><trkpt lat="47.33863132981613" lon="-2.338894491424701"><ele>17.0</ele><time>2026-03-22T16:40:05.999Z</time></trkpt><trkpt lat="47.33870942744829" lon="-2.3388265227758676"><ele>17.0</ele><time>2026-03-22T16:40:07.999Z</time></trkpt><trkpt lat="47.33875531940588" lon="-2.3386995244733675"><ele>17.0</ele><time>2026-03-22T16:40:12.999Z</time></trkpt><trkpt lat="47.33874026248198" lon="-2.338596851435995"><ele>17.0</ele><time>2026-03-22T16:40:13.999Z</time></trkpt><trkpt lat="47.33867502744498" lon="-2.3384672595688136"><ele>17.0</ele><time>2026-03-22T16:40:14.999Z</time></trkpt><trkpt lat="47.33860938475017" lon="-2.338303694395353"><ele>17.0</ele><time>2026-03-22T16:40:16Z</time></trkpt><trkpt lat="47.338547213465716" lon="-2.338118655091739"><ele>17.0</ele><time>2026-03-22T16:40:17Z</time></trkpt><trkpt lat="47.338479568772435" lon="-2.337892013093936"><ele>17.0</ele><time>2026-03-22T16:40:18Z</time></trkpt><trkpt lat="47.338377217140454" lon="-2.3376157196977654"><ele>17.5</ele><time>2026-03-22T16:40:19Z</time></trkpt><trkpt lat="47.3382646464997" lon="-2.337260004698164"><ele>18.0</ele><time>2026-03-22T16:40:20Z</time></trkpt><trkpt lat="47.338137175007915" lon="-2.336895439367297"><ele>18.5</ele><time>2026-03-22T16:40:21Z</time></trkpt><trkpt lat="47.33800275362259" lon="-2.3365095958026894"><ele>19.0</ele><time>2026-03-22T16:40:22Z</time></trkpt><trkpt lat="47.33788026717969" lon="-2.336145477146354"><ele>19.0</ele><time>2026-03-22T16:40:23Z</time></trkpt><trkpt lat="47.337759595020756" lon="-2.335824806023688"><ele>19.0</ele><time>2026-03-22T16:40:24Z</time></trkpt><trkpt lat="47.337660969523725" lon="-2.335501563991088"><ele>18.333333333333332</ele><time>2026-03-22T16:40:25Z</time></trkpt><trkpt lat="47.33756292713399" lon="-2.3351935976144618"><ele>17.666666666666668</ele><time>2026-03-22T16:40:26Z</time></trkpt><trkpt lat="47.337488408389454" lon="-2.334950331182199"><ele>17.0</ele><time>2026-03-22T16:40:27Z</time></trkpt><trkpt lat="47.33738491804897" lon="-2.3346920079173765"><ele>16.333333333333336</ele><time>2026-03-22T16:40:28Z</time></trkpt><trkpt lat="47.33730659368314" lon="-2.3344616897402024"><ele>15.666666666666668</ele><time>2026-03-22T16:40:29Z</time></trkpt><trkpt lat="47.33721253214698" lon="-2.334274114136344"><ele>15.0</ele><time>2026-03-22T16:40:30Z</time></trkpt><trkpt lat="47.33715873067529" lon="-2.3340721417139463"><ele>15.0</ele><time>2026-03-22T16:40:31Z</time></trkpt><trkpt lat="47.33709761107567" lon="-2.333914074105711"><ele>15.0</ele><time>2026-03-22T16:40:32Z</time></trkpt><trkpt lat="47.33704938272601" lon="-2.333783254824308"><ele>15.0</ele><time>2026-03-22T16:40:33Z</time></trkpt><trkpt lat="47.33700968927691" lon="-2.333677923998862"><ele>15.0</ele><time>2026-03-22T16:40:34Z</time></trkpt><trkpt lat="47.33697968655434" lon="-2.333591912410871"><ele>15.0</ele><time>2026-03-22T16:40:35Z</time></trkpt><trkpt lat="47.33691465662019" lon="-2.333487190079022"><ele>14.5</ele><time>2026-03-22T16:40:37Z</time></trkpt><trkpt lat="47.336862496947695" lon="-2.333416048577165"><ele>14.0</ele><time>2026-03-22T16:40:40Z</time></trkpt><trkpt lat="47.336714463995065" lon="-2.3333565849348337"><ele>13.5</ele><time>2026-03-22T16:40:42Z</time></trkpt><trkpt lat="47.33658650477526" lon="-2.33333012542435"><ele>13.0</ele><time>2026-03-22T16:40:43Z</time></trkpt><trkpt lat="47.33641530119593" lon="-2.3332626425101677"><ele>12.666666666666666</ele><time>2026-03-22T16:40:44Z</time></trkpt><trkpt lat="47.33624711403335" lon="-2.3331637900420614"><ele>12.333333333333332</ele><time>2026-03-22T16:40:45Z</time></trkpt><trkpt lat="47.336054997319906" lon="-2.3330529281299515"><ele>12.0</ele><time>2026-03-22T16:40:46Z</time></trkpt><trkpt lat="47.33585851667921" lon="-2.33290626531589"><ele>12.0</ele><time>2026-03-22T16:40:47Z</time></trkpt><trkpt lat="47.33566214927981" lon="-2.3327227607018477"><ele>12.0</ele><time>2026-03-22T16:40:48Z</time></trkpt><trkpt lat="47.335445669868285" lon="-2.3325043953811035"><ele>14.5</ele><time>2026-03-22T16:40:49Z</time></trkpt><trkpt lat="47.33524964612043" lon="-2.332311085412996"><ele>17.0</ele><time>2026-03-22T16:40:50Z</time></trkpt><trkpt lat="47.33505299229804" lon="-2.3321171177408058"><ele>17.0</ele><time>2026-03-22T16:40:51Z</time></trkpt><trkpt lat="47.33487972574958" lon="-2.3319520713327164"><ele>17.0</ele><time>2026-03-22T16:40:52Z</time></trkpt><trkpt lat="47.334715354420624" lon="-2.3317905133239347"><ele>17.0</ele><time>2026-03-22T16:40:53Z</time></trkpt><trkpt lat="47.33455734236306" lon="-2.33163265641842"><ele>17.333333333333336</ele><time>2026-03-22T16:40:54Z</time></trkpt><trkpt lat="47.33440721108733" lon="-2.331484914077973"><ele>17.666666666666668</ele><time>2026-03-22T16:40:55Z</time></trkpt><trkpt lat="47.33426563761791" lon="-2.3313437952656386"><ele>18.0</ele><time>2026-03-22T16:40:56Z</time></trkpt><trkpt lat="47.33412958798321" lon="-2.3312136058098223"><ele>18.0</ele><time>2026-03-22T16:40:57Z</time></trkpt><trkpt lat="47.33399015831417" lon="-2.3310722845775054"><ele>18.0</ele><time>2026-03-22T16:40:58Z</time></trkpt><trkpt lat="47.333854847986345" lon="-2.3309307622846864"><ele>18.0</ele><time>2026-03-22T16:40:59Z</time></trkpt><trkpt lat="47.333714736414265" lon="-2.330795985167262"><ele>17.666666666666668</ele><time>2026-03-22T16:41:00Z</time></trkpt><trkpt lat="47.3335803563786" lon="-2.330665947882121"><ele>17.333333333333336</ele><time>2026-03-22T16:41:01Z</time></trkpt><trkpt lat="47.333447276835855" lon="-2.330537108332197"><ele>17.0</ele><time>2026-03-22T16:41:02Z</time></trkpt><trkpt lat="47.33332034130896" lon="-2.330400502203429"><ele>17.0</ele><time>2026-03-22T16:41:03Z</time></trkpt><trkpt lat="47.333186312908644" lon="-2.3302680535142337"><ele>17.0</ele><time>2026-03-22T16:41:04Z</time></trkpt><trkpt lat="47.333045751226585" lon="-2.3301396756815427"><ele>17.0</ele><time>2026-03-22T16:41:05Z</time></trkpt><trkpt lat="47.332917543456766" lon="-2.3300198498526146"><ele>16.25</ele><time>2026-03-22T16:41:06Z</time></trkpt><trkpt lat="47.33279887768471" lon="-2.3299039724837054"><ele>15.5</ele><time>2026-03-22T16:41:06.999Z</time></trkpt><trkpt lat="47.33267548609212" lon="-2.329801741237145"><ele>14.75</ele><time>2026-03-22T16:41:07.999Z</time></trkpt><trkpt lat="47.332532986463654" lon="-2.3297177505699294"><ele>14.0</ele><time>2026-03-22T16:41:08.999Z</time></trkpt><trkpt lat="47.33238002644845" lon="-2.3296466991150977"><ele>12.666666666666668</ele><time>2026-03-22T16:41:09.999Z</time></trkpt><trkpt lat="47.332213349570395" lon="-2.329596659644046"><ele>11.333333333333334</ele><time>2026-03-22T16:41:10.999Z</time></trkpt><trkpt lat="47.3320376462848" lon="-2.3295619928709272"><ele>10.0</ele><time>2026-03-22T16:41:11.999Z</time></trkpt><trkpt lat="47.331864724429344" lon="-2.3295311010896866"><ele>10.0</ele><time>2026-03-22T16:41:12.999Z</time></trkpt><trkpt lat="47.33169534974232" lon="-2.32948853905554"><ele>10.0</ele><time>2026-03-22T16:41:13.999Z</time></trkpt><trkpt lat="47.33152863614096" lon="-2.329442442791718"><ele>10.0</ele><time>2026-03-22T16:41:14.999Z</time></trkpt><trkpt lat="47.33137064975876" lon="-2.329387467219809"><ele>10.0</ele><time>2026-03-22T16:41:15.999Z</time></trkpt><trkpt lat="47.33121480187602" lon="-2.3293183171823104"><ele>10.0</ele><time>2026-03-22T16:41:16.999Z</time></trkpt><trkpt lat="47.33106352854039" lon="-2.329249778424382"><ele>10.0</ele><time>2026-03-22T16:41:17.999Z</time></trkpt><trkpt lat="47.33090564661601" lon="-2.329163983407006"><ele>10.0</ele><time>2026-03-22T16:41:18.999Z</time></trkpt><trkpt lat="47.33075104428497" lon="-2.329084765203594"><ele>10.0</ele><time>2026-03-22T16:41:19.999Z</time></trkpt><trkpt lat="47.33060148097057" lon="-2.329008074435293"><ele>10.0</ele><time>2026-03-22T16:41:20.999Z</time></trkpt><trkpt lat="47.330459633880544" lon="-2.3289621190196055"><ele>11.0</ele><time>2026-03-22T16:41:21.999Z</time></trkpt><trkpt lat="47.33032689716178" lon="-2.3289397971396304"><ele>12.0</ele><time>2026-03-22T16:41:22.999Z</time></trkpt><trkpt lat="47.33019105644271" lon="-2.328936594429502"><ele>13.0</ele><time>2026-03-22T16:41:23.999Z</time></trkpt><trkpt lat="47.330044529947735" lon="-2.328957517857305"><ele>14.0</ele><time>2026-03-22T16:41:24.999Z</time></trkpt><trkpt lat="47.32988502125778" lon="-2.329009332700773"><ele>14.0</ele><time>2026-03-22T16:41:25.999Z</time></trkpt><trkpt lat="47.32973079520455" lon="-2.32906385989108"><ele>14.0</ele><time>2026-03-22T16:41:26.999Z</time></trkpt><trkpt lat="47.32958566224445" lon="-2.329097652954703"><ele>14.0</ele><time>2026-03-22T16:41:27.999Z</time></trkpt><trkpt lat="47.32945096692543" lon="-2.329128698869704"><ele>14.0</ele><time>2026-03-22T16:41:28.999Z</time></trkpt><trkpt lat="47.32932793976632" lon="-2.3291644707522634"><ele>12.75</ele><time>2026-03-22T16:41:29.999Z</time></trkpt><trkpt lat="47.32920713552925" lon="-2.329196210818506"><ele>11.5</ele><time>2026-03-22T16:41:30.999Z</time></trkpt><trkpt lat="47.329093171190095" lon="-2.3292232784970435"><ele>10.25</ele><time>2026-03-22T16:41:31.999Z</time></trkpt><trkpt lat="47.32897535355898" lon="-2.329243631682248"><ele>9.0</ele><time>2026-03-22T16:41:32.999Z</time></trkpt><trkpt lat="47.32885271904843" lon="-2.329249144725729"><ele>8.8</ele><time>2026-03-22T16:41:33.999Z</time></trkpt><trkpt lat="47.32874287784527" lon="-2.3292160383231724"><ele>8.600000000000001</ele><time>2026-03-22T16:41:34.999Z</time></trkpt><trkpt lat="47.32865088843753" lon="-2.3291783709863716"><ele>8.4</ele><time>2026-03-22T16:41:35.999Z</time></trkpt><trkpt lat="47.3285792850413" lon="-2.3291642414083045"><ele>8.200000000000001</ele><time>2026-03-22T16:41:36.999Z</time></trkpt><trkpt lat="47.32850533735274" lon="-2.3291969364991387"><ele>8.0</ele><time>2026-03-22T16:41:37.999Z</time></trkpt><trkpt lat="47.32840486002893" lon="-2.329290269381013"><ele>8.0</ele><time>2026-03-22T16:41:38.999Z</time></trkpt><trkpt lat="47.328275810243255" lon="-2.3294141027821578"><ele>8.0</ele><time>2026-03-22T16:41:39.999Z</time></trkpt><trkpt lat="47.32811672878526" lon="-2.329550498911401"><ele>8.0</ele><time>2026-03-22T16:41:40.999Z</time></trkpt><trkpt lat="47.32794336498288" lon="-2.3296922628776224"><ele>8.0</ele><time>2026-03-22T16:41:41.999Z</time></trkpt><trkpt lat="47.32777543770905" lon="-2.3298323924633757"><ele>8.0</ele><time>2026-03-22T16:41:42.999Z</time></trkpt><trkpt lat="47.3276036465833" lon="-2.3299839291242535"><ele>8.0</ele><time>2026-03-22T16:41:43.999Z</time></trkpt><trkpt lat="47.32744197503833" lon="-2.3301135453564283"><ele>8.0</ele><time>2026-03-22T16:41:44.999Z</time></trkpt><trkpt lat="47.3272870331621" lon="-2.330221882359034"><ele>8.0</ele><time>2026-03-22T16:41:45.999Z</time></trkpt><trkpt lat="47.3271570275171" lon="-2.3303462707536147"><ele>8.0</ele><time>2026-03-22T16:41:46.999Z</time></trkpt><trkpt lat="47.327006872236105" lon="-2.3304776629259782"><ele>7.666666666666666</ele><time>2026-03-22T16:41:47.999Z</time></trkpt><trkpt lat="47.32685934093743" lon="-2.330637082021077"><ele>7.333333333333334</ele><time>2026-03-22T16:41:48.999Z</time></trkpt><trkpt lat="47.326716540150144" lon="-2.3308152361361065"><ele>7.0</ele><time>2026-03-22T16:41:49.999Z</time></trkpt><trkpt lat="47.32657979141605" lon="-2.3310125516341573"><ele>7.0</ele><time>2026-03-22T16:41:50.999Z</time></trkpt><trkpt lat="47.32645759770476" lon="-2.3312021401071834"><ele>7.0</ele><time>2026-03-22T16:41:51.999Z</time></trkpt><trkpt lat="47.32635012434277" lon="-2.331375189010532"><ele>7.0</ele><time>2026-03-22T16:41:52.999Z</time></trkpt><trkpt lat="47.32623790762769" lon="-2.331528573180379"><ele>7.5</ele><time>2026-03-22T16:41:53.999Z</time></trkpt><trkpt lat="47.32614618508532" lon="-2.331673806358351"><ele>8.0</ele><time>2026-03-22T16:41:54.999Z</time></trkpt><trkpt lat="47.32605516873675" lon="-2.3317986297119497"><ele>8.5</ele><time>2026-03-22T16:41:55.999Z</time></trkpt><trkpt lat="47.32595711979879" lon="-2.331905537290971"><ele>9.0</ele><time>2026-03-22T16:41:56.999Z</time></trkpt><trkpt lat="47.32584189061909" lon="-2.33198479067048"><ele>9.0</ele><time>2026-03-22T16:41:57.999Z</time></trkpt><trkpt lat="47.32571638406513" lon="-2.332034730733401"><ele>9.0</ele><time>2026-03-22T16:41:58.999Z</time></trkpt><trkpt lat="47.32560154324422" lon="-2.3320278435043114"><ele>9.0</ele><time>2026-03-22T16:41:59.999Z</time></trkpt><trkpt lat="47.32545478739375" lon="-2.3320448232599755"><ele>9.0</ele><time>2026-03-22T16:42:00.999Z</time></trkpt><trkpt lat="47.32534094199353" lon="-2.332041195791946"><ele>9.4</ele><time>2026-03-22T16:42:01.999Z</time></trkpt><trkpt lat="47.3252633490968" lon="-2.3320411327502693"><ele>9.8</ele><time>2026-03-22T16:42:02.999Z</time></trkpt><trkpt lat="47.32519064631401" lon="-2.332038429827274"><ele>10.200000000000001</ele><time>2026-03-22T16:42:04.999Z</time></trkpt><trkpt lat="47.32508843003099" lon="-2.3320579125269614"><ele>10.600000000000001</ele><time>2026-03-22T16:42:09.999Z</time></trkpt><trkpt lat="47.324990954875275" lon="-2.3320589090271246"><ele>11.0</ele><time>2026-03-22T16:42:10.999Z</time></trkpt><trkpt lat="47.32485310789147" lon="-2.3320489897956533"><ele>13.0</ele><time>2026-03-22T16:42:11.999Z</time></trkpt><trkpt lat="47.324665366881185" lon="-2.33204769383267"><ele>15.0</ele><time>2026-03-22T16:42:12.999Z</time></trkpt><trkpt lat="47.324474027154466" lon="-2.3320582549972535"><ele>17.0</ele><time>2026-03-22T16:42:13.999Z</time></trkpt><trkpt lat="47.3242886843886" lon="-2.332053176179945"><ele>17.0</ele><time>2026-03-22T16:42:14.999Z</time></trkpt><trkpt lat="47.32410674592322" lon="-2.3320453656874296"><ele>17.0</ele><time>2026-03-22T16:42:15.999Z</time></trkpt><trkpt lat="47.323925923730926" lon="-2.3320482243020546"><ele>17.0</ele><time>2026-03-22T16:42:16.999Z</time></trkpt><trkpt lat="47.323762023707545" lon="-2.332082737662418"><ele>17.5</ele><time>2026-03-22T16:42:17.999Z</time></trkpt><trkpt lat="47.32358598096172" lon="-2.332107445077693"><ele>18.0</ele><time>2026-03-22T16:42:18.999Z</time></trkpt><trkpt lat="47.32345833333552" lon="-2.332072459960546"><ele>18.5</ele><time>2026-03-22T16:42:19.999Z</time></trkpt><trkpt lat="47.32333258382616" lon="-2.3320691884868103"><ele>19.0</ele><time>2026-03-22T16:42:20.999Z</time></trkpt><trkpt lat="47.323219476349905" lon="-2.3320718151331192"><ele>19.0</ele><time>2026-03-22T16:42:22Z</time></trkpt><trkpt lat="47.323114831070114" lon="-2.332088923785675"><ele>19.0</ele><time>2026-03-22T16:42:23Z</time></trkpt><trkpt lat="47.32302006784435" lon="-2.3321322168017407"><ele>19.0</ele><time>2026-03-22T16:42:24Z</time></trkpt><trkpt lat="47.3229300413272" lon="-2.332186245732722"><ele>19.0</ele><time>2026-03-22T16:42:25Z</time></trkpt><trkpt lat="47.322843552204716" lon="-2.3322748839402476"><ele>19.0</ele><time>2026-03-22T16:42:26Z</time></trkpt><trkpt lat="47.32275931562721" lon="-2.3323783352728915"><ele>19.0</ele><time>2026-03-22T16:42:27Z</time></trkpt><trkpt lat="47.32268567648489" lon="-2.3325067888572666"><ele>19.0</ele><time>2026-03-22T16:42:28Z</time></trkpt><trkpt lat="47.322616416455446" lon="-2.332629510267499"><ele>19.0</ele><time>2026-03-22T16:42:29Z</time></trkpt><trkpt lat="47.32255065959137" lon="-2.3327368021404262"><ele>19.0</ele><time>2026-03-22T16:42:30Z</time></trkpt><trkpt lat="47.32247394688898" lon="-2.332850985624601"><ele>19.0</ele><time>2026-03-22T16:42:31Z</time></trkpt><trkpt lat="47.32239306655232" lon="-2.332982501694347"><ele>20.0</ele><time>2026-03-22T16:42:32Z</time></trkpt><trkpt lat="47.32230241416991" lon="-2.3331276671688417"><ele>21.0</ele><time>2026-03-22T16:42:33Z</time></trkpt><trkpt lat="47.32220529995525" lon="-2.3332881320503924"><ele>22.0</ele><time>2026-03-22T16:42:34Z</time></trkpt><trkpt lat="47.322102427661896" lon="-2.333465368265933"><ele>23.0</ele><time>2026-03-22T16:42:35Z</time></trkpt><trkpt lat="47.32199350881434" lon="-2.3336531135757106"><ele>23.0</ele><time>2026-03-22T16:42:36Z</time></trkpt><trkpt lat="47.32187730217217" lon="-2.333837832477699"><ele>23.0</ele><time>2026-03-22T16:42:37Z</time></trkpt><trkpt lat="47.321763890110304" lon="-2.334028472513918"><ele>23.0</ele><time>2026-03-22T16:42:38Z</time></trkpt><trkpt lat="47.32164681058584" lon="-2.3342123826489334"><ele>24.333333333333336</ele><time>2026-03-22T16:42:39Z</time></trkpt><trkpt lat="47.321524799793906" lon="-2.33440117574598"><ele>25.666666666666668</ele><time>2026-03-22T16:42:40Z</time></trkpt><trkpt lat="47.32141640726714" lon="-2.334597963551947"><ele>27.0</ele><time>2026-03-22T16:42:41Z</time></trkpt><trkpt lat="47.3213083876023" lon="-2.3347674557322113"><ele>27.0</ele><time>2026-03-22T16:42:42Z</time></trkpt><trkpt lat="47.32121454354758" lon="-2.3349256423909637"><ele>27.0</ele><time>2026-03-22T16:42:43Z</time></trkpt><trkpt lat="47.32112626049303" lon="-2.335074744527708"><ele>27.0</ele><time>2026-03-22T16:42:44Z</time></trkpt><trkpt lat="47.32103821518745" lon="-2.3352268947028416"><ele>27.0</ele><time>2026-03-22T16:42:45Z</time></trkpt><trkpt lat="47.3209421166263" lon="-2.3353801332467663"><ele>27.0</ele><time>2026-03-22T16:42:46Z</time></trkpt><trkpt lat="47.32084093260636" lon="-2.335539743682385"><ele>27.0</ele><time>2026-03-22T16:42:47Z</time></trkpt><trkpt lat="47.32074529330393" lon="-2.3357017717476762"><ele>27.0</ele><time>2026-03-22T16:42:48Z</time></trkpt><trkpt lat="47.32065337430969" lon="-2.335859489533018"><ele>27.0</ele><time>2026-03-22T16:42:49Z</time></trkpt><trkpt lat="47.320569379528706" lon="-2.336011212995943"><ele>26.0</ele><time>2026-03-22T16:42:50Z</time></trkpt><trkpt lat="47.32049502603972" lon="-2.3361625299110846"><ele>25.0</ele><time>2026-03-22T16:42:51Z</time></trkpt><trkpt lat="47.320429959157394" lon="-2.336317603466477"><ele>24.0</ele><time>2026-03-22T16:42:52Z</time></trkpt><trkpt lat="47.32037444014746" lon="-2.3364946131316024"><ele>23.0</ele><time>2026-03-22T16:42:53Z</time></trkpt><trkpt lat="47.32031149779038" lon="-2.3366987575692204"><ele>22.666666666666668</ele><time>2026-03-22T16:42:54Z</time></trkpt><trkpt lat="47.32026287892387" lon="-2.336929498317035"><ele>22.333333333333332</ele><time>2026-03-22T16:42:55Z</time></trkpt><trkpt lat="47.3201943333193" lon="-2.3371462686398385"><ele>22.0</ele><time>2026-03-22T16:42:56Z</time></trkpt><trkpt lat="47.32013720936612" lon="-2.3373558810269857"><ele>21.5</ele><time>2026-03-22T16:42:57Z</time></trkpt><trkpt lat="47.320133217446475" lon="-2.3375935332144935"><ele>21.0</ele><time>2026-03-22T16:42:58Z</time></trkpt><trkpt lat="47.320112342213505" lon="-2.3377837749883925"><ele>20.5</ele><time>2026-03-22T16:42:59Z</time></trkpt><trkpt lat="47.320107285267184" lon="-2.337984779749953"><ele>20.0</ele><time>2026-03-22T16:43:00Z</time></trkpt><trkpt lat="47.32015055805512" lon="-2.338168731514671"><ele>19.5</ele><time>2026-03-22T16:43:01Z</time></trkpt><trkpt lat="47.320175401964505" lon="-2.3383587657109075"><ele>19.0</ele><time>2026-03-22T16:43:02Z</time></trkpt><trkpt lat="47.32022298798452" lon="-2.3385544294722753"><ele>18.5</ele><time>2026-03-22T16:43:03Z</time></trkpt><trkpt lat="47.32027917483171" lon="-2.338767818804903"><ele>18.0</ele><time>2026-03-22T16:43:04Z</time></trkpt><trkpt lat="47.32032861360642" lon="-2.33898662894947"><ele>18.0</ele><time>2026-03-22T16:43:05Z</time></trkpt><trkpt lat="47.32037815049175" lon="-2.3392174178113025"><ele>18.0</ele><time>2026-03-22T16:43:06Z</time></trkpt><trkpt lat="47.32045045067931" lon="-2.339444312041086"><ele>18.0</ele><time>2026-03-22T16:43:07Z</time></trkpt><trkpt lat="47.3205092954533" lon="-2.339669585813653"><ele>19.0</ele><time>2026-03-22T16:43:08Z</time></trkpt><trkpt lat="47.32057479390717" lon="-2.339862259618938"><ele>20.0</ele><time>2026-03-22T16:43:09Z</time></trkpt><trkpt lat="47.320605335963776" lon="-2.340084526863112"><ele>21.0</ele><time>2026-03-22T16:43:10Z</time></trkpt><trkpt lat="47.32064680865379" lon="-2.340267886085667"><ele>22.0</ele><time>2026-03-22T16:43:11Z</time></trkpt><trkpt lat="47.32068429721584" lon="-2.3404414182181235"><ele>22.0</ele><time>2026-03-22T16:43:12Z</time></trkpt><trkpt lat="47.32072464204989" lon="-2.340626150676804"><ele>22.0</ele><time>2026-03-22T16:43:13Z</time></trkpt><trkpt lat="47.32077040963681" lon="-2.3408127881346577"><ele>22.0</ele><time>2026-03-22T16:43:13.999Z</time></trkpt><trkpt lat="47.32080564055884" lon="-2.3409924172252388"><ele>22.0</ele><time>2026-03-22T16:43:14.999Z</time></trkpt><trkpt lat="47.320818882312956" lon="-2.341173057859843"><ele>22.0</ele><time>2026-03-22T16:43:15.999Z</time></trkpt><trkpt lat="47.32080755862655" lon="-2.34133801563689"><ele>22.0</ele><time>2026-03-22T16:43:16.999Z</time></trkpt><trkpt lat="47.3207789087138" lon="-2.341480189914097"><ele>22.0</ele><time>2026-03-22T16:43:17.999Z</time></trkpt><trkpt lat="47.320739293963975" lon="-2.3416013647743696"><ele>22.0</ele><time>2026-03-22T16:43:18.999Z</time></trkpt><trkpt lat="47.320684750330514" lon="-2.3417132841225414"><ele>22.0</ele><time>2026-03-22T16:43:19.999Z</time></trkpt><trkpt lat="47.32061855739392" lon="-2.3418232735799664"><ele>22.400000000000002</ele><time>2026-03-22T16:43:20.999Z</time></trkpt><trkpt lat="47.320544934222134" lon="-2.341918217329092"><ele>22.8</ele><time>2026-03-22T16:43:21.999Z</time></trkpt><trkpt lat="47.32046952797692" lon="-2.3420088456108448"><ele>23.2</ele><time>2026-03-22T16:43:22.999Z</time></trkpt><trkpt lat="47.32039646271431" lon="-2.3420993544099495"><ele>23.6</ele><time>2026-03-22T16:43:23.999Z</time></trkpt><trkpt lat="47.32033455113818" lon="-2.3421798089111507"><ele>24.0</ele><time>2026-03-22T16:43:24.999Z</time></trkpt><trkpt lat="47.32026953614508" lon="-2.342264041121748"><ele>24.2</ele><time>2026-03-22T16:43:25.999Z</time></trkpt><trkpt lat="47.32020199042638" lon="-2.342342817193337"><ele>24.4</ele><time>2026-03-22T16:43:26.999Z</time></trkpt><trkpt lat="47.320127541182686" lon="-2.3424309746895933"><ele>24.6</ele><time>2026-03-22T16:43:27.999Z</time></trkpt><trkpt lat="47.32004965955618" lon="-2.342528909439906"><ele>24.8</ele><time>2026-03-22T16:43:28.999Z</time></trkpt><trkpt lat="47.319957250529164" lon="-2.3426413539806914"><ele>25.0</ele><time>2026-03-22T16:43:29.999Z</time></trkpt><trkpt lat="47.31982993700736" lon="-2.3427929433792785"><ele>25.0</ele><time>2026-03-22T16:43:30.999Z</time></trkpt><trkpt lat="47.31968302651165" lon="-2.3429868524271478"><ele>25.0</ele><time>2026-03-22T16:43:31.999Z</time></trkpt><trkpt lat="47.31953477730694" lon="-2.3431581428109207"><ele>25.0</ele><time>2026-03-22T16:43:32.999Z</time></trkpt><trkpt lat="47.31940525534153" lon="-2.343316012176567"><ele>25.666666666666668</ele><time>2026-03-22T16:43:33.999Z</time></trkpt><trkpt lat="47.3192889645888" lon="-2.3434771973577577"><ele>26.333333333333336</ele><time>2026-03-22T16:43:34.999Z</time></trkpt><trkpt lat="47.31915714293257" lon="-2.3436154462623398"><ele>27.0</ele><time>2026-03-22T16:43:35.999Z</time></trkpt><trkpt lat="47.31902371991771" lon="-2.34371779122159"><ele>27.25</ele><time>2026-03-22T16:43:36.999Z</time></trkpt><trkpt lat="47.318879958724644" lon="-2.343794550475009"><ele>27.5</ele><time>2026-03-22T16:43:37.999Z</time></trkpt><trkpt lat="47.31874307658763" lon="-2.3438515859797984"><ele>27.75</ele><time>2026-03-22T16:43:38.999Z</time></trkpt><trkpt lat="47.31862057555523" lon="-2.343906902207941"><ele>28.0</ele><time>2026-03-22T16:43:39.999Z</time></trkpt><trkpt lat="47.31849380499222" lon="-2.343961230811093"><ele>28.25</ele><time>2026-03-22T16:43:40.999Z</time></trkpt><trkpt lat="47.318369430601834" lon="-2.3440148433041976"><ele>28.5</ele><time>2026-03-22T16:43:41.999Z</time></trkpt><trkpt lat="47.31824600573374" lon="-2.3440687035709455"><ele>28.75</ele><time>2026-03-22T16:43:42.999Z</time></trkpt><trkpt lat="47.31811669980178" lon="-2.3441293965198775"><ele>29.0</ele><time>2026-03-22T16:43:43.999Z</time></trkpt><trkpt lat="47.31796724941093" lon="-2.3442019730557146"><ele>29.333333333333332</ele><time>2026-03-22T16:43:44.999Z</time></trkpt><trkpt lat="47.31778228909925" lon="-2.3442682576329226"><ele>29.666666666666664</ele><time>2026-03-22T16:43:45.999Z</time></trkpt><trkpt lat="47.317587860126" lon="-2.344289301787909"><ele>30.0</ele><time>2026-03-22T16:43:46.999Z</time></trkpt><trkpt lat="47.317432158559846" lon="-2.344330543831376"><ele>30.0</ele><time>2026-03-22T16:43:47.999Z</time></trkpt><trkpt lat="47.317289095725116" lon="-2.344384028444425"><ele>30.0</ele><time>2026-03-22T16:43:48.999Z</time></trkpt><trkpt lat="47.3171618524502" lon="-2.3444584193158886"><ele>30.0</ele><time>2026-03-22T16:43:49.999Z</time></trkpt><trkpt lat="47.3170371672376" lon="-2.3445490529935937"><ele>30.0</ele><time>2026-03-22T16:43:50.999Z</time></trkpt><trkpt lat="47.316905608085" lon="-2.3446411306524158"><ele>30.75</ele><time>2026-03-22T16:43:51.999Z</time></trkpt><trkpt lat="47.316784371668156" lon="-2.3447147776556623"><ele>31.5</ele><time>2026-03-22T16:43:52.999Z</time></trkpt><trkpt lat="47.31664950661367" lon="-2.3447914672188883"><ele>32.25</ele><time>2026-03-22T16:43:53.999Z</time></trkpt><trkpt lat="47.31650082482124" lon="-2.344830841370959"><ele>33.0</ele><time>2026-03-22T16:43:54.999Z</time></trkpt><trkpt lat="47.31634074106724" lon="-2.344846480755468"><ele>33.0</ele><time>2026-03-22T16:43:55.999Z</time></trkpt><trkpt lat="47.31618550414152" lon="-2.3449220496717453"><ele>33.0</ele><time>2026-03-22T16:43:56.999Z</time></trkpt><trkpt lat="47.316037950123466" lon="-2.3450040606164237"><ele>33.0</ele><time>2026-03-22T16:43:57.999Z</time></trkpt><trkpt lat="47.31590040731672" lon="-2.3450255958708404"><ele>33.0</ele><time>2026-03-22T16:43:58.999Z</time></trkpt><trkpt lat="47.3157409693164" lon="-2.345007095840083"><ele>33.0</ele><time>2026-03-22T16:43:59.999Z</time></trkpt><trkpt lat="47.315601278579024" lon="-2.3450770302727477"><ele>33.0</ele><time>2026-03-22T16:44:00.999Z</time></trkpt><trkpt lat="47.31546335176645" lon="-2.345168720221778"><ele>32.75</ele><time>2026-03-22T16:44:01.999Z</time></trkpt><trkpt lat="47.31533925365346" lon="-2.345260450719131"><ele>32.5</ele><time>2026-03-22T16:44:02.999Z</time></trkpt><trkpt lat="47.31521715401644" lon="-2.345323493625918"><ele>32.25</ele><time>2026-03-22T16:44:03.999Z</time></trkpt><trkpt lat="47.315099101271755" lon="-2.345355282537536"><ele>32.0</ele><time>2026-03-22T16:44:04.999Z</time></trkpt><trkpt lat="47.31497365764191" lon="-2.3453524788135764"><ele>32.0</ele><time>2026-03-22T16:44:05.999Z</time></trkpt><trkpt lat="47.3148398040412" lon="-2.345330042159364"><ele>32.0</ele><time>2026-03-22T16:44:06.999Z</time></trkpt><trkpt lat="47.31471077604489" lon="-2.345314556520461"><ele>32.0</ele><time>2026-03-22T16:44:07.999Z</time></trkpt><trkpt lat="47.314581153057155" lon="-2.3453265583303526"><ele>32.0</ele><time>2026-03-22T16:44:08.999Z</time></trkpt><trkpt lat="47.31445211372697" lon="-2.3453730121113807"><ele>31.75</ele><time>2026-03-22T16:44:09.999Z</time></trkpt><trkpt lat="47.3143230419185" lon="-2.345433108161403"><ele>31.5</ele><time>2026-03-22T16:44:10.999Z</time></trkpt><trkpt lat="47.314215000535654" lon="-2.3454987542190486"><ele>31.25</ele><time>2026-03-22T16:44:11.999Z</time></trkpt><trkpt lat="47.314112614049215" lon="-2.34556160671088"><ele>31.0</ele><time>2026-03-22T16:44:12.999Z</time></trkpt><trkpt lat="47.31401868249236" lon="-2.345625280325712"><ele>31.4</ele><time>2026-03-22T16:44:13.999Z</time></trkpt><trkpt lat="47.3139282717649" lon="-2.3456926059394845"><ele>31.8</ele><time>2026-03-22T16:44:14.999Z</time></trkpt><trkpt lat="47.313843176097805" lon="-2.3457530851591404"><ele>32.199999999999996</ele><time>2026-03-22T16:44:15.999Z</time></trkpt><trkpt lat="47.313759706963516" lon="-2.3458255943999613"><ele>32.6</ele><time>2026-03-22T16:44:16.999Z</time></trkpt><trkpt lat="47.31367039932484" lon="-2.3459104498498973"><ele>33.0</ele><time>2026-03-22T16:44:17.999Z</time></trkpt><trkpt lat="47.313587222294956" lon="-2.3460029915161464"><ele>33.0</ele><time>2026-03-22T16:44:18.999Z</time></trkpt><trkpt lat="47.313499847332025" lon="-2.346097637273282"><ele>33.0</ele><time>2026-03-22T16:44:19.999Z</time></trkpt><trkpt lat="47.313407778899865" lon="-2.346185012068199"><ele>33.0</ele><time>2026-03-22T16:44:20.999Z</time></trkpt><trkpt lat="47.313325820320784" lon="-2.3462716480387256"><ele>33.0</ele><time>2026-03-22T16:44:21.999Z</time></trkpt><trkpt lat="47.3132697852468" lon="-2.3463621681366607"><ele>33.0</ele><time>2026-03-22T16:44:22.999Z</time></trkpt><trkpt lat="47.3132060105534" lon="-2.346431504702938"><ele>33.14285714285714</ele><time>2026-03-22T16:44:23.999Z</time></trkpt><trkpt lat="47.31315084966496" lon="-2.346497977400224"><ele>33.285714285714285</ele><time>2026-03-22T16:44:24.999Z</time></trkpt><trkpt lat="47.31310035300814" lon="-2.346565102299657"><ele>33.42857142857143</ele><time>2026-03-22T16:44:25.999Z</time></trkpt><trkpt lat="47.31304424388941" lon="-2.3466470130834813"><ele>33.57142857142857</ele><time>2026-03-22T16:44:28Z</time></trkpt><trkpt lat="47.31298891317951" lon="-2.3467208758163443"><ele>33.714285714285715</ele><time>2026-03-22T16:44:34Z</time></trkpt><trkpt lat="47.31291863194133" lon="-2.3467132396714745"><ele>33.857142857142854</ele><time>2026-03-22T16:44:36Z</time></trkpt><trkpt lat="47.31290411424138" lon="-2.3466096141914052"><ele>34.0</ele><time>2026-03-22T16:44:38Z</time></trkpt><trkpt lat="47.3129107686957" lon="-2.346475624778128"><ele>33.8</ele><time>2026-03-22T16:44:40Z</time></trkpt><trkpt lat="47.31289657615131" lon="-2.34635097463777"><ele>33.599999999999994</ele><time>2026-03-22T16:44:42Z</time></trkpt><trkpt lat="47.3128903551598" lon="-2.346173043425317"><ele>33.4</ele><time>2026-03-22T16:44:44Z</time></trkpt><trkpt lat="47.31288209692281" lon="-2.346053519998065"><ele>33.199999999999996</ele><time>2026-03-22T16:44:45Z</time></trkpt><trkpt lat="47.31287170028002" lon="-2.345894082379347"><ele>33.0</ele><time>2026-03-22T16:44:46Z</time></trkpt><trkpt lat="47.31284412119367" lon="-2.3457197552884335"><ele>32.333333333333336</ele><time>2026-03-22T16:44:47Z</time></trkpt><trkpt lat="47.312826260094134" lon="-2.345519756244612"><ele>31.666666666666668</ele><time>2026-03-22T16:44:48Z</time></trkpt><trkpt lat="47.31280205517684" lon="-2.3452848221279785"><ele>31.0</ele><time>2026-03-22T16:44:49Z</time></trkpt><trkpt lat="47.312773807666545" lon="-2.3450507399823883"><ele>31.0</ele><time>2026-03-22T16:44:50Z</time></trkpt><trkpt lat="47.31275122442185" lon="-2.3448450800656424"><ele>31.0</ele><time>2026-03-22T16:44:51Z</time></trkpt><trkpt lat="47.312734509703176" lon="-2.344658975838667"><ele>31.0</ele><time>2026-03-22T16:44:52Z</time></trkpt><trkpt lat="47.31271981730703" lon="-2.344481116358644"><ele>31.0</ele><time>2026-03-22T16:44:53Z</time></trkpt><trkpt lat="47.31269686232762" lon="-2.344313093361782"><ele>30.6</ele><time>2026-03-22T16:44:54Z</time></trkpt><trkpt lat="47.3126688552775" lon="-2.3441571668730834"><ele>30.200000000000003</ele><time>2026-03-22T16:44:55Z</time></trkpt><trkpt lat="47.31263802437207" lon="-2.3440058041122844"><ele>29.799999999999997</ele><time>2026-03-22T16:44:56Z</time></trkpt><trkpt lat="47.312638610122214" lon="-2.3438705888329525"><ele>29.4</ele><time>2026-03-22T16:44:57Z</time></trkpt><trkpt lat="47.31259853556251" lon="-2.3437451047406923"><ele>29.0</ele><time>2026-03-22T16:44:58Z</time></trkpt><trkpt lat="47.31253691310755" lon="-2.343638157742059"><ele>28.75</ele><time>2026-03-22T16:44:59Z</time></trkpt><trkpt lat="47.31244646128072" lon="-2.343556159009412"><ele>28.5</ele><time>2026-03-22T16:45:00Z</time></trkpt><trkpt lat="47.312361159543286" lon="-2.3434882737975222"><ele>28.25</ele><time>2026-03-22T16:45:01Z</time></trkpt><trkpt lat="47.31223894217859" lon="-2.3434814911289585"><ele>28.0</ele><time>2026-03-22T16:45:02Z</time></trkpt><trkpt lat="47.31210853077738" lon="-2.3434242196602515"><ele>27.5</ele><time>2026-03-22T16:45:03Z</time></trkpt><trkpt lat="47.31200146426769" lon="-2.343324096963237"><ele>27.0</ele><time>2026-03-22T16:45:04Z</time></trkpt><trkpt lat="47.31189551626823" lon="-2.343202598786632"><ele>26.5</ele><time>2026-03-22T16:45:05Z</time></trkpt><trkpt lat="47.31181707806051" lon="-2.3430663680150294"><ele>26.0</ele><time>2026-03-22T16:45:06Z</time></trkpt><trkpt lat="47.311747209305864" lon="-2.34288771567437"><ele>25.666666666666664</ele><time>2026-03-22T16:45:07Z</time></trkpt><trkpt lat="47.311670810561786" lon="-2.342684991713094"><ele>25.333333333333336</ele><time>2026-03-22T16:45:08Z</time></trkpt><trkpt lat="47.31157491724975" lon="-2.342473680362954"><ele>25.0</ele><time>2026-03-22T16:45:09Z</time></trkpt><trkpt lat="47.311462246660696" lon="-2.3422570171849286"><ele>27.0</ele><time>2026-03-22T16:45:10Z</time></trkpt><trkpt lat="47.311344976172" lon="-2.342037290004739"><ele>29.0</ele><time>2026-03-22T16:45:11Z</time></trkpt><trkpt lat="47.31122547084686" lon="-2.341810306323808"><ele>31.0</ele><time>2026-03-22T16:45:12Z</time></trkpt><trkpt lat="47.31110515134494" lon="-2.3415914754023195"><ele>31.0</ele><time>2026-03-22T16:45:13Z</time></trkpt><trkpt lat="47.311003727399246" lon="-2.3413927209024497"><ele>31.0</ele><time>2026-03-22T16:45:14Z</time></trkpt><trkpt lat="47.310907079354656" lon="-2.341216046803776"><ele>31.0</ele><time>2026-03-22T16:45:15Z</time></trkpt><trkpt lat="47.31082178229547" lon="-2.3410467161992927"><ele>31.5</ele><time>2026-03-22T16:45:16Z</time></trkpt><trkpt lat="47.310756087541115" lon="-2.340864954348116"><ele>32.0</ele><time>2026-03-22T16:45:17Z</time></trkpt><trkpt lat="47.31069894075263" lon="-2.3406702621090316"><ele>32.5</ele><time>2026-03-22T16:45:18Z</time></trkpt><trkpt lat="47.310658051297494" lon="-2.340454423710947"><ele>33.0</ele><time>2026-03-22T16:45:19Z</time></trkpt><trkpt lat="47.31063240340823" lon="-2.3402282693127088"><ele>33.0</ele><time>2026-03-22T16:45:20Z</time></trkpt><trkpt lat="47.31062309481882" lon="-2.3400077171704536"><ele>33.0</ele><time>2026-03-22T16:45:21Z</time></trkpt><trkpt lat="47.310622980332674" lon="-2.33979872388165"><ele>33.0</ele><time>2026-03-22T16:45:22Z</time></trkpt><trkpt lat="47.310622705779444" lon="-2.3396080007141715"><ele>33.0</ele><time>2026-03-22T16:45:23Z</time></trkpt><trkpt lat="47.3106167676497" lon="-2.3394327404944915"><ele>33.4</ele><time>2026-03-22T16:45:23.999Z</time></trkpt><trkpt lat="47.31061711901174" lon="-2.3392681868223395"><ele>33.8</ele><time>2026-03-22T16:45:24.999Z</time></trkpt><trkpt lat="47.31062186986744" lon="-2.339116558941029"><ele>34.2</ele><time>2026-03-22T16:45:25.999Z</time></trkpt><trkpt lat="47.31062340509956" lon="-2.338970398847226"><ele>34.6</ele><time>2026-03-22T16:45:26.999Z</time></trkpt><trkpt lat="47.31062303744794" lon="-2.3388426874723263"><ele>35.0</ele><time>2026-03-22T16:45:27.999Z</time></trkpt><trkpt lat="47.31063233296835" lon="-2.3387209926111123"><ele>35.25</ele><time>2026-03-22T16:45:28.999Z</time></trkpt><trkpt lat="47.31062686157028" lon="-2.3385698763523872"><ele>35.5</ele><time>2026-03-22T16:45:29.999Z</time></trkpt><trkpt lat="47.310642691280115" lon="-2.3384028816008726"><ele>35.75</ele><time>2026-03-22T16:45:30.999Z</time></trkpt><trkpt lat="47.31065934785972" lon="-2.3382316284831495"><ele>36.0</ele><time>2026-03-22T16:45:31.999Z</time></trkpt><trkpt lat="47.31069373810815" lon="-2.3380644132489095"><ele>35.5</ele><time>2026-03-22T16:45:32.999Z</time></trkpt><trkpt lat="47.3107502808923" lon="-2.33790174191189"><ele>35.0</ele><time>2026-03-22T16:45:33.999Z</time></trkpt><trkpt lat="47.310819407108205" lon="-2.3377509594601813"><ele>34.5</ele><time>2026-03-22T16:45:34.999Z</time></trkpt><trkpt lat="47.31088290677058" lon="-2.3376299247604004"><ele>34.0</ele><time>2026-03-22T16:45:35.999Z</time></trkpt><trkpt lat="47.31093645584839" lon="-2.337506208337591"><ele>34.0</ele><time>2026-03-22T16:45:36.999Z</time></trkpt><trkpt lat="47.31096559113071" lon="-2.3373525688859442"><ele>34.0</ele><time>2026-03-22T16:45:37.999Z</time></trkpt><trkpt lat="47.31098902622337" lon="-2.33716748289209"><ele>34.0</ele><time>2026-03-22T16:45:38.999Z</time></trkpt><trkpt lat="47.31101183785262" lon="-2.3369703226457217"><ele>34.0</ele><time>2026-03-22T16:45:39.999Z</time></trkpt><trkpt lat="47.311044552672485" lon="-2.336766574921841"><ele>33.75</ele><time>2026-03-22T16:45:40.999Z</time></trkpt><trkpt lat="47.311071385581926" lon="-2.336575157854676"><ele>33.5</ele><time>2026-03-22T16:45:41.999Z</time></trkpt><trkpt lat="47.31109570521106" lon="-2.3363886861316523"><ele>33.25</ele><time>2026-03-22T16:45:42.999Z</time></trkpt><trkpt lat="47.31111575732749" lon="-2.336205459571579"><ele>33.0</ele><time>2026-03-22T16:45:43.999Z</time></trkpt><trkpt lat="47.311126038171246" lon="-2.336057885711904"><ele>33.0</ele><time>2026-03-22T16:45:44.999Z</time></trkpt><trkpt lat="47.31113028463405" lon="-2.3359051377033984"><ele>33.0</ele><time>2026-03-22T16:45:45.999Z</time></trkpt><trkpt lat="47.31112590258157" lon="-2.3357729080254406"><ele>33.0</ele><time>2026-03-22T16:45:46.999Z</time></trkpt><trkpt lat="47.311118259364655" lon="-2.3356519911152223"><ele>33.0</ele><time>2026-03-22T16:45:47.999Z</time></trkpt><trkpt lat="47.31110786165581" lon="-2.3355159093056876"><ele>33.0</ele><time>2026-03-22T16:45:48.999Z</time></trkpt><trkpt lat="47.31109570213656" lon="-2.3353643665117017"><ele>33.0</ele><time>2026-03-22T16:45:49.999Z</time></trkpt><trkpt lat="47.31104661577403" lon="-2.3352004264795667"><ele>33.0</ele><time>2026-03-22T16:45:50.999Z</time></trkpt><trkpt lat="47.311008944883866" lon="-2.33501386769155"><ele>33.0</ele><time>2026-03-22T16:45:51.999Z</time></trkpt><trkpt lat="47.31097977241301" lon="-2.334795120023394"><ele>33.0</ele><time>2026-03-22T16:45:52.999Z</time></trkpt><trkpt lat="47.310947577042256" lon="-2.334543091069463"><ele>32.666666666666664</ele><time>2026-03-22T16:45:53.999Z</time></trkpt><trkpt lat="47.3109592897475" lon="-2.334300213537691"><ele>32.33333333333333</ele><time>2026-03-22T16:45:54.999Z</time></trkpt><trkpt lat="47.310962905366665" lon="-2.33407456480149"><ele>32.0</ele><time>2026-03-22T16:45:55.999Z</time></trkpt><trkpt lat="47.310973858321965" lon="-2.3338612537494092"><ele>31.75</ele><time>2026-03-22T16:45:56.999Z</time></trkpt><trkpt lat="47.31096759865171" lon="-2.333659235272086"><ele>31.5</ele><time>2026-03-22T16:45:57.999Z</time></trkpt><trkpt lat="47.31095765323089" lon="-2.3334741864248927"><ele>31.25</ele><time>2026-03-22T16:45:58.999Z</time></trkpt><trkpt lat="47.31096516686605" lon="-2.3333077116735526"><ele>31.0</ele><time>2026-03-22T16:45:59.999Z</time></trkpt><trkpt lat="47.31098826708391" lon="-2.333158177071137"><ele>30.8</ele><time>2026-03-22T16:46:00.999Z</time></trkpt><trkpt lat="47.31099950785015" lon="-2.3329901682557184"><ele>30.6</ele><time>2026-03-22T16:46:01.999Z</time></trkpt><trkpt lat="47.31100182379924" lon="-2.332827734981393"><ele>30.4</ele><time>2026-03-22T16:46:02.999Z</time></trkpt><trkpt lat="47.31101475843939" lon="-2.33268026505995"><ele>30.2</ele><time>2026-03-22T16:46:03.999Z</time></trkpt><trkpt lat="47.3110262052258" lon="-2.3325497286687735"><ele>30.0</ele><time>2026-03-22T16:46:04.999Z</time></trkpt><trkpt lat="47.311037839025" lon="-2.332434560835351"><ele>30.0</ele><time>2026-03-22T16:46:05.999Z</time></trkpt><trkpt lat="47.31105270367992" lon="-2.3323067592519013"><ele>30.0</ele><time>2026-03-22T16:46:06.999Z</time></trkpt><trkpt lat="47.3110492945805" lon="-2.3321850225178276"><ele>30.0</ele><time>2026-03-22T16:46:07.999Z</time></trkpt><trkpt lat="47.31106366532477" lon="-2.332083950249928"><ele>30.0</ele><time>2026-03-22T16:46:08.999Z</time></trkpt><trkpt lat="47.31115942197933" lon="-2.331983481065787"><ele>30.0</ele><time>2026-03-22T16:46:10.999Z</time></trkpt><trkpt lat="47.31124753759118" lon="-2.3319913654979203"><ele>30.0</ele><time>2026-03-22T16:46:11.999Z</time></trkpt><trkpt lat="47.31135855065282" lon="-2.3319871731889075"><ele>30.25</ele><time>2026-03-22T16:46:12.999Z</time></trkpt><trkpt lat="47.311476252861155" lon="-2.331917694791847"><ele>30.5</ele><time>2026-03-22T16:46:13.999Z</time></trkpt><trkpt lat="47.31159041897039" lon="-2.331821356761834"><ele>30.75</ele><time>2026-03-22T16:46:14.999Z</time></trkpt><trkpt lat="47.31171175552568" lon="-2.331736246913043"><ele>31.0</ele><time>2026-03-22T16:46:15.999Z</time></trkpt><trkpt lat="47.31182297637867" lon="-2.331675351096429"><ele>31.0</ele><time>2026-03-22T16:46:16.999Z</time></trkpt><trkpt lat="47.31194126660824" lon="-2.3315927629418414"><ele>31.0</ele><time>2026-03-22T16:46:17.999Z</time></trkpt><trkpt lat="47.312046752852645" lon="-2.331555449656261"><ele>31.0</ele><time>2026-03-22T16:46:18.999Z</time></trkpt><trkpt lat="47.31217950064362" lon="-2.331494298601418"><ele>31.0</ele><time>2026-03-22T16:46:19.999Z</time></trkpt><trkpt lat="47.312292135550976" lon="-2.3314914498420785"><ele>31.000000000000004</ele><time>2026-03-22T16:46:20.999Z</time></trkpt><trkpt lat="47.312394716824016" lon="-2.3314954540529316"><ele>31.0</ele><time>2026-03-22T16:46:21.999Z</time></trkpt><trkpt lat="47.31248276267435" lon="-2.3315071002980825"><ele>31.0</ele><time>2026-03-22T16:46:22.999Z</time></trkpt><trkpt lat="47.31256360978107" lon="-2.33152622506457"><ele>31.0</ele><time>2026-03-22T16:46:23.999Z</time></trkpt><trkpt lat="47.31263518134636" lon="-2.3315724289324553"><ele>31.000000000000004</ele><time>2026-03-22T16:46:24.999Z</time></trkpt><trkpt lat="47.312699560459706" lon="-2.3316465108114204"><ele>31.0</ele><time>2026-03-22T16:46:25.999Z</time></trkpt><trkpt lat="47.312731143889145" lon="-2.331736999546549"><ele>31.0</ele><time>2026-03-22T16:46:26.999Z</time></trkpt><trkpt lat="47.3127628430333" lon="-2.3318584495394443"><ele>31.0</ele><time>2026-03-22T16:46:27.999Z</time></trkpt><trkpt lat="47.3127598136671" lon="-2.331961817853298"><ele>31.0</ele><time>2026-03-22T16:46:28.999Z</time></trkpt><trkpt lat="47.31272058798825" lon="-2.3321077422270697"><ele>31.0</ele><time>2026-03-22T16:46:29.999Z</time></trkpt><trkpt lat="47.31269009814999" lon="-2.332330598206391"><ele>31.0</ele><time>2026-03-22T16:46:30.999Z</time></trkpt><trkpt lat="47.31265851198798" lon="-2.3325019373099924"><ele>31.000000000000004</ele><time>2026-03-22T16:46:31.999Z</time></trkpt><trkpt lat="47.31263130311858" lon="-2.3326469965237107"><ele>31.0</ele><time>2026-03-22T16:46:32.999Z</time></trkpt><trkpt lat="47.31261154442943" lon="-2.33278366778806"><ele>31.0</ele><time>2026-03-22T16:46:34Z</time></trkpt><trkpt lat="47.31260566653391" lon="-2.3328997863532486"><ele>31.0</ele><time>2026-03-22T16:46:35Z</time></trkpt><trkpt lat="47.31259112923404" lon="-2.3329997072302735"><ele>31.000000000000004</ele><time>2026-03-22T16:46:36Z</time></trkpt><trkpt lat="47.31257523339485" lon="-2.3330928040432832"><ele>31.0</ele><time>2026-03-22T16:46:37Z</time></trkpt><trkpt lat="47.312571868999065" lon="-2.3331912007844147"><ele>31.0</ele><time>2026-03-22T16:46:38Z</time></trkpt><trkpt lat="47.31254122461215" lon="-2.3333686550451582"><ele>31.0</ele><time>2026-03-22T16:46:40Z</time></trkpt><trkpt lat="47.31250410617644" lon="-2.33347266416434"><ele>31.0</ele><time>2026-03-22T16:46:44Z</time></trkpt></trkseg></trk></gpx>